<?xml version="1.0" encoding="UTF-8" standalone="no" ?>
<gpx xmlns="http://www.topografix.com/GPX/1/1" xmlns:xsi="http://www.w3.org/2001/XMLSchema-instance" xsi:schemaLocation="http://www.topografix.com/GPX/1/1 http://www.topografix.com/GPX/1/1/gpx.xsd" version="1.1" creator="VisuGPX - https://www.visugpx.com">
  <metadata>
    <name>GR121 &amp;amp; p'tits ch'mins.</name>
    <desc><![CDATA[Tronçon de la GR121 traversant la forêt de Saint-Amand-les-Eaux.]]></desc>
  </metadata>
  <trk>
    <name><![CDATA[Parcours du 2022-03-24 15:26:51]]></name>
    <extensions>
      <line xmlns="http://www.topografix.com/GPX/gpx_style/0/2">
        <color>0000FF</color>
        <width>4</width>
      </line>
    </extensions>
    <trkseg>
      <trkpt lat="50.44959" lon="3.52643">
        <ele>29.6</ele>
        <time>2022-03-24T14:27:11.000Z</time>
      </trkpt>
      <trkpt lat="50.44952" lon="3.52648">
        <ele>29.8</ele>
        <time>2022-03-24T14:27:12.962Z</time>
      </trkpt>
      <trkpt lat="50.44943" lon="3.52655">
        <ele>30</ele>
        <time>2022-03-24T14:27:15.526Z</time>
      </trkpt>
      <trkpt lat="50.44937" lon="3.52658">
        <ele>30</ele>
        <time>2022-03-24T14:27:17.000Z</time>
      </trkpt>
      <trkpt lat="50.44926" lon="3.52663">
        <ele>30</ele>
        <time>2022-03-24T14:27:20.000Z</time>
      </trkpt>
      <trkpt lat="50.44919" lon="3.52669">
        <ele>30</ele>
        <time>2022-03-24T14:27:22.045Z</time>
      </trkpt>
      <trkpt lat="50.44912" lon="3.52675">
        <ele>30</ele>
        <time>2022-03-24T14:27:24.000Z</time>
      </trkpt>
      <trkpt lat="50.44906" lon="3.5268">
        <ele>30</ele>
        <time>2022-03-24T14:27:25.924Z</time>
      </trkpt>
      <trkpt lat="50.44899" lon="3.52686">
        <ele>30</ele>
        <time>2022-03-24T14:27:28.003Z</time>
      </trkpt>
      <trkpt lat="50.4489" lon="3.52692">
        <ele>30</ele>
        <time>2022-03-24T14:27:30.589Z</time>
      </trkpt>
      <trkpt lat="50.44882" lon="3.52699">
        <ele>29.8</ele>
        <time>2022-03-24T14:27:32.645Z</time>
      </trkpt>
      <trkpt lat="50.44876" lon="3.52701">
        <ele>29.6</ele>
        <time>2022-03-24T14:27:33.847Z</time>
      </trkpt>
      <trkpt lat="50.44872" lon="3.52706">
        <ele>29.6</ele>
        <time>2022-03-24T14:27:35.000Z</time>
      </trkpt>
      <trkpt lat="50.44864" lon="3.52711">
        <ele>29.6</ele>
        <time>2022-03-24T14:27:37.000Z</time>
      </trkpt>
      <trkpt lat="50.44858" lon="3.52715">
        <ele>29.7</ele>
        <time>2022-03-24T14:27:38.000Z</time>
      </trkpt>
      <trkpt lat="50.44853" lon="3.52718">
        <ele>29.8</ele>
        <time>2022-03-24T14:27:39.000Z</time>
      </trkpt>
      <trkpt lat="50.44849" lon="3.52721">
        <ele>30</ele>
        <time>2022-03-24T14:27:40.000Z</time>
      </trkpt>
      <trkpt lat="50.44844" lon="3.52724">
        <ele>30</ele>
        <time>2022-03-24T14:27:41.000Z</time>
      </trkpt>
      <trkpt lat="50.4484" lon="3.52728">
        <ele>30.2</ele>
        <time>2022-03-24T14:27:42.000Z</time>
      </trkpt>
      <trkpt lat="50.44836" lon="3.52731">
        <ele>30.3</ele>
        <time>2022-03-24T14:27:43.000Z</time>
      </trkpt>
      <trkpt lat="50.44832" lon="3.52733">
        <ele>30.4</ele>
        <time>2022-03-24T14:27:44.000Z</time>
      </trkpt>
      <trkpt lat="50.44824" lon="3.52739">
        <ele>30.6</ele>
        <time>2022-03-24T14:27:46.000Z</time>
      </trkpt>
      <trkpt lat="50.44816" lon="3.52745">
        <ele>30.8</ele>
        <time>2022-03-24T14:27:48.395Z</time>
      </trkpt>
      <trkpt lat="50.44811" lon="3.52748">
        <ele>30.9</ele>
        <time>2022-03-24T14:27:49.636Z</time>
      </trkpt>
      <trkpt lat="50.44807" lon="3.5275">
        <ele>31</ele>
        <time>2022-03-24T14:27:50.614Z</time>
      </trkpt>
      <trkpt lat="50.44803" lon="3.52752">
        <ele>31.1</ele>
        <time>2022-03-24T14:27:51.694Z</time>
      </trkpt>
      <trkpt lat="50.44793" lon="3.52758">
        <ele>31.3</ele>
        <time>2022-03-24T14:27:54.153Z</time>
      </trkpt>
      <trkpt lat="50.44786" lon="3.52762">
        <ele>31.4</ele>
        <time>2022-03-24T14:27:55.914Z</time>
      </trkpt>
      <trkpt lat="50.44778" lon="3.52767">
        <ele>31.4</ele>
        <time>2022-03-24T14:27:58.132Z</time>
      </trkpt>
      <trkpt lat="50.44769" lon="3.52772">
        <ele>31.5</ele>
        <time>2022-03-24T14:28:00.173Z</time>
      </trkpt>
      <trkpt lat="50.44763" lon="3.52777">
        <ele>31.5</ele>
        <time>2022-03-24T14:28:01.833Z</time>
      </trkpt>
      <trkpt lat="50.44758" lon="3.5278">
        <ele>31.7</ele>
        <time>2022-03-24T14:28:03.000Z</time>
      </trkpt>
      <trkpt lat="50.4475" lon="3.52784">
        <ele>32</ele>
        <time>2022-03-24T14:28:04.897Z</time>
      </trkpt>
      <trkpt lat="50.44741" lon="3.52789">
        <ele>32.5</ele>
        <time>2022-03-24T14:28:07.174Z</time>
      </trkpt>
      <trkpt lat="50.44735" lon="3.52791">
        <ele>32.8</ele>
        <time>2022-03-24T14:28:08.617Z</time>
      </trkpt>
      <trkpt lat="50.44729" lon="3.52792">
        <ele>33.1</ele>
        <time>2022-03-24T14:28:10.000Z</time>
      </trkpt>
      <trkpt lat="50.44722" lon="3.52794">
        <ele>33.6</ele>
        <time>2022-03-24T14:28:12.000Z</time>
      </trkpt>
      <trkpt lat="50.44715" lon="3.52794">
        <ele>33.7</ele>
        <time>2022-03-24T14:28:14.000Z</time>
      </trkpt>
      <trkpt lat="50.44706" lon="3.52796">
        <ele>33.9</ele>
        <time>2022-03-24T14:28:16.957Z</time>
      </trkpt>
      <trkpt lat="50.44698" lon="3.52799">
        <ele>34</ele>
        <time>2022-03-24T14:28:19.636Z</time>
      </trkpt>
      <trkpt lat="50.44691" lon="3.52801">
        <ele>34.1</ele>
        <time>2022-03-24T14:28:22.000Z</time>
      </trkpt>
      <trkpt lat="50.44684" lon="3.528">
        <ele>34.4</ele>
        <time>2022-03-24T14:28:24.000Z</time>
      </trkpt>
      <trkpt lat="50.44675" lon="3.52801">
        <ele>34.7</ele>
        <time>2022-03-24T14:28:27.000Z</time>
      </trkpt>
      <trkpt lat="50.44669" lon="3.52801">
        <ele>34.9</ele>
        <time>2022-03-24T14:28:29.000Z</time>
      </trkpt>
      <trkpt lat="50.44663" lon="3.52801">
        <ele>35</ele>
        <time>2022-03-24T14:28:31.000Z</time>
      </trkpt>
      <trkpt lat="50.44656" lon="3.52801">
        <ele>35.1</ele>
        <time>2022-03-24T14:28:33.000Z</time>
      </trkpt>
      <trkpt lat="50.4465" lon="3.528">
        <ele>35.1</ele>
        <time>2022-03-24T14:28:35.000Z</time>
      </trkpt>
      <trkpt lat="50.44644" lon="3.528">
        <ele>35.2</ele>
        <time>2022-03-24T14:28:37.000Z</time>
      </trkpt>
      <trkpt lat="50.44638" lon="3.52801">
        <ele>35.2</ele>
        <time>2022-03-24T14:28:39.000Z</time>
      </trkpt>
      <trkpt lat="50.44633" lon="3.52801">
        <ele>35.3</ele>
        <time>2022-03-24T14:28:41.000Z</time>
      </trkpt>
      <trkpt lat="50.44627" lon="3.528">
        <ele>35.5</ele>
        <time>2022-03-24T14:28:43.000Z</time>
      </trkpt>
      <trkpt lat="50.44621" lon="3.52799">
        <ele>35.7</ele>
        <time>2022-03-24T14:28:45.000Z</time>
      </trkpt>
      <trkpt lat="50.44616" lon="3.528">
        <ele>35.9</ele>
        <time>2022-03-24T14:28:47.000Z</time>
      </trkpt>
      <trkpt lat="50.44611" lon="3.52798">
        <ele>36</ele>
        <time>2022-03-24T14:28:49.000Z</time>
      </trkpt>
      <trkpt lat="50.44605" lon="3.52798">
        <ele>36.2</ele>
        <time>2022-03-24T14:28:51.000Z</time>
      </trkpt>
      <trkpt lat="50.446" lon="3.52798">
        <ele>36.4</ele>
        <time>2022-03-24T14:28:53.000Z</time>
      </trkpt>
      <trkpt lat="50.44595" lon="3.52798">
        <ele>36.6</ele>
        <time>2022-03-24T14:28:55.000Z</time>
      </trkpt>
      <trkpt lat="50.4459" lon="3.52795">
        <ele>36.8</ele>
        <time>2022-03-24T14:28:57.000Z</time>
      </trkpt>
      <trkpt lat="50.44586" lon="3.5279">
        <ele>36.9</ele>
        <time>2022-03-24T14:28:58.973Z</time>
      </trkpt>
      <trkpt lat="50.44583" lon="3.52783">
        <ele>37</ele>
        <time>2022-03-24T14:29:01.000Z</time>
      </trkpt>
      <trkpt lat="50.44581" lon="3.52776">
        <ele>37</ele>
        <time>2022-03-24T14:29:03.211Z</time>
      </trkpt>
      <trkpt lat="50.44576" lon="3.52769">
        <ele>37</ele>
        <time>2022-03-24T14:29:06.000Z</time>
      </trkpt>
      <trkpt lat="50.44571" lon="3.52761">
        <ele>37</ele>
        <time>2022-03-24T14:29:08.954Z</time>
      </trkpt>
      <trkpt lat="50.44568" lon="3.52756">
        <ele>37</ele>
        <time>2022-03-24T14:29:11.000Z</time>
      </trkpt>
      <trkpt lat="50.44563" lon="3.52751">
        <ele>37</ele>
        <time>2022-03-24T14:29:14.134Z</time>
      </trkpt>
      <trkpt lat="50.44558" lon="3.52745">
        <ele>37</ele>
        <time>2022-03-24T14:29:16.794Z</time>
      </trkpt>
      <trkpt lat="50.44553" lon="3.5274">
        <ele>37</ele>
        <time>2022-03-24T14:29:19.000Z</time>
      </trkpt>
      <trkpt lat="50.44549" lon="3.52734">
        <ele>37</ele>
        <time>2022-03-24T14:29:21.236Z</time>
      </trkpt>
      <trkpt lat="50.44545" lon="3.52728">
        <ele>37</ele>
        <time>2022-03-24T14:29:23.517Z</time>
      </trkpt>
      <trkpt lat="50.4454" lon="3.52722">
        <ele>37</ele>
        <time>2022-03-24T14:29:26.092Z</time>
      </trkpt>
      <trkpt lat="50.44535" lon="3.52716">
        <ele>36.9</ele>
        <time>2022-03-24T14:29:28.000Z</time>
      </trkpt>
      <trkpt lat="50.44531" lon="3.5271">
        <ele>36.9</ele>
        <time>2022-03-24T14:29:30.000Z</time>
      </trkpt>
      <trkpt lat="50.44526" lon="3.52705">
        <ele>37</ele>
        <time>2022-03-24T14:29:31.993Z</time>
      </trkpt>
      <trkpt lat="50.44521" lon="3.52699">
        <ele>37</ele>
        <time>2022-03-24T14:29:34.000Z</time>
      </trkpt>
      <trkpt lat="50.44517" lon="3.52693">
        <ele>37</ele>
        <time>2022-03-24T14:29:36.000Z</time>
      </trkpt>
      <trkpt lat="50.44513" lon="3.52687">
        <ele>37.1</ele>
        <time>2022-03-24T14:29:38.076Z</time>
      </trkpt>
      <trkpt lat="50.44507" lon="3.52682">
        <ele>37.3</ele>
        <time>2022-03-24T14:29:40.356Z</time>
      </trkpt>
      <trkpt lat="50.44503" lon="3.5268">
        <ele>37.5</ele>
        <time>2022-03-24T14:29:43.000Z</time>
      </trkpt>
      <trkpt lat="50.44498" lon="3.52672">
        <ele>37.8</ele>
        <time>2022-03-24T14:30:04.160Z</time>
      </trkpt>
      <trkpt lat="50.44493" lon="3.52665">
        <ele>38</ele>
        <time>2022-03-24T14:30:06.997Z</time>
      </trkpt>
      <trkpt lat="50.44487" lon="3.52658">
        <ele>38</ele>
        <time>2022-03-24T14:30:09.656Z</time>
      </trkpt>
      <trkpt lat="50.44481" lon="3.52651">
        <ele>38</ele>
        <time>2022-03-24T14:30:11.994Z</time>
      </trkpt>
      <trkpt lat="50.44476" lon="3.52644">
        <ele>38</ele>
        <time>2022-03-24T14:30:14.015Z</time>
      </trkpt>
      <trkpt lat="50.44468" lon="3.52635">
        <ele>38</ele>
        <time>2022-03-24T14:30:16.253Z</time>
      </trkpt>
      <trkpt lat="50.44465" lon="3.5263">
        <ele>38</ele>
        <time>2022-03-24T14:30:17.617Z</time>
      </trkpt>
      <trkpt lat="50.44459" lon="3.52623">
        <ele>38</ele>
        <time>2022-03-24T14:30:19.734Z</time>
      </trkpt>
      <trkpt lat="50.44452" lon="3.52615">
        <ele>38</ele>
        <time>2022-03-24T14:30:22.697Z</time>
      </trkpt>
      <trkpt lat="50.44447" lon="3.52608">
        <ele>37.9</ele>
        <time>2022-03-24T14:30:25.014Z</time>
      </trkpt>
      <trkpt lat="50.44443" lon="3.52604">
        <ele>37.7</ele>
        <time>2022-03-24T14:30:27.035Z</time>
      </trkpt>
      <trkpt lat="50.44438" lon="3.52597">
        <ele>37.5</ele>
        <time>2022-03-24T14:30:29.096Z</time>
      </trkpt>
      <trkpt lat="50.44433" lon="3.52591">
        <ele>37.3</ele>
        <time>2022-03-24T14:30:31.000Z</time>
      </trkpt>
      <trkpt lat="50.44428" lon="3.52584">
        <ele>37</ele>
        <time>2022-03-24T14:30:33.250Z</time>
      </trkpt>
      <trkpt lat="50.44421" lon="3.52576">
        <ele>36.7</ele>
        <time>2022-03-24T14:30:34.875Z</time>
      </trkpt>
      <trkpt lat="50.44417" lon="3.5257">
        <ele>36.5</ele>
        <time>2022-03-24T14:30:36.177Z</time>
      </trkpt>
      <trkpt lat="50.44412" lon="3.52563">
        <ele>36.3</ele>
        <time>2022-03-24T14:30:37.314Z</time>
      </trkpt>
      <trkpt lat="50.44407" lon="3.52557">
        <ele>36.1</ele>
        <time>2022-03-24T14:30:38.735Z</time>
      </trkpt>
      <trkpt lat="50.44401" lon="3.5255">
        <ele>35.8</ele>
        <time>2022-03-24T14:30:39.955Z</time>
      </trkpt>
      <trkpt lat="50.44396" lon="3.52543">
        <ele>35.5</ele>
        <time>2022-03-24T14:30:41.121Z</time>
      </trkpt>
      <trkpt lat="50.44383" lon="3.52528">
        <ele>35.2</ele>
        <time>2022-03-24T14:30:43.000Z</time>
      </trkpt>
      <trkpt lat="50.44379" lon="3.52522">
        <ele>35.1</ele>
        <time>2022-03-24T14:30:44.000Z</time>
      </trkpt>
      <trkpt lat="50.44374" lon="3.52516">
        <ele>35.1</ele>
        <time>2022-03-24T14:30:45.000Z</time>
      </trkpt>
      <trkpt lat="50.44369" lon="3.5251">
        <ele>35.1</ele>
        <time>2022-03-24T14:30:46.000Z</time>
      </trkpt>
      <trkpt lat="50.44364" lon="3.52505">
        <ele>35.1</ele>
        <time>2022-03-24T14:30:47.000Z</time>
      </trkpt>
      <trkpt lat="50.44359" lon="3.525">
        <ele>35</ele>
        <time>2022-03-24T14:30:48.000Z</time>
      </trkpt>
      <trkpt lat="50.44355" lon="3.52494">
        <ele>34.8</ele>
        <time>2022-03-24T14:30:49.000Z</time>
      </trkpt>
      <trkpt lat="50.44351" lon="3.52489">
        <ele>34.7</ele>
        <time>2022-03-24T14:30:50.000Z</time>
      </trkpt>
      <trkpt lat="50.44347" lon="3.52483">
        <ele>34.7</ele>
        <time>2022-03-24T14:30:51.000Z</time>
      </trkpt>
      <trkpt lat="50.44343" lon="3.52477">
        <ele>34.7</ele>
        <time>2022-03-24T14:30:52.000Z</time>
      </trkpt>
      <trkpt lat="50.44338" lon="3.52471">
        <ele>34.8</ele>
        <time>2022-03-24T14:30:53.000Z</time>
      </trkpt>
      <trkpt lat="50.44334" lon="3.52465">
        <ele>34.7</ele>
        <time>2022-03-24T14:30:54.000Z</time>
      </trkpt>
      <trkpt lat="50.4433" lon="3.5246">
        <ele>34.7</ele>
        <time>2022-03-24T14:30:55.000Z</time>
      </trkpt>
      <trkpt lat="50.44325" lon="3.52454">
        <ele>34.6</ele>
        <time>2022-03-24T14:30:56.000Z</time>
      </trkpt>
      <trkpt lat="50.44321" lon="3.52449">
        <ele>34.6</ele>
        <time>2022-03-24T14:30:57.000Z</time>
      </trkpt>
      <trkpt lat="50.44317" lon="3.52444">
        <ele>34.6</ele>
        <time>2022-03-24T14:30:58.000Z</time>
      </trkpt>
      <trkpt lat="50.44312" lon="3.52439">
        <ele>34.6</ele>
        <time>2022-03-24T14:30:59.000Z</time>
      </trkpt>
      <trkpt lat="50.44308" lon="3.52434">
        <ele>34.5</ele>
        <time>2022-03-24T14:31:00.000Z</time>
      </trkpt>
      <trkpt lat="50.44304" lon="3.52429">
        <ele>34.5</ele>
        <time>2022-03-24T14:31:01.000Z</time>
      </trkpt>
      <trkpt lat="50.44299" lon="3.52424">
        <ele>34.7</ele>
        <time>2022-03-24T14:31:02.000Z</time>
      </trkpt>
      <trkpt lat="50.44295" lon="3.5242">
        <ele>34.8</ele>
        <time>2022-03-24T14:31:03.000Z</time>
      </trkpt>
      <trkpt lat="50.44288" lon="3.52412">
        <ele>35.3</ele>
        <time>2022-03-24T14:31:05.000Z</time>
      </trkpt>
      <trkpt lat="50.44281" lon="3.52403">
        <ele>35.8</ele>
        <time>2022-03-24T14:31:07.000Z</time>
      </trkpt>
      <trkpt lat="50.44277" lon="3.52399">
        <ele>36</ele>
        <time>2022-03-24T14:31:08.000Z</time>
      </trkpt>
      <trkpt lat="50.44274" lon="3.52395">
        <ele>36.1</ele>
        <time>2022-03-24T14:31:09.000Z</time>
      </trkpt>
      <trkpt lat="50.44269" lon="3.52391">
        <ele>36.3</ele>
        <time>2022-03-24T14:31:10.000Z</time>
      </trkpt>
      <trkpt lat="50.44265" lon="3.52386">
        <ele>36.4</ele>
        <time>2022-03-24T14:31:11.000Z</time>
      </trkpt>
      <trkpt lat="50.44261" lon="3.52382">
        <ele>36.5</ele>
        <time>2022-03-24T14:31:12.000Z</time>
      </trkpt>
      <trkpt lat="50.44258" lon="3.52377">
        <ele>36.6</ele>
        <time>2022-03-24T14:31:13.000Z</time>
      </trkpt>
      <trkpt lat="50.44254" lon="3.52372">
        <ele>36.8</ele>
        <time>2022-03-24T14:31:14.000Z</time>
      </trkpt>
      <trkpt lat="50.44249" lon="3.52363">
        <ele>37</ele>
        <time>2022-03-24T14:31:16.000Z</time>
      </trkpt>
      <trkpt lat="50.44245" lon="3.52358">
        <ele>37.1</ele>
        <time>2022-03-24T14:31:17.000Z</time>
      </trkpt>
      <trkpt lat="50.44236" lon="3.52348">
        <ele>37.3</ele>
        <time>2022-03-24T14:31:19.000Z</time>
      </trkpt>
      <trkpt lat="50.4423" lon="3.52339">
        <ele>37.5</ele>
        <time>2022-03-24T14:31:22.108Z</time>
      </trkpt>
      <trkpt lat="50.44225" lon="3.52333">
        <ele>37.8</ele>
        <time>2022-03-24T14:31:23.533Z</time>
      </trkpt>
      <trkpt lat="50.44219" lon="3.52322">
        <ele>37.6</ele>
        <time>2022-03-24T14:31:25.746Z</time>
      </trkpt>
      <trkpt lat="50.44212" lon="3.52311">
        <ele>37.5</ele>
        <time>2022-03-24T14:31:28.146Z</time>
      </trkpt>
      <trkpt lat="50.44206" lon="3.52302">
        <ele>37.6</ele>
        <time>2022-03-24T14:31:30.087Z</time>
      </trkpt>
      <trkpt lat="50.44202" lon="3.52296">
        <ele>37.7</ele>
        <time>2022-03-24T14:31:31.388Z</time>
      </trkpt>
      <trkpt lat="50.44198" lon="3.52288">
        <ele>37.9</ele>
        <time>2022-03-24T14:31:33.000Z</time>
      </trkpt>
      <trkpt lat="50.44193" lon="3.52283">
        <ele>38.1</ele>
        <time>2022-03-24T14:31:34.427Z</time>
      </trkpt>
      <trkpt lat="50.4419" lon="3.52277">
        <ele>38.2</ele>
        <time>2022-03-24T14:31:35.824Z</time>
      </trkpt>
      <trkpt lat="50.44185" lon="3.5227">
        <ele>38.3</ele>
        <time>2022-03-24T14:31:38.003Z</time>
      </trkpt>
      <trkpt lat="50.4418" lon="3.52263">
        <ele>38.5</ele>
        <time>2022-03-24T14:31:40.000Z</time>
      </trkpt>
      <trkpt lat="50.44177" lon="3.52257">
        <ele>38.6</ele>
        <time>2022-03-24T14:31:42.000Z</time>
      </trkpt>
      <trkpt lat="50.44171" lon="3.52248">
        <ele>38.8</ele>
        <time>2022-03-24T14:31:44.527Z</time>
      </trkpt>
      <trkpt lat="50.44167" lon="3.52243">
        <ele>38.7</ele>
        <time>2022-03-24T14:31:46.000Z</time>
      </trkpt>
      <trkpt lat="50.44164" lon="3.52235">
        <ele>38.5</ele>
        <time>2022-03-24T14:31:48.168Z</time>
      </trkpt>
      <trkpt lat="50.44161" lon="3.52229">
        <ele>38.4</ele>
        <time>2022-03-24T14:31:50.087Z</time>
      </trkpt>
      <trkpt lat="50.44157" lon="3.52221">
        <ele>38.3</ele>
        <time>2022-03-24T14:31:53.062Z</time>
      </trkpt>
      <trkpt lat="50.44152" lon="3.52213">
        <ele>38.5</ele>
        <time>2022-03-24T14:31:56.284Z</time>
      </trkpt>
      <trkpt lat="50.44147" lon="3.52207">
        <ele>38.7</ele>
        <time>2022-03-24T14:31:59.405Z</time>
      </trkpt>
      <trkpt lat="50.44143" lon="3.52202">
        <ele>38.9</ele>
        <time>2022-03-24T14:32:02.323Z</time>
      </trkpt>
      <trkpt lat="50.44139" lon="3.52192">
        <ele>39</ele>
        <time>2022-03-24T14:32:05.267Z</time>
      </trkpt>
      <trkpt lat="50.44134" lon="3.52183">
        <ele>39.2</ele>
        <time>2022-03-24T14:32:08.426Z</time>
      </trkpt>
      <trkpt lat="50.44129" lon="3.52177">
        <ele>39.4</ele>
        <time>2022-03-24T14:32:11.643Z</time>
      </trkpt>
      <trkpt lat="50.44125" lon="3.5217">
        <ele>39.5</ele>
        <time>2022-03-24T14:32:14.584Z</time>
      </trkpt>
      <trkpt lat="50.4412" lon="3.5216">
        <ele>39.7</ele>
        <time>2022-03-24T14:32:17.845Z</time>
      </trkpt>
      <trkpt lat="50.44116" lon="3.52151">
        <ele>39.8</ele>
        <time>2022-03-24T14:32:20.828Z</time>
      </trkpt>
      <trkpt lat="50.4411" lon="3.5214">
        <ele>40</ele>
        <time>2022-03-24T14:32:23.986Z</time>
      </trkpt>
      <trkpt lat="50.44105" lon="3.52127">
        <ele>40</ele>
        <time>2022-03-24T14:32:27.107Z</time>
      </trkpt>
      <trkpt lat="50.44098" lon="3.52111">
        <ele>40</ele>
        <time>2022-03-24T14:32:30.125Z</time>
      </trkpt>
      <trkpt lat="50.44094" lon="3.52092">
        <ele>39.5</ele>
        <time>2022-03-24T14:32:33.248Z</time>
      </trkpt>
      <trkpt lat="50.4409" lon="3.52073">
        <ele>39.1</ele>
        <time>2022-03-24T14:32:36.506Z</time>
      </trkpt>
      <trkpt lat="50.44085" lon="3.52059">
        <ele>39</ele>
        <time>2022-03-24T14:32:39.344Z</time>
      </trkpt>
      <trkpt lat="50.44079" lon="3.52046">
        <ele>38.5</ele>
        <time>2022-03-24T14:32:42.265Z</time>
      </trkpt>
      <trkpt lat="50.44076" lon="3.5203">
        <ele>37.7</ele>
        <time>2022-03-24T14:32:45.226Z</time>
      </trkpt>
      <trkpt lat="50.44073" lon="3.52012">
        <ele>37.2</ele>
        <time>2022-03-24T14:32:48.284Z</time>
      </trkpt>
      <trkpt lat="50.44068" lon="3.5199">
        <ele>36.7</ele>
        <time>2022-03-24T14:32:51.884Z</time>
      </trkpt>
      <trkpt lat="50.4406" lon="3.5197">
        <ele>36.6</ele>
        <time>2022-03-24T14:32:55.000Z</time>
      </trkpt>
      <trkpt lat="50.44051" lon="3.51939">
        <ele>36</ele>
        <time>2022-03-24T14:32:58.000Z</time>
      </trkpt>
      <trkpt lat="50.44043" lon="3.51912">
        <ele>35.5</ele>
        <time>2022-03-24T14:33:01.000Z</time>
      </trkpt>
      <trkpt lat="50.44038" lon="3.51882">
        <ele>35.4</ele>
        <time>2022-03-24T14:33:04.000Z</time>
      </trkpt>
      <trkpt lat="50.44036" lon="3.51853">
        <ele>34.7</ele>
        <time>2022-03-24T14:33:07.000Z</time>
      </trkpt>
      <trkpt lat="50.44032" lon="3.51827">
        <ele>34.6</ele>
        <time>2022-03-24T14:33:10.000Z</time>
      </trkpt>
      <trkpt lat="50.44029" lon="3.51803">
        <ele>34</ele>
        <time>2022-03-24T14:33:13.000Z</time>
      </trkpt>
      <trkpt lat="50.44023" lon="3.51779">
        <ele>34</ele>
        <time>2022-03-24T14:33:16.000Z</time>
      </trkpt>
      <trkpt lat="50.44016" lon="3.51758">
        <ele>33.6</ele>
        <time>2022-03-24T14:33:19.000Z</time>
      </trkpt>
      <trkpt lat="50.44008" lon="3.51736">
        <ele>33.2</ele>
        <time>2022-03-24T14:33:22.000Z</time>
      </trkpt>
      <trkpt lat="50.44002" lon="3.51711">
        <ele>32.9</ele>
        <time>2022-03-24T14:33:25.000Z</time>
      </trkpt>
      <trkpt lat="50.43995" lon="3.51686">
        <ele>32.9</ele>
        <time>2022-03-24T14:33:28.000Z</time>
      </trkpt>
      <trkpt lat="50.43991" lon="3.51659">
        <ele>32.3</ele>
        <time>2022-03-24T14:33:31.000Z</time>
      </trkpt>
      <trkpt lat="50.43987" lon="3.51634">
        <ele>32.5</ele>
        <time>2022-03-24T14:33:34.000Z</time>
      </trkpt>
      <trkpt lat="50.43987" lon="3.5161">
        <ele>32.5</ele>
        <time>2022-03-24T14:33:37.000Z</time>
      </trkpt>
      <trkpt lat="50.43985" lon="3.51584">
        <ele>32.5</ele>
        <time>2022-03-24T14:33:40.000Z</time>
      </trkpt>
      <trkpt lat="50.43978" lon="3.51552">
        <ele>32.7</ele>
        <time>2022-03-24T14:33:43.000Z</time>
      </trkpt>
      <trkpt lat="50.43972" lon="3.51514">
        <ele>32</ele>
        <time>2022-03-24T14:33:46.000Z</time>
      </trkpt>
      <trkpt lat="50.43961" lon="3.51484">
        <ele>32.4</ele>
        <time>2022-03-24T14:33:49.000Z</time>
      </trkpt>
      <trkpt lat="50.4395" lon="3.51463">
        <ele>32.8</ele>
        <time>2022-03-24T14:33:52.000Z</time>
      </trkpt>
      <trkpt lat="50.43938" lon="3.51447">
        <ele>33</ele>
        <time>2022-03-24T14:33:55.000Z</time>
      </trkpt>
      <trkpt lat="50.4393" lon="3.51428">
        <ele>32.7</ele>
        <time>2022-03-24T14:33:58.000Z</time>
      </trkpt>
      <trkpt lat="50.43929" lon="3.51417">
        <ele>32.6</ele>
        <time>2022-03-24T14:34:01.000Z</time>
      </trkpt>
      <trkpt lat="50.43924" lon="3.51406">
        <ele>32.7</ele>
        <time>2022-03-24T14:34:04.000Z</time>
      </trkpt>
      <trkpt lat="50.4392" lon="3.51397">
        <ele>32.9</ele>
        <time>2022-03-24T14:34:07.000Z</time>
      </trkpt>
      <trkpt lat="50.43918" lon="3.51386">
        <ele>32.9</ele>
        <time>2022-03-24T14:34:09.835Z</time>
      </trkpt>
      <trkpt lat="50.4391" lon="3.51368">
        <ele>32.2</ele>
        <time>2022-03-24T14:34:13.000Z</time>
      </trkpt>
      <trkpt lat="50.43906" lon="3.51348">
        <ele>32</ele>
        <time>2022-03-24T14:34:16.000Z</time>
      </trkpt>
      <trkpt lat="50.43905" lon="3.51329">
        <ele>31.8</ele>
        <time>2022-03-24T14:34:18.856Z</time>
      </trkpt>
      <trkpt lat="50.43898" lon="3.51313">
        <ele>31.3</ele>
        <time>2022-03-24T14:34:22.000Z</time>
      </trkpt>
      <trkpt lat="50.43892" lon="3.51299">
        <ele>31</ele>
        <time>2022-03-24T14:34:24.935Z</time>
      </trkpt>
      <trkpt lat="50.43879" lon="3.51268">
        <ele>30.6</ele>
        <time>2022-03-24T14:34:28.000Z</time>
      </trkpt>
      <trkpt lat="50.43867" lon="3.5123">
        <ele>30</ele>
        <time>2022-03-24T14:34:31.000Z</time>
      </trkpt>
      <trkpt lat="50.43857" lon="3.51186">
        <ele>29.1</ele>
        <time>2022-03-24T14:34:34.000Z</time>
      </trkpt>
      <trkpt lat="50.43845" lon="3.51145">
        <ele>28.7</ele>
        <time>2022-03-24T14:34:37.000Z</time>
      </trkpt>
      <trkpt lat="50.43832" lon="3.51111">
        <ele>28</ele>
        <time>2022-03-24T14:34:40.000Z</time>
      </trkpt>
      <trkpt lat="50.43824" lon="3.51074">
        <ele>27.8</ele>
        <time>2022-03-24T14:34:43.000Z</time>
      </trkpt>
      <trkpt lat="50.43817" lon="3.5104">
        <ele>27</ele>
        <time>2022-03-24T14:34:46.000Z</time>
      </trkpt>
      <trkpt lat="50.43816" lon="3.51011">
        <ele>26</ele>
        <time>2022-03-24T14:34:49.000Z</time>
      </trkpt>
      <trkpt lat="50.43812" lon="3.50983">
        <ele>25.8</ele>
        <time>2022-03-24T14:34:52.000Z</time>
      </trkpt>
      <trkpt lat="50.438" lon="3.50957">
        <ele>25.7</ele>
        <time>2022-03-24T14:34:55.000Z</time>
      </trkpt>
      <trkpt lat="50.4379" lon="3.50932">
        <ele>25.3</ele>
        <time>2022-03-24T14:34:58.000Z</time>
      </trkpt>
      <trkpt lat="50.4378" lon="3.50906">
        <ele>25</ele>
        <time>2022-03-24T14:35:01.000Z</time>
      </trkpt>
      <trkpt lat="50.4377" lon="3.50882">
        <ele>25</ele>
        <time>2022-03-24T14:35:04.000Z</time>
      </trkpt>
      <trkpt lat="50.43762" lon="3.50858">
        <ele>24.9</ele>
        <time>2022-03-24T14:35:07.000Z</time>
      </trkpt>
      <trkpt lat="50.43754" lon="3.50834">
        <ele>24</ele>
        <time>2022-03-24T14:35:10.000Z</time>
      </trkpt>
      <trkpt lat="50.43748" lon="3.5081">
        <ele>24</ele>
        <time>2022-03-24T14:35:13.000Z</time>
      </trkpt>
      <trkpt lat="50.4374" lon="3.5079">
        <ele>23.8</ele>
        <time>2022-03-24T14:35:16.000Z</time>
      </trkpt>
      <trkpt lat="50.43731" lon="3.5077">
        <ele>23.2</ele>
        <time>2022-03-24T14:35:19.000Z</time>
      </trkpt>
      <trkpt lat="50.43722" lon="3.50747">
        <ele>23</ele>
        <time>2022-03-24T14:35:22.000Z</time>
      </trkpt>
      <trkpt lat="50.43713" lon="3.50726">
        <ele>23</ele>
        <time>2022-03-24T14:35:25.000Z</time>
      </trkpt>
      <trkpt lat="50.43703" lon="3.50703">
        <ele>23</ele>
        <time>2022-03-24T14:35:28.000Z</time>
      </trkpt>
      <trkpt lat="50.43692" lon="3.50684">
        <ele>23</ele>
        <time>2022-03-24T14:35:31.000Z</time>
      </trkpt>
      <trkpt lat="50.43678" lon="3.50677">
        <ele>23</ele>
        <time>2022-03-24T14:35:34.000Z</time>
      </trkpt>
      <trkpt lat="50.43672" lon="3.50676">
        <ele>23</ele>
        <time>2022-03-24T14:35:37.000Z</time>
      </trkpt>
      <trkpt lat="50.43659" lon="3.50671">
        <ele>23</ele>
        <time>2022-03-24T14:35:40.000Z</time>
      </trkpt>
      <trkpt lat="50.43648" lon="3.50668">
        <ele>23</ele>
        <time>2022-03-24T14:35:43.000Z</time>
      </trkpt>
      <trkpt lat="50.43639" lon="3.50655">
        <ele>23</ele>
        <time>2022-03-24T14:35:46.000Z</time>
      </trkpt>
      <trkpt lat="50.43629" lon="3.5064">
        <ele>23</ele>
        <time>2022-03-24T14:35:49.000Z</time>
      </trkpt>
      <trkpt lat="50.4363" lon="3.50629">
        <ele>23</ele>
        <time>2022-03-24T14:35:52.000Z</time>
      </trkpt>
      <trkpt lat="50.43641" lon="3.50631">
        <ele>23</ele>
        <time>2022-03-24T14:36:04.000Z</time>
      </trkpt>
      <trkpt lat="50.43652" lon="3.50625">
        <ele>23</ele>
        <time>2022-03-24T14:36:07.000Z</time>
      </trkpt>
      <trkpt lat="50.43671" lon="3.50618">
        <ele>23</ele>
        <time>2022-03-24T14:36:10.000Z</time>
      </trkpt>
      <trkpt lat="50.43677" lon="3.50616">
        <ele>23</ele>
        <time>2022-03-24T14:36:13.059Z</time>
      </trkpt>
      <trkpt lat="50.4368" lon="3.50609">
        <ele>23</ele>
        <time>2022-03-24T14:36:15.957Z</time>
      </trkpt>
      <trkpt lat="50.43706" lon="3.50592">
        <ele>23.8</ele>
        <time>2022-03-24T14:36:19.000Z</time>
      </trkpt>
      <trkpt lat="50.43716" lon="3.50575">
        <ele>24</ele>
        <time>2022-03-24T14:36:22.000Z</time>
      </trkpt>
      <trkpt lat="50.43725" lon="3.5056">
        <ele>24</ele>
        <time>2022-03-24T14:36:25.000Z</time>
      </trkpt>
      <trkpt lat="50.43734" lon="3.50543">
        <ele>24</ele>
        <time>2022-03-24T14:36:28.000Z</time>
      </trkpt>
      <trkpt lat="50.43744" lon="3.50527">
        <ele>24</ele>
        <time>2022-03-24T14:36:31.000Z</time>
      </trkpt>
      <trkpt lat="50.43755" lon="3.50509">
        <ele>23.9</ele>
        <time>2022-03-24T14:36:34.000Z</time>
      </trkpt>
      <trkpt lat="50.43765" lon="3.50491">
        <ele>23.5</ele>
        <time>2022-03-24T14:36:37.000Z</time>
      </trkpt>
      <trkpt lat="50.43774" lon="3.50475">
        <ele>23.1</ele>
        <time>2022-03-24T14:36:40.000Z</time>
      </trkpt>
      <trkpt lat="50.43782" lon="3.50457">
        <ele>23</ele>
        <time>2022-03-24T14:36:43.000Z</time>
      </trkpt>
      <trkpt lat="50.4379" lon="3.50443">
        <ele>23</ele>
        <time>2022-03-24T14:36:46.000Z</time>
      </trkpt>
      <trkpt lat="50.43795" lon="3.50431">
        <ele>23</ele>
        <time>2022-03-24T14:36:49.000Z</time>
      </trkpt>
      <trkpt lat="50.43798" lon="3.50424">
        <ele>23</ele>
        <time>2022-03-24T14:36:52.000Z</time>
      </trkpt>
      <trkpt lat="50.43795" lon="3.50412">
        <ele>23</ele>
        <time>2022-03-24T14:36:58.000Z</time>
      </trkpt>
      <trkpt lat="50.43793" lon="3.50404">
        <ele>23</ele>
        <time>2022-03-24T14:37:01.000Z</time>
      </trkpt>
      <trkpt lat="50.4379" lon="3.50397">
        <ele>23</ele>
        <time>2022-03-24T14:37:03.000Z</time>
      </trkpt>
      <trkpt lat="50.43789" lon="3.50387">
        <ele>23</ele>
        <time>2022-03-24T14:37:06.000Z</time>
      </trkpt>
      <trkpt lat="50.43788" lon="3.5038">
        <ele>23</ele>
        <time>2022-03-24T14:37:08.624Z</time>
      </trkpt>
      <trkpt lat="50.43785" lon="3.50372">
        <ele>23</ele>
        <time>2022-03-24T14:37:11.000Z</time>
      </trkpt>
      <trkpt lat="50.43783" lon="3.50365">
        <ele>23</ele>
        <time>2022-03-24T14:37:12.943Z</time>
      </trkpt>
      <trkpt lat="50.43781" lon="3.50357">
        <ele>23</ele>
        <time>2022-03-24T14:37:15.000Z</time>
      </trkpt>
      <trkpt lat="50.43779" lon="3.50349">
        <ele>23</ele>
        <time>2022-03-24T14:37:17.000Z</time>
      </trkpt>
      <trkpt lat="50.43778" lon="3.5034">
        <ele>23</ele>
        <time>2022-03-24T14:37:19.000Z</time>
      </trkpt>
      <trkpt lat="50.43777" lon="3.50332">
        <ele>23</ele>
        <time>2022-03-24T14:37:21.000Z</time>
      </trkpt>
      <trkpt lat="50.43775" lon="3.50321">
        <ele>23</ele>
        <time>2022-03-24T14:37:23.622Z</time>
      </trkpt>
      <trkpt lat="50.43772" lon="3.5031">
        <ele>23</ele>
        <time>2022-03-24T14:37:26.000Z</time>
      </trkpt>
      <trkpt lat="50.43769" lon="3.503">
        <ele>23</ele>
        <time>2022-03-24T14:37:28.002Z</time>
      </trkpt>
      <trkpt lat="50.43766" lon="3.50287">
        <ele>23</ele>
        <time>2022-03-24T14:37:31.141Z</time>
      </trkpt>
      <trkpt lat="50.43764" lon="3.50279">
        <ele>23</ele>
        <time>2022-03-24T14:37:33.101Z</time>
      </trkpt>
      <trkpt lat="50.43762" lon="3.5027">
        <ele>23</ele>
        <time>2022-03-24T14:37:35.000Z</time>
      </trkpt>
      <trkpt lat="50.4376" lon="3.50259">
        <ele>23</ele>
        <time>2022-03-24T14:37:37.125Z</time>
      </trkpt>
      <trkpt lat="50.43758" lon="3.5025">
        <ele>23</ele>
        <time>2022-03-24T14:37:38.564Z</time>
      </trkpt>
      <trkpt lat="50.43754" lon="3.50236">
        <ele>23</ele>
        <time>2022-03-24T14:37:41.000Z</time>
      </trkpt>
      <trkpt lat="50.43751" lon="3.50223">
        <ele>23</ele>
        <time>2022-03-24T14:37:43.000Z</time>
      </trkpt>
      <trkpt lat="50.43749" lon="3.50216">
        <ele>23</ele>
        <time>2022-03-24T14:37:44.000Z</time>
      </trkpt>
      <trkpt lat="50.43747" lon="3.50209">
        <ele>23</ele>
        <time>2022-03-24T14:37:45.006Z</time>
      </trkpt>
      <trkpt lat="50.43745" lon="3.50203">
        <ele>23</ele>
        <time>2022-03-24T14:37:46.000Z</time>
      </trkpt>
      <trkpt lat="50.43744" lon="3.50196">
        <ele>23</ele>
        <time>2022-03-24T14:37:47.000Z</time>
      </trkpt>
      <trkpt lat="50.43742" lon="3.50188">
        <ele>23</ele>
        <time>2022-03-24T14:37:48.143Z</time>
      </trkpt>
      <trkpt lat="50.4374" lon="3.50174">
        <ele>23</ele>
        <time>2022-03-24T14:37:50.000Z</time>
      </trkpt>
      <trkpt lat="50.43739" lon="3.50162">
        <ele>23</ele>
        <time>2022-03-24T14:37:52.022Z</time>
      </trkpt>
      <trkpt lat="50.43738" lon="3.50155">
        <ele>23</ele>
        <time>2022-03-24T14:37:53.000Z</time>
      </trkpt>
      <trkpt lat="50.43737" lon="3.50142">
        <ele>23</ele>
        <time>2022-03-24T14:37:55.000Z</time>
      </trkpt>
      <trkpt lat="50.43734" lon="3.5013">
        <ele>23</ele>
        <time>2022-03-24T14:37:57.000Z</time>
      </trkpt>
      <trkpt lat="50.43732" lon="3.50118">
        <ele>23</ele>
        <time>2022-03-24T14:37:59.000Z</time>
      </trkpt>
      <trkpt lat="50.4373" lon="3.50105">
        <ele>22.9</ele>
        <time>2022-03-24T14:38:01.184Z</time>
      </trkpt>
      <trkpt lat="50.43728" lon="3.50095">
        <ele>22.9</ele>
        <time>2022-03-24T14:38:02.419Z</time>
      </trkpt>
      <trkpt lat="50.43725" lon="3.50084">
        <ele>22.9</ele>
        <time>2022-03-24T14:38:04.164Z</time>
      </trkpt>
      <trkpt lat="50.43721" lon="3.50073">
        <ele>23</ele>
        <time>2022-03-24T14:38:05.643Z</time>
      </trkpt>
      <trkpt lat="50.43719" lon="3.50065">
        <ele>23</ele>
        <time>2022-03-24T14:38:06.823Z</time>
      </trkpt>
      <trkpt lat="50.43717" lon="3.50052">
        <ele>22.9</ele>
        <time>2022-03-24T14:38:08.884Z</time>
      </trkpt>
      <trkpt lat="50.43713" lon="3.50039">
        <ele>22.6</ele>
        <time>2022-03-24T14:38:11.000Z</time>
      </trkpt>
      <trkpt lat="50.4371" lon="3.50027">
        <ele>22.4</ele>
        <time>2022-03-24T14:38:13.124Z</time>
      </trkpt>
      <trkpt lat="50.43706" lon="3.50018">
        <ele>22.6</ele>
        <time>2022-03-24T14:38:14.900Z</time>
      </trkpt>
      <trkpt lat="50.43704" lon="3.50011">
        <ele>22.7</ele>
        <time>2022-03-24T14:38:16.000Z</time>
      </trkpt>
      <trkpt lat="50.43701" lon="3.50001">
        <ele>22.8</ele>
        <time>2022-03-24T14:38:18.000Z</time>
      </trkpt>
      <trkpt lat="50.43699" lon="3.49991">
        <ele>22.8</ele>
        <time>2022-03-24T14:38:20.084Z</time>
      </trkpt>
      <trkpt lat="50.43696" lon="3.4998">
        <ele>22.9</ele>
        <time>2022-03-24T14:38:22.064Z</time>
      </trkpt>
      <trkpt lat="50.43692" lon="3.49966">
        <ele>23</ele>
        <time>2022-03-24T14:38:24.862Z</time>
      </trkpt>
      <trkpt lat="50.43689" lon="3.49955">
        <ele>23</ele>
        <time>2022-03-24T14:38:27.000Z</time>
      </trkpt>
      <trkpt lat="50.43687" lon="3.49942">
        <ele>23</ele>
        <time>2022-03-24T14:38:29.743Z</time>
      </trkpt>
      <trkpt lat="50.43685" lon="3.49936">
        <ele>23</ele>
        <time>2022-03-24T14:38:31.000Z</time>
      </trkpt>
      <trkpt lat="50.43682" lon="3.49926">
        <ele>23</ele>
        <time>2022-03-24T14:38:33.000Z</time>
      </trkpt>
      <trkpt lat="50.4368" lon="3.49916">
        <ele>23</ele>
        <time>2022-03-24T14:38:35.004Z</time>
      </trkpt>
      <trkpt lat="50.43677" lon="3.49905">
        <ele>22.6</ele>
        <time>2022-03-24T14:38:37.000Z</time>
      </trkpt>
      <trkpt lat="50.43674" lon="3.49894">
        <ele>22.2</ele>
        <time>2022-03-24T14:38:39.000Z</time>
      </trkpt>
      <trkpt lat="50.43672" lon="3.49883">
        <ele>22</ele>
        <time>2022-03-24T14:38:41.100Z</time>
      </trkpt>
      <trkpt lat="50.4367" lon="3.49872">
        <ele>22</ele>
        <time>2022-03-24T14:38:43.000Z</time>
      </trkpt>
      <trkpt lat="50.43666" lon="3.49858">
        <ele>22</ele>
        <time>2022-03-24T14:38:45.628Z</time>
      </trkpt>
      <trkpt lat="50.43664" lon="3.4985">
        <ele>22</ele>
        <time>2022-03-24T14:38:46.963Z</time>
      </trkpt>
      <trkpt lat="50.43662" lon="3.49835">
        <ele>22</ele>
        <time>2022-03-24T14:38:49.604Z</time>
      </trkpt>
      <trkpt lat="50.4366" lon="3.49826">
        <ele>21.9</ele>
        <time>2022-03-24T14:38:51.000Z</time>
      </trkpt>
      <trkpt lat="50.43656" lon="3.49811">
        <ele>21.7</ele>
        <time>2022-03-24T14:38:53.000Z</time>
      </trkpt>
      <trkpt lat="50.43654" lon="3.49803">
        <ele>21.5</ele>
        <time>2022-03-24T14:38:54.000Z</time>
      </trkpt>
      <trkpt lat="50.43652" lon="3.49797">
        <ele>21.3</ele>
        <time>2022-03-24T14:38:55.000Z</time>
      </trkpt>
      <trkpt lat="50.43648" lon="3.49778">
        <ele>21</ele>
        <time>2022-03-24T14:38:58.000Z</time>
      </trkpt>
      <trkpt lat="50.43645" lon="3.4977">
        <ele>21</ele>
        <time>2022-03-24T14:38:59.368Z</time>
      </trkpt>
      <trkpt lat="50.4364" lon="3.4975">
        <ele>21</ele>
        <time>2022-03-24T14:39:02.000Z</time>
      </trkpt>
      <trkpt lat="50.43638" lon="3.49742">
        <ele>21</ele>
        <time>2022-03-24T14:39:03.000Z</time>
      </trkpt>
      <trkpt lat="50.43636" lon="3.49735">
        <ele>21</ele>
        <time>2022-03-24T14:39:04.000Z</time>
      </trkpt>
      <trkpt lat="50.43631" lon="3.49723">
        <ele>21</ele>
        <time>2022-03-24T14:39:07.368Z</time>
      </trkpt>
      <trkpt lat="50.43629" lon="3.49709">
        <ele>21</ele>
        <time>2022-03-24T14:39:09.000Z</time>
      </trkpt>
      <trkpt lat="50.43626" lon="3.49696">
        <ele>21</ele>
        <time>2022-03-24T14:39:10.000Z</time>
      </trkpt>
      <trkpt lat="50.43624" lon="3.49686">
        <ele>21</ele>
        <time>2022-03-24T14:39:11.000Z</time>
      </trkpt>
      <trkpt lat="50.43623" lon="3.4968">
        <ele>21</ele>
        <time>2022-03-24T14:39:12.000Z</time>
      </trkpt>
      <trkpt lat="50.43621" lon="3.49671">
        <ele>21</ele>
        <time>2022-03-24T14:39:13.000Z</time>
      </trkpt>
      <trkpt lat="50.43619" lon="3.49665">
        <ele>21</ele>
        <time>2022-03-24T14:39:14.000Z</time>
      </trkpt>
      <trkpt lat="50.43614" lon="3.4966">
        <ele>21</ele>
        <time>2022-03-24T14:39:16.000Z</time>
      </trkpt>
      <trkpt lat="50.43612" lon="3.49654">
        <ele>21</ele>
        <time>2022-03-24T14:39:17.000Z</time>
      </trkpt>
      <trkpt lat="50.4361" lon="3.49645">
        <ele>21</ele>
        <time>2022-03-24T14:39:18.116Z</time>
      </trkpt>
      <trkpt lat="50.43608" lon="3.49631">
        <ele>21</ele>
        <time>2022-03-24T14:39:19.775Z</time>
      </trkpt>
      <trkpt lat="50.43607" lon="3.49623">
        <ele>21</ele>
        <time>2022-03-24T14:39:20.794Z</time>
      </trkpt>
      <trkpt lat="50.43606" lon="3.49614">
        <ele>21</ele>
        <time>2022-03-24T14:39:22.000Z</time>
      </trkpt>
      <trkpt lat="50.43604" lon="3.49606">
        <ele>21</ele>
        <time>2022-03-24T14:39:23.194Z</time>
      </trkpt>
      <trkpt lat="50.43602" lon="3.49593">
        <ele>21</ele>
        <time>2022-03-24T14:39:24.855Z</time>
      </trkpt>
      <trkpt lat="50.43599" lon="3.49578">
        <ele>21</ele>
        <time>2022-03-24T14:39:27.474Z</time>
      </trkpt>
      <trkpt lat="50.43597" lon="3.49566">
        <ele>21</ele>
        <time>2022-03-24T14:39:29.635Z</time>
      </trkpt>
      <trkpt lat="50.43595" lon="3.49557">
        <ele>21</ele>
        <time>2022-03-24T14:39:31.111Z</time>
      </trkpt>
      <trkpt lat="50.43591" lon="3.49544">
        <ele>21</ele>
        <time>2022-03-24T14:39:33.152Z</time>
      </trkpt>
      <trkpt lat="50.43588" lon="3.49531">
        <ele>21</ele>
        <time>2022-03-24T14:39:34.997Z</time>
      </trkpt>
      <trkpt lat="50.43585" lon="3.49524">
        <ele>21</ele>
        <time>2022-03-24T14:39:36.115Z</time>
      </trkpt>
      <trkpt lat="50.43583" lon="3.49513">
        <ele>21</ele>
        <time>2022-03-24T14:39:37.000Z</time>
      </trkpt>
      <trkpt lat="50.43582" lon="3.49504">
        <ele>21</ele>
        <time>2022-03-24T14:39:38.000Z</time>
      </trkpt>
      <trkpt lat="50.4358" lon="3.49495">
        <ele>21</ele>
        <time>2022-03-24T14:39:39.000Z</time>
      </trkpt>
      <trkpt lat="50.43579" lon="3.49486">
        <ele>21</ele>
        <time>2022-03-24T14:39:40.000Z</time>
      </trkpt>
      <trkpt lat="50.43577" lon="3.49478">
        <ele>21</ele>
        <time>2022-03-24T14:39:41.000Z</time>
      </trkpt>
      <trkpt lat="50.43575" lon="3.4947">
        <ele>21</ele>
        <time>2022-03-24T14:39:42.000Z</time>
      </trkpt>
      <trkpt lat="50.43573" lon="3.49462">
        <ele>21</ele>
        <time>2022-03-24T14:39:43.000Z</time>
      </trkpt>
      <trkpt lat="50.43571" lon="3.49455">
        <ele>21</ele>
        <time>2022-03-24T14:39:44.000Z</time>
      </trkpt>
      <trkpt lat="50.43569" lon="3.49448">
        <ele>21</ele>
        <time>2022-03-24T14:39:45.000Z</time>
      </trkpt>
      <trkpt lat="50.4357" lon="3.49438">
        <ele>21</ele>
        <time>2022-03-24T14:39:47.000Z</time>
      </trkpt>
      <trkpt lat="50.43567" lon="3.49427">
        <ele>21</ele>
        <time>2022-03-24T14:39:48.726Z</time>
      </trkpt>
      <trkpt lat="50.43564" lon="3.49417">
        <ele>21</ele>
        <time>2022-03-24T14:39:50.127Z</time>
      </trkpt>
      <trkpt lat="50.43561" lon="3.49407">
        <ele>21</ele>
        <time>2022-03-24T14:39:51.642Z</time>
      </trkpt>
      <trkpt lat="50.43559" lon="3.49398">
        <ele>21</ele>
        <time>2022-03-24T14:39:53.000Z</time>
      </trkpt>
      <trkpt lat="50.43557" lon="3.49391">
        <ele>21</ele>
        <time>2022-03-24T14:39:54.000Z</time>
      </trkpt>
      <trkpt lat="50.43555" lon="3.49384">
        <ele>21</ele>
        <time>2022-03-24T14:39:55.000Z</time>
      </trkpt>
      <trkpt lat="50.43553" lon="3.49378">
        <ele>21</ele>
        <time>2022-03-24T14:39:56.149Z</time>
      </trkpt>
      <trkpt lat="50.4355" lon="3.49368">
        <ele>21</ele>
        <time>2022-03-24T14:39:57.431Z</time>
      </trkpt>
      <trkpt lat="50.43548" lon="3.49362">
        <ele>21</ele>
        <time>2022-03-24T14:39:58.467Z</time>
      </trkpt>
      <trkpt lat="50.43545" lon="3.49351">
        <ele>21</ele>
        <time>2022-03-24T14:40:00.000Z</time>
      </trkpt>
      <trkpt lat="50.43544" lon="3.49345">
        <ele>21</ele>
        <time>2022-03-24T14:40:01.027Z</time>
      </trkpt>
      <trkpt lat="50.43541" lon="3.49332">
        <ele>21</ele>
        <time>2022-03-24T14:40:03.000Z</time>
      </trkpt>
      <trkpt lat="50.43537" lon="3.49319">
        <ele>21</ele>
        <time>2022-03-24T14:40:05.266Z</time>
      </trkpt>
      <trkpt lat="50.43534" lon="3.49307">
        <ele>21</ele>
        <time>2022-03-24T14:40:07.000Z</time>
      </trkpt>
      <trkpt lat="50.43529" lon="3.49291">
        <ele>21</ele>
        <time>2022-03-24T14:40:10.000Z</time>
      </trkpt>
      <trkpt lat="50.43527" lon="3.49281">
        <ele>21</ele>
        <time>2022-03-24T14:40:11.000Z</time>
      </trkpt>
      <trkpt lat="50.43525" lon="3.49272">
        <ele>21</ele>
        <time>2022-03-24T14:40:12.000Z</time>
      </trkpt>
      <trkpt lat="50.43523" lon="3.49264">
        <ele>21</ele>
        <time>2022-03-24T14:40:13.000Z</time>
      </trkpt>
      <trkpt lat="50.43522" lon="3.49256">
        <ele>21</ele>
        <time>2022-03-24T14:40:14.000Z</time>
      </trkpt>
      <trkpt lat="50.4352" lon="3.49249">
        <ele>21</ele>
        <time>2022-03-24T14:40:15.000Z</time>
      </trkpt>
      <trkpt lat="50.43518" lon="3.49241">
        <ele>21</ele>
        <time>2022-03-24T14:40:16.000Z</time>
      </trkpt>
      <trkpt lat="50.43516" lon="3.49233">
        <ele>21</ele>
        <time>2022-03-24T14:40:17.000Z</time>
      </trkpt>
      <trkpt lat="50.43514" lon="3.49226">
        <ele>21</ele>
        <time>2022-03-24T14:40:18.000Z</time>
      </trkpt>
      <trkpt lat="50.43513" lon="3.49218">
        <ele>20.8</ele>
        <time>2022-03-24T14:40:19.000Z</time>
      </trkpt>
      <trkpt lat="50.43511" lon="3.4921">
        <ele>20.6</ele>
        <time>2022-03-24T14:40:20.000Z</time>
      </trkpt>
      <trkpt lat="50.43509" lon="3.49202">
        <ele>20.3</ele>
        <time>2022-03-24T14:40:21.000Z</time>
      </trkpt>
      <trkpt lat="50.43507" lon="3.49194">
        <ele>20</ele>
        <time>2022-03-24T14:40:22.000Z</time>
      </trkpt>
      <trkpt lat="50.43505" lon="3.49187">
        <ele>20</ele>
        <time>2022-03-24T14:40:23.000Z</time>
      </trkpt>
      <trkpt lat="50.43503" lon="3.4918">
        <ele>20</ele>
        <time>2022-03-24T14:40:24.000Z</time>
      </trkpt>
      <trkpt lat="50.43501" lon="3.49172">
        <ele>20</ele>
        <time>2022-03-24T14:40:25.000Z</time>
      </trkpt>
      <trkpt lat="50.43499" lon="3.49165">
        <ele>20</ele>
        <time>2022-03-24T14:40:26.000Z</time>
      </trkpt>
      <trkpt lat="50.43497" lon="3.49158">
        <ele>20</ele>
        <time>2022-03-24T14:40:27.000Z</time>
      </trkpt>
      <trkpt lat="50.43496" lon="3.4915">
        <ele>20</ele>
        <time>2022-03-24T14:40:28.000Z</time>
      </trkpt>
      <trkpt lat="50.43494" lon="3.49143">
        <ele>20</ele>
        <time>2022-03-24T14:40:29.000Z</time>
      </trkpt>
      <trkpt lat="50.43492" lon="3.49136">
        <ele>20</ele>
        <time>2022-03-24T14:40:30.000Z</time>
      </trkpt>
      <trkpt lat="50.43491" lon="3.49129">
        <ele>20</ele>
        <time>2022-03-24T14:40:31.000Z</time>
      </trkpt>
      <trkpt lat="50.43489" lon="3.49121">
        <ele>20</ele>
        <time>2022-03-24T14:40:32.000Z</time>
      </trkpt>
      <trkpt lat="50.43487" lon="3.49114">
        <ele>20</ele>
        <time>2022-03-24T14:40:33.000Z</time>
      </trkpt>
      <trkpt lat="50.43485" lon="3.49108">
        <ele>20</ele>
        <time>2022-03-24T14:40:34.000Z</time>
      </trkpt>
      <trkpt lat="50.43483" lon="3.49101">
        <ele>20</ele>
        <time>2022-03-24T14:40:35.000Z</time>
      </trkpt>
      <trkpt lat="50.43482" lon="3.49093">
        <ele>20</ele>
        <time>2022-03-24T14:40:36.000Z</time>
      </trkpt>
      <trkpt lat="50.4348" lon="3.49082">
        <ele>20</ele>
        <time>2022-03-24T14:40:38.000Z</time>
      </trkpt>
      <trkpt lat="50.43477" lon="3.4907">
        <ele>20</ele>
        <time>2022-03-24T14:40:40.000Z</time>
      </trkpt>
      <trkpt lat="50.43476" lon="3.49063">
        <ele>20</ele>
        <time>2022-03-24T14:40:41.000Z</time>
      </trkpt>
      <trkpt lat="50.43472" lon="3.49046">
        <ele>20</ele>
        <time>2022-03-24T14:40:43.000Z</time>
      </trkpt>
      <trkpt lat="50.4347" lon="3.49039">
        <ele>20</ele>
        <time>2022-03-24T14:40:44.000Z</time>
      </trkpt>
      <trkpt lat="50.43466" lon="3.49034">
        <ele>20</ele>
        <time>2022-03-24T14:40:45.492Z</time>
      </trkpt>
      <trkpt lat="50.43464" lon="3.49022">
        <ele>20</ele>
        <time>2022-03-24T14:40:47.000Z</time>
      </trkpt>
      <trkpt lat="50.43463" lon="3.49015">
        <ele>20</ele>
        <time>2022-03-24T14:40:48.000Z</time>
      </trkpt>
      <trkpt lat="50.43461" lon="3.49007">
        <ele>20</ele>
        <time>2022-03-24T14:40:49.000Z</time>
      </trkpt>
      <trkpt lat="50.43459" lon="3.49">
        <ele>20</ele>
        <time>2022-03-24T14:40:50.000Z</time>
      </trkpt>
      <trkpt lat="50.43456" lon="3.48992">
        <ele>20</ele>
        <time>2022-03-24T14:40:52.000Z</time>
      </trkpt>
      <trkpt lat="50.43452" lon="3.48975">
        <ele>20</ele>
        <time>2022-03-24T14:40:54.525Z</time>
      </trkpt>
      <trkpt lat="50.4345" lon="3.48965">
        <ele>20</ele>
        <time>2022-03-24T14:40:55.865Z</time>
      </trkpt>
      <trkpt lat="50.43448" lon="3.48957">
        <ele>20</ele>
        <time>2022-03-24T14:40:56.945Z</time>
      </trkpt>
      <trkpt lat="50.43445" lon="3.48944">
        <ele>20</ele>
        <time>2022-03-24T14:40:59.101Z</time>
      </trkpt>
      <trkpt lat="50.43442" lon="3.48931">
        <ele>20</ele>
        <time>2022-03-24T14:41:01.168Z</time>
      </trkpt>
      <trkpt lat="50.43439" lon="3.4892">
        <ele>20</ele>
        <time>2022-03-24T14:41:03.000Z</time>
      </trkpt>
      <trkpt lat="50.43437" lon="3.48906">
        <ele>20</ele>
        <time>2022-03-24T14:41:05.343Z</time>
      </trkpt>
      <trkpt lat="50.43434" lon="3.48896">
        <ele>20</ele>
        <time>2022-03-24T14:41:06.966Z</time>
      </trkpt>
      <trkpt lat="50.43432" lon="3.48883">
        <ele>20</ele>
        <time>2022-03-24T14:41:09.000Z</time>
      </trkpt>
      <trkpt lat="50.43428" lon="3.4887">
        <ele>20</ele>
        <time>2022-03-24T14:41:11.000Z</time>
      </trkpt>
      <trkpt lat="50.43425" lon="3.48856">
        <ele>20</ele>
        <time>2022-03-24T14:41:13.063Z</time>
      </trkpt>
      <trkpt lat="50.43423" lon="3.48848">
        <ele>20</ele>
        <time>2022-03-24T14:41:14.000Z</time>
      </trkpt>
      <trkpt lat="50.43421" lon="3.48841">
        <ele>20</ele>
        <time>2022-03-24T14:41:15.000Z</time>
      </trkpt>
      <trkpt lat="50.43417" lon="3.48829">
        <ele>20</ele>
        <time>2022-03-24T14:41:18.124Z</time>
      </trkpt>
      <trkpt lat="50.43415" lon="3.48817">
        <ele>20</ele>
        <time>2022-03-24T14:41:19.484Z</time>
      </trkpt>
      <trkpt lat="50.43413" lon="3.48809">
        <ele>20</ele>
        <time>2022-03-24T14:41:20.399Z</time>
      </trkpt>
      <trkpt lat="50.43411" lon="3.48797">
        <ele>20</ele>
        <time>2022-03-24T14:41:22.000Z</time>
      </trkpt>
      <trkpt lat="50.43409" lon="3.4879">
        <ele>20</ele>
        <time>2022-03-24T14:41:23.000Z</time>
      </trkpt>
      <trkpt lat="50.43407" lon="3.4878">
        <ele>20</ele>
        <time>2022-03-24T14:41:24.000Z</time>
      </trkpt>
      <trkpt lat="50.43405" lon="3.48772">
        <ele>20</ele>
        <time>2022-03-24T14:41:25.000Z</time>
      </trkpt>
      <trkpt lat="50.43403" lon="3.48764">
        <ele>20</ele>
        <time>2022-03-24T14:41:26.000Z</time>
      </trkpt>
      <trkpt lat="50.43401" lon="3.48758">
        <ele>20</ele>
        <time>2022-03-24T14:41:27.000Z</time>
      </trkpt>
      <trkpt lat="50.43399" lon="3.48751">
        <ele>20</ele>
        <time>2022-03-24T14:41:28.000Z</time>
      </trkpt>
      <trkpt lat="50.43397" lon="3.48743">
        <ele>20</ele>
        <time>2022-03-24T14:41:29.000Z</time>
      </trkpt>
      <trkpt lat="50.43395" lon="3.48737">
        <ele>20</ele>
        <time>2022-03-24T14:41:30.000Z</time>
      </trkpt>
      <trkpt lat="50.43393" lon="3.48729">
        <ele>20</ele>
        <time>2022-03-24T14:41:31.000Z</time>
      </trkpt>
      <trkpt lat="50.43392" lon="3.48722">
        <ele>20</ele>
        <time>2022-03-24T14:41:32.000Z</time>
      </trkpt>
      <trkpt lat="50.43389" lon="3.48709">
        <ele>20</ele>
        <time>2022-03-24T14:41:34.000Z</time>
      </trkpt>
      <trkpt lat="50.43387" lon="3.48702">
        <ele>20</ele>
        <time>2022-03-24T14:41:35.000Z</time>
      </trkpt>
      <trkpt lat="50.43382" lon="3.4869">
        <ele>20</ele>
        <time>2022-03-24T14:41:37.285Z</time>
      </trkpt>
      <trkpt lat="50.4338" lon="3.48682">
        <ele>20</ele>
        <time>2022-03-24T14:41:38.462Z</time>
      </trkpt>
      <trkpt lat="50.43379" lon="3.48672">
        <ele>20</ele>
        <time>2022-03-24T14:41:40.000Z</time>
      </trkpt>
      <trkpt lat="50.43378" lon="3.48664">
        <ele>19.9</ele>
        <time>2022-03-24T14:41:41.084Z</time>
      </trkpt>
      <trkpt lat="50.43377" lon="3.48652">
        <ele>19.7</ele>
        <time>2022-03-24T14:41:43.000Z</time>
      </trkpt>
      <trkpt lat="50.43374" lon="3.4864">
        <ele>19.6</ele>
        <time>2022-03-24T14:41:45.000Z</time>
      </trkpt>
      <trkpt lat="50.43372" lon="3.48631">
        <ele>19.6</ele>
        <time>2022-03-24T14:41:46.683Z</time>
      </trkpt>
      <trkpt lat="50.43371" lon="3.48622">
        <ele>19.6</ele>
        <time>2022-03-24T14:41:48.165Z</time>
      </trkpt>
      <trkpt lat="50.43369" lon="3.48612">
        <ele>19.7</ele>
        <time>2022-03-24T14:41:49.605Z</time>
      </trkpt>
      <trkpt lat="50.43368" lon="3.48604">
        <ele>19.6</ele>
        <time>2022-03-24T14:41:50.781Z</time>
      </trkpt>
      <trkpt lat="50.43366" lon="3.48596">
        <ele>19.4</ele>
        <time>2022-03-24T14:41:52.045Z</time>
      </trkpt>
      <trkpt lat="50.43364" lon="3.48586">
        <ele>19.1</ele>
        <time>2022-03-24T14:41:53.000Z</time>
      </trkpt>
      <trkpt lat="50.4336" lon="3.48581">
        <ele>19</ele>
        <time>2022-03-24T14:41:54.158Z</time>
      </trkpt>
      <trkpt lat="50.43357" lon="3.48563">
        <ele>19</ele>
        <time>2022-03-24T14:41:56.000Z</time>
      </trkpt>
      <trkpt lat="50.43355" lon="3.48555">
        <ele>19</ele>
        <time>2022-03-24T14:41:57.000Z</time>
      </trkpt>
      <trkpt lat="50.43353" lon="3.48548">
        <ele>19</ele>
        <time>2022-03-24T14:41:58.000Z</time>
      </trkpt>
      <trkpt lat="50.4335" lon="3.4854">
        <ele>19</ele>
        <time>2022-03-24T14:41:59.000Z</time>
      </trkpt>
      <trkpt lat="50.43349" lon="3.48533">
        <ele>19</ele>
        <time>2022-03-24T14:42:00.000Z</time>
      </trkpt>
      <trkpt lat="50.43352" lon="3.48524">
        <ele>18.9</ele>
        <time>2022-03-24T14:42:02.000Z</time>
      </trkpt>
      <trkpt lat="50.43347" lon="3.48511">
        <ele>18.7</ele>
        <time>2022-03-24T14:42:04.000Z</time>
      </trkpt>
      <trkpt lat="50.43344" lon="3.48504">
        <ele>18.7</ele>
        <time>2022-03-24T14:42:05.000Z</time>
      </trkpt>
      <trkpt lat="50.43341" lon="3.48497">
        <ele>18.6</ele>
        <time>2022-03-24T14:42:06.000Z</time>
      </trkpt>
      <trkpt lat="50.43339" lon="3.48491">
        <ele>18.5</ele>
        <time>2022-03-24T14:42:06.996Z</time>
      </trkpt>
      <trkpt lat="50.43337" lon="3.48483">
        <ele>18.3</ele>
        <time>2022-03-24T14:42:08.000Z</time>
      </trkpt>
      <trkpt lat="50.43335" lon="3.48476">
        <ele>18.1</ele>
        <time>2022-03-24T14:42:09.000Z</time>
      </trkpt>
      <trkpt lat="50.43334" lon="3.4847">
        <ele>18</ele>
        <time>2022-03-24T14:42:10.000Z</time>
      </trkpt>
      <trkpt lat="50.43331" lon="3.48457">
        <ele>18</ele>
        <time>2022-03-24T14:42:12.012Z</time>
      </trkpt>
      <trkpt lat="50.43328" lon="3.48446">
        <ele>18</ele>
        <time>2022-03-24T14:42:14.000Z</time>
      </trkpt>
      <trkpt lat="50.43325" lon="3.48432">
        <ele>18</ele>
        <time>2022-03-24T14:42:16.000Z</time>
      </trkpt>
      <trkpt lat="50.43324" lon="3.48425">
        <ele>18</ele>
        <time>2022-03-24T14:42:17.000Z</time>
      </trkpt>
      <trkpt lat="50.43323" lon="3.48418">
        <ele>18</ele>
        <time>2022-03-24T14:42:18.152Z</time>
      </trkpt>
      <trkpt lat="50.4332" lon="3.48405">
        <ele>18</ele>
        <time>2022-03-24T14:42:20.072Z</time>
      </trkpt>
      <trkpt lat="50.43317" lon="3.48393">
        <ele>18</ele>
        <time>2022-03-24T14:42:21.975Z</time>
      </trkpt>
      <trkpt lat="50.43315" lon="3.48386">
        <ele>18</ele>
        <time>2022-03-24T14:42:23.000Z</time>
      </trkpt>
      <trkpt lat="50.43311" lon="3.48372">
        <ele>18</ele>
        <time>2022-03-24T14:42:25.134Z</time>
      </trkpt>
      <trkpt lat="50.43307" lon="3.48357">
        <ele>18.1</ele>
        <time>2022-03-24T14:42:26.809Z</time>
      </trkpt>
      <trkpt lat="50.43304" lon="3.48351">
        <ele>18.3</ele>
        <time>2022-03-24T14:42:27.971Z</time>
      </trkpt>
      <trkpt lat="50.433" lon="3.48338">
        <ele>18.7</ele>
        <time>2022-03-24T14:42:29.933Z</time>
      </trkpt>
      <trkpt lat="50.43298" lon="3.48327">
        <ele>18.8</ele>
        <time>2022-03-24T14:42:31.000Z</time>
      </trkpt>
      <trkpt lat="50.43296" lon="3.4832">
        <ele>18.8</ele>
        <time>2022-03-24T14:42:32.000Z</time>
      </trkpt>
      <trkpt lat="50.43293" lon="3.48313">
        <ele>18.9</ele>
        <time>2022-03-24T14:42:33.342Z</time>
      </trkpt>
      <trkpt lat="50.4329" lon="3.48305">
        <ele>19</ele>
        <time>2022-03-24T14:42:34.538Z</time>
      </trkpt>
      <trkpt lat="50.43288" lon="3.48293">
        <ele>19</ele>
        <time>2022-03-24T14:42:36.627Z</time>
      </trkpt>
      <trkpt lat="50.43286" lon="3.48286">
        <ele>19</ele>
        <time>2022-03-24T14:42:37.631Z</time>
      </trkpt>
      <trkpt lat="50.43284" lon="3.48277">
        <ele>19</ele>
        <time>2022-03-24T14:42:39.076Z</time>
      </trkpt>
      <trkpt lat="50.43282" lon="3.48265">
        <ele>19</ele>
        <time>2022-03-24T14:42:41.117Z</time>
      </trkpt>
      <trkpt lat="50.4328" lon="3.48253">
        <ele>19</ele>
        <time>2022-03-24T14:42:43.000Z</time>
      </trkpt>
      <trkpt lat="50.43277" lon="3.48239">
        <ele>19</ele>
        <time>2022-03-24T14:42:45.180Z</time>
      </trkpt>
      <trkpt lat="50.43275" lon="3.48229">
        <ele>19</ele>
        <time>2022-03-24T14:42:46.776Z</time>
      </trkpt>
      <trkpt lat="50.43271" lon="3.48216">
        <ele>19</ele>
        <time>2022-03-24T14:42:49.000Z</time>
      </trkpt>
      <trkpt lat="50.43269" lon="3.48202">
        <ele>19</ele>
        <time>2022-03-24T14:42:51.000Z</time>
      </trkpt>
      <trkpt lat="50.43267" lon="3.48196">
        <ele>19</ele>
        <time>2022-03-24T14:42:52.000Z</time>
      </trkpt>
      <trkpt lat="50.43266" lon="3.48189">
        <ele>19</ele>
        <time>2022-03-24T14:42:53.141Z</time>
      </trkpt>
      <trkpt lat="50.43264" lon="3.48172">
        <ele>19</ele>
        <time>2022-03-24T14:42:55.000Z</time>
      </trkpt>
      <trkpt lat="50.43264" lon="3.48164">
        <ele>19</ele>
        <time>2022-03-24T14:42:56.370Z</time>
      </trkpt>
      <trkpt lat="50.4326" lon="3.48159">
        <ele>19</ele>
        <time>2022-03-24T14:42:57.493Z</time>
      </trkpt>
      <trkpt lat="50.43254" lon="3.48152">
        <ele>19</ele>
        <time>2022-03-24T14:42:59.148Z</time>
      </trkpt>
      <trkpt lat="50.43249" lon="3.48144">
        <ele>19</ele>
        <time>2022-03-24T14:43:00.569Z</time>
      </trkpt>
      <trkpt lat="50.43245" lon="3.48135">
        <ele>19</ele>
        <time>2022-03-24T14:43:02.073Z</time>
      </trkpt>
      <trkpt lat="50.43242" lon="3.48129">
        <ele>19</ele>
        <time>2022-03-24T14:43:03.000Z</time>
      </trkpt>
      <trkpt lat="50.43239" lon="3.48116">
        <ele>19</ele>
        <time>2022-03-24T14:43:05.171Z</time>
      </trkpt>
      <trkpt lat="50.43236" lon="3.4811">
        <ele>19</ele>
        <time>2022-03-24T14:43:06.471Z</time>
      </trkpt>
      <trkpt lat="50.43233" lon="3.48104">
        <ele>19</ele>
        <time>2022-03-24T14:43:07.913Z</time>
      </trkpt>
      <trkpt lat="50.4323" lon="3.48096">
        <ele>19</ele>
        <time>2022-03-24T14:43:09.000Z</time>
      </trkpt>
      <trkpt lat="50.43229" lon="3.48089">
        <ele>19</ele>
        <time>2022-03-24T14:43:10.000Z</time>
      </trkpt>
      <trkpt lat="50.43228" lon="3.48077">
        <ele>19</ele>
        <time>2022-03-24T14:43:12.104Z</time>
      </trkpt>
      <trkpt lat="50.43228" lon="3.48065">
        <ele>19</ele>
        <time>2022-03-24T14:43:13.923Z</time>
      </trkpt>
      <trkpt lat="50.43229" lon="3.48052">
        <ele>19</ele>
        <time>2022-03-24T14:43:16.000Z</time>
      </trkpt>
      <trkpt lat="50.4323" lon="3.48038">
        <ele>19</ele>
        <time>2022-03-24T14:43:18.164Z</time>
      </trkpt>
      <trkpt lat="50.43229" lon="3.48026">
        <ele>19</ele>
        <time>2022-03-24T14:43:20.000Z</time>
      </trkpt>
      <trkpt lat="50.43227" lon="3.48015">
        <ele>19</ele>
        <time>2022-03-24T14:43:22.000Z</time>
      </trkpt>
      <trkpt lat="50.43224" lon="3.48004">
        <ele>19</ele>
        <time>2022-03-24T14:43:24.000Z</time>
      </trkpt>
      <trkpt lat="50.43222" lon="3.47993">
        <ele>19</ele>
        <time>2022-03-24T14:43:26.000Z</time>
      </trkpt>
      <trkpt lat="50.4322" lon="3.47986">
        <ele>19</ele>
        <time>2022-03-24T14:43:27.000Z</time>
      </trkpt>
      <trkpt lat="50.43219" lon="3.47979">
        <ele>19</ele>
        <time>2022-03-24T14:43:28.085Z</time>
      </trkpt>
      <trkpt lat="50.43217" lon="3.47972">
        <ele>19</ele>
        <time>2022-03-24T14:43:29.000Z</time>
      </trkpt>
      <trkpt lat="50.43215" lon="3.47965">
        <ele>19</ele>
        <time>2022-03-24T14:43:30.323Z</time>
      </trkpt>
      <trkpt lat="50.43214" lon="3.47957">
        <ele>19</ele>
        <time>2022-03-24T14:43:31.802Z</time>
      </trkpt>
      <trkpt lat="50.43212" lon="3.47946">
        <ele>19</ele>
        <time>2022-03-24T14:43:34.000Z</time>
      </trkpt>
      <trkpt lat="50.4321" lon="3.47936">
        <ele>19</ele>
        <time>2022-03-24T14:43:36.000Z</time>
      </trkpt>
      <trkpt lat="50.43209" lon="3.47925">
        <ele>19</ele>
        <time>2022-03-24T14:43:38.143Z</time>
      </trkpt>
      <trkpt lat="50.43208" lon="3.47915">
        <ele>19</ele>
        <time>2022-03-24T14:43:40.000Z</time>
      </trkpt>
      <trkpt lat="50.43204" lon="3.47903">
        <ele>19</ele>
        <time>2022-03-24T14:43:42.143Z</time>
      </trkpt>
      <trkpt lat="50.432" lon="3.47892">
        <ele>19</ele>
        <time>2022-03-24T14:43:44.000Z</time>
      </trkpt>
      <trkpt lat="50.43194" lon="3.47883">
        <ele>19</ele>
        <time>2022-03-24T14:43:46.000Z</time>
      </trkpt>
      <trkpt lat="50.43188" lon="3.47877">
        <ele>19</ele>
        <time>2022-03-24T14:43:48.000Z</time>
      </trkpt>
      <trkpt lat="50.43181" lon="3.47874">
        <ele>19</ele>
        <time>2022-03-24T14:43:50.000Z</time>
      </trkpt>
      <trkpt lat="50.43174" lon="3.4787">
        <ele>19</ele>
        <time>2022-03-24T14:43:51.634Z</time>
      </trkpt>
      <trkpt lat="50.43169" lon="3.47867">
        <ele>19</ele>
        <time>2022-03-24T14:43:52.725Z</time>
      </trkpt>
      <trkpt lat="50.43164" lon="3.47864">
        <ele>19</ele>
        <time>2022-03-24T14:43:54.000Z</time>
      </trkpt>
      <trkpt lat="50.43158" lon="3.4786">
        <ele>19</ele>
        <time>2022-03-24T14:43:55.164Z</time>
      </trkpt>
      <trkpt lat="50.43151" lon="3.47852">
        <ele>19</ele>
        <time>2022-03-24T14:43:57.023Z</time>
      </trkpt>
      <trkpt lat="50.43146" lon="3.47848">
        <ele>19</ele>
        <time>2022-03-24T14:43:58.323Z</time>
      </trkpt>
      <trkpt lat="50.4314" lon="3.47843">
        <ele>19</ele>
        <time>2022-03-24T14:43:59.744Z</time>
      </trkpt>
      <trkpt lat="50.43132" lon="3.47836">
        <ele>19</ele>
        <time>2022-03-24T14:44:02.063Z</time>
      </trkpt>
      <trkpt lat="50.43123" lon="3.47829">
        <ele>19</ele>
        <time>2022-03-24T14:44:04.143Z</time>
      </trkpt>
      <trkpt lat="50.43117" lon="3.47823">
        <ele>19</ele>
        <time>2022-03-24T14:44:05.822Z</time>
      </trkpt>
      <trkpt lat="50.43111" lon="3.47813">
        <ele>19</ele>
        <time>2022-03-24T14:44:08.000Z</time>
      </trkpt>
      <trkpt lat="50.43106" lon="3.47805">
        <ele>19</ele>
        <time>2022-03-24T14:44:09.906Z</time>
      </trkpt>
      <trkpt lat="50.43101" lon="3.47798">
        <ele>19</ele>
        <time>2022-03-24T14:44:12.000Z</time>
      </trkpt>
      <trkpt lat="50.43093" lon="3.47792">
        <ele>19</ele>
        <time>2022-03-24T14:44:14.108Z</time>
      </trkpt>
      <trkpt lat="50.43089" lon="3.47788">
        <ele>19</ele>
        <time>2022-03-24T14:44:15.000Z</time>
      </trkpt>
      <trkpt lat="50.43082" lon="3.47781">
        <ele>19</ele>
        <time>2022-03-24T14:44:16.942Z</time>
      </trkpt>
      <trkpt lat="50.43073" lon="3.47771">
        <ele>19</ele>
        <time>2022-03-24T14:44:19.645Z</time>
      </trkpt>
      <trkpt lat="50.43067" lon="3.47766">
        <ele>19</ele>
        <time>2022-03-24T14:44:21.000Z</time>
      </trkpt>
      <trkpt lat="50.43063" lon="3.47762">
        <ele>19</ele>
        <time>2022-03-24T14:44:22.000Z</time>
      </trkpt>
      <trkpt lat="50.43056" lon="3.47755">
        <ele>19</ele>
        <time>2022-03-24T14:44:24.000Z</time>
      </trkpt>
      <trkpt lat="50.4305" lon="3.47751">
        <ele>19</ele>
        <time>2022-03-24T14:44:26.000Z</time>
      </trkpt>
      <trkpt lat="50.43045" lon="3.47747">
        <ele>19</ele>
        <time>2022-03-24T14:44:27.726Z</time>
      </trkpt>
      <trkpt lat="50.43036" lon="3.47742">
        <ele>19</ele>
        <time>2022-03-24T14:44:31.000Z</time>
      </trkpt>
      <trkpt lat="50.43029" lon="3.47742">
        <ele>19</ele>
        <time>2022-03-24T14:44:33.064Z</time>
      </trkpt>
      <trkpt lat="50.43022" lon="3.47744">
        <ele>19</ele>
        <time>2022-03-24T14:44:35.000Z</time>
      </trkpt>
      <trkpt lat="50.43017" lon="3.47746">
        <ele>19</ele>
        <time>2022-03-24T14:44:36.508Z</time>
      </trkpt>
      <trkpt lat="50.43013" lon="3.47749">
        <ele>19</ele>
        <time>2022-03-24T14:44:37.803Z</time>
      </trkpt>
      <trkpt lat="50.43008" lon="3.4775">
        <ele>19</ele>
        <time>2022-03-24T14:44:39.000Z</time>
      </trkpt>
      <trkpt lat="50.43001" lon="3.47748">
        <ele>19</ele>
        <time>2022-03-24T14:44:41.145Z</time>
      </trkpt>
      <trkpt lat="50.42994" lon="3.47744">
        <ele>19</ele>
        <time>2022-03-24T14:44:43.027Z</time>
      </trkpt>
      <trkpt lat="50.42988" lon="3.47733">
        <ele>19</ele>
        <time>2022-03-24T14:44:45.648Z</time>
      </trkpt>
      <trkpt lat="50.42987" lon="3.47724">
        <ele>19</ele>
        <time>2022-03-24T14:44:47.177Z</time>
      </trkpt>
      <trkpt lat="50.42986" lon="3.47714">
        <ele>19</ele>
        <time>2022-03-24T14:44:48.845Z</time>
      </trkpt>
      <trkpt lat="50.42987" lon="3.47702">
        <ele>19</ele>
        <time>2022-03-24T14:44:51.000Z</time>
      </trkpt>
      <trkpt lat="50.42986" lon="3.47688">
        <ele>19</ele>
        <time>2022-03-24T14:44:53.425Z</time>
      </trkpt>
      <trkpt lat="50.42986" lon="3.47677">
        <ele>19</ele>
        <time>2022-03-24T14:44:55.921Z</time>
      </trkpt>
      <trkpt lat="50.42988" lon="3.4767">
        <ele>19</ele>
        <time>2022-03-24T14:44:58.000Z</time>
      </trkpt>
      <trkpt lat="50.42991" lon="3.47662">
        <ele>19</ele>
        <time>2022-03-24T14:45:00.000Z</time>
      </trkpt>
      <trkpt lat="50.42996" lon="3.47655">
        <ele>19</ele>
        <time>2022-03-24T14:45:02.000Z</time>
      </trkpt>
      <trkpt lat="50.43" lon="3.47651">
        <ele>19</ele>
        <time>2022-03-24T14:45:03.567Z</time>
      </trkpt>
      <trkpt lat="50.43005" lon="3.47648">
        <ele>19</ele>
        <time>2022-03-24T14:45:05.000Z</time>
      </trkpt>
      <trkpt lat="50.43011" lon="3.47646">
        <ele>19</ele>
        <time>2022-03-24T14:45:07.000Z</time>
      </trkpt>
      <trkpt lat="50.43015" lon="3.47645">
        <ele>19</ele>
        <time>2022-03-24T14:45:08.985Z</time>
      </trkpt>
      <trkpt lat="50.43021" lon="3.4764">
        <ele>19</ele>
        <time>2022-03-24T14:45:12.322Z</time>
      </trkpt>
      <trkpt lat="50.43027" lon="3.47633">
        <ele>19</ele>
        <time>2022-03-24T14:45:15.000Z</time>
      </trkpt>
      <trkpt lat="50.43031" lon="3.47626">
        <ele>19</ele>
        <time>2022-03-24T14:45:17.000Z</time>
      </trkpt>
      <trkpt lat="50.43034" lon="3.47618">
        <ele>19</ele>
        <time>2022-03-24T14:45:19.000Z</time>
      </trkpt>
      <trkpt lat="50.43037" lon="3.47611">
        <ele>19</ele>
        <time>2022-03-24T14:45:20.945Z</time>
      </trkpt>
      <trkpt lat="50.43041" lon="3.47599">
        <ele>19</ele>
        <time>2022-03-24T14:45:23.523Z</time>
      </trkpt>
      <trkpt lat="50.43046" lon="3.47589">
        <ele>19</ele>
        <time>2022-03-24T14:45:25.787Z</time>
      </trkpt>
      <trkpt lat="50.43048" lon="3.47582">
        <ele>19</ele>
        <time>2022-03-24T14:45:27.000Z</time>
      </trkpt>
      <trkpt lat="50.43051" lon="3.47572">
        <ele>19</ele>
        <time>2022-03-24T14:45:28.981Z</time>
      </trkpt>
      <trkpt lat="50.43055" lon="3.47564">
        <ele>19</ele>
        <time>2022-03-24T14:45:31.000Z</time>
      </trkpt>
      <trkpt lat="50.43061" lon="3.47556">
        <ele>19</ele>
        <time>2022-03-24T14:45:33.706Z</time>
      </trkpt>
      <trkpt lat="50.43066" lon="3.4755">
        <ele>19</ele>
        <time>2022-03-24T14:45:35.927Z</time>
      </trkpt>
      <trkpt lat="50.43071" lon="3.47541">
        <ele>19</ele>
        <time>2022-03-24T14:45:38.141Z</time>
      </trkpt>
      <trkpt lat="50.43076" lon="3.47534">
        <ele>19</ele>
        <time>2022-03-24T14:45:40.143Z</time>
      </trkpt>
      <trkpt lat="50.43081" lon="3.47526">
        <ele>19</ele>
        <time>2022-03-24T14:45:42.322Z</time>
      </trkpt>
      <trkpt lat="50.43083" lon="3.4752">
        <ele>19</ele>
        <time>2022-03-24T14:45:44.000Z</time>
      </trkpt>
      <trkpt lat="50.43086" lon="3.47513">
        <ele>19</ele>
        <time>2022-03-24T14:45:46.082Z</time>
      </trkpt>
      <trkpt lat="50.43088" lon="3.47503">
        <ele>19</ele>
        <time>2022-03-24T14:45:48.000Z</time>
      </trkpt>
      <trkpt lat="50.43088" lon="3.47493">
        <ele>19</ele>
        <time>2022-03-24T14:45:49.767Z</time>
      </trkpt>
      <trkpt lat="50.43087" lon="3.4748">
        <ele>19</ele>
        <time>2022-03-24T14:45:52.000Z</time>
      </trkpt>
      <trkpt lat="50.43088" lon="3.47471">
        <ele>19</ele>
        <time>2022-03-24T14:45:53.125Z</time>
      </trkpt>
      <trkpt lat="50.43088" lon="3.47457">
        <ele>19</ele>
        <time>2022-03-24T14:45:54.825Z</time>
      </trkpt>
      <trkpt lat="50.43089" lon="3.47449">
        <ele>19</ele>
        <time>2022-03-24T14:45:56.000Z</time>
      </trkpt>
      <trkpt lat="50.43089" lon="3.47437">
        <ele>19</ele>
        <time>2022-03-24T14:45:58.000Z</time>
      </trkpt>
      <trkpt lat="50.43089" lon="3.47422">
        <ele>19</ele>
        <time>2022-03-24T14:46:00.637Z</time>
      </trkpt>
      <trkpt lat="50.43088" lon="3.47414">
        <ele>19</ele>
        <time>2022-03-24T14:46:02.084Z</time>
      </trkpt>
      <trkpt lat="50.43081" lon="3.47396">
        <ele>19</ele>
        <time>2022-03-24T14:46:05.084Z</time>
      </trkpt>
      <trkpt lat="50.43078" lon="3.4739">
        <ele>19</ele>
        <time>2022-03-24T14:46:06.022Z</time>
      </trkpt>
      <trkpt lat="50.43076" lon="3.47383">
        <ele>19</ele>
        <time>2022-03-24T14:46:07.009Z</time>
      </trkpt>
      <trkpt lat="50.43075" lon="3.47374">
        <ele>19</ele>
        <time>2022-03-24T14:46:08.000Z</time>
      </trkpt>
      <trkpt lat="50.43074" lon="3.47366">
        <ele>19</ele>
        <time>2022-03-24T14:46:09.000Z</time>
      </trkpt>
      <trkpt lat="50.43074" lon="3.47358">
        <ele>19</ele>
        <time>2022-03-24T14:46:10.044Z</time>
      </trkpt>
      <trkpt lat="50.43074" lon="3.47349">
        <ele>19</ele>
        <time>2022-03-24T14:46:11.000Z</time>
      </trkpt>
      <trkpt lat="50.43073" lon="3.47342">
        <ele>19</ele>
        <time>2022-03-24T14:46:11.966Z</time>
      </trkpt>
      <trkpt lat="50.43073" lon="3.47334">
        <ele>19</ele>
        <time>2022-03-24T14:46:13.000Z</time>
      </trkpt>
      <trkpt lat="50.43072" lon="3.47327">
        <ele>19</ele>
        <time>2022-03-24T14:46:14.000Z</time>
      </trkpt>
      <trkpt lat="50.4307" lon="3.4732">
        <ele>19</ele>
        <time>2022-03-24T14:46:15.106Z</time>
      </trkpt>
      <trkpt lat="50.43067" lon="3.47313">
        <ele>19</ele>
        <time>2022-03-24T14:46:16.000Z</time>
      </trkpt>
      <trkpt lat="50.43061" lon="3.473">
        <ele>19</ele>
        <time>2022-03-24T14:46:18.423Z</time>
      </trkpt>
      <trkpt lat="50.43056" lon="3.47288">
        <ele>19</ele>
        <time>2022-03-24T14:46:20.463Z</time>
      </trkpt>
      <trkpt lat="50.43052" lon="3.47282">
        <ele>19</ele>
        <time>2022-03-24T14:46:21.969Z</time>
      </trkpt>
      <trkpt lat="50.43047" lon="3.47275">
        <ele>19</ele>
        <time>2022-03-24T14:46:24.000Z</time>
      </trkpt>
      <trkpt lat="50.4304" lon="3.47268">
        <ele>19</ele>
        <time>2022-03-24T14:46:26.000Z</time>
      </trkpt>
      <trkpt lat="50.43035" lon="3.47263">
        <ele>19</ele>
        <time>2022-03-24T14:46:27.286Z</time>
      </trkpt>
      <trkpt lat="50.43031" lon="3.47258">
        <ele>19</ele>
        <time>2022-03-24T14:46:28.525Z</time>
      </trkpt>
      <trkpt lat="50.43022" lon="3.47247">
        <ele>18.8</ele>
        <time>2022-03-24T14:46:31.045Z</time>
      </trkpt>
      <trkpt lat="50.43015" lon="3.4724">
        <ele>18.5</ele>
        <time>2022-03-24T14:46:33.027Z</time>
      </trkpt>
      <trkpt lat="50.43007" lon="3.47232">
        <ele>18.3</ele>
        <time>2022-03-24T14:46:35.000Z</time>
      </trkpt>
      <trkpt lat="50.43002" lon="3.47228">
        <ele>18.1</ele>
        <time>2022-03-24T14:46:36.282Z</time>
      </trkpt>
      <trkpt lat="50.42998" lon="3.47224">
        <ele>18</ele>
        <time>2022-03-24T14:46:37.565Z</time>
      </trkpt>
      <trkpt lat="50.42994" lon="3.4722">
        <ele>18</ele>
        <time>2022-03-24T14:46:39.185Z</time>
      </trkpt>
      <trkpt lat="50.42989" lon="3.47214">
        <ele>18</ele>
        <time>2022-03-24T14:46:40.762Z</time>
      </trkpt>
      <trkpt lat="50.42984" lon="3.4721">
        <ele>18</ele>
        <time>2022-03-24T14:46:42.000Z</time>
      </trkpt>
      <trkpt lat="50.42977" lon="3.47202">
        <ele>18</ele>
        <time>2022-03-24T14:46:44.000Z</time>
      </trkpt>
      <trkpt lat="50.42969" lon="3.47195">
        <ele>18</ele>
        <time>2022-03-24T14:46:46.185Z</time>
      </trkpt>
      <trkpt lat="50.42964" lon="3.4719">
        <ele>18</ele>
        <time>2022-03-24T14:46:47.426Z</time>
      </trkpt>
      <trkpt lat="50.42959" lon="3.47186">
        <ele>18</ele>
        <time>2022-03-24T14:46:48.444Z</time>
      </trkpt>
      <trkpt lat="50.42952" lon="3.47178">
        <ele>18</ele>
        <time>2022-03-24T14:46:50.161Z</time>
      </trkpt>
      <trkpt lat="50.42946" lon="3.4717">
        <ele>18</ele>
        <time>2022-03-24T14:46:51.824Z</time>
      </trkpt>
      <trkpt lat="50.42941" lon="3.47165">
        <ele>18</ele>
        <time>2022-03-24T14:46:53.107Z</time>
      </trkpt>
      <trkpt lat="50.42937" lon="3.47162">
        <ele>18</ele>
        <time>2022-03-24T14:46:54.042Z</time>
      </trkpt>
      <trkpt lat="50.4293" lon="3.47156">
        <ele>18</ele>
        <time>2022-03-24T14:46:55.961Z</time>
      </trkpt>
      <trkpt lat="50.42922" lon="3.47153">
        <ele>18</ele>
        <time>2022-03-24T14:46:58.000Z</time>
      </trkpt>
      <trkpt lat="50.42913" lon="3.47153">
        <ele>18</ele>
        <time>2022-03-24T14:47:00.000Z</time>
      </trkpt>
      <trkpt lat="50.42903" lon="3.47151">
        <ele>18</ele>
        <time>2022-03-24T14:47:02.125Z</time>
      </trkpt>
      <trkpt lat="50.42894" lon="3.47151">
        <ele>18</ele>
        <time>2022-03-24T14:47:04.000Z</time>
      </trkpt>
      <trkpt lat="50.42886" lon="3.4715">
        <ele>18</ele>
        <time>2022-03-24T14:47:05.924Z</time>
      </trkpt>
      <trkpt lat="50.42878" lon="3.47148">
        <ele>18</ele>
        <time>2022-03-24T14:47:07.000Z</time>
      </trkpt>
      <trkpt lat="50.42873" lon="3.47143">
        <ele>18</ele>
        <time>2022-03-24T14:47:08.448Z</time>
      </trkpt>
      <trkpt lat="50.42862" lon="3.4714">
        <ele>18</ele>
        <time>2022-03-24T14:47:10.000Z</time>
      </trkpt>
      <trkpt lat="50.42856" lon="3.47138">
        <ele>18</ele>
        <time>2022-03-24T14:47:11.000Z</time>
      </trkpt>
      <trkpt lat="50.42852" lon="3.47136">
        <ele>18</ele>
        <time>2022-03-24T14:47:12.000Z</time>
      </trkpt>
      <trkpt lat="50.4284" lon="3.47133">
        <ele>18</ele>
        <time>2022-03-24T14:47:14.000Z</time>
      </trkpt>
      <trkpt lat="50.42835" lon="3.47131">
        <ele>18</ele>
        <time>2022-03-24T14:47:15.000Z</time>
      </trkpt>
      <trkpt lat="50.42829" lon="3.47129">
        <ele>18</ele>
        <time>2022-03-24T14:47:16.000Z</time>
      </trkpt>
      <trkpt lat="50.42824" lon="3.47128">
        <ele>18</ele>
        <time>2022-03-24T14:47:17.000Z</time>
      </trkpt>
      <trkpt lat="50.42818" lon="3.47126">
        <ele>18</ele>
        <time>2022-03-24T14:47:18.000Z</time>
      </trkpt>
      <trkpt lat="50.42813" lon="3.47124">
        <ele>18</ele>
        <time>2022-03-24T14:47:19.000Z</time>
      </trkpt>
      <trkpt lat="50.42808" lon="3.47121">
        <ele>18</ele>
        <time>2022-03-24T14:47:20.000Z</time>
      </trkpt>
      <trkpt lat="50.42804" lon="3.47119">
        <ele>18</ele>
        <time>2022-03-24T14:47:21.000Z</time>
      </trkpt>
      <trkpt lat="50.42796" lon="3.47117">
        <ele>18.3</ele>
        <time>2022-03-24T14:47:23.000Z</time>
      </trkpt>
      <trkpt lat="50.42786" lon="3.47109">
        <ele>18.7</ele>
        <time>2022-03-24T14:47:25.000Z</time>
      </trkpt>
      <trkpt lat="50.42778" lon="3.47105">
        <ele>19</ele>
        <time>2022-03-24T14:47:27.000Z</time>
      </trkpt>
      <trkpt lat="50.4277" lon="3.47103">
        <ele>19</ele>
        <time>2022-03-24T14:47:28.941Z</time>
      </trkpt>
      <trkpt lat="50.42765" lon="3.47104">
        <ele>19</ele>
        <time>2022-03-24T14:47:30.045Z</time>
      </trkpt>
      <trkpt lat="50.4276" lon="3.47107">
        <ele>19</ele>
        <time>2022-03-24T14:47:31.000Z</time>
      </trkpt>
      <trkpt lat="50.42755" lon="3.47109">
        <ele>19</ele>
        <time>2022-03-24T14:47:32.103Z</time>
      </trkpt>
      <trkpt lat="50.42748" lon="3.47114">
        <ele>19</ele>
        <time>2022-03-24T14:47:33.859Z</time>
      </trkpt>
      <trkpt lat="50.42744" lon="3.47118">
        <ele>19</ele>
        <time>2022-03-24T14:47:35.000Z</time>
      </trkpt>
      <trkpt lat="50.42738" lon="3.47128">
        <ele>19</ele>
        <time>2022-03-24T14:47:37.000Z</time>
      </trkpt>
      <trkpt lat="50.42732" lon="3.47137">
        <ele>19</ele>
        <time>2022-03-24T14:47:38.941Z</time>
      </trkpt>
      <trkpt lat="50.42727" lon="3.47141">
        <ele>19</ele>
        <time>2022-03-24T14:47:40.000Z</time>
      </trkpt>
      <trkpt lat="50.42722" lon="3.47143">
        <ele>19</ele>
        <time>2022-03-24T14:47:41.000Z</time>
      </trkpt>
      <trkpt lat="50.42713" lon="3.47147">
        <ele>19</ele>
        <time>2022-03-24T14:47:43.102Z</time>
      </trkpt>
      <trkpt lat="50.42708" lon="3.47151">
        <ele>19</ele>
        <time>2022-03-24T14:47:44.362Z</time>
      </trkpt>
      <trkpt lat="50.42703" lon="3.47153">
        <ele>19</ele>
        <time>2022-03-24T14:47:45.422Z</time>
      </trkpt>
      <trkpt lat="50.42698" lon="3.47156">
        <ele>19</ele>
        <time>2022-03-24T14:47:47.041Z</time>
      </trkpt>
      <trkpt lat="50.42691" lon="3.4716">
        <ele>19</ele>
        <time>2022-03-24T14:47:49.000Z</time>
      </trkpt>
      <trkpt lat="50.42687" lon="3.47164">
        <ele>19</ele>
        <time>2022-03-24T14:47:54.000Z</time>
      </trkpt>
      <trkpt lat="50.42683" lon="3.47167">
        <ele>19</ele>
        <time>2022-03-24T14:48:02.505Z</time>
      </trkpt>
      <trkpt lat="50.42675" lon="3.47168">
        <ele>19</ele>
        <time>2022-03-24T14:48:05.000Z</time>
      </trkpt>
      <trkpt lat="50.42668" lon="3.47166">
        <ele>19</ele>
        <time>2022-03-24T14:48:07.000Z</time>
      </trkpt>
      <trkpt lat="50.42658" lon="3.47159">
        <ele>19</ele>
        <time>2022-03-24T14:48:09.625Z</time>
      </trkpt>
      <trkpt lat="50.42651" lon="3.47153">
        <ele>19</ele>
        <time>2022-03-24T14:48:12.044Z</time>
      </trkpt>
      <trkpt lat="50.42642" lon="3.47146">
        <ele>19</ele>
        <time>2022-03-24T14:48:14.000Z</time>
      </trkpt>
      <trkpt lat="50.42635" lon="3.4714">
        <ele>19</ele>
        <time>2022-03-24T14:48:16.000Z</time>
      </trkpt>
      <trkpt lat="50.42628" lon="3.47132">
        <ele>19</ele>
        <time>2022-03-24T14:48:18.041Z</time>
      </trkpt>
      <trkpt lat="50.42626" lon="3.47125">
        <ele>19</ele>
        <time>2022-03-24T14:48:19.139Z</time>
      </trkpt>
      <trkpt lat="50.42625" lon="3.47112">
        <ele>19</ele>
        <time>2022-03-24T14:48:21.000Z</time>
      </trkpt>
      <trkpt lat="50.42627" lon="3.47101">
        <ele>19</ele>
        <time>2022-03-24T14:48:23.000Z</time>
      </trkpt>
      <trkpt lat="50.42626" lon="3.47091">
        <ele>19</ele>
        <time>2022-03-24T14:48:25.000Z</time>
      </trkpt>
      <trkpt lat="50.42621" lon="3.47083">
        <ele>19</ele>
        <time>2022-03-24T14:48:27.023Z</time>
      </trkpt>
      <trkpt lat="50.42617" lon="3.47079">
        <ele>19</ele>
        <time>2022-03-24T14:48:28.000Z</time>
      </trkpt>
      <trkpt lat="50.42613" lon="3.47076">
        <ele>19</ele>
        <time>2022-03-24T14:48:28.919Z</time>
      </trkpt>
      <trkpt lat="50.42608" lon="3.47074">
        <ele>19</ele>
        <time>2022-03-24T14:48:29.843Z</time>
      </trkpt>
      <trkpt lat="50.42603" lon="3.47071">
        <ele>19</ele>
        <time>2022-03-24T14:48:31.000Z</time>
      </trkpt>
      <trkpt lat="50.42598" lon="3.47069">
        <ele>19</ele>
        <time>2022-03-24T14:48:31.921Z</time>
      </trkpt>
      <trkpt lat="50.42592" lon="3.47069">
        <ele>19</ele>
        <time>2022-03-24T14:48:33.000Z</time>
      </trkpt>
      <trkpt lat="50.42583" lon="3.47068">
        <ele>19</ele>
        <time>2022-03-24T14:48:35.000Z</time>
      </trkpt>
      <trkpt lat="50.42575" lon="3.47068">
        <ele>19</ele>
        <time>2022-03-24T14:48:36.943Z</time>
      </trkpt>
      <trkpt lat="50.42571" lon="3.47067">
        <ele>19</ele>
        <time>2022-03-24T14:48:38.125Z</time>
      </trkpt>
      <trkpt lat="50.42564" lon="3.47064">
        <ele>19</ele>
        <time>2022-03-24T14:48:39.742Z</time>
      </trkpt>
      <trkpt lat="50.4256" lon="3.4706">
        <ele>19</ele>
        <time>2022-03-24T14:48:41.005Z</time>
      </trkpt>
      <trkpt lat="50.42552" lon="3.47054">
        <ele>19</ele>
        <time>2022-03-24T14:48:43.066Z</time>
      </trkpt>
      <trkpt lat="50.42545" lon="3.47048">
        <ele>19</ele>
        <time>2022-03-24T14:48:45.104Z</time>
      </trkpt>
      <trkpt lat="50.42538" lon="3.47043">
        <ele>19</ele>
        <time>2022-03-24T14:48:47.000Z</time>
      </trkpt>
      <trkpt lat="50.4253" lon="3.47038">
        <ele>19</ele>
        <time>2022-03-24T14:48:49.000Z</time>
      </trkpt>
      <trkpt lat="50.42522" lon="3.47035">
        <ele>18.8</ele>
        <time>2022-03-24T14:48:50.943Z</time>
      </trkpt>
      <trkpt lat="50.42514" lon="3.47032">
        <ele>18.5</ele>
        <time>2022-03-24T14:48:52.853Z</time>
      </trkpt>
      <trkpt lat="50.42509" lon="3.47031">
        <ele>18.3</ele>
        <time>2022-03-24T14:48:54.000Z</time>
      </trkpt>
      <trkpt lat="50.42499" lon="3.4703">
        <ele>18</ele>
        <time>2022-03-24T14:48:56.706Z</time>
      </trkpt>
      <trkpt lat="50.4249" lon="3.47029">
        <ele>18</ele>
        <time>2022-03-24T14:48:59.022Z</time>
      </trkpt>
      <trkpt lat="50.42482" lon="3.47029">
        <ele>18</ele>
        <time>2022-03-24T14:49:00.944Z</time>
      </trkpt>
      <trkpt lat="50.42473" lon="3.47029">
        <ele>18</ele>
        <time>2022-03-24T14:49:03.000Z</time>
      </trkpt>
      <trkpt lat="50.42469" lon="3.47029">
        <ele>18</ele>
        <time>2022-03-24T14:49:04.000Z</time>
      </trkpt>
      <trkpt lat="50.42463" lon="3.47029">
        <ele>18</ele>
        <time>2022-03-24T14:49:05.190Z</time>
      </trkpt>
      <trkpt lat="50.42458" lon="3.47029">
        <ele>18</ele>
        <time>2022-03-24T14:49:06.540Z</time>
      </trkpt>
      <trkpt lat="50.42449" lon="3.47027">
        <ele>18</ele>
        <time>2022-03-24T14:49:09.000Z</time>
      </trkpt>
      <trkpt lat="50.42442" lon="3.47026">
        <ele>18</ele>
        <time>2022-03-24T14:49:11.045Z</time>
      </trkpt>
      <trkpt lat="50.42437" lon="3.47027">
        <ele>18</ele>
        <time>2022-03-24T14:49:12.922Z</time>
      </trkpt>
      <trkpt lat="50.42431" lon="3.47027">
        <ele>18</ele>
        <time>2022-03-24T14:49:14.845Z</time>
      </trkpt>
      <trkpt lat="50.42422" lon="3.47027">
        <ele>18</ele>
        <time>2022-03-24T14:49:17.782Z</time>
      </trkpt>
      <trkpt lat="50.42415" lon="3.47027">
        <ele>18.1</ele>
        <time>2022-03-24T14:49:20.000Z</time>
      </trkpt>
      <trkpt lat="50.42409" lon="3.47024">
        <ele>18.3</ele>
        <time>2022-03-24T14:49:22.000Z</time>
      </trkpt>
      <trkpt lat="50.42405" lon="3.47024">
        <ele>18.4</ele>
        <time>2022-03-24T14:49:33.000Z</time>
      </trkpt>
      <trkpt lat="50.42401" lon="3.47018">
        <ele>18.6</ele>
        <time>2022-03-24T14:49:55.000Z</time>
      </trkpt>
      <trkpt lat="50.42397" lon="3.47004">
        <ele>18.7</ele>
        <time>2022-03-24T14:49:58.021Z</time>
      </trkpt>
      <trkpt lat="50.42392" lon="3.46998">
        <ele>18.9</ele>
        <time>2022-03-24T14:50:00.063Z</time>
      </trkpt>
      <trkpt lat="50.42387" lon="3.46996">
        <ele>19</ele>
        <time>2022-03-24T14:50:01.963Z</time>
      </trkpt>
      <trkpt lat="50.42381" lon="3.46993">
        <ele>19</ele>
        <time>2022-03-24T14:50:04.101Z</time>
      </trkpt>
      <trkpt lat="50.42375" lon="3.4699">
        <ele>19</ele>
        <time>2022-03-24T14:50:06.000Z</time>
      </trkpt>
      <trkpt lat="50.42365" lon="3.46985">
        <ele>19</ele>
        <time>2022-03-24T14:50:08.643Z</time>
      </trkpt>
      <trkpt lat="50.42357" lon="3.46981">
        <ele>19.1</ele>
        <time>2022-03-24T14:50:10.860Z</time>
      </trkpt>
      <trkpt lat="50.42352" lon="3.46976">
        <ele>19.3</ele>
        <time>2022-03-24T14:50:13.000Z</time>
      </trkpt>
      <trkpt lat="50.42346" lon="3.46972">
        <ele>19.5</ele>
        <time>2022-03-24T14:50:15.000Z</time>
      </trkpt>
      <trkpt lat="50.42339" lon="3.46969">
        <ele>19.8</ele>
        <time>2022-03-24T14:50:17.000Z</time>
      </trkpt>
      <trkpt lat="50.42334" lon="3.46964">
        <ele>20</ele>
        <time>2022-03-24T14:50:19.142Z</time>
      </trkpt>
      <trkpt lat="50.42328" lon="3.4696">
        <ele>20.2</ele>
        <time>2022-03-24T14:50:21.000Z</time>
      </trkpt>
      <trkpt lat="50.42323" lon="3.46956">
        <ele>20.4</ele>
        <time>2022-03-24T14:50:23.000Z</time>
      </trkpt>
      <trkpt lat="50.4232" lon="3.46951">
        <ele>20.5</ele>
        <time>2022-03-24T14:50:25.000Z</time>
      </trkpt>
      <trkpt lat="50.42314" lon="3.46946">
        <ele>20.7</ele>
        <time>2022-03-24T14:50:27.000Z</time>
      </trkpt>
      <trkpt lat="50.42307" lon="3.46943">
        <ele>20.9</ele>
        <time>2022-03-24T14:50:29.000Z</time>
      </trkpt>
      <trkpt lat="50.423" lon="3.46941">
        <ele>20.9</ele>
        <time>2022-03-24T14:50:31.000Z</time>
      </trkpt>
      <trkpt lat="50.42292" lon="3.46934">
        <ele>20.8</ele>
        <time>2022-03-24T14:50:34.082Z</time>
      </trkpt>
      <trkpt lat="50.42287" lon="3.46929">
        <ele>20.8</ele>
        <time>2022-03-24T14:50:36.000Z</time>
      </trkpt>
      <trkpt lat="50.42284" lon="3.46924">
        <ele>20.8</ele>
        <time>2022-03-24T14:50:38.044Z</time>
      </trkpt>
      <trkpt lat="50.42279" lon="3.46915">
        <ele>21</ele>
        <time>2022-03-24T14:50:40.484Z</time>
      </trkpt>
      <trkpt lat="50.42274" lon="3.46908">
        <ele>21</ele>
        <time>2022-03-24T14:50:42.764Z</time>
      </trkpt>
      <trkpt lat="50.4227" lon="3.46901">
        <ele>21.2</ele>
        <time>2022-03-24T14:50:45.144Z</time>
      </trkpt>
      <trkpt lat="50.42266" lon="3.46895">
        <ele>21.3</ele>
        <time>2022-03-24T14:50:47.022Z</time>
      </trkpt>
      <trkpt lat="50.42262" lon="3.46888">
        <ele>21.6</ele>
        <time>2022-03-24T14:50:49.123Z</time>
      </trkpt>
      <trkpt lat="50.42254" lon="3.46881">
        <ele>21.9</ele>
        <time>2022-03-24T14:50:52.120Z</time>
      </trkpt>
      <trkpt lat="50.42249" lon="3.46879">
        <ele>22</ele>
        <time>2022-03-24T14:50:53.581Z</time>
      </trkpt>
      <trkpt lat="50.42242" lon="3.46878">
        <ele>22</ele>
        <time>2022-03-24T14:50:55.846Z</time>
      </trkpt>
      <trkpt lat="50.42236" lon="3.46875">
        <ele>22</ele>
        <time>2022-03-24T14:50:58.000Z</time>
      </trkpt>
      <trkpt lat="50.42232" lon="3.4687">
        <ele>22</ele>
        <time>2022-03-24T14:51:00.000Z</time>
      </trkpt>
      <trkpt lat="50.42227" lon="3.46863">
        <ele>22</ele>
        <time>2022-03-24T14:51:03.000Z</time>
      </trkpt>
      <trkpt lat="50.42224" lon="3.46857">
        <ele>22.1</ele>
        <time>2022-03-24T14:51:04.919Z</time>
      </trkpt>
      <trkpt lat="50.42219" lon="3.46853">
        <ele>22.4</ele>
        <time>2022-03-24T14:51:07.000Z</time>
      </trkpt>
      <trkpt lat="50.42214" lon="3.4685">
        <ele>22.6</ele>
        <time>2022-03-24T14:51:08.982Z</time>
      </trkpt>
      <trkpt lat="50.42208" lon="3.46848">
        <ele>22.7</ele>
        <time>2022-03-24T14:51:11.000Z</time>
      </trkpt>
      <trkpt lat="50.42201" lon="3.46844">
        <ele>22.9</ele>
        <time>2022-03-24T14:51:13.000Z</time>
      </trkpt>
      <trkpt lat="50.42193" lon="3.4684">
        <ele>22.9</ele>
        <time>2022-03-24T14:51:15.880Z</time>
      </trkpt>
      <trkpt lat="50.42187" lon="3.46837">
        <ele>22.7</ele>
        <time>2022-03-24T14:51:18.000Z</time>
      </trkpt>
      <trkpt lat="50.42182" lon="3.46831">
        <ele>22.6</ele>
        <time>2022-03-24T14:51:19.741Z</time>
      </trkpt>
      <trkpt lat="50.42175" lon="3.46828">
        <ele>22.3</ele>
        <time>2022-03-24T14:51:21.863Z</time>
      </trkpt>
      <trkpt lat="50.4217" lon="3.46829">
        <ele>22.1</ele>
        <time>2022-03-24T14:51:23.165Z</time>
      </trkpt>
      <trkpt lat="50.42165" lon="3.46831">
        <ele>22</ele>
        <time>2022-03-24T14:51:24.681Z</time>
      </trkpt>
      <trkpt lat="50.42157" lon="3.46834">
        <ele>22</ele>
        <time>2022-03-24T14:51:26.962Z</time>
      </trkpt>
      <trkpt lat="50.42149" lon="3.46836">
        <ele>22</ele>
        <time>2022-03-24T14:51:29.104Z</time>
      </trkpt>
      <trkpt lat="50.42142" lon="3.46833">
        <ele>22</ele>
        <time>2022-03-24T14:51:31.000Z</time>
      </trkpt>
      <trkpt lat="50.42136" lon="3.46829">
        <ele>22</ele>
        <time>2022-03-24T14:51:33.000Z</time>
      </trkpt>
      <trkpt lat="50.4213" lon="3.46821">
        <ele>22</ele>
        <time>2022-03-24T14:51:35.000Z</time>
      </trkpt>
      <trkpt lat="50.42122" lon="3.46809">
        <ele>22</ele>
        <time>2022-03-24T14:51:38.201Z</time>
      </trkpt>
      <trkpt lat="50.42118" lon="3.46803">
        <ele>22</ele>
        <time>2022-03-24T14:51:39.521Z</time>
      </trkpt>
      <trkpt lat="50.42111" lon="3.46795">
        <ele>22</ele>
        <time>2022-03-24T14:51:42.103Z</time>
      </trkpt>
      <trkpt lat="50.42106" lon="3.46788">
        <ele>22</ele>
        <time>2022-03-24T14:51:44.000Z</time>
      </trkpt>
      <trkpt lat="50.42102" lon="3.4678">
        <ele>22</ele>
        <time>2022-03-24T14:51:46.384Z</time>
      </trkpt>
      <trkpt lat="50.42097" lon="3.46773">
        <ele>22.1</ele>
        <time>2022-03-24T14:51:49.000Z</time>
      </trkpt>
      <trkpt lat="50.42093" lon="3.46768">
        <ele>22.2</ele>
        <time>2022-03-24T14:51:51.000Z</time>
      </trkpt>
      <trkpt lat="50.42088" lon="3.46764">
        <ele>22.4</ele>
        <time>2022-03-24T14:51:52.940Z</time>
      </trkpt>
      <trkpt lat="50.42082" lon="3.4676">
        <ele>22.7</ele>
        <time>2022-03-24T14:51:55.000Z</time>
      </trkpt>
      <trkpt lat="50.42076" lon="3.46757">
        <ele>22.8</ele>
        <time>2022-03-24T14:51:56.383Z</time>
      </trkpt>
      <trkpt lat="50.42072" lon="3.46754">
        <ele>22.9</ele>
        <time>2022-03-24T14:51:57.664Z</time>
      </trkpt>
      <trkpt lat="50.42068" lon="3.46749">
        <ele>23</ele>
        <time>2022-03-24T14:51:59.000Z</time>
      </trkpt>
      <trkpt lat="50.42062" lon="3.46741">
        <ele>23</ele>
        <time>2022-03-24T14:52:01.000Z</time>
      </trkpt>
      <trkpt lat="50.42058" lon="3.46734">
        <ele>23</ele>
        <time>2022-03-24T14:52:02.962Z</time>
      </trkpt>
      <trkpt lat="50.42054" lon="3.46728">
        <ele>23</ele>
        <time>2022-03-24T14:52:04.622Z</time>
      </trkpt>
      <trkpt lat="50.42048" lon="3.4672">
        <ele>23</ele>
        <time>2022-03-24T14:52:06.882Z</time>
      </trkpt>
      <trkpt lat="50.42042" lon="3.46716">
        <ele>23</ele>
        <time>2022-03-24T14:52:09.000Z</time>
      </trkpt>
      <trkpt lat="50.42032" lon="3.46707">
        <ele>23</ele>
        <time>2022-03-24T14:52:12.000Z</time>
      </trkpt>
      <trkpt lat="50.42027" lon="3.46699">
        <ele>23</ele>
        <time>2022-03-24T14:52:14.021Z</time>
      </trkpt>
      <trkpt lat="50.42023" lon="3.46689">
        <ele>23.2</ele>
        <time>2022-03-24T14:52:16.000Z</time>
      </trkpt>
      <trkpt lat="50.42018" lon="3.46679">
        <ele>23.4</ele>
        <time>2022-03-24T14:52:18.000Z</time>
      </trkpt>
      <trkpt lat="50.42013" lon="3.46669">
        <ele>23.4</ele>
        <time>2022-03-24T14:52:20.000Z</time>
      </trkpt>
      <trkpt lat="50.42008" lon="3.4666">
        <ele>23.5</ele>
        <time>2022-03-24T14:52:21.924Z</time>
      </trkpt>
      <trkpt lat="50.42003" lon="3.46648">
        <ele>23.7</ele>
        <time>2022-03-24T14:52:24.522Z</time>
      </trkpt>
      <trkpt lat="50.41996" lon="3.46638">
        <ele>23.9</ele>
        <time>2022-03-24T14:52:27.004Z</time>
      </trkpt>
      <trkpt lat="50.41989" lon="3.46631">
        <ele>23.6</ele>
        <time>2022-03-24T14:52:29.000Z</time>
      </trkpt>
      <trkpt lat="50.41984" lon="3.46624">
        <ele>23.4</ele>
        <time>2022-03-24T14:52:31.000Z</time>
      </trkpt>
      <trkpt lat="50.41979" lon="3.46618">
        <ele>23.2</ele>
        <time>2022-03-24T14:52:33.000Z</time>
      </trkpt>
      <trkpt lat="50.41973" lon="3.46613">
        <ele>23</ele>
        <time>2022-03-24T14:52:35.000Z</time>
      </trkpt>
      <trkpt lat="50.41966" lon="3.46611">
        <ele>23</ele>
        <time>2022-03-24T14:52:36.923Z</time>
      </trkpt>
      <trkpt lat="50.41957" lon="3.46609">
        <ele>23</ele>
        <time>2022-03-24T14:52:38.943Z</time>
      </trkpt>
      <trkpt lat="50.41952" lon="3.46606">
        <ele>23.1</ele>
        <time>2022-03-24T14:52:40.000Z</time>
      </trkpt>
      <trkpt lat="50.41943" lon="3.46604">
        <ele>22.9</ele>
        <time>2022-03-24T14:52:41.583Z</time>
      </trkpt>
      <trkpt lat="50.41937" lon="3.46598">
        <ele>22.7</ele>
        <time>2022-03-24T14:52:43.000Z</time>
      </trkpt>
      <trkpt lat="50.41932" lon="3.46589">
        <ele>22.6</ele>
        <time>2022-03-24T14:52:44.965Z</time>
      </trkpt>
      <trkpt lat="50.41928" lon="3.46581">
        <ele>22.4</ele>
        <time>2022-03-24T14:52:47.000Z</time>
      </trkpt>
      <trkpt lat="50.41928" lon="3.4657">
        <ele>22.4</ele>
        <time>2022-03-24T14:52:49.000Z</time>
      </trkpt>
      <trkpt lat="50.41931" lon="3.46557">
        <ele>22.5</ele>
        <time>2022-03-24T14:52:51.363Z</time>
      </trkpt>
      <trkpt lat="50.41934" lon="3.46547">
        <ele>22.6</ele>
        <time>2022-03-24T14:52:53.851Z</time>
      </trkpt>
      <trkpt lat="50.41939" lon="3.46542">
        <ele>22.8</ele>
        <time>2022-03-24T14:52:56.000Z</time>
      </trkpt>
      <trkpt lat="50.41944" lon="3.4655">
        <ele>23</ele>
        <time>2022-03-24T14:53:00.000Z</time>
      </trkpt>
      <trkpt lat="50.4195" lon="3.46554">
        <ele>23.2</ele>
        <time>2022-03-24T14:53:03.000Z</time>
      </trkpt>
      <trkpt lat="50.41954" lon="3.46556">
        <ele>23.3</ele>
        <time>2022-03-24T14:53:05.000Z</time>
      </trkpt>
      <trkpt lat="50.4196" lon="3.46559">
        <ele>23.6</ele>
        <time>2022-03-24T14:53:08.000Z</time>
      </trkpt>
      <trkpt lat="50.41965" lon="3.46565">
        <ele>23.7</ele>
        <time>2022-03-24T14:53:10.000Z</time>
      </trkpt>
      <trkpt lat="50.41972" lon="3.46572">
        <ele>24</ele>
        <time>2022-03-24T14:53:12.000Z</time>
      </trkpt>
      <trkpt lat="50.41979" lon="3.46578">
        <ele>24</ele>
        <time>2022-03-24T14:53:14.000Z</time>
      </trkpt>
      <trkpt lat="50.41985" lon="3.46585">
        <ele>24</ele>
        <time>2022-03-24T14:53:16.000Z</time>
      </trkpt>
      <trkpt lat="50.41992" lon="3.46591">
        <ele>23.9</ele>
        <time>2022-03-24T14:53:18.000Z</time>
      </trkpt>
      <trkpt lat="50.41998" lon="3.46597">
        <ele>24</ele>
        <time>2022-03-24T14:53:20.000Z</time>
      </trkpt>
      <trkpt lat="50.42005" lon="3.46605">
        <ele>24</ele>
        <time>2022-03-24T14:53:21.980Z</time>
      </trkpt>
      <trkpt lat="50.42008" lon="3.46609">
        <ele>24</ele>
        <time>2022-03-24T14:53:23.062Z</time>
      </trkpt>
      <trkpt lat="50.42016" lon="3.46615">
        <ele>24</ele>
        <time>2022-03-24T14:53:25.000Z</time>
      </trkpt>
      <trkpt lat="50.42023" lon="3.4662">
        <ele>24</ele>
        <time>2022-03-24T14:53:27.000Z</time>
      </trkpt>
      <trkpt lat="50.42028" lon="3.46622">
        <ele>24</ele>
        <time>2022-03-24T14:53:28.000Z</time>
      </trkpt>
      <trkpt lat="50.42032" lon="3.46625">
        <ele>24.1</ele>
        <time>2022-03-24T14:53:29.000Z</time>
      </trkpt>
      <trkpt lat="50.4204" lon="3.46631">
        <ele>24.1</ele>
        <time>2022-03-24T14:53:31.000Z</time>
      </trkpt>
      <trkpt lat="50.42046" lon="3.46637">
        <ele>24</ele>
        <time>2022-03-24T14:53:33.000Z</time>
      </trkpt>
      <trkpt lat="50.42053" lon="3.46643">
        <ele>24</ele>
        <time>2022-03-24T14:53:35.000Z</time>
      </trkpt>
      <trkpt lat="50.42058" lon="3.46648">
        <ele>24.1</ele>
        <time>2022-03-24T14:53:37.000Z</time>
      </trkpt>
      <trkpt lat="50.42061" lon="3.46643">
        <ele>24.2</ele>
        <time>2022-03-24T14:53:40.000Z</time>
      </trkpt>
      <trkpt lat="50.42064" lon="3.46635">
        <ele>24.4</ele>
        <time>2022-03-24T14:53:44.000Z</time>
      </trkpt>
      <trkpt lat="50.42067" lon="3.46624">
        <ele>24.7</ele>
        <time>2022-03-24T14:53:49.001Z</time>
      </trkpt>
      <trkpt lat="50.4207" lon="3.46615">
        <ele>24.9</ele>
        <time>2022-03-24T14:53:51.000Z</time>
      </trkpt>
      <trkpt lat="50.42074" lon="3.46605">
        <ele>25.1</ele>
        <time>2022-03-24T14:53:53.101Z</time>
      </trkpt>
      <trkpt lat="50.42082" lon="3.46601">
        <ele>25.3</ele>
        <time>2022-03-24T14:53:56.064Z</time>
      </trkpt>
      <trkpt lat="50.42088" lon="3.46604">
        <ele>25.3</ele>
        <time>2022-03-24T14:53:58.023Z</time>
      </trkpt>
      <trkpt lat="50.42095" lon="3.46608">
        <ele>25.1</ele>
        <time>2022-03-24T14:54:00.000Z</time>
      </trkpt>
      <trkpt lat="50.42101" lon="3.46602">
        <ele>25.3</ele>
        <time>2022-03-24T14:54:02.242Z</time>
      </trkpt>
      <trkpt lat="50.42109" lon="3.46595">
        <ele>25.6</ele>
        <time>2022-03-24T14:54:04.582Z</time>
      </trkpt>
      <trkpt lat="50.42116" lon="3.46595">
        <ele>25.6</ele>
        <time>2022-03-24T14:54:06.853Z</time>
      </trkpt>
      <trkpt lat="50.42121" lon="3.46599">
        <ele>25.4</ele>
        <time>2022-03-24T14:54:09.000Z</time>
      </trkpt>
      <trkpt lat="50.42126" lon="3.466">
        <ele>25.4</ele>
        <time>2022-03-24T14:54:11.000Z</time>
      </trkpt>
      <trkpt lat="50.42131" lon="3.46596">
        <ele>25.5</ele>
        <time>2022-03-24T14:54:12.724Z</time>
      </trkpt>
      <trkpt lat="50.42136" lon="3.4659">
        <ele>25.8</ele>
        <time>2022-03-24T14:54:14.684Z</time>
      </trkpt>
      <trkpt lat="50.42144" lon="3.46586">
        <ele>25.9</ele>
        <time>2022-03-24T14:54:16.661Z</time>
      </trkpt>
      <trkpt lat="50.42148" lon="3.46586">
        <ele>25.9</ele>
        <time>2022-03-24T14:54:18.144Z</time>
      </trkpt>
      <trkpt lat="50.42154" lon="3.46583">
        <ele>26</ele>
        <time>2022-03-24T14:54:19.725Z</time>
      </trkpt>
      <trkpt lat="50.42159" lon="3.46578">
        <ele>26</ele>
        <time>2022-03-24T14:54:21.102Z</time>
      </trkpt>
      <trkpt lat="50.42163" lon="3.46574">
        <ele>26</ele>
        <time>2022-03-24T14:54:22.245Z</time>
      </trkpt>
      <trkpt lat="50.42168" lon="3.46572">
        <ele>26</ele>
        <time>2022-03-24T14:54:23.783Z</time>
      </trkpt>
      <trkpt lat="50.42173" lon="3.46565">
        <ele>25.9</ele>
        <time>2022-03-24T14:54:26.000Z</time>
      </trkpt>
      <trkpt lat="50.42179" lon="3.46557">
        <ele>26</ele>
        <time>2022-03-24T14:54:28.000Z</time>
      </trkpt>
      <trkpt lat="50.42182" lon="3.4655">
        <ele>26.2</ele>
        <time>2022-03-24T14:54:30.000Z</time>
      </trkpt>
      <trkpt lat="50.42187" lon="3.4654">
        <ele>26.6</ele>
        <time>2022-03-24T14:54:32.543Z</time>
      </trkpt>
      <trkpt lat="50.4219" lon="3.46533">
        <ele>26.8</ele>
        <time>2022-03-24T14:54:34.000Z</time>
      </trkpt>
      <trkpt lat="50.42192" lon="3.46525">
        <ele>27</ele>
        <time>2022-03-24T14:54:36.024Z</time>
      </trkpt>
      <trkpt lat="50.42195" lon="3.46517">
        <ele>27</ele>
        <time>2022-03-24T14:54:38.083Z</time>
      </trkpt>
      <trkpt lat="50.42199" lon="3.4651">
        <ele>26.9</ele>
        <time>2022-03-24T14:54:40.000Z</time>
      </trkpt>
      <trkpt lat="50.42192" lon="3.46513">
        <ele>27</ele>
        <time>2022-03-24T14:55:15.845Z</time>
      </trkpt>
      <trkpt lat="50.42187" lon="3.46517">
        <ele>27.1</ele>
        <time>2022-03-24T14:55:18.000Z</time>
      </trkpt>
      <trkpt lat="50.42181" lon="3.46518">
        <ele>27.2</ele>
        <time>2022-03-24T14:55:20.161Z</time>
      </trkpt>
      <trkpt lat="50.42174" lon="3.4652">
        <ele>27.2</ele>
        <time>2022-03-24T14:55:22.022Z</time>
      </trkpt>
      <trkpt lat="50.42168" lon="3.46518">
        <ele>27.3</ele>
        <time>2022-03-24T14:55:24.044Z</time>
      </trkpt>
      <trkpt lat="50.42161" lon="3.46515">
        <ele>27.4</ele>
        <time>2022-03-24T14:55:26.143Z</time>
      </trkpt>
      <trkpt lat="50.42148" lon="3.46513">
        <ele>27.2</ele>
        <time>2022-03-24T14:55:29.023Z</time>
      </trkpt>
      <trkpt lat="50.42143" lon="3.46514">
        <ele>27.1</ele>
        <time>2022-03-24T14:55:30.000Z</time>
      </trkpt>
      <trkpt lat="50.42136" lon="3.46522">
        <ele>27</ele>
        <time>2022-03-24T14:55:32.127Z</time>
      </trkpt>
      <trkpt lat="50.42129" lon="3.46527">
        <ele>27</ele>
        <time>2022-03-24T14:55:33.584Z</time>
      </trkpt>
      <trkpt lat="50.42119" lon="3.46533">
        <ele>26.8</ele>
        <time>2022-03-24T14:55:35.000Z</time>
      </trkpt>
      <trkpt lat="50.42113" lon="3.46534">
        <ele>26.8</ele>
        <time>2022-03-24T14:55:36.000Z</time>
      </trkpt>
      <trkpt lat="50.42108" lon="3.46534">
        <ele>26.7</ele>
        <time>2022-03-24T14:55:37.000Z</time>
      </trkpt>
      <trkpt lat="50.42103" lon="3.46535">
        <ele>26.5</ele>
        <time>2022-03-24T14:55:38.000Z</time>
      </trkpt>
      <trkpt lat="50.42098" lon="3.46536">
        <ele>26.4</ele>
        <time>2022-03-24T14:55:39.000Z</time>
      </trkpt>
      <trkpt lat="50.42093" lon="3.46537">
        <ele>26.2</ele>
        <time>2022-03-24T14:55:40.000Z</time>
      </trkpt>
      <trkpt lat="50.42088" lon="3.46537">
        <ele>26.1</ele>
        <time>2022-03-24T14:55:41.000Z</time>
      </trkpt>
      <trkpt lat="50.42083" lon="3.46535">
        <ele>26</ele>
        <time>2022-03-24T14:55:42.000Z</time>
      </trkpt>
      <trkpt lat="50.42077" lon="3.46526">
        <ele>26</ele>
        <time>2022-03-24T14:55:45.026Z</time>
      </trkpt>
      <trkpt lat="50.42076" lon="3.46519">
        <ele>26.2</ele>
        <time>2022-03-24T14:55:46.000Z</time>
      </trkpt>
      <trkpt lat="50.42073" lon="3.46508">
        <ele>26.4</ele>
        <time>2022-03-24T14:55:48.185Z</time>
      </trkpt>
      <trkpt lat="50.42069" lon="3.46501">
        <ele>26.5</ele>
        <time>2022-03-24T14:55:49.764Z</time>
      </trkpt>
      <trkpt lat="50.42063" lon="3.4649">
        <ele>26.3</ele>
        <time>2022-03-24T14:55:52.045Z</time>
      </trkpt>
      <trkpt lat="50.42059" lon="3.46472">
        <ele>26.1</ele>
        <time>2022-03-24T14:55:55.103Z</time>
      </trkpt>
      <trkpt lat="50.42055" lon="3.46461">
        <ele>26</ele>
        <time>2022-03-24T14:55:57.000Z</time>
      </trkpt>
      <trkpt lat="50.42048" lon="3.4646">
        <ele>26</ele>
        <time>2022-03-24T14:55:59.044Z</time>
      </trkpt>
      <trkpt lat="50.42042" lon="3.46461">
        <ele>26</ele>
        <time>2022-03-24T14:56:00.000Z</time>
      </trkpt>
      <trkpt lat="50.42037" lon="3.46462">
        <ele>26</ele>
        <time>2022-03-24T14:56:01.000Z</time>
      </trkpt>
      <trkpt lat="50.42032" lon="3.4646">
        <ele>26</ele>
        <time>2022-03-24T14:56:02.153Z</time>
      </trkpt>
      <trkpt lat="50.4202" lon="3.46456">
        <ele>25.7</ele>
        <time>2022-03-24T14:56:04.000Z</time>
      </trkpt>
      <trkpt lat="50.42014" lon="3.46456">
        <ele>25.5</ele>
        <time>2022-03-24T14:56:06.357Z</time>
      </trkpt>
      <trkpt lat="50.42008" lon="3.46449">
        <ele>25.3</ele>
        <time>2022-03-24T14:56:07.619Z</time>
      </trkpt>
      <trkpt lat="50.42002" lon="3.46443">
        <ele>25.1</ele>
        <time>2022-03-24T14:56:09.059Z</time>
      </trkpt>
      <trkpt lat="50.41997" lon="3.46439">
        <ele>24.9</ele>
        <time>2022-03-24T14:56:10.140Z</time>
      </trkpt>
      <trkpt lat="50.41987" lon="3.46433">
        <ele>24.5</ele>
        <time>2022-03-24T14:56:11.532Z</time>
      </trkpt>
      <trkpt lat="50.41983" lon="3.46432">
        <ele>24.4</ele>
        <time>2022-03-24T14:56:12.666Z</time>
      </trkpt>
      <trkpt lat="50.41981" lon="3.46425">
        <ele>24.3</ele>
        <time>2022-03-24T14:56:15.000Z</time>
      </trkpt>
      <trkpt lat="50.41985" lon="3.46418">
        <ele>24.5</ele>
        <time>2022-03-24T14:56:17.554Z</time>
      </trkpt>
      <trkpt lat="50.41991" lon="3.46408">
        <ele>24.7</ele>
        <time>2022-03-24T14:56:20.000Z</time>
      </trkpt>
      <trkpt lat="50.41995" lon="3.46396">
        <ele>24.8</ele>
        <time>2022-03-24T14:56:22.014Z</time>
      </trkpt>
      <trkpt lat="50.41999" lon="3.46385">
        <ele>24.8</ele>
        <time>2022-03-24T14:56:23.673Z</time>
      </trkpt>
      <trkpt lat="50.42003" lon="3.46378">
        <ele>24.7</ele>
        <time>2022-03-24T14:56:24.831Z</time>
      </trkpt>
      <trkpt lat="50.42006" lon="3.4637">
        <ele>24.5</ele>
        <time>2022-03-24T14:56:26.000Z</time>
      </trkpt>
      <trkpt lat="50.42008" lon="3.46363">
        <ele>24.3</ele>
        <time>2022-03-24T14:56:26.974Z</time>
      </trkpt>
      <trkpt lat="50.42011" lon="3.46351">
        <ele>24.4</ele>
        <time>2022-03-24T14:56:28.000Z</time>
      </trkpt>
      <trkpt lat="50.42013" lon="3.46344">
        <ele>24.5</ele>
        <time>2022-03-24T14:56:29.000Z</time>
      </trkpt>
      <trkpt lat="50.42016" lon="3.46336">
        <ele>24.6</ele>
        <time>2022-03-24T14:56:30.000Z</time>
      </trkpt>
      <trkpt lat="50.42018" lon="3.46329">
        <ele>24.5</ele>
        <time>2022-03-24T14:56:31.000Z</time>
      </trkpt>
      <trkpt lat="50.42021" lon="3.46321">
        <ele>24.3</ele>
        <time>2022-03-24T14:56:32.000Z</time>
      </trkpt>
      <trkpt lat="50.42024" lon="3.46314">
        <ele>24.2</ele>
        <time>2022-03-24T14:56:33.000Z</time>
      </trkpt>
      <trkpt lat="50.42027" lon="3.46307">
        <ele>24</ele>
        <time>2022-03-24T14:56:34.000Z</time>
      </trkpt>
      <trkpt lat="50.42029" lon="3.46299">
        <ele>24</ele>
        <time>2022-03-24T14:56:35.000Z</time>
      </trkpt>
      <trkpt lat="50.42032" lon="3.46291">
        <ele>24.1</ele>
        <time>2022-03-24T14:56:36.000Z</time>
      </trkpt>
      <trkpt lat="50.42035" lon="3.46284">
        <ele>24.1</ele>
        <time>2022-03-24T14:56:37.000Z</time>
      </trkpt>
      <trkpt lat="50.42037" lon="3.46276">
        <ele>24</ele>
        <time>2022-03-24T14:56:38.000Z</time>
      </trkpt>
      <trkpt lat="50.4204" lon="3.46269">
        <ele>23.8</ele>
        <time>2022-03-24T14:56:39.000Z</time>
      </trkpt>
      <trkpt lat="50.42043" lon="3.46262">
        <ele>23.7</ele>
        <time>2022-03-24T14:56:40.000Z</time>
      </trkpt>
      <trkpt lat="50.42045" lon="3.46254">
        <ele>23.7</ele>
        <time>2022-03-24T14:56:41.000Z</time>
      </trkpt>
      <trkpt lat="50.42047" lon="3.46246">
        <ele>23.7</ele>
        <time>2022-03-24T14:56:42.000Z</time>
      </trkpt>
      <trkpt lat="50.4205" lon="3.46239">
        <ele>23.8</ele>
        <time>2022-03-24T14:56:43.000Z</time>
      </trkpt>
      <trkpt lat="50.42052" lon="3.46232">
        <ele>23.9</ele>
        <time>2022-03-24T14:56:44.000Z</time>
      </trkpt>
      <trkpt lat="50.42055" lon="3.46224">
        <ele>24</ele>
        <time>2022-03-24T14:56:45.000Z</time>
      </trkpt>
      <trkpt lat="50.42058" lon="3.46218">
        <ele>24.1</ele>
        <time>2022-03-24T14:56:46.000Z</time>
      </trkpt>
      <trkpt lat="50.4206" lon="3.46211">
        <ele>24.2</ele>
        <time>2022-03-24T14:56:47.000Z</time>
      </trkpt>
      <trkpt lat="50.42063" lon="3.46205">
        <ele>24.3</ele>
        <time>2022-03-24T14:56:48.000Z</time>
      </trkpt>
      <trkpt lat="50.42065" lon="3.46198">
        <ele>24.3</ele>
        <time>2022-03-24T14:56:49.000Z</time>
      </trkpt>
      <trkpt lat="50.42068" lon="3.46192">
        <ele>24.4</ele>
        <time>2022-03-24T14:56:50.000Z</time>
      </trkpt>
      <trkpt lat="50.42071" lon="3.46187">
        <ele>24.3</ele>
        <time>2022-03-24T14:56:51.000Z</time>
      </trkpt>
      <trkpt lat="50.42074" lon="3.46181">
        <ele>24.2</ele>
        <time>2022-03-24T14:56:52.000Z</time>
      </trkpt>
      <trkpt lat="50.42077" lon="3.46175">
        <ele>24.1</ele>
        <time>2022-03-24T14:56:53.000Z</time>
      </trkpt>
      <trkpt lat="50.4208" lon="3.46168">
        <ele>23.9</ele>
        <time>2022-03-24T14:56:54.000Z</time>
      </trkpt>
      <trkpt lat="50.42082" lon="3.46162">
        <ele>24</ele>
        <time>2022-03-24T14:56:55.000Z</time>
      </trkpt>
      <trkpt lat="50.42084" lon="3.46156">
        <ele>24</ele>
        <time>2022-03-24T14:56:56.000Z</time>
      </trkpt>
      <trkpt lat="50.42087" lon="3.46149">
        <ele>24.1</ele>
        <time>2022-03-24T14:56:57.000Z</time>
      </trkpt>
      <trkpt lat="50.42089" lon="3.46142">
        <ele>24.2</ele>
        <time>2022-03-24T14:56:58.000Z</time>
      </trkpt>
      <trkpt lat="50.42092" lon="3.46135">
        <ele>24.3</ele>
        <time>2022-03-24T14:56:59.000Z</time>
      </trkpt>
      <trkpt lat="50.42094" lon="3.46127">
        <ele>24.4</ele>
        <time>2022-03-24T14:57:00.000Z</time>
      </trkpt>
      <trkpt lat="50.42096" lon="3.4612">
        <ele>24.5</ele>
        <time>2022-03-24T14:57:01.000Z</time>
      </trkpt>
      <trkpt lat="50.42099" lon="3.46114">
        <ele>24.6</ele>
        <time>2022-03-24T14:57:02.000Z</time>
      </trkpt>
      <trkpt lat="50.42101" lon="3.46107">
        <ele>24.5</ele>
        <time>2022-03-24T14:57:03.000Z</time>
      </trkpt>
      <trkpt lat="50.42106" lon="3.46094">
        <ele>24.2</ele>
        <time>2022-03-24T14:57:05.000Z</time>
      </trkpt>
      <trkpt lat="50.42109" lon="3.46087">
        <ele>24.1</ele>
        <time>2022-03-24T14:57:06.000Z</time>
      </trkpt>
      <trkpt lat="50.42111" lon="3.4608">
        <ele>24</ele>
        <time>2022-03-24T14:57:07.000Z</time>
      </trkpt>
      <trkpt lat="50.42115" lon="3.46074">
        <ele>24.1</ele>
        <time>2022-03-24T14:57:08.000Z</time>
      </trkpt>
      <trkpt lat="50.42117" lon="3.46067">
        <ele>24.2</ele>
        <time>2022-03-24T14:57:09.000Z</time>
      </trkpt>
      <trkpt lat="50.4212" lon="3.4606">
        <ele>24.3</ele>
        <time>2022-03-24T14:57:10.000Z</time>
      </trkpt>
      <trkpt lat="50.42123" lon="3.46053">
        <ele>24.3</ele>
        <time>2022-03-24T14:57:11.000Z</time>
      </trkpt>
      <trkpt lat="50.42126" lon="3.46046">
        <ele>24.2</ele>
        <time>2022-03-24T14:57:12.000Z</time>
      </trkpt>
      <trkpt lat="50.42128" lon="3.46039">
        <ele>24</ele>
        <time>2022-03-24T14:57:13.000Z</time>
      </trkpt>
      <trkpt lat="50.42131" lon="3.46032">
        <ele>23.9</ele>
        <time>2022-03-24T14:57:14.000Z</time>
      </trkpt>
      <trkpt lat="50.42133" lon="3.46025">
        <ele>23.7</ele>
        <time>2022-03-24T14:57:15.000Z</time>
      </trkpt>
      <trkpt lat="50.42136" lon="3.46019">
        <ele>23.6</ele>
        <time>2022-03-24T14:57:16.000Z</time>
      </trkpt>
      <trkpt lat="50.42138" lon="3.46012">
        <ele>23.4</ele>
        <time>2022-03-24T14:57:17.000Z</time>
      </trkpt>
      <trkpt lat="50.42143" lon="3.46">
        <ele>23.3</ele>
        <time>2022-03-24T14:57:19.000Z</time>
      </trkpt>
      <trkpt lat="50.42147" lon="3.45989">
        <ele>23.5</ele>
        <time>2022-03-24T14:57:21.000Z</time>
      </trkpt>
      <trkpt lat="50.4215" lon="3.45982">
        <ele>23.5</ele>
        <time>2022-03-24T14:57:22.000Z</time>
      </trkpt>
      <trkpt lat="50.42152" lon="3.45974">
        <ele>23.5</ele>
        <time>2022-03-24T14:57:23.000Z</time>
      </trkpt>
      <trkpt lat="50.42155" lon="3.45967">
        <ele>23.5</ele>
        <time>2022-03-24T14:57:24.000Z</time>
      </trkpt>
      <trkpt lat="50.42157" lon="3.4596">
        <ele>23.5</ele>
        <time>2022-03-24T14:57:25.000Z</time>
      </trkpt>
      <trkpt lat="50.4216" lon="3.45953">
        <ele>23.6</ele>
        <time>2022-03-24T14:57:26.000Z</time>
      </trkpt>
      <trkpt lat="50.42162" lon="3.45945">
        <ele>23.7</ele>
        <time>2022-03-24T14:57:27.000Z</time>
      </trkpt>
      <trkpt lat="50.42164" lon="3.45937">
        <ele>23.6</ele>
        <time>2022-03-24T14:57:28.000Z</time>
      </trkpt>
      <trkpt lat="50.42167" lon="3.4593">
        <ele>23.5</ele>
        <time>2022-03-24T14:57:29.000Z</time>
      </trkpt>
      <trkpt lat="50.42169" lon="3.45923">
        <ele>23.4</ele>
        <time>2022-03-24T14:57:30.000Z</time>
      </trkpt>
      <trkpt lat="50.42172" lon="3.45917">
        <ele>23.4</ele>
        <time>2022-03-24T14:57:31.000Z</time>
      </trkpt>
      <trkpt lat="50.42174" lon="3.4591">
        <ele>23.5</ele>
        <time>2022-03-24T14:57:32.000Z</time>
      </trkpt>
      <trkpt lat="50.42177" lon="3.45902">
        <ele>23.7</ele>
        <time>2022-03-24T14:57:34.000Z</time>
      </trkpt>
      <trkpt lat="50.42175" lon="3.45896">
        <ele>23.6</ele>
        <time>2022-03-24T14:57:35.965Z</time>
      </trkpt>
      <trkpt lat="50.42182" lon="3.45884">
        <ele>23.9</ele>
        <time>2022-03-24T14:57:37.000Z</time>
      </trkpt>
      <trkpt lat="50.42184" lon="3.45878">
        <ele>23.9</ele>
        <time>2022-03-24T14:57:38.000Z</time>
      </trkpt>
      <trkpt lat="50.42188" lon="3.45871">
        <ele>23.9</ele>
        <time>2022-03-24T14:57:39.000Z</time>
      </trkpt>
      <trkpt lat="50.42189" lon="3.45861">
        <ele>23.6</ele>
        <time>2022-03-24T14:57:41.250Z</time>
      </trkpt>
      <trkpt lat="50.42191" lon="3.45854">
        <ele>23.7</ele>
        <time>2022-03-24T14:57:42.636Z</time>
      </trkpt>
      <trkpt lat="50.42195" lon="3.45845">
        <ele>24</ele>
        <time>2022-03-24T14:57:43.993Z</time>
      </trkpt>
      <trkpt lat="50.42198" lon="3.4584">
        <ele>24.3</ele>
        <time>2022-03-24T14:57:45.000Z</time>
      </trkpt>
      <trkpt lat="50.42203" lon="3.4583">
        <ele>24.5</ele>
        <time>2022-03-24T14:57:47.000Z</time>
      </trkpt>
      <trkpt lat="50.42206" lon="3.45821">
        <ele>24.6</ele>
        <time>2022-03-24T14:57:49.000Z</time>
      </trkpt>
      <trkpt lat="50.42209" lon="3.45814">
        <ele>24.7</ele>
        <time>2022-03-24T14:57:51.151Z</time>
      </trkpt>
      <trkpt lat="50.42208" lon="3.45825">
        <ele>24.8</ele>
        <time>2022-03-24T14:58:36.000Z</time>
      </trkpt>
      <trkpt lat="50.42206" lon="3.45843">
        <ele>24.8</ele>
        <time>2022-03-24T14:58:41.751Z</time>
      </trkpt>
      <trkpt lat="50.422" lon="3.45858">
        <ele>24.4</ele>
        <time>2022-03-24T14:58:44.529Z</time>
      </trkpt>
      <trkpt lat="50.42191" lon="3.45875">
        <ele>24.3</ele>
        <time>2022-03-24T14:58:47.292Z</time>
      </trkpt>
      <trkpt lat="50.42182" lon="3.45893">
        <ele>24.1</ele>
        <time>2022-03-24T14:58:50.090Z</time>
      </trkpt>
      <trkpt lat="50.42174" lon="3.45911">
        <ele>23.5</ele>
        <time>2022-03-24T14:58:53.250Z</time>
      </trkpt>
      <trkpt lat="50.42168" lon="3.4593">
        <ele>23.6</ele>
        <time>2022-03-24T14:58:56.332Z</time>
      </trkpt>
      <trkpt lat="50.42162" lon="3.45949">
        <ele>23.7</ele>
        <time>2022-03-24T14:58:59.750Z</time>
      </trkpt>
      <trkpt lat="50.42155" lon="3.45966">
        <ele>23.5</ele>
        <time>2022-03-24T14:59:03.000Z</time>
      </trkpt>
      <trkpt lat="50.42157" lon="3.45973">
        <ele>23.7</ele>
        <time>2022-03-24T14:59:09.000Z</time>
      </trkpt>
      <trkpt lat="50.42159" lon="3.45967">
        <ele>23.7</ele>
        <time>2022-03-24T14:59:12.000Z</time>
      </trkpt>
      <trkpt lat="50.4216" lon="3.45958">
        <ele>23.6</ele>
        <time>2022-03-24T14:59:54.000Z</time>
      </trkpt>
      <trkpt lat="50.42166" lon="3.4594">
        <ele>23.8</ele>
        <time>2022-03-24T14:59:57.000Z</time>
      </trkpt>
      <trkpt lat="50.42168" lon="3.4593">
        <ele>23.6</ele>
        <time>2022-03-24T15:00:00.000Z</time>
      </trkpt>
      <trkpt lat="50.42174" lon="3.45929">
        <ele>23.9</ele>
        <time>2022-03-24T15:00:06.000Z</time>
      </trkpt>
      <trkpt lat="50.4217" lon="3.45927">
        <ele>23.6</ele>
        <time>2022-03-24T15:00:12.000Z</time>
      </trkpt>
      <trkpt lat="50.42171" lon="3.45934">
        <ele>23.8</ele>
        <time>2022-03-24T15:00:14.911Z</time>
      </trkpt>
      <trkpt lat="50.42179" lon="3.45945">
        <ele>24.5</ele>
        <time>2022-03-24T15:00:17.913Z</time>
      </trkpt>
      <trkpt lat="50.42191" lon="3.45958">
        <ele>25.3</ele>
        <time>2022-03-24T15:00:20.990Z</time>
      </trkpt>
      <trkpt lat="50.42201" lon="3.4597">
        <ele>26.2</ele>
        <time>2022-03-24T15:00:24.000Z</time>
      </trkpt>
      <trkpt lat="50.42207" lon="3.45979">
        <ele>26.5</ele>
        <time>2022-03-24T15:00:26.928Z</time>
      </trkpt>
      <trkpt lat="50.42218" lon="3.45986">
        <ele>26.8</ele>
        <time>2022-03-24T15:00:29.975Z</time>
      </trkpt>
      <trkpt lat="50.42229" lon="3.45993">
        <ele>27.4</ele>
        <time>2022-03-24T15:00:33.000Z</time>
      </trkpt>
      <trkpt lat="50.42236" lon="3.46003">
        <ele>28</ele>
        <time>2022-03-24T15:00:39.000Z</time>
      </trkpt>
      <trkpt lat="50.42242" lon="3.46009">
        <ele>28.5</ele>
        <time>2022-03-24T15:00:41.733Z</time>
      </trkpt>
      <trkpt lat="50.42251" lon="3.4602">
        <ele>29</ele>
        <time>2022-03-24T15:00:45.112Z</time>
      </trkpt>
      <trkpt lat="50.42259" lon="3.46025">
        <ele>29.3</ele>
        <time>2022-03-24T15:00:47.931Z</time>
      </trkpt>
      <trkpt lat="50.42268" lon="3.46032">
        <ele>29.6</ele>
        <time>2022-03-24T15:00:51.000Z</time>
      </trkpt>
      <trkpt lat="50.42276" lon="3.46039">
        <ele>29.9</ele>
        <time>2022-03-24T15:00:54.000Z</time>
      </trkpt>
      <trkpt lat="50.42282" lon="3.46045">
        <ele>30</ele>
        <time>2022-03-24T15:00:56.834Z</time>
      </trkpt>
      <trkpt lat="50.42288" lon="3.46049">
        <ele>30</ele>
        <time>2022-03-24T15:00:59.854Z</time>
      </trkpt>
      <trkpt lat="50.42293" lon="3.46057">
        <ele>30</ele>
        <time>2022-03-24T15:01:03.000Z</time>
      </trkpt>
      <trkpt lat="50.42301" lon="3.46064">
        <ele>30</ele>
        <time>2022-03-24T15:01:06.036Z</time>
      </trkpt>
      <trkpt lat="50.42309" lon="3.46068">
        <ele>30.1</ele>
        <time>2022-03-24T15:01:09.000Z</time>
      </trkpt>
      <trkpt lat="50.42318" lon="3.46069">
        <ele>30.2</ele>
        <time>2022-03-24T15:01:12.000Z</time>
      </trkpt>
      <trkpt lat="50.42325" lon="3.46075">
        <ele>30.2</ele>
        <time>2022-03-24T15:01:14.875Z</time>
      </trkpt>
      <trkpt lat="50.42332" lon="3.46081">
        <ele>30.1</ele>
        <time>2022-03-24T15:01:17.850Z</time>
      </trkpt>
      <trkpt lat="50.4234" lon="3.46088">
        <ele>30</ele>
        <time>2022-03-24T15:01:21.000Z</time>
      </trkpt>
      <trkpt lat="50.42345" lon="3.46094">
        <ele>30</ele>
        <time>2022-03-24T15:01:23.870Z</time>
      </trkpt>
      <trkpt lat="50.42351" lon="3.46102">
        <ele>30</ele>
        <time>2022-03-24T15:01:26.852Z</time>
      </trkpt>
      <trkpt lat="50.42355" lon="3.46112">
        <ele>30</ele>
        <time>2022-03-24T15:01:29.632Z</time>
      </trkpt>
      <trkpt lat="50.4236" lon="3.46108">
        <ele>30</ele>
        <time>2022-03-24T15:01:33.000Z</time>
      </trkpt>
      <trkpt lat="50.42363" lon="3.46098">
        <ele>30</ele>
        <time>2022-03-24T15:01:41.814Z</time>
      </trkpt>
      <trkpt lat="50.42369" lon="3.46083">
        <ele>30.3</ele>
        <time>2022-03-24T15:01:44.771Z</time>
      </trkpt>
      <trkpt lat="50.42376" lon="3.46069">
        <ele>30.8</ele>
        <time>2022-03-24T15:01:47.690Z</time>
      </trkpt>
      <trkpt lat="50.42383" lon="3.46056">
        <ele>31</ele>
        <time>2022-03-24T15:01:50.931Z</time>
      </trkpt>
      <trkpt lat="50.42387" lon="3.46044">
        <ele>31</ele>
        <time>2022-03-24T15:01:53.831Z</time>
      </trkpt>
      <trkpt lat="50.42393" lon="3.46035">
        <ele>31</ele>
        <time>2022-03-24T15:01:57.073Z</time>
      </trkpt>
      <trkpt lat="50.42396" lon="3.46028">
        <ele>31</ele>
        <time>2022-03-24T15:02:00.000Z</time>
      </trkpt>
      <trkpt lat="50.42399" lon="3.46018">
        <ele>31</ele>
        <time>2022-03-24T15:02:21.000Z</time>
      </trkpt>
      <trkpt lat="50.42403" lon="3.46014">
        <ele>31</ele>
        <time>2022-03-24T15:02:27.000Z</time>
      </trkpt>
      <trkpt lat="50.42408" lon="3.46012">
        <ele>31</ele>
        <time>2022-03-24T15:02:30.188Z</time>
      </trkpt>
      <trkpt lat="50.42414" lon="3.46013">
        <ele>31</ele>
        <time>2022-03-24T15:02:33.471Z</time>
      </trkpt>
      <trkpt lat="50.4242" lon="3.46014">
        <ele>30.9</ele>
        <time>2022-03-24T15:02:37.061Z</time>
      </trkpt>
      <trkpt lat="50.42408" lon="3.45998">
        <ele>31</ele>
        <time>2022-03-24T15:11:14.739Z</time>
      </trkpt>
      <trkpt lat="50.42412" lon="3.45986">
        <ele>31</ele>
        <time>2022-03-24T15:11:17.000Z</time>
      </trkpt>
      <trkpt lat="50.42414" lon="3.45978">
        <ele>31</ele>
        <time>2022-03-24T15:11:18.178Z</time>
      </trkpt>
      <trkpt lat="50.4242" lon="3.45959">
        <ele>30.9</ele>
        <time>2022-03-24T15:11:20.059Z</time>
      </trkpt>
      <trkpt lat="50.42429" lon="3.45932">
        <ele>30.6</ele>
        <time>2022-03-24T15:11:21.000Z</time>
      </trkpt>
      <trkpt lat="50.42435" lon="3.45918">
        <ele>30.3</ele>
        <time>2022-03-24T15:11:22.000Z</time>
      </trkpt>
      <trkpt lat="50.4244" lon="3.45905">
        <ele>30.2</ele>
        <time>2022-03-24T15:11:23.000Z</time>
      </trkpt>
      <trkpt lat="50.42445" lon="3.45891">
        <ele>30</ele>
        <time>2022-03-24T15:11:24.000Z</time>
      </trkpt>
      <trkpt lat="50.4245" lon="3.45878">
        <ele>29.6</ele>
        <time>2022-03-24T15:11:25.000Z</time>
      </trkpt>
      <trkpt lat="50.42454" lon="3.45866">
        <ele>29.3</ele>
        <time>2022-03-24T15:11:26.000Z</time>
      </trkpt>
      <trkpt lat="50.42458" lon="3.45854">
        <ele>28.8</ele>
        <time>2022-03-24T15:11:27.000Z</time>
      </trkpt>
      <trkpt lat="50.42461" lon="3.45843">
        <ele>28.2</ele>
        <time>2022-03-24T15:11:28.000Z</time>
      </trkpt>
      <trkpt lat="50.42464" lon="3.45832">
        <ele>27.6</ele>
        <time>2022-03-24T15:11:29.000Z</time>
      </trkpt>
      <trkpt lat="50.42467" lon="3.45821">
        <ele>27.3</ele>
        <time>2022-03-24T15:11:30.000Z</time>
      </trkpt>
      <trkpt lat="50.42471" lon="3.4581">
        <ele>27.1</ele>
        <time>2022-03-24T15:11:31.000Z</time>
      </trkpt>
      <trkpt lat="50.42475" lon="3.45799">
        <ele>26.9</ele>
        <time>2022-03-24T15:11:32.000Z</time>
      </trkpt>
      <trkpt lat="50.42479" lon="3.45789">
        <ele>26.6</ele>
        <time>2022-03-24T15:11:33.000Z</time>
      </trkpt>
      <trkpt lat="50.42483" lon="3.45779">
        <ele>26.2</ele>
        <time>2022-03-24T15:11:34.000Z</time>
      </trkpt>
      <trkpt lat="50.42487" lon="3.45771">
        <ele>25.8</ele>
        <time>2022-03-24T15:11:35.000Z</time>
      </trkpt>
      <trkpt lat="50.4249" lon="3.45761">
        <ele>25.5</ele>
        <time>2022-03-24T15:11:36.000Z</time>
      </trkpt>
      <trkpt lat="50.42494" lon="3.45751">
        <ele>25.2</ele>
        <time>2022-03-24T15:11:37.000Z</time>
      </trkpt>
      <trkpt lat="50.42498" lon="3.45742">
        <ele>25.1</ele>
        <time>2022-03-24T15:11:38.000Z</time>
      </trkpt>
      <trkpt lat="50.42501" lon="3.45732">
        <ele>25</ele>
        <time>2022-03-24T15:11:39.000Z</time>
      </trkpt>
      <trkpt lat="50.42504" lon="3.45723">
        <ele>24.9</ele>
        <time>2022-03-24T15:11:40.000Z</time>
      </trkpt>
      <trkpt lat="50.42507" lon="3.45715">
        <ele>24.7</ele>
        <time>2022-03-24T15:11:41.000Z</time>
      </trkpt>
      <trkpt lat="50.4251" lon="3.45706">
        <ele>24.6</ele>
        <time>2022-03-24T15:11:42.000Z</time>
      </trkpt>
      <trkpt lat="50.42513" lon="3.45698">
        <ele>24.5</ele>
        <time>2022-03-24T15:11:43.000Z</time>
      </trkpt>
      <trkpt lat="50.42517" lon="3.45689">
        <ele>24.4</ele>
        <time>2022-03-24T15:11:44.000Z</time>
      </trkpt>
      <trkpt lat="50.4252" lon="3.45682">
        <ele>24.3</ele>
        <time>2022-03-24T15:11:45.000Z</time>
      </trkpt>
      <trkpt lat="50.42522" lon="3.45675">
        <ele>24.2</ele>
        <time>2022-03-24T15:11:46.000Z</time>
      </trkpt>
      <trkpt lat="50.42526" lon="3.45664">
        <ele>24.2</ele>
        <time>2022-03-24T15:11:48.000Z</time>
      </trkpt>
      <trkpt lat="50.42526" lon="3.45656">
        <ele>24.4</ele>
        <time>2022-03-24T15:11:50.000Z</time>
      </trkpt>
      <trkpt lat="50.42525" lon="3.45648">
        <ele>24.7</ele>
        <time>2022-03-24T15:11:53.000Z</time>
      </trkpt>
      <trkpt lat="50.42526" lon="3.45639">
        <ele>25</ele>
        <time>2022-03-24T15:11:56.000Z</time>
      </trkpt>
      <trkpt lat="50.42529" lon="3.45632">
        <ele>25</ele>
        <time>2022-03-24T15:11:58.000Z</time>
      </trkpt>
      <trkpt lat="50.42537" lon="3.45626">
        <ele>24.7</ele>
        <time>2022-03-24T15:12:01.406Z</time>
      </trkpt>
      <trkpt lat="50.42543" lon="3.45619">
        <ele>24.5</ele>
        <time>2022-03-24T15:12:03.928Z</time>
      </trkpt>
      <trkpt lat="50.42548" lon="3.45612">
        <ele>24.3</ele>
        <time>2022-03-24T15:12:06.108Z</time>
      </trkpt>
      <trkpt lat="50.42552" lon="3.45605">
        <ele>24.1</ele>
        <time>2022-03-24T15:12:08.000Z</time>
      </trkpt>
      <trkpt lat="50.42555" lon="3.45597">
        <ele>24</ele>
        <time>2022-03-24T15:12:10.000Z</time>
      </trkpt>
      <trkpt lat="50.42559" lon="3.45591">
        <ele>24</ele>
        <time>2022-03-24T15:12:11.727Z</time>
      </trkpt>
      <trkpt lat="50.42562" lon="3.45584">
        <ele>24</ele>
        <time>2022-03-24T15:12:13.747Z</time>
      </trkpt>
      <trkpt lat="50.42565" lon="3.45577">
        <ele>24</ele>
        <time>2022-03-24T15:12:16.047Z</time>
      </trkpt>
      <trkpt lat="50.42569" lon="3.45571">
        <ele>24</ele>
        <time>2022-03-24T15:12:17.986Z</time>
      </trkpt>
      <trkpt lat="50.42572" lon="3.45564">
        <ele>24</ele>
        <time>2022-03-24T15:12:20.000Z</time>
      </trkpt>
      <trkpt lat="50.42574" lon="3.45555">
        <ele>24</ele>
        <time>2022-03-24T15:12:22.024Z</time>
      </trkpt>
      <trkpt lat="50.42578" lon="3.45548">
        <ele>24</ele>
        <time>2022-03-24T15:12:24.000Z</time>
      </trkpt>
      <trkpt lat="50.42581" lon="3.45543">
        <ele>24</ele>
        <time>2022-03-24T15:12:26.000Z</time>
      </trkpt>
      <trkpt lat="50.42586" lon="3.45537">
        <ele>24</ele>
        <time>2022-03-24T15:12:39.568Z</time>
      </trkpt>
      <trkpt lat="50.4259" lon="3.45528">
        <ele>24</ele>
        <time>2022-03-24T15:12:42.107Z</time>
      </trkpt>
      <trkpt lat="50.42593" lon="3.45517">
        <ele>24</ele>
        <time>2022-03-24T15:12:44.000Z</time>
      </trkpt>
      <trkpt lat="50.42596" lon="3.4551">
        <ele>24</ele>
        <time>2022-03-24T15:12:45.488Z</time>
      </trkpt>
      <trkpt lat="50.42599" lon="3.45503">
        <ele>24</ele>
        <time>2022-03-24T15:12:46.729Z</time>
      </trkpt>
      <trkpt lat="50.42603" lon="3.4549">
        <ele>24</ele>
        <time>2022-03-24T15:12:48.726Z</time>
      </trkpt>
      <trkpt lat="50.42606" lon="3.45483">
        <ele>24</ele>
        <time>2022-03-24T15:12:50.026Z</time>
      </trkpt>
      <trkpt lat="50.42609" lon="3.45476">
        <ele>24</ele>
        <time>2022-03-24T15:12:51.125Z</time>
      </trkpt>
      <trkpt lat="50.42613" lon="3.45465">
        <ele>24</ele>
        <time>2022-03-24T15:12:52.947Z</time>
      </trkpt>
      <trkpt lat="50.42615" lon="3.45458">
        <ele>24</ele>
        <time>2022-03-24T15:12:54.000Z</time>
      </trkpt>
      <trkpt lat="50.4262" lon="3.45447">
        <ele>24</ele>
        <time>2022-03-24T15:12:56.445Z</time>
      </trkpt>
      <trkpt lat="50.42624" lon="3.45436">
        <ele>24</ele>
        <time>2022-03-24T15:12:59.000Z</time>
      </trkpt>
      <trkpt lat="50.42628" lon="3.45428">
        <ele>24</ele>
        <time>2022-03-24T15:13:01.085Z</time>
      </trkpt>
      <trkpt lat="50.42632" lon="3.4542">
        <ele>24</ele>
        <time>2022-03-24T15:13:03.000Z</time>
      </trkpt>
      <trkpt lat="50.42636" lon="3.45411">
        <ele>24</ele>
        <time>2022-03-24T15:13:05.463Z</time>
      </trkpt>
      <trkpt lat="50.42641" lon="3.454">
        <ele>24</ele>
        <time>2022-03-24T15:13:08.047Z</time>
      </trkpt>
      <trkpt lat="50.42646" lon="3.45391">
        <ele>24.2</ele>
        <time>2022-03-24T15:13:10.000Z</time>
      </trkpt>
      <trkpt lat="50.42649" lon="3.45382">
        <ele>24.4</ele>
        <time>2022-03-24T15:13:11.985Z</time>
      </trkpt>
      <trkpt lat="50.42652" lon="3.45373">
        <ele>24.5</ele>
        <time>2022-03-24T15:13:14.107Z</time>
      </trkpt>
      <trkpt lat="50.42655" lon="3.45363">
        <ele>24.6</ele>
        <time>2022-03-24T15:13:16.527Z</time>
      </trkpt>
      <trkpt lat="50.42656" lon="3.45355">
        <ele>24.7</ele>
        <time>2022-03-24T15:13:19.004Z</time>
      </trkpt>
      <trkpt lat="50.42661" lon="3.45346">
        <ele>24.9</ele>
        <time>2022-03-24T15:13:22.000Z</time>
      </trkpt>
      <trkpt lat="50.42665" lon="3.45337">
        <ele>25</ele>
        <time>2022-03-24T15:13:24.887Z</time>
      </trkpt>
      <trkpt lat="50.42668" lon="3.4533">
        <ele>25</ele>
        <time>2022-03-24T15:13:27.000Z</time>
      </trkpt>
      <trkpt lat="50.42671" lon="3.45323">
        <ele>25</ele>
        <time>2022-03-24T15:13:29.000Z</time>
      </trkpt>
      <trkpt lat="50.42673" lon="3.45315">
        <ele>25</ele>
        <time>2022-03-24T15:13:31.000Z</time>
      </trkpt>
      <trkpt lat="50.42677" lon="3.45309">
        <ele>25</ele>
        <time>2022-03-24T15:13:33.007Z</time>
      </trkpt>
      <trkpt lat="50.4268" lon="3.45303">
        <ele>25</ele>
        <time>2022-03-24T15:13:35.000Z</time>
      </trkpt>
      <trkpt lat="50.42683" lon="3.45297">
        <ele>25</ele>
        <time>2022-03-24T15:13:37.000Z</time>
      </trkpt>
      <trkpt lat="50.42687" lon="3.4529">
        <ele>25</ele>
        <time>2022-03-24T15:13:39.000Z</time>
      </trkpt>
      <trkpt lat="50.4269" lon="3.45283">
        <ele>25</ele>
        <time>2022-03-24T15:13:41.000Z</time>
      </trkpt>
      <trkpt lat="50.42693" lon="3.45274">
        <ele>25</ele>
        <time>2022-03-24T15:13:44.000Z</time>
      </trkpt>
      <trkpt lat="50.42695" lon="3.45267">
        <ele>25</ele>
        <time>2022-03-24T15:13:46.000Z</time>
      </trkpt>
      <trkpt lat="50.42697" lon="3.45259">
        <ele>25</ele>
        <time>2022-03-24T15:13:48.000Z</time>
      </trkpt>
      <trkpt lat="50.427" lon="3.4525">
        <ele>25</ele>
        <time>2022-03-24T15:13:50.000Z</time>
      </trkpt>
      <trkpt lat="50.42703" lon="3.45242">
        <ele>25</ele>
        <time>2022-03-24T15:13:51.945Z</time>
      </trkpt>
      <trkpt lat="50.42707" lon="3.45228">
        <ele>25</ele>
        <time>2022-03-24T15:13:54.865Z</time>
      </trkpt>
      <trkpt lat="50.42713" lon="3.45217">
        <ele>25</ele>
        <time>2022-03-24T15:13:57.000Z</time>
      </trkpt>
      <trkpt lat="50.42715" lon="3.45211">
        <ele>25</ele>
        <time>2022-03-24T15:13:58.165Z</time>
      </trkpt>
      <trkpt lat="50.42719" lon="3.45203">
        <ele>25</ele>
        <time>2022-03-24T15:13:59.445Z</time>
      </trkpt>
      <trkpt lat="50.42722" lon="3.45195">
        <ele>25</ele>
        <time>2022-03-24T15:14:00.785Z</time>
      </trkpt>
      <trkpt lat="50.42725" lon="3.45188">
        <ele>25</ele>
        <time>2022-03-24T15:14:02.000Z</time>
      </trkpt>
      <trkpt lat="50.42728" lon="3.45182">
        <ele>25</ele>
        <time>2022-03-24T15:14:03.146Z</time>
      </trkpt>
      <trkpt lat="50.42736" lon="3.45171">
        <ele>25</ele>
        <time>2022-03-24T15:14:05.128Z</time>
      </trkpt>
      <trkpt lat="50.42744" lon="3.4516">
        <ele>25</ele>
        <time>2022-03-24T15:14:07.000Z</time>
      </trkpt>
      <trkpt lat="50.42745" lon="3.45153">
        <ele>25</ele>
        <time>2022-03-24T15:14:08.000Z</time>
      </trkpt>
      <trkpt lat="50.42747" lon="3.45146">
        <ele>25</ele>
        <time>2022-03-24T15:14:09.000Z</time>
      </trkpt>
      <trkpt lat="50.4275" lon="3.45139">
        <ele>25</ele>
        <time>2022-03-24T15:14:10.000Z</time>
      </trkpt>
      <trkpt lat="50.42752" lon="3.45132">
        <ele>24.9</ele>
        <time>2022-03-24T15:14:11.000Z</time>
      </trkpt>
      <trkpt lat="50.42756" lon="3.45127">
        <ele>24.8</ele>
        <time>2022-03-24T15:14:12.000Z</time>
      </trkpt>
      <trkpt lat="50.42759" lon="3.45121">
        <ele>24.7</ele>
        <time>2022-03-24T15:14:13.000Z</time>
      </trkpt>
      <trkpt lat="50.42761" lon="3.45115">
        <ele>24.6</ele>
        <time>2022-03-24T15:14:14.000Z</time>
      </trkpt>
      <trkpt lat="50.42764" lon="3.45108">
        <ele>24.4</ele>
        <time>2022-03-24T15:14:15.000Z</time>
      </trkpt>
      <trkpt lat="50.42766" lon="3.45101">
        <ele>24.3</ele>
        <time>2022-03-24T15:14:16.000Z</time>
      </trkpt>
      <trkpt lat="50.42769" lon="3.45094">
        <ele>24.1</ele>
        <time>2022-03-24T15:14:17.000Z</time>
      </trkpt>
      <trkpt lat="50.42772" lon="3.45087">
        <ele>24</ele>
        <time>2022-03-24T15:14:18.000Z</time>
      </trkpt>
      <trkpt lat="50.42775" lon="3.45081">
        <ele>24</ele>
        <time>2022-03-24T15:14:19.000Z</time>
      </trkpt>
      <trkpt lat="50.42778" lon="3.45074">
        <ele>24</ele>
        <time>2022-03-24T15:14:20.000Z</time>
      </trkpt>
      <trkpt lat="50.42781" lon="3.45068">
        <ele>24</ele>
        <time>2022-03-24T15:14:21.000Z</time>
      </trkpt>
      <trkpt lat="50.42784" lon="3.45061">
        <ele>24</ele>
        <time>2022-03-24T15:14:22.000Z</time>
      </trkpt>
      <trkpt lat="50.42786" lon="3.45055">
        <ele>24</ele>
        <time>2022-03-24T15:14:23.000Z</time>
      </trkpt>
      <trkpt lat="50.42789" lon="3.45048">
        <ele>23.9</ele>
        <time>2022-03-24T15:14:24.000Z</time>
      </trkpt>
      <trkpt lat="50.42791" lon="3.45042">
        <ele>23.8</ele>
        <time>2022-03-24T15:14:25.000Z</time>
      </trkpt>
      <trkpt lat="50.42794" lon="3.45035">
        <ele>23.6</ele>
        <time>2022-03-24T15:14:26.000Z</time>
      </trkpt>
      <trkpt lat="50.42797" lon="3.45028">
        <ele>23.3</ele>
        <time>2022-03-24T15:14:27.000Z</time>
      </trkpt>
      <trkpt lat="50.42799" lon="3.45022">
        <ele>23.2</ele>
        <time>2022-03-24T15:14:28.000Z</time>
      </trkpt>
      <trkpt lat="50.42802" lon="3.45015">
        <ele>23.1</ele>
        <time>2022-03-24T15:14:29.000Z</time>
      </trkpt>
      <trkpt lat="50.42804" lon="3.45009">
        <ele>23</ele>
        <time>2022-03-24T15:14:30.000Z</time>
      </trkpt>
      <trkpt lat="50.42806" lon="3.45003">
        <ele>23</ele>
        <time>2022-03-24T15:14:31.000Z</time>
      </trkpt>
      <trkpt lat="50.42809" lon="3.44997">
        <ele>23</ele>
        <time>2022-03-24T15:14:32.000Z</time>
      </trkpt>
      <trkpt lat="50.42811" lon="3.44988">
        <ele>23</ele>
        <time>2022-03-24T15:14:34.000Z</time>
      </trkpt>
      <trkpt lat="50.4281" lon="3.44981">
        <ele>23</ele>
        <time>2022-03-24T15:14:36.000Z</time>
      </trkpt>
      <trkpt lat="50.42809" lon="3.44966">
        <ele>23</ele>
        <time>2022-03-24T15:14:39.000Z</time>
      </trkpt>
      <trkpt lat="50.42807" lon="3.44957">
        <ele>23</ele>
        <time>2022-03-24T15:14:41.758Z</time>
      </trkpt>
      <trkpt lat="50.42807" lon="3.44947">
        <ele>23</ele>
        <time>2022-03-24T15:14:44.000Z</time>
      </trkpt>
      <trkpt lat="50.42805" lon="3.44938">
        <ele>23</ele>
        <time>2022-03-24T15:14:46.000Z</time>
      </trkpt>
      <trkpt lat="50.42804" lon="3.44928">
        <ele>23</ele>
        <time>2022-03-24T15:14:47.962Z</time>
      </trkpt>
      <trkpt lat="50.42808" lon="3.44916">
        <ele>23</ele>
        <time>2022-03-24T15:14:50.117Z</time>
      </trkpt>
      <trkpt lat="50.42811" lon="3.44903">
        <ele>23</ele>
        <time>2022-03-24T15:14:52.000Z</time>
      </trkpt>
      <trkpt lat="50.42813" lon="3.44894">
        <ele>23</ele>
        <time>2022-03-24T15:14:53.458Z</time>
      </trkpt>
      <trkpt lat="50.42815" lon="3.44887">
        <ele>23</ele>
        <time>2022-03-24T15:14:54.521Z</time>
      </trkpt>
      <trkpt lat="50.42817" lon="3.44877">
        <ele>23</ele>
        <time>2022-03-24T15:14:56.100Z</time>
      </trkpt>
      <trkpt lat="50.42817" lon="3.44869">
        <ele>23</ele>
        <time>2022-03-24T15:14:57.157Z</time>
      </trkpt>
      <trkpt lat="50.42817" lon="3.44862">
        <ele>23</ele>
        <time>2022-03-24T15:14:58.183Z</time>
      </trkpt>
      <trkpt lat="50.42817" lon="3.44849">
        <ele>23</ele>
        <time>2022-03-24T15:14:59.999Z</time>
      </trkpt>
      <trkpt lat="50.42817" lon="3.44838">
        <ele>23</ele>
        <time>2022-03-24T15:15:02.000Z</time>
      </trkpt>
      <trkpt lat="50.42817" lon="3.44827">
        <ele>23.1</ele>
        <time>2022-03-24T15:15:04.000Z</time>
      </trkpt>
      <trkpt lat="50.42817" lon="3.44818">
        <ele>23.3</ele>
        <time>2022-03-24T15:15:05.958Z</time>
      </trkpt>
      <trkpt lat="50.4281" lon="3.44807">
        <ele>23.8</ele>
        <time>2022-03-24T15:15:09.000Z</time>
      </trkpt>
      <trkpt lat="50.42809" lon="3.448">
        <ele>23.9</ele>
        <time>2022-03-24T15:15:10.937Z</time>
      </trkpt>
      <trkpt lat="50.42807" lon="3.44794">
        <ele>23.9</ele>
        <time>2022-03-24T15:15:13.118Z</time>
      </trkpt>
      <trkpt lat="50.42806" lon="3.44784">
        <ele>24</ele>
        <time>2022-03-24T15:15:16.000Z</time>
      </trkpt>
      <trkpt lat="50.42808" lon="3.44775">
        <ele>23.9</ele>
        <time>2022-03-24T15:15:18.280Z</time>
      </trkpt>
      <trkpt lat="50.42812" lon="3.44767">
        <ele>23.8</ele>
        <time>2022-03-24T15:15:20.718Z</time>
      </trkpt>
      <trkpt lat="50.42814" lon="3.44757">
        <ele>23.7</ele>
        <time>2022-03-24T15:15:22.981Z</time>
      </trkpt>
      <trkpt lat="50.42817" lon="3.44749">
        <ele>23.6</ele>
        <time>2022-03-24T15:15:25.000Z</time>
      </trkpt>
      <trkpt lat="50.42818" lon="3.4474">
        <ele>23.9</ele>
        <time>2022-03-24T15:15:27.019Z</time>
      </trkpt>
      <trkpt lat="50.42819" lon="3.44733">
        <ele>24.1</ele>
        <time>2022-03-24T15:15:29.000Z</time>
      </trkpt>
      <trkpt lat="50.42818" lon="3.44725">
        <ele>24.5</ele>
        <time>2022-03-24T15:15:30.919Z</time>
      </trkpt>
      <trkpt lat="50.4282" lon="3.44713">
        <ele>24.3</ele>
        <time>2022-03-24T15:15:34.000Z</time>
      </trkpt>
      <trkpt lat="50.42819" lon="3.44705">
        <ele>24.2</ele>
        <time>2022-03-24T15:15:35.929Z</time>
      </trkpt>
      <trkpt lat="50.42819" lon="3.44697">
        <ele>24.1</ele>
        <time>2022-03-24T15:15:38.000Z</time>
      </trkpt>
      <trkpt lat="50.42818" lon="3.44684">
        <ele>23.9</ele>
        <time>2022-03-24T15:15:40.502Z</time>
      </trkpt>
      <trkpt lat="50.42819" lon="3.44673">
        <ele>23.6</ele>
        <time>2022-03-24T15:15:42.863Z</time>
      </trkpt>
      <trkpt lat="50.42818" lon="3.4466">
        <ele>23.4</ele>
        <time>2022-03-24T15:15:45.379Z</time>
      </trkpt>
      <trkpt lat="50.42819" lon="3.44647">
        <ele>23.2</ele>
        <time>2022-03-24T15:15:48.097Z</time>
      </trkpt>
      <trkpt lat="50.42819" lon="3.44636">
        <ele>22.9</ele>
        <time>2022-03-24T15:15:50.062Z</time>
      </trkpt>
      <trkpt lat="50.42819" lon="3.44625">
        <ele>22.5</ele>
        <time>2022-03-24T15:15:52.000Z</time>
      </trkpt>
      <trkpt lat="50.4282" lon="3.44615">
        <ele>22.1</ele>
        <time>2022-03-24T15:15:53.960Z</time>
      </trkpt>
      <trkpt lat="50.42821" lon="3.446">
        <ele>21.9</ele>
        <time>2022-03-24T15:15:56.481Z</time>
      </trkpt>
      <trkpt lat="50.42821" lon="3.44591">
        <ele>21.9</ele>
        <time>2022-03-24T15:15:58.000Z</time>
      </trkpt>
      <trkpt lat="50.42822" lon="3.4458">
        <ele>21.8</ele>
        <time>2022-03-24T15:16:00.000Z</time>
      </trkpt>
      <trkpt lat="50.42822" lon="3.44568">
        <ele>21.6</ele>
        <time>2022-03-24T15:16:02.000Z</time>
      </trkpt>
      <trkpt lat="50.42822" lon="3.44551">
        <ele>21.4</ele>
        <time>2022-03-24T15:16:04.843Z</time>
      </trkpt>
      <trkpt lat="50.4282" lon="3.44539">
        <ele>21.5</ele>
        <time>2022-03-24T15:16:07.059Z</time>
      </trkpt>
      <trkpt lat="50.4282" lon="3.44528">
        <ele>21.5</ele>
        <time>2022-03-24T15:16:09.000Z</time>
      </trkpt>
      <trkpt lat="50.42823" lon="3.44519">
        <ele>21.5</ele>
        <time>2022-03-24T15:16:11.000Z</time>
      </trkpt>
      <trkpt lat="50.42828" lon="3.44508">
        <ele>21.3</ele>
        <time>2022-03-24T15:16:13.560Z</time>
      </trkpt>
      <trkpt lat="50.42831" lon="3.44501">
        <ele>21.2</ele>
        <time>2022-03-24T15:16:14.881Z</time>
      </trkpt>
      <trkpt lat="50.42834" lon="3.4449">
        <ele>21</ele>
        <time>2022-03-24T15:16:17.000Z</time>
      </trkpt>
      <trkpt lat="50.42836" lon="3.44481">
        <ele>20.8</ele>
        <time>2022-03-24T15:16:19.000Z</time>
      </trkpt>
      <trkpt lat="50.42836" lon="3.44472">
        <ele>20.8</ele>
        <time>2022-03-24T15:16:22.640Z</time>
      </trkpt>
      <trkpt lat="50.42833" lon="3.44466">
        <ele>21</ele>
        <time>2022-03-24T15:16:24.840Z</time>
      </trkpt>
      <trkpt lat="50.42828" lon="3.44463">
        <ele>21.4</ele>
        <time>2022-03-24T15:16:27.000Z</time>
      </trkpt>
      <trkpt lat="50.42823" lon="3.44461">
        <ele>21.7</ele>
        <time>2022-03-24T15:16:29.000Z</time>
      </trkpt>
      <trkpt lat="50.42817" lon="3.44456">
        <ele>22.2</ele>
        <time>2022-03-24T15:16:31.000Z</time>
      </trkpt>
      <trkpt lat="50.42811" lon="3.44453">
        <ele>22.6</ele>
        <time>2022-03-24T15:16:33.521Z</time>
      </trkpt>
      <trkpt lat="50.42802" lon="3.44449">
        <ele>23.1</ele>
        <time>2022-03-24T15:16:36.700Z</time>
      </trkpt>
      <trkpt lat="50.42796" lon="3.44443">
        <ele>23.3</ele>
        <time>2022-03-24T15:16:39.000Z</time>
      </trkpt>
      <trkpt lat="50.42793" lon="3.44437">
        <ele>23.5</ele>
        <time>2022-03-24T15:16:41.000Z</time>
      </trkpt>
      <trkpt lat="50.4279" lon="3.44431">
        <ele>23.6</ele>
        <time>2022-03-24T15:16:42.460Z</time>
      </trkpt>
      <trkpt lat="50.42786" lon="3.44424">
        <ele>23.7</ele>
        <time>2022-03-24T15:16:45.000Z</time>
      </trkpt>
      <trkpt lat="50.42781" lon="3.44422">
        <ele>23.9</ele>
        <time>2022-03-24T15:16:47.000Z</time>
      </trkpt>
      <trkpt lat="50.42777" lon="3.44416">
        <ele>24</ele>
        <time>2022-03-24T15:16:50.000Z</time>
      </trkpt>
      <trkpt lat="50.42775" lon="3.4441">
        <ele>24</ele>
        <time>2022-03-24T15:17:04.557Z</time>
      </trkpt>
      <trkpt lat="50.42772" lon="3.44398">
        <ele>24</ele>
        <time>2022-03-24T15:17:08.000Z</time>
      </trkpt>
      <trkpt lat="50.42769" lon="3.44387">
        <ele>24</ele>
        <time>2022-03-24T15:17:10.858Z</time>
      </trkpt>
      <trkpt lat="50.42767" lon="3.4438">
        <ele>23.8</ele>
        <time>2022-03-24T15:17:12.000Z</time>
      </trkpt>
      <trkpt lat="50.42763" lon="3.44367">
        <ele>23.6</ele>
        <time>2022-03-24T15:17:14.078Z</time>
      </trkpt>
      <trkpt lat="50.42761" lon="3.4436">
        <ele>23.6</ele>
        <time>2022-03-24T15:17:15.021Z</time>
      </trkpt>
      <trkpt lat="50.42758" lon="3.44355">
        <ele>23.7</ele>
        <time>2022-03-24T15:17:16.000Z</time>
      </trkpt>
      <trkpt lat="50.42753" lon="3.44348">
        <ele>23.9</ele>
        <time>2022-03-24T15:17:18.000Z</time>
      </trkpt>
      <trkpt lat="50.42748" lon="3.4435">
        <ele>24</ele>
        <time>2022-03-24T15:17:21.000Z</time>
      </trkpt>
      <trkpt lat="50.42752" lon="3.44356">
        <ele>23.9</ele>
        <time>2022-03-24T15:17:24.000Z</time>
      </trkpt>
      <trkpt lat="50.42756" lon="3.44349">
        <ele>23.8</ele>
        <time>2022-03-24T15:17:28.000Z</time>
      </trkpt>
      <trkpt lat="50.42758" lon="3.44341">
        <ele>23.7</ele>
        <time>2022-03-24T15:17:30.361Z</time>
      </trkpt>
      <trkpt lat="50.4276" lon="3.44331">
        <ele>23.6</ele>
        <time>2022-03-24T15:17:32.939Z</time>
      </trkpt>
      <trkpt lat="50.42759" lon="3.44323">
        <ele>23.3</ele>
        <time>2022-03-24T15:17:34.000Z</time>
      </trkpt>
      <trkpt lat="50.42758" lon="3.44309">
        <ele>22.8</ele>
        <time>2022-03-24T15:17:36.000Z</time>
      </trkpt>
      <trkpt lat="50.42758" lon="3.443">
        <ele>22.5</ele>
        <time>2022-03-24T15:17:37.420Z</time>
      </trkpt>
      <trkpt lat="50.42759" lon="3.44284">
        <ele>21.9</ele>
        <time>2022-03-24T15:17:40.118Z</time>
      </trkpt>
      <trkpt lat="50.42755" lon="3.4427">
        <ele>21.6</ele>
        <time>2022-03-24T15:17:42.822Z</time>
      </trkpt>
      <trkpt lat="50.42747" lon="3.44264">
        <ele>21.5</ele>
        <time>2022-03-24T15:17:45.000Z</time>
      </trkpt>
      <trkpt lat="50.42742" lon="3.44262">
        <ele>21.4</ele>
        <time>2022-03-24T15:17:46.000Z</time>
      </trkpt>
      <trkpt lat="50.42734" lon="3.44266">
        <ele>21.6</ele>
        <time>2022-03-24T15:17:48.000Z</time>
      </trkpt>
      <trkpt lat="50.42731" lon="3.44272">
        <ele>21.8</ele>
        <time>2022-03-24T15:17:49.198Z</time>
      </trkpt>
      <trkpt lat="50.42726" lon="3.44279">
        <ele>22</ele>
        <time>2022-03-24T15:17:50.701Z</time>
      </trkpt>
      <trkpt lat="50.42722" lon="3.44289">
        <ele>22.4</ele>
        <time>2022-03-24T15:17:52.560Z</time>
      </trkpt>
      <trkpt lat="50.42719" lon="3.44302">
        <ele>22.8</ele>
        <time>2022-03-24T15:17:54.960Z</time>
      </trkpt>
      <trkpt lat="50.42718" lon="3.44315">
        <ele>23.2</ele>
        <time>2022-03-24T15:17:57.777Z</time>
      </trkpt>
      <trkpt lat="50.42718" lon="3.44325">
        <ele>23.5</ele>
        <time>2022-03-24T15:18:00.140Z</time>
      </trkpt>
      <trkpt lat="50.42719" lon="3.44337">
        <ele>24</ele>
        <time>2022-03-24T15:18:03.000Z</time>
      </trkpt>
      <trkpt lat="50.42719" lon="3.44346">
        <ele>24.3</ele>
        <time>2022-03-24T15:18:04.900Z</time>
      </trkpt>
      <trkpt lat="50.4272" lon="3.44357">
        <ele>24.8</ele>
        <time>2022-03-24T15:18:07.020Z</time>
      </trkpt>
      <trkpt lat="50.4272" lon="3.44368">
        <ele>24.7</ele>
        <time>2022-03-24T15:18:09.160Z</time>
      </trkpt>
      <trkpt lat="50.42719" lon="3.44378">
        <ele>24.4</ele>
        <time>2022-03-24T15:18:11.040Z</time>
      </trkpt>
      <trkpt lat="50.42721" lon="3.44387">
        <ele>24.1</ele>
        <time>2022-03-24T15:18:13.000Z</time>
      </trkpt>
      <trkpt lat="50.42725" lon="3.44397">
        <ele>24.3</ele>
        <time>2022-03-24T15:18:15.840Z</time>
      </trkpt>
      <trkpt lat="50.42727" lon="3.44406">
        <ele>24.5</ele>
        <time>2022-03-24T15:18:18.938Z</time>
      </trkpt>
      <trkpt lat="50.42727" lon="3.44416">
        <ele>24.8</ele>
        <time>2022-03-24T15:18:22.000Z</time>
      </trkpt>
      <trkpt lat="50.42726" lon="3.44425">
        <ele>24.9</ele>
        <time>2022-03-24T15:18:25.000Z</time>
      </trkpt>
      <trkpt lat="50.42724" lon="3.44433">
        <ele>24.9</ele>
        <time>2022-03-24T15:18:29.000Z</time>
      </trkpt>
      <trkpt lat="50.42721" lon="3.4444">
        <ele>25</ele>
        <time>2022-03-24T15:18:32.922Z</time>
      </trkpt>
      <trkpt lat="50.42724" lon="3.44446">
        <ele>24.9</ele>
        <time>2022-03-24T15:18:36.000Z</time>
      </trkpt>
      <trkpt lat="50.42727" lon="3.44441">
        <ele>24.8</ele>
        <time>2022-03-24T15:18:38.418Z</time>
      </trkpt>
      <trkpt lat="50.4273" lon="3.44432">
        <ele>24.7</ele>
        <time>2022-03-24T15:18:41.122Z</time>
      </trkpt>
      <trkpt lat="50.42734" lon="3.44426">
        <ele>24.6</ele>
        <time>2022-03-24T15:18:43.181Z</time>
      </trkpt>
      <trkpt lat="50.42739" lon="3.44423">
        <ele>24.4</ele>
        <time>2022-03-24T15:18:44.458Z</time>
      </trkpt>
      <trkpt lat="50.42744" lon="3.44419">
        <ele>24.2</ele>
        <time>2022-03-24T15:18:46.018Z</time>
      </trkpt>
      <trkpt lat="50.42751" lon="3.44417">
        <ele>24</ele>
        <time>2022-03-24T15:18:48.000Z</time>
      </trkpt>
      <trkpt lat="50.42759" lon="3.44416">
        <ele>24</ele>
        <time>2022-03-24T15:18:50.181Z</time>
      </trkpt>
      <trkpt lat="50.42767" lon="3.44414">
        <ele>24</ele>
        <time>2022-03-24T15:18:53.000Z</time>
      </trkpt>
      <trkpt lat="50.42772" lon="3.4441">
        <ele>24</ele>
        <time>2022-03-24T15:18:56.000Z</time>
      </trkpt>
      <trkpt lat="50.42766" lon="3.44408">
        <ele>24</ele>
        <time>2022-03-24T15:19:16.000Z</time>
      </trkpt>
      <trkpt lat="50.42762" lon="3.44412">
        <ele>24</ele>
        <time>2022-03-24T15:19:19.000Z</time>
      </trkpt>
      <trkpt lat="50.42756" lon="3.44417">
        <ele>24</ele>
        <time>2022-03-24T15:19:23.942Z</time>
      </trkpt>
      <trkpt lat="50.42744" lon="3.44423">
        <ele>24.2</ele>
        <time>2022-03-24T15:19:26.963Z</time>
      </trkpt>
      <trkpt lat="50.42736" lon="3.44431">
        <ele>24.5</ele>
        <time>2022-03-24T15:19:29.000Z</time>
      </trkpt>
      <trkpt lat="50.42731" lon="3.44438">
        <ele>24.7</ele>
        <time>2022-03-24T15:19:30.900Z</time>
      </trkpt>
      <trkpt lat="50.42726" lon="3.44445">
        <ele>24.9</ele>
        <time>2022-03-24T15:19:33.159Z</time>
      </trkpt>
      <trkpt lat="50.42721" lon="3.44447">
        <ele>25</ele>
        <time>2022-03-24T15:19:34.879Z</time>
      </trkpt>
      <trkpt lat="50.42719" lon="3.44454">
        <ele>25</ele>
        <time>2022-03-24T15:19:37.141Z</time>
      </trkpt>
      <trkpt lat="50.42715" lon="3.44463">
        <ele>25.2</ele>
        <time>2022-03-24T15:19:40.141Z</time>
      </trkpt>
      <trkpt lat="50.42711" lon="3.44472">
        <ele>25.4</ele>
        <time>2022-03-24T15:19:42.957Z</time>
      </trkpt>
      <trkpt lat="50.42708" lon="3.44478">
        <ele>25.5</ele>
        <time>2022-03-24T15:19:45.000Z</time>
      </trkpt>
      <trkpt lat="50.42706" lon="3.44487">
        <ele>25.6</ele>
        <time>2022-03-24T15:19:48.000Z</time>
      </trkpt>
      <trkpt lat="50.42712" lon="3.44484">
        <ele>25.4</ele>
        <time>2022-03-24T15:19:51.918Z</time>
      </trkpt>
      <trkpt lat="50.42715" lon="3.44474">
        <ele>25.3</ele>
        <time>2022-03-24T15:19:55.000Z</time>
      </trkpt>
      <trkpt lat="50.4272" lon="3.44459">
        <ele>25</ele>
        <time>2022-03-24T15:19:58.000Z</time>
      </trkpt>
      <trkpt lat="50.42724" lon="3.44445">
        <ele>24.9</ele>
        <time>2022-03-24T15:20:01.000Z</time>
      </trkpt>
      <trkpt lat="50.42728" lon="3.44439">
        <ele>24.8</ele>
        <time>2022-03-24T15:20:03.000Z</time>
      </trkpt>
      <trkpt lat="50.42735" lon="3.4444">
        <ele>24.5</ele>
        <time>2022-03-24T15:20:52.000Z</time>
      </trkpt>
      <trkpt lat="50.42729" lon="3.44434">
        <ele>24.8</ele>
        <time>2022-03-24T15:21:07.000Z</time>
      </trkpt>
      <trkpt lat="50.42726" lon="3.44439">
        <ele>24.9</ele>
        <time>2022-03-24T15:21:13.000Z</time>
      </trkpt>
      <trkpt lat="50.42727" lon="3.44446">
        <ele>24.8</ele>
        <time>2022-03-24T15:21:25.000Z</time>
      </trkpt>
      <trkpt lat="50.42724" lon="3.44455">
        <ele>24.9</ele>
        <time>2022-03-24T15:21:27.000Z</time>
      </trkpt>
      <trkpt lat="50.4272" lon="3.44462">
        <ele>25.1</ele>
        <time>2022-03-24T15:21:29.000Z</time>
      </trkpt>
      <trkpt lat="50.42716" lon="3.44459">
        <ele>25.1</ele>
        <time>2022-03-24T15:21:32.000Z</time>
      </trkpt>
      <trkpt lat="50.42715" lon="3.44468">
        <ele>25.2</ele>
        <time>2022-03-24T15:21:35.640Z</time>
      </trkpt>
      <trkpt lat="50.42712" lon="3.44476">
        <ele>25.4</ele>
        <time>2022-03-24T15:21:39.099Z</time>
      </trkpt>
      <trkpt lat="50.42708" lon="3.44485">
        <ele>25.5</ele>
        <time>2022-03-24T15:21:41.178Z</time>
      </trkpt>
      <trkpt lat="50.42703" lon="3.44493">
        <ele>25.7</ele>
        <time>2022-03-24T15:21:43.523Z</time>
      </trkpt>
      <trkpt lat="50.427" lon="3.44505">
        <ele>25.8</ele>
        <time>2022-03-24T15:21:46.138Z</time>
      </trkpt>
      <trkpt lat="50.42698" lon="3.44521">
        <ele>25.9</ele>
        <time>2022-03-24T15:21:49.000Z</time>
      </trkpt>
      <trkpt lat="50.42696" lon="3.44531">
        <ele>25.9</ele>
        <time>2022-03-24T15:21:51.000Z</time>
      </trkpt>
      <trkpt lat="50.42691" lon="3.44544">
        <ele>25.9</ele>
        <time>2022-03-24T15:21:53.517Z</time>
      </trkpt>
      <trkpt lat="50.42687" lon="3.44551">
        <ele>25.7</ele>
        <time>2022-03-24T15:21:54.958Z</time>
      </trkpt>
      <trkpt lat="50.42683" lon="3.44557">
        <ele>25.6</ele>
        <time>2022-03-24T15:21:56.001Z</time>
      </trkpt>
      <trkpt lat="50.4268" lon="3.44563">
        <ele>25.5</ele>
        <time>2022-03-24T15:21:57.000Z</time>
      </trkpt>
      <trkpt lat="50.42671" lon="3.44585">
        <ele>25.2</ele>
        <time>2022-03-24T15:21:59.000Z</time>
      </trkpt>
      <trkpt lat="50.42666" lon="3.44599">
        <ele>25</ele>
        <time>2022-03-24T15:22:00.000Z</time>
      </trkpt>
      <trkpt lat="50.42661" lon="3.44613">
        <ele>24.6</ele>
        <time>2022-03-24T15:22:01.000Z</time>
      </trkpt>
      <trkpt lat="50.42656" lon="3.44627">
        <ele>24.2</ele>
        <time>2022-03-24T15:22:02.000Z</time>
      </trkpt>
      <trkpt lat="50.42651" lon="3.4464">
        <ele>23.9</ele>
        <time>2022-03-24T15:22:03.000Z</time>
      </trkpt>
      <trkpt lat="50.42646" lon="3.44654">
        <ele>23.5</ele>
        <time>2022-03-24T15:22:04.000Z</time>
      </trkpt>
      <trkpt lat="50.42641" lon="3.44667">
        <ele>23.1</ele>
        <time>2022-03-24T15:22:05.000Z</time>
      </trkpt>
      <trkpt lat="50.42637" lon="3.44679">
        <ele>22.4</ele>
        <time>2022-03-24T15:22:06.000Z</time>
      </trkpt>
      <trkpt lat="50.42632" lon="3.44692">
        <ele>21.6</ele>
        <time>2022-03-24T15:22:07.000Z</time>
      </trkpt>
      <trkpt lat="50.42627" lon="3.44704">
        <ele>21.1</ele>
        <time>2022-03-24T15:22:08.000Z</time>
      </trkpt>
      <trkpt lat="50.42622" lon="3.44716">
        <ele>20.8</ele>
        <time>2022-03-24T15:22:09.000Z</time>
      </trkpt>
      <trkpt lat="50.42619" lon="3.44728">
        <ele>20.6</ele>
        <time>2022-03-24T15:22:10.000Z</time>
      </trkpt>
      <trkpt lat="50.42615" lon="3.4474">
        <ele>20.3</ele>
        <time>2022-03-24T15:22:11.000Z</time>
      </trkpt>
      <trkpt lat="50.42611" lon="3.44751">
        <ele>20</ele>
        <time>2022-03-24T15:22:12.000Z</time>
      </trkpt>
      <trkpt lat="50.42607" lon="3.44762">
        <ele>19.8</ele>
        <time>2022-03-24T15:22:13.000Z</time>
      </trkpt>
      <trkpt lat="50.42603" lon="3.44773">
        <ele>19.7</ele>
        <time>2022-03-24T15:22:14.000Z</time>
      </trkpt>
      <trkpt lat="50.42599" lon="3.44785">
        <ele>19.6</ele>
        <time>2022-03-24T15:22:15.000Z</time>
      </trkpt>
      <trkpt lat="50.42595" lon="3.44796">
        <ele>19.4</ele>
        <time>2022-03-24T15:22:16.000Z</time>
      </trkpt>
      <trkpt lat="50.42591" lon="3.44806">
        <ele>19.3</ele>
        <time>2022-03-24T15:22:17.000Z</time>
      </trkpt>
      <trkpt lat="50.42587" lon="3.44817">
        <ele>19.1</ele>
        <time>2022-03-24T15:22:18.000Z</time>
      </trkpt>
      <trkpt lat="50.42583" lon="3.44828">
        <ele>19</ele>
        <time>2022-03-24T15:22:19.000Z</time>
      </trkpt>
      <trkpt lat="50.42579" lon="3.44838">
        <ele>18.7</ele>
        <time>2022-03-24T15:22:20.000Z</time>
      </trkpt>
      <trkpt lat="50.42575" lon="3.44848">
        <ele>18.3</ele>
        <time>2022-03-24T15:22:21.000Z</time>
      </trkpt>
      <trkpt lat="50.42571" lon="3.44858">
        <ele>18.1</ele>
        <time>2022-03-24T15:22:22.000Z</time>
      </trkpt>
      <trkpt lat="50.42567" lon="3.44868">
        <ele>18</ele>
        <time>2022-03-24T15:22:23.000Z</time>
      </trkpt>
      <trkpt lat="50.42564" lon="3.44878">
        <ele>18</ele>
        <time>2022-03-24T15:22:24.000Z</time>
      </trkpt>
      <trkpt lat="50.4256" lon="3.44887">
        <ele>18</ele>
        <time>2022-03-24T15:22:25.000Z</time>
      </trkpt>
      <trkpt lat="50.42557" lon="3.44896">
        <ele>18</ele>
        <time>2022-03-24T15:22:26.000Z</time>
      </trkpt>
      <trkpt lat="50.42553" lon="3.44905">
        <ele>18</ele>
        <time>2022-03-24T15:22:27.000Z</time>
      </trkpt>
      <trkpt lat="50.4255" lon="3.44914">
        <ele>18</ele>
        <time>2022-03-24T15:22:28.000Z</time>
      </trkpt>
      <trkpt lat="50.42547" lon="3.44923">
        <ele>18</ele>
        <time>2022-03-24T15:22:29.000Z</time>
      </trkpt>
      <trkpt lat="50.42543" lon="3.44931">
        <ele>18</ele>
        <time>2022-03-24T15:22:30.000Z</time>
      </trkpt>
      <trkpt lat="50.4254" lon="3.44939">
        <ele>18</ele>
        <time>2022-03-24T15:22:31.000Z</time>
      </trkpt>
      <trkpt lat="50.42537" lon="3.44948">
        <ele>18</ele>
        <time>2022-03-24T15:22:32.000Z</time>
      </trkpt>
      <trkpt lat="50.42534" lon="3.44956">
        <ele>18</ele>
        <time>2022-03-24T15:22:33.000Z</time>
      </trkpt>
      <trkpt lat="50.42532" lon="3.44964">
        <ele>18</ele>
        <time>2022-03-24T15:22:34.000Z</time>
      </trkpt>
      <trkpt lat="50.42529" lon="3.44972">
        <ele>18</ele>
        <time>2022-03-24T15:22:35.000Z</time>
      </trkpt>
      <trkpt lat="50.42527" lon="3.44979">
        <ele>18</ele>
        <time>2022-03-24T15:22:36.000Z</time>
      </trkpt>
      <trkpt lat="50.42524" lon="3.44987">
        <ele>18</ele>
        <time>2022-03-24T15:22:37.000Z</time>
      </trkpt>
      <trkpt lat="50.42521" lon="3.44995">
        <ele>18</ele>
        <time>2022-03-24T15:22:38.000Z</time>
      </trkpt>
      <trkpt lat="50.42518" lon="3.45002">
        <ele>17.9</ele>
        <time>2022-03-24T15:22:39.000Z</time>
      </trkpt>
      <trkpt lat="50.42515" lon="3.4501">
        <ele>17.6</ele>
        <time>2022-03-24T15:22:40.000Z</time>
      </trkpt>
      <trkpt lat="50.42512" lon="3.45017">
        <ele>17.4</ele>
        <time>2022-03-24T15:22:41.000Z</time>
      </trkpt>
      <trkpt lat="50.42509" lon="3.45025">
        <ele>17.1</ele>
        <time>2022-03-24T15:22:42.000Z</time>
      </trkpt>
      <trkpt lat="50.42507" lon="3.45033">
        <ele>17</ele>
        <time>2022-03-24T15:22:43.000Z</time>
      </trkpt>
      <trkpt lat="50.42504" lon="3.4504">
        <ele>17</ele>
        <time>2022-03-24T15:22:44.000Z</time>
      </trkpt>
      <trkpt lat="50.42501" lon="3.45048">
        <ele>17</ele>
        <time>2022-03-24T15:22:45.000Z</time>
      </trkpt>
      <trkpt lat="50.42499" lon="3.45055">
        <ele>17</ele>
        <time>2022-03-24T15:22:46.000Z</time>
      </trkpt>
      <trkpt lat="50.42496" lon="3.45062">
        <ele>17</ele>
        <time>2022-03-24T15:22:47.000Z</time>
      </trkpt>
      <trkpt lat="50.42494" lon="3.45069">
        <ele>17</ele>
        <time>2022-03-24T15:22:48.000Z</time>
      </trkpt>
      <trkpt lat="50.42491" lon="3.45075">
        <ele>17</ele>
        <time>2022-03-24T15:22:49.000Z</time>
      </trkpt>
      <trkpt lat="50.42488" lon="3.45082">
        <ele>17</ele>
        <time>2022-03-24T15:22:50.000Z</time>
      </trkpt>
      <trkpt lat="50.42486" lon="3.45088">
        <ele>17</ele>
        <time>2022-03-24T15:22:51.000Z</time>
      </trkpt>
      <trkpt lat="50.42483" lon="3.45095">
        <ele>17</ele>
        <time>2022-03-24T15:22:52.000Z</time>
      </trkpt>
      <trkpt lat="50.42481" lon="3.45101">
        <ele>17</ele>
        <time>2022-03-24T15:22:53.000Z</time>
      </trkpt>
      <trkpt lat="50.42476" lon="3.45111">
        <ele>17</ele>
        <time>2022-03-24T15:22:55.000Z</time>
      </trkpt>
      <trkpt lat="50.42473" lon="3.45117">
        <ele>17</ele>
        <time>2022-03-24T15:22:56.000Z</time>
      </trkpt>
      <trkpt lat="50.42471" lon="3.45124">
        <ele>17</ele>
        <time>2022-03-24T15:22:57.000Z</time>
      </trkpt>
      <trkpt lat="50.42468" lon="3.45131">
        <ele>17</ele>
        <time>2022-03-24T15:22:58.000Z</time>
      </trkpt>
      <trkpt lat="50.42466" lon="3.45137">
        <ele>17</ele>
        <time>2022-03-24T15:22:59.000Z</time>
      </trkpt>
      <trkpt lat="50.42463" lon="3.45146">
        <ele>17</ele>
        <time>2022-03-24T15:23:01.000Z</time>
      </trkpt>
      <trkpt lat="50.42458" lon="3.45154">
        <ele>17</ele>
        <time>2022-03-24T15:23:02.892Z</time>
      </trkpt>
      <trkpt lat="50.42453" lon="3.45167">
        <ele>17</ele>
        <time>2022-03-24T15:23:05.110Z</time>
      </trkpt>
      <trkpt lat="50.42449" lon="3.45181">
        <ele>17</ele>
        <time>2022-03-24T15:23:07.335Z</time>
      </trkpt>
      <trkpt lat="50.42446" lon="3.45188">
        <ele>17</ele>
        <time>2022-03-24T15:23:08.672Z</time>
      </trkpt>
      <trkpt lat="50.42444" lon="3.45195">
        <ele>17</ele>
        <time>2022-03-24T15:23:09.891Z</time>
      </trkpt>
      <trkpt lat="50.42442" lon="3.45202">
        <ele>17</ele>
        <time>2022-03-24T15:23:11.132Z</time>
      </trkpt>
      <trkpt lat="50.42439" lon="3.4521">
        <ele>17.1</ele>
        <time>2022-03-24T15:23:12.714Z</time>
      </trkpt>
      <trkpt lat="50.42435" lon="3.45221">
        <ele>17.3</ele>
        <time>2022-03-24T15:23:15.092Z</time>
      </trkpt>
      <trkpt lat="50.42432" lon="3.4523">
        <ele>17.6</ele>
        <time>2022-03-24T15:23:17.000Z</time>
      </trkpt>
      <trkpt lat="50.42428" lon="3.45239">
        <ele>17.8</ele>
        <time>2022-03-24T15:23:19.000Z</time>
      </trkpt>
      <trkpt lat="50.42424" lon="3.45248">
        <ele>18</ele>
        <time>2022-03-24T15:23:20.993Z</time>
      </trkpt>
      <trkpt lat="50.4242" lon="3.45259">
        <ele>18</ele>
        <time>2022-03-24T15:23:22.951Z</time>
      </trkpt>
      <trkpt lat="50.42417" lon="3.45268">
        <ele>18</ele>
        <time>2022-03-24T15:23:25.000Z</time>
      </trkpt>
      <trkpt lat="50.42415" lon="3.45276">
        <ele>18</ele>
        <time>2022-03-24T15:23:27.000Z</time>
      </trkpt>
      <trkpt lat="50.42412" lon="3.45283">
        <ele>18.2</ele>
        <time>2022-03-24T15:23:28.974Z</time>
      </trkpt>
      <trkpt lat="50.42408" lon="3.45292">
        <ele>18.5</ele>
        <time>2022-03-24T15:23:31.000Z</time>
      </trkpt>
      <trkpt lat="50.42406" lon="3.453">
        <ele>18.8</ele>
        <time>2022-03-24T15:23:33.000Z</time>
      </trkpt>
      <trkpt lat="50.42402" lon="3.45309">
        <ele>19.1</ele>
        <time>2022-03-24T15:23:34.988Z</time>
      </trkpt>
      <trkpt lat="50.42398" lon="3.4532">
        <ele>19.2</ele>
        <time>2022-03-24T15:23:37.649Z</time>
      </trkpt>
      <trkpt lat="50.42394" lon="3.45331">
        <ele>19.2</ele>
        <time>2022-03-24T15:23:39.911Z</time>
      </trkpt>
      <trkpt lat="50.4239" lon="3.4534">
        <ele>19.3</ele>
        <time>2022-03-24T15:23:42.000Z</time>
      </trkpt>
      <trkpt lat="50.42387" lon="3.45349">
        <ele>19.5</ele>
        <time>2022-03-24T15:23:44.218Z</time>
      </trkpt>
      <trkpt lat="50.42384" lon="3.45357">
        <ele>19.7</ele>
        <time>2022-03-24T15:23:46.051Z</time>
      </trkpt>
      <trkpt lat="50.42379" lon="3.45365">
        <ele>19.7</ele>
        <time>2022-03-24T15:23:49.000Z</time>
      </trkpt>
      <trkpt lat="50.42376" lon="3.45371">
        <ele>19.7</ele>
        <time>2022-03-24T15:23:51.000Z</time>
      </trkpt>
      <trkpt lat="50.42374" lon="3.45378">
        <ele>19.8</ele>
        <time>2022-03-24T15:23:53.000Z</time>
      </trkpt>
      <trkpt lat="50.4237" lon="3.45384">
        <ele>19.9</ele>
        <time>2022-03-24T15:23:55.000Z</time>
      </trkpt>
      <trkpt lat="50.42368" lon="3.45392">
        <ele>20</ele>
        <time>2022-03-24T15:23:57.000Z</time>
      </trkpt>
      <trkpt lat="50.42365" lon="3.45398">
        <ele>20</ele>
        <time>2022-03-24T15:23:59.000Z</time>
      </trkpt>
      <trkpt lat="50.42363" lon="3.45406">
        <ele>20</ele>
        <time>2022-03-24T15:24:01.391Z</time>
      </trkpt>
      <trkpt lat="50.42359" lon="3.45417">
        <ele>19.9</ele>
        <time>2022-03-24T15:24:05.071Z</time>
      </trkpt>
      <trkpt lat="50.42357" lon="3.45424">
        <ele>20.1</ele>
        <time>2022-03-24T15:24:07.091Z</time>
      </trkpt>
      <trkpt lat="50.42353" lon="3.45433">
        <ele>20.3</ele>
        <time>2022-03-24T15:24:10.315Z</time>
      </trkpt>
      <trkpt lat="50.42351" lon="3.4544">
        <ele>20.5</ele>
        <time>2022-03-24T15:24:12.431Z</time>
      </trkpt>
      <trkpt lat="50.42348" lon="3.45447">
        <ele>20.5</ele>
        <time>2022-03-24T15:24:14.635Z</time>
      </trkpt>
      <trkpt lat="50.42346" lon="3.45453">
        <ele>20.5</ele>
        <time>2022-03-24T15:24:16.930Z</time>
      </trkpt>
      <trkpt lat="50.42342" lon="3.45461">
        <ele>20.3</ele>
        <time>2022-03-24T15:24:20.000Z</time>
      </trkpt>
      <trkpt lat="50.42339" lon="3.4547">
        <ele>20.2</ele>
        <time>2022-03-24T15:24:23.000Z</time>
      </trkpt>
      <trkpt lat="50.42335" lon="3.45479">
        <ele>20.3</ele>
        <time>2022-03-24T15:24:26.183Z</time>
      </trkpt>
      <trkpt lat="50.42331" lon="3.45488">
        <ele>20.5</ele>
        <time>2022-03-24T15:24:29.111Z</time>
      </trkpt>
      <trkpt lat="50.42328" lon="3.45499">
        <ele>20.8</ele>
        <time>2022-03-24T15:24:32.000Z</time>
      </trkpt>
      <trkpt lat="50.42326" lon="3.45508">
        <ele>20.8</ele>
        <time>2022-03-24T15:24:34.000Z</time>
      </trkpt>
      <trkpt lat="50.42324" lon="3.45516">
        <ele>20.9</ele>
        <time>2022-03-24T15:24:36.000Z</time>
      </trkpt>
      <trkpt lat="50.4232" lon="3.45523">
        <ele>20.9</ele>
        <time>2022-03-24T15:24:38.000Z</time>
      </trkpt>
      <trkpt lat="50.42316" lon="3.4553">
        <ele>21</ele>
        <time>2022-03-24T15:24:39.990Z</time>
      </trkpt>
      <trkpt lat="50.42312" lon="3.45539">
        <ele>21.1</ele>
        <time>2022-03-24T15:24:42.530Z</time>
      </trkpt>
      <trkpt lat="50.4231" lon="3.45547">
        <ele>21.1</ele>
        <time>2022-03-24T15:24:45.000Z</time>
      </trkpt>
      <trkpt lat="50.42306" lon="3.45553">
        <ele>21</ele>
        <time>2022-03-24T15:24:47.000Z</time>
      </trkpt>
      <trkpt lat="50.42305" lon="3.4556">
        <ele>21.2</ele>
        <time>2022-03-24T15:24:49.000Z</time>
      </trkpt>
      <trkpt lat="50.42302" lon="3.45568">
        <ele>21.4</ele>
        <time>2022-03-24T15:24:51.000Z</time>
      </trkpt>
      <trkpt lat="50.42298" lon="3.45575">
        <ele>21.7</ele>
        <time>2022-03-24T15:24:53.092Z</time>
      </trkpt>
      <trkpt lat="50.42296" lon="3.45582">
        <ele>22</ele>
        <time>2022-03-24T15:24:54.932Z</time>
      </trkpt>
      <trkpt lat="50.42292" lon="3.45593">
        <ele>22.3</ele>
        <time>2022-03-24T15:24:58.000Z</time>
      </trkpt>
      <trkpt lat="50.42288" lon="3.45604">
        <ele>22.7</ele>
        <time>2022-03-24T15:25:01.173Z</time>
      </trkpt>
      <trkpt lat="50.42286" lon="3.4561">
        <ele>23</ele>
        <time>2022-03-24T15:25:03.033Z</time>
      </trkpt>
      <trkpt lat="50.42282" lon="3.45619">
        <ele>23</ele>
        <time>2022-03-24T15:25:06.000Z</time>
      </trkpt>
      <trkpt lat="50.42279" lon="3.45629">
        <ele>23</ele>
        <time>2022-03-24T15:25:09.000Z</time>
      </trkpt>
      <trkpt lat="50.42278" lon="3.45636">
        <ele>23</ele>
        <time>2022-03-24T15:25:11.189Z</time>
      </trkpt>
      <trkpt lat="50.42275" lon="3.45645">
        <ele>23.1</ele>
        <time>2022-03-24T15:25:13.811Z</time>
      </trkpt>
      <trkpt lat="50.42272" lon="3.45654">
        <ele>23.3</ele>
        <time>2022-03-24T15:25:17.553Z</time>
      </trkpt>
      <trkpt lat="50.42269" lon="3.45661">
        <ele>23.5</ele>
        <time>2022-03-24T15:25:21.000Z</time>
      </trkpt>
      <trkpt lat="50.42265" lon="3.45668">
        <ele>23.6</ele>
        <time>2022-03-24T15:25:24.072Z</time>
      </trkpt>
      <trkpt lat="50.42262" lon="3.45675">
        <ele>23.7</ele>
        <time>2022-03-24T15:25:27.000Z</time>
      </trkpt>
      <trkpt lat="50.42259" lon="3.45683">
        <ele>23.9</ele>
        <time>2022-03-24T15:25:30.000Z</time>
      </trkpt>
      <trkpt lat="50.42256" lon="3.45691">
        <ele>24.1</ele>
        <time>2022-03-24T15:25:33.000Z</time>
      </trkpt>
      <trkpt lat="50.42254" lon="3.45699">
        <ele>24.3</ele>
        <time>2022-03-24T15:25:36.000Z</time>
      </trkpt>
      <trkpt lat="50.42251" lon="3.45706">
        <ele>24.5</ele>
        <time>2022-03-24T15:25:38.000Z</time>
      </trkpt>
      <trkpt lat="50.42249" lon="3.45713">
        <ele>24.6</ele>
        <time>2022-03-24T15:25:40.232Z</time>
      </trkpt>
      <trkpt lat="50.42246" lon="3.45722">
        <ele>24.7</ele>
        <time>2022-03-24T15:25:42.893Z</time>
      </trkpt>
      <trkpt lat="50.42243" lon="3.45729">
        <ele>24.7</ele>
        <time>2022-03-24T15:25:45.174Z</time>
      </trkpt>
      <trkpt lat="50.4224" lon="3.45736">
        <ele>24.8</ele>
        <time>2022-03-24T15:25:47.688Z</time>
      </trkpt>
      <trkpt lat="50.42237" lon="3.45743">
        <ele>24.8</ele>
        <time>2022-03-24T15:25:49.894Z</time>
      </trkpt>
      <trkpt lat="50.42234" lon="3.45751">
        <ele>24.9</ele>
        <time>2022-03-24T15:25:53.129Z</time>
      </trkpt>
      <trkpt lat="50.4223" lon="3.45761">
        <ele>25</ele>
        <time>2022-03-24T15:25:56.000Z</time>
      </trkpt>
      <trkpt lat="50.42228" lon="3.45767">
        <ele>25</ele>
        <time>2022-03-24T15:25:58.000Z</time>
      </trkpt>
      <trkpt lat="50.42224" lon="3.45777">
        <ele>25.1</ele>
        <time>2022-03-24T15:26:01.000Z</time>
      </trkpt>
      <trkpt lat="50.42222" lon="3.45784">
        <ele>25.2</ele>
        <time>2022-03-24T15:26:03.030Z</time>
      </trkpt>
      <trkpt lat="50.42219" lon="3.45793">
        <ele>25.3</ele>
        <time>2022-03-24T15:26:05.000Z</time>
      </trkpt>
      <trkpt lat="50.42215" lon="3.45805">
        <ele>25.2</ele>
        <time>2022-03-24T15:26:08.014Z</time>
      </trkpt>
      <trkpt lat="50.42212" lon="3.45814">
        <ele>25</ele>
        <time>2022-03-24T15:26:10.000Z</time>
      </trkpt>
      <trkpt lat="50.42208" lon="3.45823">
        <ele>24.8</ele>
        <time>2022-03-24T15:26:12.000Z</time>
      </trkpt>
      <trkpt lat="50.42204" lon="3.45832">
        <ele>24.7</ele>
        <time>2022-03-24T15:26:14.111Z</time>
      </trkpt>
      <trkpt lat="50.42199" lon="3.45842">
        <ele>24.3</ele>
        <time>2022-03-24T15:26:16.091Z</time>
      </trkpt>
      <trkpt lat="50.42195" lon="3.45854">
        <ele>24</ele>
        <time>2022-03-24T15:26:18.072Z</time>
      </trkpt>
      <trkpt lat="50.42191" lon="3.45865">
        <ele>23.9</ele>
        <time>2022-03-24T15:26:20.000Z</time>
      </trkpt>
      <trkpt lat="50.42187" lon="3.45877">
        <ele>24</ele>
        <time>2022-03-24T15:26:22.000Z</time>
      </trkpt>
      <trkpt lat="50.42183" lon="3.45889">
        <ele>24.2</ele>
        <time>2022-03-24T15:26:24.000Z</time>
      </trkpt>
      <trkpt lat="50.42178" lon="3.45901">
        <ele>23.8</ele>
        <time>2022-03-24T15:26:26.110Z</time>
      </trkpt>
      <trkpt lat="50.42175" lon="3.45909">
        <ele>23.6</ele>
        <time>2022-03-24T15:26:27.310Z</time>
      </trkpt>
      <trkpt lat="50.42172" lon="3.45917">
        <ele>23.4</ele>
        <time>2022-03-24T15:26:28.529Z</time>
      </trkpt>
      <trkpt lat="50.42168" lon="3.45929">
        <ele>23.5</ele>
        <time>2022-03-24T15:26:30.000Z</time>
      </trkpt>
      <trkpt lat="50.42166" lon="3.45937">
        <ele>23.7</ele>
        <time>2022-03-24T15:26:31.000Z</time>
      </trkpt>
      <trkpt lat="50.42164" lon="3.45943">
        <ele>23.8</ele>
        <time>2022-03-24T15:26:32.000Z</time>
      </trkpt>
      <trkpt lat="50.4216" lon="3.45949">
        <ele>23.6</ele>
        <time>2022-03-24T15:26:34.320Z</time>
      </trkpt>
      <trkpt lat="50.42158" lon="3.45956">
        <ele>23.5</ele>
        <time>2022-03-24T15:26:35.300Z</time>
      </trkpt>
      <trkpt lat="50.42155" lon="3.45965">
        <ele>23.5</ele>
        <time>2022-03-24T15:26:36.632Z</time>
      </trkpt>
      <trkpt lat="50.4215" lon="3.4598">
        <ele>23.5</ele>
        <time>2022-03-24T15:26:39.097Z</time>
      </trkpt>
      <trkpt lat="50.42148" lon="3.45987">
        <ele>23.5</ele>
        <time>2022-03-24T15:26:40.000Z</time>
      </trkpt>
      <trkpt lat="50.42144" lon="3.45999">
        <ele>23.4</ele>
        <time>2022-03-24T15:26:42.000Z</time>
      </trkpt>
      <trkpt lat="50.42139" lon="3.46008">
        <ele>23.3</ele>
        <time>2022-03-24T15:26:44.000Z</time>
      </trkpt>
      <trkpt lat="50.42132" lon="3.46024">
        <ele>23.6</ele>
        <time>2022-03-24T15:26:46.956Z</time>
      </trkpt>
      <trkpt lat="50.42128" lon="3.46035">
        <ele>23.9</ele>
        <time>2022-03-24T15:26:49.041Z</time>
      </trkpt>
      <trkpt lat="50.42124" lon="3.46045">
        <ele>24.1</ele>
        <time>2022-03-24T15:26:51.000Z</time>
      </trkpt>
      <trkpt lat="50.4212" lon="3.46056">
        <ele>24.3</ele>
        <time>2022-03-24T15:26:53.097Z</time>
      </trkpt>
      <trkpt lat="50.42116" lon="3.46065">
        <ele>24.2</ele>
        <time>2022-03-24T15:26:55.000Z</time>
      </trkpt>
      <trkpt lat="50.42113" lon="3.46074">
        <ele>24.1</ele>
        <time>2022-03-24T15:26:57.000Z</time>
      </trkpt>
      <trkpt lat="50.4211" lon="3.46083">
        <ele>24</ele>
        <time>2022-03-24T15:26:59.100Z</time>
      </trkpt>
      <trkpt lat="50.42106" lon="3.46092">
        <ele>24.1</ele>
        <time>2022-03-24T15:27:01.139Z</time>
      </trkpt>
      <trkpt lat="50.42104" lon="3.46098">
        <ele>24.3</ele>
        <time>2022-03-24T15:27:02.560Z</time>
      </trkpt>
      <trkpt lat="50.42101" lon="3.46107">
        <ele>24.5</ele>
        <time>2022-03-24T15:27:04.648Z</time>
      </trkpt>
      <trkpt lat="50.42097" lon="3.46117">
        <ele>24.5</ele>
        <time>2022-03-24T15:27:07.000Z</time>
      </trkpt>
      <trkpt lat="50.42093" lon="3.46126">
        <ele>24.3</ele>
        <time>2022-03-24T15:27:09.000Z</time>
      </trkpt>
      <trkpt lat="50.42089" lon="3.46137">
        <ele>24.2</ele>
        <time>2022-03-24T15:27:11.401Z</time>
      </trkpt>
      <trkpt lat="50.42085" lon="3.46151">
        <ele>24.1</ele>
        <time>2022-03-24T15:27:13.966Z</time>
      </trkpt>
      <trkpt lat="50.4208" lon="3.46162">
        <ele>23.9</ele>
        <time>2022-03-24T15:27:16.000Z</time>
      </trkpt>
      <trkpt lat="50.42077" lon="3.46171">
        <ele>23.9</ele>
        <time>2022-03-24T15:27:17.858Z</time>
      </trkpt>
      <trkpt lat="50.42073" lon="3.46184">
        <ele>24.3</ele>
        <time>2022-03-24T15:27:20.342Z</time>
      </trkpt>
      <trkpt lat="50.4207" lon="3.46194">
        <ele>24.5</ele>
        <time>2022-03-24T15:27:22.559Z</time>
      </trkpt>
      <trkpt lat="50.42067" lon="3.46201">
        <ele>24.4</ele>
        <time>2022-03-24T15:27:24.000Z</time>
      </trkpt>
      <trkpt lat="50.42065" lon="3.4621">
        <ele>24.3</ele>
        <time>2022-03-24T15:27:26.159Z</time>
      </trkpt>
      <trkpt lat="50.42062" lon="3.46221">
        <ele>24.2</ele>
        <time>2022-03-24T15:27:28.718Z</time>
      </trkpt>
      <trkpt lat="50.42058" lon="3.46231">
        <ele>24.1</ele>
        <time>2022-03-24T15:27:31.000Z</time>
      </trkpt>
      <trkpt lat="50.42055" lon="3.4624">
        <ele>24</ele>
        <time>2022-03-24T15:27:33.000Z</time>
      </trkpt>
      <trkpt lat="50.42051" lon="3.46251">
        <ele>23.8</ele>
        <time>2022-03-24T15:27:35.000Z</time>
      </trkpt>
      <trkpt lat="50.42049" lon="3.46257">
        <ele>23.8</ele>
        <time>2022-03-24T15:27:36.148Z</time>
      </trkpt>
      <trkpt lat="50.42044" lon="3.46267">
        <ele>23.8</ele>
        <time>2022-03-24T15:27:37.918Z</time>
      </trkpt>
      <trkpt lat="50.42042" lon="3.46274">
        <ele>23.9</ele>
        <time>2022-03-24T15:27:39.119Z</time>
      </trkpt>
      <trkpt lat="50.42037" lon="3.46286">
        <ele>24.1</ele>
        <time>2022-03-24T15:27:41.102Z</time>
      </trkpt>
      <trkpt lat="50.42035" lon="3.46293">
        <ele>24.1</ele>
        <time>2022-03-24T15:27:42.000Z</time>
      </trkpt>
      <trkpt lat="50.4203" lon="3.46304">
        <ele>24.1</ele>
        <time>2022-03-24T15:27:43.902Z</time>
      </trkpt>
      <trkpt lat="50.42027" lon="3.46311">
        <ele>24.2</ele>
        <time>2022-03-24T15:27:45.000Z</time>
      </trkpt>
      <trkpt lat="50.42023" lon="3.46323">
        <ele>24.5</ele>
        <time>2022-03-24T15:27:47.000Z</time>
      </trkpt>
      <trkpt lat="50.42021" lon="3.4633">
        <ele>24.6</ele>
        <time>2022-03-24T15:27:48.000Z</time>
      </trkpt>
      <trkpt lat="50.42018" lon="3.46339">
        <ele>24.6</ele>
        <time>2022-03-24T15:27:49.634Z</time>
      </trkpt>
      <trkpt lat="50.42015" lon="3.46346">
        <ele>24.5</ele>
        <time>2022-03-24T15:27:50.680Z</time>
      </trkpt>
      <trkpt lat="50.42012" lon="3.46353">
        <ele>24.4</ele>
        <time>2022-03-24T15:27:52.000Z</time>
      </trkpt>
      <trkpt lat="50.42007" lon="3.46364">
        <ele>24.3</ele>
        <time>2022-03-24T15:27:54.000Z</time>
      </trkpt>
      <trkpt lat="50.42003" lon="3.46374">
        <ele>24.5</ele>
        <time>2022-03-24T15:27:56.000Z</time>
      </trkpt>
      <trkpt lat="50.41999" lon="3.46385">
        <ele>24.8</ele>
        <time>2022-03-24T15:27:57.919Z</time>
      </trkpt>
      <trkpt lat="50.41996" lon="3.4639">
        <ele>24.9</ele>
        <time>2022-03-24T15:27:59.000Z</time>
      </trkpt>
      <trkpt lat="50.41991" lon="3.46401">
        <ele>24.7</ele>
        <time>2022-03-24T15:28:01.000Z</time>
      </trkpt>
      <trkpt lat="50.41986" lon="3.46412">
        <ele>24.5</ele>
        <time>2022-03-24T15:28:03.221Z</time>
      </trkpt>
      <trkpt lat="50.41981" lon="3.46424">
        <ele>24.3</ele>
        <time>2022-03-24T15:28:05.141Z</time>
      </trkpt>
      <trkpt lat="50.41977" lon="3.46436">
        <ele>24.2</ele>
        <time>2022-03-24T15:28:06.918Z</time>
      </trkpt>
      <trkpt lat="50.41973" lon="3.46444">
        <ele>24</ele>
        <time>2022-03-24T15:28:08.000Z</time>
      </trkpt>
      <trkpt lat="50.4197" lon="3.46451">
        <ele>23.9</ele>
        <time>2022-03-24T15:28:09.000Z</time>
      </trkpt>
      <trkpt lat="50.41968" lon="3.46458">
        <ele>23.8</ele>
        <time>2022-03-24T15:28:10.000Z</time>
      </trkpt>
      <trkpt lat="50.41966" lon="3.46465">
        <ele>23.8</ele>
        <time>2022-03-24T15:28:11.000Z</time>
      </trkpt>
      <trkpt lat="50.41965" lon="3.46478">
        <ele>23.7</ele>
        <time>2022-03-24T15:28:13.671Z</time>
      </trkpt>
      <trkpt lat="50.41959" lon="3.46492">
        <ele>23.5</ele>
        <time>2022-03-24T15:28:15.000Z</time>
      </trkpt>
      <trkpt lat="50.41956" lon="3.46499">
        <ele>23.4</ele>
        <time>2022-03-24T15:28:16.000Z</time>
      </trkpt>
      <trkpt lat="50.41954" lon="3.4651">
        <ele>23.3</ele>
        <time>2022-03-24T15:28:18.000Z</time>
      </trkpt>
      <trkpt lat="50.41951" lon="3.46517">
        <ele>23.2</ele>
        <time>2022-03-24T15:28:19.607Z</time>
      </trkpt>
      <trkpt lat="50.41949" lon="3.46524">
        <ele>23.2</ele>
        <time>2022-03-24T15:28:22.000Z</time>
      </trkpt>
      <trkpt lat="50.41951" lon="3.46514">
        <ele>23.2</ele>
        <time>2022-03-24T15:29:52.088Z</time>
      </trkpt>
      <trkpt lat="50.41953" lon="3.46507">
        <ele>23.3</ele>
        <time>2022-03-24T15:29:53.407Z</time>
      </trkpt>
      <trkpt lat="50.41955" lon="3.46501">
        <ele>23.4</ele>
        <time>2022-03-24T15:29:54.785Z</time>
      </trkpt>
      <trkpt lat="50.4196" lon="3.46489">
        <ele>23.6</ele>
        <time>2022-03-24T15:29:57.047Z</time>
      </trkpt>
      <trkpt lat="50.41963" lon="3.46482">
        <ele>23.7</ele>
        <time>2022-03-24T15:29:58.127Z</time>
      </trkpt>
      <trkpt lat="50.41967" lon="3.46472">
        <ele>23.8</ele>
        <time>2022-03-24T15:29:59.745Z</time>
      </trkpt>
      <trkpt lat="50.4197" lon="3.46464">
        <ele>23.9</ele>
        <time>2022-03-24T15:30:01.085Z</time>
      </trkpt>
      <trkpt lat="50.41973" lon="3.46452">
        <ele>24</ele>
        <time>2022-03-24T15:30:02.645Z</time>
      </trkpt>
      <trkpt lat="50.41976" lon="3.46443">
        <ele>24.1</ele>
        <time>2022-03-24T15:30:04.086Z</time>
      </trkpt>
      <trkpt lat="50.4198" lon="3.46433">
        <ele>24.3</ele>
        <time>2022-03-24T15:30:05.924Z</time>
      </trkpt>
      <trkpt lat="50.41985" lon="3.4642">
        <ele>24.5</ele>
        <time>2022-03-24T15:30:08.166Z</time>
      </trkpt>
      <trkpt lat="50.4199" lon="3.46408">
        <ele>24.6</ele>
        <time>2022-03-24T15:30:10.208Z</time>
      </trkpt>
      <trkpt lat="50.41995" lon="3.46399">
        <ele>24.8</ele>
        <time>2022-03-24T15:30:12.000Z</time>
      </trkpt>
      <trkpt lat="50.42001" lon="3.46384">
        <ele>24.8</ele>
        <time>2022-03-24T15:30:15.017Z</time>
      </trkpt>
      <trkpt lat="50.42004" lon="3.46373">
        <ele>24.5</ele>
        <time>2022-03-24T15:30:17.000Z</time>
      </trkpt>
      <trkpt lat="50.42008" lon="3.46362">
        <ele>24.3</ele>
        <time>2022-03-24T15:30:19.000Z</time>
      </trkpt>
      <trkpt lat="50.42012" lon="3.46351">
        <ele>24.4</ele>
        <time>2022-03-24T15:30:21.000Z</time>
      </trkpt>
      <trkpt lat="50.42017" lon="3.46335">
        <ele>24.6</ele>
        <time>2022-03-24T15:30:24.000Z</time>
      </trkpt>
      <trkpt lat="50.4202" lon="3.46326">
        <ele>24.5</ele>
        <time>2022-03-24T15:30:26.029Z</time>
      </trkpt>
      <trkpt lat="50.42025" lon="3.46316">
        <ele>24.3</ele>
        <time>2022-03-24T15:30:28.000Z</time>
      </trkpt>
      <trkpt lat="50.42027" lon="3.4631">
        <ele>24.1</ele>
        <time>2022-03-24T15:30:29.000Z</time>
      </trkpt>
      <trkpt lat="50.4203" lon="3.46304">
        <ele>24.1</ele>
        <time>2022-03-24T15:30:30.000Z</time>
      </trkpt>
      <trkpt lat="50.42034" lon="3.46292">
        <ele>24.1</ele>
        <time>2022-03-24T15:30:32.049Z</time>
      </trkpt>
      <trkpt lat="50.42037" lon="3.46281">
        <ele>24</ele>
        <time>2022-03-24T15:30:34.000Z</time>
      </trkpt>
      <trkpt lat="50.4204" lon="3.46275">
        <ele>23.9</ele>
        <time>2022-03-24T15:30:35.191Z</time>
      </trkpt>
      <trkpt lat="50.42044" lon="3.46265">
        <ele>23.8</ele>
        <time>2022-03-24T15:30:36.792Z</time>
      </trkpt>
      <trkpt lat="50.42048" lon="3.46253">
        <ele>23.8</ele>
        <time>2022-03-24T15:30:39.146Z</time>
      </trkpt>
      <trkpt lat="50.42053" lon="3.46238">
        <ele>23.9</ele>
        <time>2022-03-24T15:30:41.768Z</time>
      </trkpt>
      <trkpt lat="50.42055" lon="3.46232">
        <ele>24</ele>
        <time>2022-03-24T15:30:43.000Z</time>
      </trkpt>
      <trkpt lat="50.42059" lon="3.46222">
        <ele>24.1</ele>
        <time>2022-03-24T15:30:44.990Z</time>
      </trkpt>
      <trkpt lat="50.42064" lon="3.46211">
        <ele>24.3</ele>
        <time>2022-03-24T15:30:47.127Z</time>
      </trkpt>
      <trkpt lat="50.42068" lon="3.46201">
        <ele>24.4</ele>
        <time>2022-03-24T15:30:49.000Z</time>
      </trkpt>
      <trkpt lat="50.42072" lon="3.4619">
        <ele>24.4</ele>
        <time>2022-03-24T15:30:50.968Z</time>
      </trkpt>
      <trkpt lat="50.42076" lon="3.46179">
        <ele>24.2</ele>
        <time>2022-03-24T15:30:52.970Z</time>
      </trkpt>
      <trkpt lat="50.4208" lon="3.46168">
        <ele>23.9</ele>
        <time>2022-03-24T15:30:55.000Z</time>
      </trkpt>
      <trkpt lat="50.42085" lon="3.46154">
        <ele>24.1</ele>
        <time>2022-03-24T15:30:57.000Z</time>
      </trkpt>
      <trkpt lat="50.42088" lon="3.46148">
        <ele>24.2</ele>
        <time>2022-03-24T15:30:58.000Z</time>
      </trkpt>
      <trkpt lat="50.42086" lon="3.46138">
        <ele>24.1</ele>
        <time>2022-03-24T15:31:00.000Z</time>
      </trkpt>
      <trkpt lat="50.42089" lon="3.46132">
        <ele>24.2</ele>
        <time>2022-03-24T15:31:01.000Z</time>
      </trkpt>
      <trkpt lat="50.42092" lon="3.46125">
        <ele>24.3</ele>
        <time>2022-03-24T15:31:02.000Z</time>
      </trkpt>
      <trkpt lat="50.42095" lon="3.4612">
        <ele>24.4</ele>
        <time>2022-03-24T15:31:03.000Z</time>
      </trkpt>
      <trkpt lat="50.42098" lon="3.46113">
        <ele>24.5</ele>
        <time>2022-03-24T15:31:04.000Z</time>
      </trkpt>
      <trkpt lat="50.421" lon="3.46107">
        <ele>24.5</ele>
        <time>2022-03-24T15:31:05.000Z</time>
      </trkpt>
      <trkpt lat="50.42102" lon="3.46101">
        <ele>24.3</ele>
        <time>2022-03-24T15:31:06.000Z</time>
      </trkpt>
      <trkpt lat="50.42104" lon="3.46094">
        <ele>24.1</ele>
        <time>2022-03-24T15:31:07.000Z</time>
      </trkpt>
      <trkpt lat="50.42107" lon="3.46088">
        <ele>24</ele>
        <time>2022-03-24T15:31:08.000Z</time>
      </trkpt>
      <trkpt lat="50.42111" lon="3.46077">
        <ele>24</ele>
        <time>2022-03-24T15:31:10.000Z</time>
      </trkpt>
      <trkpt lat="50.42115" lon="3.46068">
        <ele>24.1</ele>
        <time>2022-03-24T15:31:11.653Z</time>
      </trkpt>
      <trkpt lat="50.4212" lon="3.46054">
        <ele>24.3</ele>
        <time>2022-03-24T15:31:14.000Z</time>
      </trkpt>
      <trkpt lat="50.42124" lon="3.46044">
        <ele>24</ele>
        <time>2022-03-24T15:31:16.000Z</time>
      </trkpt>
      <trkpt lat="50.42129" lon="3.4603">
        <ele>23.7</ele>
        <time>2022-03-24T15:31:18.586Z</time>
      </trkpt>
      <trkpt lat="50.42132" lon="3.46023">
        <ele>23.6</ele>
        <time>2022-03-24T15:31:19.637Z</time>
      </trkpt>
      <trkpt lat="50.42134" lon="3.46017">
        <ele>23.4</ele>
        <time>2022-03-24T15:31:20.650Z</time>
      </trkpt>
      <trkpt lat="50.42136" lon="3.4601">
        <ele>23.3</ele>
        <time>2022-03-24T15:31:21.830Z</time>
      </trkpt>
      <trkpt lat="50.42139" lon="3.46002">
        <ele>23.1</ele>
        <time>2022-03-24T15:31:23.132Z</time>
      </trkpt>
      <trkpt lat="50.42143" lon="3.4599">
        <ele>23.2</ele>
        <time>2022-03-24T15:31:24.931Z</time>
      </trkpt>
      <trkpt lat="50.42148" lon="3.45978">
        <ele>23.4</ele>
        <time>2022-03-24T15:31:27.000Z</time>
      </trkpt>
      <trkpt lat="50.42153" lon="3.45964">
        <ele>23.4</ele>
        <time>2022-03-24T15:31:29.451Z</time>
      </trkpt>
      <trkpt lat="50.42157" lon="3.45955">
        <ele>23.4</ele>
        <time>2022-03-24T15:31:31.000Z</time>
      </trkpt>
      <trkpt lat="50.42161" lon="3.45944">
        <ele>23.6</ele>
        <time>2022-03-24T15:31:33.000Z</time>
      </trkpt>
      <trkpt lat="50.42165" lon="3.45934">
        <ele>23.5</ele>
        <time>2022-03-24T15:31:34.972Z</time>
      </trkpt>
      <trkpt lat="50.42167" lon="3.45926">
        <ele>23.4</ele>
        <time>2022-03-24T15:31:36.000Z</time>
      </trkpt>
      <trkpt lat="50.42169" lon="3.45919">
        <ele>23.2</ele>
        <time>2022-03-24T15:31:37.152Z</time>
      </trkpt>
      <trkpt lat="50.42173" lon="3.45909">
        <ele>23.5</ele>
        <time>2022-03-24T15:31:39.000Z</time>
      </trkpt>
      <trkpt lat="50.42176" lon="3.45901">
        <ele>23.7</ele>
        <time>2022-03-24T15:31:41.000Z</time>
      </trkpt>
      <trkpt lat="50.42178" lon="3.45893">
        <ele>23.8</ele>
        <time>2022-03-24T15:31:43.000Z</time>
      </trkpt>
      <trkpt lat="50.42182" lon="3.45885">
        <ele>24</ele>
        <time>2022-03-24T15:31:45.000Z</time>
      </trkpt>
      <trkpt lat="50.42185" lon="3.45877">
        <ele>23.9</ele>
        <time>2022-03-24T15:31:46.932Z</time>
      </trkpt>
      <trkpt lat="50.4219" lon="3.45866">
        <ele>23.9</ele>
        <time>2022-03-24T15:31:49.000Z</time>
      </trkpt>
      <trkpt lat="50.42193" lon="3.45858">
        <ele>23.9</ele>
        <time>2022-03-24T15:31:51.000Z</time>
      </trkpt>
      <trkpt lat="50.42196" lon="3.45849">
        <ele>24.1</ele>
        <time>2022-03-24T15:31:53.000Z</time>
      </trkpt>
      <trkpt lat="50.42201" lon="3.45836">
        <ele>24.5</ele>
        <time>2022-03-24T15:31:56.174Z</time>
      </trkpt>
      <trkpt lat="50.42203" lon="3.45828">
        <ele>24.5</ele>
        <time>2022-03-24T15:31:58.071Z</time>
      </trkpt>
      <trkpt lat="50.42206" lon="3.4582">
        <ele>24.6</ele>
        <time>2022-03-24T15:32:00.112Z</time>
      </trkpt>
      <trkpt lat="50.42209" lon="3.45814">
        <ele>24.7</ele>
        <time>2022-03-24T15:32:01.792Z</time>
      </trkpt>
      <trkpt lat="50.42212" lon="3.45805">
        <ele>24.9</ele>
        <time>2022-03-24T15:32:04.000Z</time>
      </trkpt>
      <trkpt lat="50.42215" lon="3.45797">
        <ele>25</ele>
        <time>2022-03-24T15:32:06.376Z</time>
      </trkpt>
      <trkpt lat="50.42218" lon="3.45789">
        <ele>25</ele>
        <time>2022-03-24T15:32:08.646Z</time>
      </trkpt>
      <trkpt lat="50.42221" lon="3.45781">
        <ele>25</ele>
        <time>2022-03-24T15:32:10.714Z</time>
      </trkpt>
      <trkpt lat="50.42225" lon="3.45772">
        <ele>25</ele>
        <time>2022-03-24T15:32:13.000Z</time>
      </trkpt>
      <trkpt lat="50.42227" lon="3.45765">
        <ele>24.9</ele>
        <time>2022-03-24T15:32:14.669Z</time>
      </trkpt>
      <trkpt lat="50.42231" lon="3.45755">
        <ele>24.8</ele>
        <time>2022-03-24T15:32:17.070Z</time>
      </trkpt>
      <trkpt lat="50.42235" lon="3.45747">
        <ele>24.8</ele>
        <time>2022-03-24T15:32:19.149Z</time>
      </trkpt>
      <trkpt lat="50.42238" lon="3.45737">
        <ele>24.7</ele>
        <time>2022-03-24T15:32:21.000Z</time>
      </trkpt>
      <trkpt lat="50.42241" lon="3.45727">
        <ele>24.5</ele>
        <time>2022-03-24T15:32:22.913Z</time>
      </trkpt>
      <trkpt lat="50.42245" lon="3.45716">
        <ele>24.5</ele>
        <time>2022-03-24T15:32:25.000Z</time>
      </trkpt>
      <trkpt lat="50.42248" lon="3.45706">
        <ele>24.3</ele>
        <time>2022-03-24T15:32:26.933Z</time>
      </trkpt>
      <trkpt lat="50.42253" lon="3.45694">
        <ele>24.1</ele>
        <time>2022-03-24T15:32:29.049Z</time>
      </trkpt>
      <trkpt lat="50.42257" lon="3.45683">
        <ele>23.8</ele>
        <time>2022-03-24T15:32:31.115Z</time>
      </trkpt>
      <trkpt lat="50.42261" lon="3.45673">
        <ele>23.6</ele>
        <time>2022-03-24T15:32:32.990Z</time>
      </trkpt>
      <trkpt lat="50.42265" lon="3.45662">
        <ele>23.4</ele>
        <time>2022-03-24T15:32:34.772Z</time>
      </trkpt>
      <trkpt lat="50.42267" lon="3.45656">
        <ele>23.2</ele>
        <time>2022-03-24T15:32:35.871Z</time>
      </trkpt>
      <trkpt lat="50.4227" lon="3.4565">
        <ele>23.1</ele>
        <time>2022-03-24T15:32:37.130Z</time>
      </trkpt>
      <trkpt lat="50.42273" lon="3.4564">
        <ele>22.9</ele>
        <time>2022-03-24T15:32:38.791Z</time>
      </trkpt>
      <trkpt lat="50.42276" lon="3.45633">
        <ele>22.9</ele>
        <time>2022-03-24T15:32:40.000Z</time>
      </trkpt>
      <trkpt lat="50.42278" lon="3.45627">
        <ele>23</ele>
        <time>2022-03-24T15:32:41.170Z</time>
      </trkpt>
      <trkpt lat="50.42285" lon="3.45619">
        <ele>23.1</ele>
        <time>2022-03-24T15:32:43.000Z</time>
      </trkpt>
      <trkpt lat="50.42291" lon="3.45621">
        <ele>23.2</ele>
        <time>2022-03-24T15:32:44.490Z</time>
      </trkpt>
      <trkpt lat="50.42298" lon="3.45627">
        <ele>23.4</ele>
        <time>2022-03-24T15:32:46.189Z</time>
      </trkpt>
      <trkpt lat="50.42303" lon="3.45631">
        <ele>23.7</ele>
        <time>2022-03-24T15:32:47.750Z</time>
      </trkpt>
      <trkpt lat="50.42308" lon="3.45635">
        <ele>23.9</ele>
        <time>2022-03-24T15:32:49.088Z</time>
      </trkpt>
      <trkpt lat="50.42314" lon="3.45641">
        <ele>24.1</ele>
        <time>2022-03-24T15:32:51.000Z</time>
      </trkpt>
      <trkpt lat="50.42321" lon="3.45647">
        <ele>24.3</ele>
        <time>2022-03-24T15:32:53.642Z</time>
      </trkpt>
      <trkpt lat="50.42328" lon="3.45651">
        <ele>24.4</ele>
        <time>2022-03-24T15:32:56.000Z</time>
      </trkpt>
      <trkpt lat="50.42333" lon="3.45656">
        <ele>24.6</ele>
        <time>2022-03-24T15:32:58.000Z</time>
      </trkpt>
      <trkpt lat="50.42337" lon="3.45662">
        <ele>24.9</ele>
        <time>2022-03-24T15:33:00.000Z</time>
      </trkpt>
      <trkpt lat="50.42342" lon="3.45666">
        <ele>25</ele>
        <time>2022-03-24T15:33:02.000Z</time>
      </trkpt>
      <trkpt lat="50.42349" lon="3.45672">
        <ele>25.2</ele>
        <time>2022-03-24T15:33:06.172Z</time>
      </trkpt>
      <trkpt lat="50.42354" lon="3.45677">
        <ele>25.4</ele>
        <time>2022-03-24T15:33:09.000Z</time>
      </trkpt>
      <trkpt lat="50.42358" lon="3.45681">
        <ele>25.5</ele>
        <time>2022-03-24T15:33:11.000Z</time>
      </trkpt>
      <trkpt lat="50.42362" lon="3.45686">
        <ele>25.7</ele>
        <time>2022-03-24T15:33:14.000Z</time>
      </trkpt>
      <trkpt lat="50.42366" lon="3.4569">
        <ele>25.9</ele>
        <time>2022-03-24T15:33:17.000Z</time>
      </trkpt>
      <trkpt lat="50.42372" lon="3.45695">
        <ele>26</ele>
        <time>2022-03-24T15:33:20.010Z</time>
      </trkpt>
      <trkpt lat="50.42377" lon="3.45699">
        <ele>26.2</ele>
        <time>2022-03-24T15:33:23.000Z</time>
      </trkpt>
      <trkpt lat="50.42381" lon="3.45702">
        <ele>26.3</ele>
        <time>2022-03-24T15:33:25.000Z</time>
      </trkpt>
      <trkpt lat="50.42387" lon="3.45707">
        <ele>26.5</ele>
        <time>2022-03-24T15:33:28.000Z</time>
      </trkpt>
      <trkpt lat="50.42392" lon="3.45712">
        <ele>26.6</ele>
        <time>2022-03-24T15:33:31.000Z</time>
      </trkpt>
      <trkpt lat="50.42395" lon="3.45718">
        <ele>26.8</ele>
        <time>2022-03-24T15:33:33.000Z</time>
      </trkpt>
      <trkpt lat="50.42402" lon="3.45725">
        <ele>27.1</ele>
        <time>2022-03-24T15:33:36.769Z</time>
      </trkpt>
      <trkpt lat="50.42406" lon="3.4573">
        <ele>27.1</ele>
        <time>2022-03-24T15:33:38.910Z</time>
      </trkpt>
      <trkpt lat="50.42412" lon="3.45734">
        <ele>27.1</ele>
        <time>2022-03-24T15:33:42.000Z</time>
      </trkpt>
      <trkpt lat="50.42416" lon="3.45738">
        <ele>27</ele>
        <time>2022-03-24T15:33:44.000Z</time>
      </trkpt>
      <trkpt lat="50.42421" lon="3.45741">
        <ele>26.9</ele>
        <time>2022-03-24T15:33:45.989Z</time>
      </trkpt>
      <trkpt lat="50.42427" lon="3.45744">
        <ele>26.9</ele>
        <time>2022-03-24T15:33:47.952Z</time>
      </trkpt>
      <trkpt lat="50.42433" lon="3.45748">
        <ele>27</ele>
        <time>2022-03-24T15:33:50.049Z</time>
      </trkpt>
      <trkpt lat="50.42437" lon="3.45752">
        <ele>27.1</ele>
        <time>2022-03-24T15:33:51.730Z</time>
      </trkpt>
      <trkpt lat="50.42443" lon="3.45756">
        <ele>27.2</ele>
        <time>2022-03-24T15:33:53.810Z</time>
      </trkpt>
      <trkpt lat="50.42448" lon="3.45764">
        <ele>27.4</ele>
        <time>2022-03-24T15:33:56.000Z</time>
      </trkpt>
      <trkpt lat="50.42455" lon="3.45771">
        <ele>27.4</ele>
        <time>2022-03-24T15:33:58.549Z</time>
      </trkpt>
      <trkpt lat="50.42461" lon="3.45778">
        <ele>27.4</ele>
        <time>2022-03-24T15:34:00.650Z</time>
      </trkpt>
      <trkpt lat="50.42469" lon="3.45788">
        <ele>27.1</ele>
        <time>2022-03-24T15:34:03.194Z</time>
      </trkpt>
      <trkpt lat="50.42473" lon="3.45796">
        <ele>27</ele>
        <time>2022-03-24T15:34:05.093Z</time>
      </trkpt>
      <trkpt lat="50.42472" lon="3.45805">
        <ele>27</ele>
        <time>2022-03-24T15:34:07.136Z</time>
      </trkpt>
      <trkpt lat="50.42468" lon="3.45813">
        <ele>27.2</ele>
        <time>2022-03-24T15:34:09.333Z</time>
      </trkpt>
      <trkpt lat="50.42466" lon="3.4582">
        <ele>27.3</ele>
        <time>2022-03-24T15:34:12.000Z</time>
      </trkpt>
      <trkpt lat="50.42464" lon="3.45828">
        <ele>27.5</ele>
        <time>2022-03-24T15:34:15.000Z</time>
      </trkpt>
      <trkpt lat="50.42462" lon="3.45837">
        <ele>27.9</ele>
        <time>2022-03-24T15:34:18.000Z</time>
      </trkpt>
      <trkpt lat="50.42459" lon="3.45848">
        <ele>28.5</ele>
        <time>2022-03-24T15:34:20.672Z</time>
      </trkpt>
      <trkpt lat="50.42457" lon="3.45855">
        <ele>28.9</ele>
        <time>2022-03-24T15:34:22.000Z</time>
      </trkpt>
      <trkpt lat="50.42454" lon="3.45866">
        <ele>29.3</ele>
        <time>2022-03-24T15:34:24.111Z</time>
      </trkpt>
      <trkpt lat="50.42452" lon="3.45875">
        <ele>29.5</ele>
        <time>2022-03-24T15:34:26.069Z</time>
      </trkpt>
      <trkpt lat="50.42457" lon="3.45883">
        <ele>29.1</ele>
        <time>2022-03-24T15:34:29.012Z</time>
      </trkpt>
      <trkpt lat="50.42463" lon="3.45888">
        <ele>28.7</ele>
        <time>2022-03-24T15:34:31.000Z</time>
      </trkpt>
      <trkpt lat="50.42469" lon="3.45894">
        <ele>28.2</ele>
        <time>2022-03-24T15:34:33.000Z</time>
      </trkpt>
      <trkpt lat="50.42476" lon="3.45899">
        <ele>27.7</ele>
        <time>2022-03-24T15:34:34.000Z</time>
      </trkpt>
      <trkpt lat="50.42481" lon="3.45903">
        <ele>27.4</ele>
        <time>2022-03-24T15:34:35.000Z</time>
      </trkpt>
      <trkpt lat="50.42486" lon="3.45908">
        <ele>27</ele>
        <time>2022-03-24T15:34:36.000Z</time>
      </trkpt>
      <trkpt lat="50.42491" lon="3.45912">
        <ele>26.6</ele>
        <time>2022-03-24T15:34:37.000Z</time>
      </trkpt>
      <trkpt lat="50.42497" lon="3.45915">
        <ele>26.2</ele>
        <time>2022-03-24T15:34:38.000Z</time>
      </trkpt>
      <trkpt lat="50.42502" lon="3.45918">
        <ele>25.9</ele>
        <time>2022-03-24T15:34:39.000Z</time>
      </trkpt>
      <trkpt lat="50.42508" lon="3.45923">
        <ele>25.4</ele>
        <time>2022-03-24T15:34:40.000Z</time>
      </trkpt>
      <trkpt lat="50.42512" lon="3.45928">
        <ele>25.1</ele>
        <time>2022-03-24T15:34:41.000Z</time>
      </trkpt>
      <trkpt lat="50.42517" lon="3.45934">
        <ele>24.8</ele>
        <time>2022-03-24T15:34:42.000Z</time>
      </trkpt>
      <trkpt lat="50.42522" lon="3.4594">
        <ele>24.4</ele>
        <time>2022-03-24T15:34:43.000Z</time>
      </trkpt>
      <trkpt lat="50.42528" lon="3.45946">
        <ele>24</ele>
        <time>2022-03-24T15:34:44.000Z</time>
      </trkpt>
      <trkpt lat="50.42534" lon="3.45951">
        <ele>23.6</ele>
        <time>2022-03-24T15:34:45.000Z</time>
      </trkpt>
      <trkpt lat="50.4254" lon="3.45956">
        <ele>23.1</ele>
        <time>2022-03-24T15:34:46.000Z</time>
      </trkpt>
      <trkpt lat="50.42546" lon="3.45962">
        <ele>22.7</ele>
        <time>2022-03-24T15:34:47.000Z</time>
      </trkpt>
      <trkpt lat="50.42552" lon="3.45968">
        <ele>22.3</ele>
        <time>2022-03-24T15:34:48.000Z</time>
      </trkpt>
      <trkpt lat="50.42557" lon="3.45974">
        <ele>21.9</ele>
        <time>2022-03-24T15:34:49.000Z</time>
      </trkpt>
      <trkpt lat="50.42563" lon="3.45979">
        <ele>21.7</ele>
        <time>2022-03-24T15:34:50.000Z</time>
      </trkpt>
      <trkpt lat="50.42569" lon="3.45985">
        <ele>21.5</ele>
        <time>2022-03-24T15:34:51.000Z</time>
      </trkpt>
      <trkpt lat="50.42575" lon="3.45991">
        <ele>21.3</ele>
        <time>2022-03-24T15:34:52.000Z</time>
      </trkpt>
      <trkpt lat="50.42581" lon="3.45996">
        <ele>21.1</ele>
        <time>2022-03-24T15:34:53.000Z</time>
      </trkpt>
      <trkpt lat="50.42586" lon="3.46001">
        <ele>20.8</ele>
        <time>2022-03-24T15:34:54.000Z</time>
      </trkpt>
      <trkpt lat="50.42591" lon="3.46005">
        <ele>20.3</ele>
        <time>2022-03-24T15:34:55.000Z</time>
      </trkpt>
      <trkpt lat="50.42596" lon="3.46011">
        <ele>19.9</ele>
        <time>2022-03-24T15:34:56.000Z</time>
      </trkpt>
      <trkpt lat="50.426" lon="3.46016">
        <ele>19.6</ele>
        <time>2022-03-24T15:34:57.000Z</time>
      </trkpt>
      <trkpt lat="50.42605" lon="3.46022">
        <ele>19.3</ele>
        <time>2022-03-24T15:34:59.000Z</time>
      </trkpt>
      <trkpt lat="50.42607" lon="3.4603">
        <ele>19.1</ele>
        <time>2022-03-24T15:35:01.000Z</time>
      </trkpt>
      <trkpt lat="50.42605" lon="3.46041">
        <ele>19.2</ele>
        <time>2022-03-24T15:35:04.000Z</time>
      </trkpt>
      <trkpt lat="50.42603" lon="3.46048">
        <ele>19.3</ele>
        <time>2022-03-24T15:35:05.000Z</time>
      </trkpt>
      <trkpt lat="50.426" lon="3.46058">
        <ele>19.3</ele>
        <time>2022-03-24T15:35:08.939Z</time>
      </trkpt>
      <trkpt lat="50.42597" lon="3.46069">
        <ele>19.3</ele>
        <time>2022-03-24T15:35:11.000Z</time>
      </trkpt>
      <trkpt lat="50.42594" lon="3.4608">
        <ele>19.3</ele>
        <time>2022-03-24T15:35:13.000Z</time>
      </trkpt>
      <trkpt lat="50.4259" lon="3.46091">
        <ele>19.3</ele>
        <time>2022-03-24T15:35:15.000Z</time>
      </trkpt>
      <trkpt lat="50.42587" lon="3.46103">
        <ele>19.1</ele>
        <time>2022-03-24T15:35:17.000Z</time>
      </trkpt>
      <trkpt lat="50.42585" lon="3.46112">
        <ele>18.9</ele>
        <time>2022-03-24T15:35:18.560Z</time>
      </trkpt>
      <trkpt lat="50.42582" lon="3.46128">
        <ele>19.1</ele>
        <time>2022-03-24T15:35:21.000Z</time>
      </trkpt>
      <trkpt lat="50.42581" lon="3.46135">
        <ele>19.2</ele>
        <time>2022-03-24T15:35:22.078Z</time>
      </trkpt>
      <trkpt lat="50.42579" lon="3.46147">
        <ele>19.3</ele>
        <time>2022-03-24T15:35:24.000Z</time>
      </trkpt>
      <trkpt lat="50.42577" lon="3.46158">
        <ele>19.3</ele>
        <time>2022-03-24T15:35:26.000Z</time>
      </trkpt>
      <trkpt lat="50.42575" lon="3.46168">
        <ele>19.3</ele>
        <time>2022-03-24T15:35:28.000Z</time>
      </trkpt>
      <trkpt lat="50.42573" lon="3.46179">
        <ele>19.4</ele>
        <time>2022-03-24T15:35:30.001Z</time>
      </trkpt>
      <trkpt lat="50.42571" lon="3.46192">
        <ele>19.4</ele>
        <time>2022-03-24T15:35:32.881Z</time>
      </trkpt>
      <trkpt lat="50.42569" lon="3.46203">
        <ele>19.5</ele>
        <time>2022-03-24T15:35:35.719Z</time>
      </trkpt>
      <trkpt lat="50.42566" lon="3.46213">
        <ele>19.6</ele>
        <time>2022-03-24T15:35:37.981Z</time>
      </trkpt>
      <trkpt lat="50.42565" lon="3.46222">
        <ele>19.7</ele>
        <time>2022-03-24T15:35:40.000Z</time>
      </trkpt>
      <trkpt lat="50.42564" lon="3.46231">
        <ele>19.7</ele>
        <time>2022-03-24T15:35:42.000Z</time>
      </trkpt>
      <trkpt lat="50.42561" lon="3.46246">
        <ele>19.8</ele>
        <time>2022-03-24T15:35:44.678Z</time>
      </trkpt>
      <trkpt lat="50.42558" lon="3.46256">
        <ele>19.9</ele>
        <time>2022-03-24T15:35:47.143Z</time>
      </trkpt>
      <trkpt lat="50.42555" lon="3.46266">
        <ele>20</ele>
        <time>2022-03-24T15:35:49.580Z</time>
      </trkpt>
      <trkpt lat="50.42552" lon="3.46276">
        <ele>20.1</ele>
        <time>2022-03-24T15:35:52.000Z</time>
      </trkpt>
      <trkpt lat="50.4255" lon="3.46285">
        <ele>20.2</ele>
        <time>2022-03-24T15:35:54.000Z</time>
      </trkpt>
      <trkpt lat="50.42547" lon="3.46299">
        <ele>20.3</ele>
        <time>2022-03-24T15:35:57.141Z</time>
      </trkpt>
      <trkpt lat="50.42545" lon="3.46306">
        <ele>20.4</ele>
        <time>2022-03-24T15:35:58.820Z</time>
      </trkpt>
      <trkpt lat="50.42543" lon="3.46318">
        <ele>20.5</ele>
        <time>2022-03-24T15:36:01.000Z</time>
      </trkpt>
      <trkpt lat="50.4254" lon="3.46329">
        <ele>20.6</ele>
        <time>2022-03-24T15:36:03.000Z</time>
      </trkpt>
      <trkpt lat="50.42538" lon="3.46337">
        <ele>20.6</ele>
        <time>2022-03-24T15:36:04.478Z</time>
      </trkpt>
      <trkpt lat="50.42536" lon="3.46346">
        <ele>20.7</ele>
        <time>2022-03-24T15:36:06.040Z</time>
      </trkpt>
      <trkpt lat="50.42534" lon="3.46356">
        <ele>20.8</ele>
        <time>2022-03-24T15:36:07.759Z</time>
      </trkpt>
      <trkpt lat="50.42534" lon="3.46364">
        <ele>20.8</ele>
        <time>2022-03-24T15:36:08.800Z</time>
      </trkpt>
      <trkpt lat="50.42531" lon="3.46379">
        <ele>20.9</ele>
        <time>2022-03-24T15:36:11.000Z</time>
      </trkpt>
      <trkpt lat="50.42529" lon="3.46389">
        <ele>21</ele>
        <time>2022-03-24T15:36:12.000Z</time>
      </trkpt>
      <trkpt lat="50.42528" lon="3.46396">
        <ele>20.7</ele>
        <time>2022-03-24T15:36:13.000Z</time>
      </trkpt>
      <trkpt lat="50.42525" lon="3.46406">
        <ele>20.4</ele>
        <time>2022-03-24T15:36:15.420Z</time>
      </trkpt>
      <trkpt lat="50.42523" lon="3.46414">
        <ele>20.3</ele>
        <time>2022-03-24T15:36:16.501Z</time>
      </trkpt>
      <trkpt lat="50.42522" lon="3.46425">
        <ele>20.2</ele>
        <time>2022-03-24T15:36:18.000Z</time>
      </trkpt>
      <trkpt lat="50.42521" lon="3.46433">
        <ele>20.2</ele>
        <time>2022-03-24T15:36:19.000Z</time>
      </trkpt>
      <trkpt lat="50.42519" lon="3.46441">
        <ele>20.3</ele>
        <time>2022-03-24T15:36:20.000Z</time>
      </trkpt>
      <trkpt lat="50.42518" lon="3.46448">
        <ele>20.3</ele>
        <time>2022-03-24T15:36:21.082Z</time>
      </trkpt>
      <trkpt lat="50.42516" lon="3.46455">
        <ele>20.3</ele>
        <time>2022-03-24T15:36:22.000Z</time>
      </trkpt>
      <trkpt lat="50.42515" lon="3.46462">
        <ele>20.2</ele>
        <time>2022-03-24T15:36:23.000Z</time>
      </trkpt>
      <trkpt lat="50.42512" lon="3.4648">
        <ele>19.9</ele>
        <time>2022-03-24T15:36:25.700Z</time>
      </trkpt>
      <trkpt lat="50.4251" lon="3.46488">
        <ele>19.8</ele>
        <time>2022-03-24T15:36:26.939Z</time>
      </trkpt>
      <trkpt lat="50.42508" lon="3.46494">
        <ele>19.8</ele>
        <time>2022-03-24T15:36:28.000Z</time>
      </trkpt>
      <trkpt lat="50.42504" lon="3.46508">
        <ele>19.9</ele>
        <time>2022-03-24T15:36:30.000Z</time>
      </trkpt>
      <trkpt lat="50.42502" lon="3.46521">
        <ele>19.9</ele>
        <time>2022-03-24T15:36:32.100Z</time>
      </trkpt>
      <trkpt lat="50.425" lon="3.46536">
        <ele>19.7</ele>
        <time>2022-03-24T15:36:34.261Z</time>
      </trkpt>
      <trkpt lat="50.42499" lon="3.46545">
        <ele>19.4</ele>
        <time>2022-03-24T15:36:35.600Z</time>
      </trkpt>
      <trkpt lat="50.42497" lon="3.46554">
        <ele>19.2</ele>
        <time>2022-03-24T15:36:37.000Z</time>
      </trkpt>
      <trkpt lat="50.42494" lon="3.46567">
        <ele>19.2</ele>
        <time>2022-03-24T15:36:39.038Z</time>
      </trkpt>
      <trkpt lat="50.42491" lon="3.46579">
        <ele>19.3</ele>
        <time>2022-03-24T15:36:41.000Z</time>
      </trkpt>
      <trkpt lat="50.42488" lon="3.46589">
        <ele>19.2</ele>
        <time>2022-03-24T15:36:43.017Z</time>
      </trkpt>
      <trkpt lat="50.42485" lon="3.46599">
        <ele>19</ele>
        <time>2022-03-24T15:36:45.000Z</time>
      </trkpt>
      <trkpt lat="50.42482" lon="3.46611">
        <ele>18.7</ele>
        <time>2022-03-24T15:36:46.979Z</time>
      </trkpt>
      <trkpt lat="50.4248" lon="3.46619">
        <ele>18.7</ele>
        <time>2022-03-24T15:36:48.079Z</time>
      </trkpt>
      <trkpt lat="50.42479" lon="3.46626">
        <ele>18.8</ele>
        <time>2022-03-24T15:36:49.000Z</time>
      </trkpt>
      <trkpt lat="50.42475" lon="3.46643">
        <ele>18.9</ele>
        <time>2022-03-24T15:36:51.761Z</time>
      </trkpt>
      <trkpt lat="50.42473" lon="3.46651">
        <ele>19</ele>
        <time>2022-03-24T15:36:52.942Z</time>
      </trkpt>
      <trkpt lat="50.42472" lon="3.46658">
        <ele>19</ele>
        <time>2022-03-24T15:36:53.958Z</time>
      </trkpt>
      <trkpt lat="50.42471" lon="3.46665">
        <ele>19</ele>
        <time>2022-03-24T15:36:55.000Z</time>
      </trkpt>
      <trkpt lat="50.42469" lon="3.46677">
        <ele>19</ele>
        <time>2022-03-24T15:36:57.000Z</time>
      </trkpt>
      <trkpt lat="50.42466" lon="3.46688">
        <ele>19</ele>
        <time>2022-03-24T15:36:59.058Z</time>
      </trkpt>
      <trkpt lat="50.42462" lon="3.46701">
        <ele>18.9</ele>
        <time>2022-03-24T15:37:01.598Z</time>
      </trkpt>
      <trkpt lat="50.4246" lon="3.46712">
        <ele>18.6</ele>
        <time>2022-03-24T15:37:03.999Z</time>
      </trkpt>
      <trkpt lat="50.42459" lon="3.4672">
        <ele>18.5</ele>
        <time>2022-03-24T15:37:06.000Z</time>
      </trkpt>
      <trkpt lat="50.42457" lon="3.46728">
        <ele>18.5</ele>
        <time>2022-03-24T15:37:08.080Z</time>
      </trkpt>
      <trkpt lat="50.42456" lon="3.46739">
        <ele>18.6</ele>
        <time>2022-03-24T15:37:10.121Z</time>
      </trkpt>
      <trkpt lat="50.42454" lon="3.46747">
        <ele>18.7</ele>
        <time>2022-03-24T15:37:11.358Z</time>
      </trkpt>
      <trkpt lat="50.42452" lon="3.46753">
        <ele>18.6</ele>
        <time>2022-03-24T15:37:12.599Z</time>
      </trkpt>
      <trkpt lat="50.42449" lon="3.46767">
        <ele>18.3</ele>
        <time>2022-03-24T15:37:15.000Z</time>
      </trkpt>
      <trkpt lat="50.42448" lon="3.46779">
        <ele>18</ele>
        <time>2022-03-24T15:37:17.000Z</time>
      </trkpt>
      <trkpt lat="50.42445" lon="3.4679">
        <ele>18</ele>
        <time>2022-03-24T15:37:19.000Z</time>
      </trkpt>
      <trkpt lat="50.42443" lon="3.46801">
        <ele>18.1</ele>
        <time>2022-03-24T15:37:21.000Z</time>
      </trkpt>
      <trkpt lat="50.4244" lon="3.46811">
        <ele>18.2</ele>
        <time>2022-03-24T15:37:23.000Z</time>
      </trkpt>
      <trkpt lat="50.42438" lon="3.4682">
        <ele>18.2</ele>
        <time>2022-03-24T15:37:25.000Z</time>
      </trkpt>
      <trkpt lat="50.42436" lon="3.4683">
        <ele>18.3</ele>
        <time>2022-03-24T15:37:27.139Z</time>
      </trkpt>
      <trkpt lat="50.42434" lon="3.4684">
        <ele>18.4</ele>
        <time>2022-03-24T15:37:29.060Z</time>
      </trkpt>
      <trkpt lat="50.42431" lon="3.46852">
        <ele>18.5</ele>
        <time>2022-03-24T15:37:31.000Z</time>
      </trkpt>
      <trkpt lat="50.42428" lon="3.46862">
        <ele>18.6</ele>
        <time>2022-03-24T15:37:33.000Z</time>
      </trkpt>
      <trkpt lat="50.42425" lon="3.46873">
        <ele>18.4</ele>
        <time>2022-03-24T15:37:35.119Z</time>
      </trkpt>
      <trkpt lat="50.42421" lon="3.46883">
        <ele>18.2</ele>
        <time>2022-03-24T15:37:37.199Z</time>
      </trkpt>
      <trkpt lat="50.42419" lon="3.4689">
        <ele>18</ele>
        <time>2022-03-24T15:37:38.397Z</time>
      </trkpt>
      <trkpt lat="50.42417" lon="3.46905">
        <ele>18</ele>
        <time>2022-03-24T15:37:41.020Z</time>
      </trkpt>
      <trkpt lat="50.42415" lon="3.46916">
        <ele>18.1</ele>
        <time>2022-03-24T15:37:42.942Z</time>
      </trkpt>
      <trkpt lat="50.42414" lon="3.46928">
        <ele>18.1</ele>
        <time>2022-03-24T15:37:45.159Z</time>
      </trkpt>
      <trkpt lat="50.42414" lon="3.46938">
        <ele>18.1</ele>
        <time>2022-03-24T15:37:47.058Z</time>
      </trkpt>
      <trkpt lat="50.42411" lon="3.46948">
        <ele>18.2</ele>
        <time>2022-03-24T15:37:49.782Z</time>
      </trkpt>
      <trkpt lat="50.42407" lon="3.46957">
        <ele>18.3</ele>
        <time>2022-03-24T15:37:53.000Z</time>
      </trkpt>
      <trkpt lat="50.42404" lon="3.46963">
        <ele>18.5</ele>
        <time>2022-03-24T15:37:56.000Z</time>
      </trkpt>
      <trkpt lat="50.42402" lon="3.46972">
        <ele>18.5</ele>
        <time>2022-03-24T15:37:59.000Z</time>
      </trkpt>
      <trkpt lat="50.42401" lon="3.4698">
        <ele>18.6</ele>
        <time>2022-03-24T15:38:01.000Z</time>
      </trkpt>
      <trkpt lat="50.424" lon="3.4699">
        <ele>18.6</ele>
        <time>2022-03-24T15:38:03.000Z</time>
      </trkpt>
      <trkpt lat="50.42399" lon="3.47">
        <ele>18.6</ele>
        <time>2022-03-24T15:38:05.000Z</time>
      </trkpt>
      <trkpt lat="50.42398" lon="3.47007">
        <ele>18.7</ele>
        <time>2022-03-24T15:38:06.922Z</time>
      </trkpt>
      <trkpt lat="50.42396" lon="3.47016">
        <ele>18.7</ele>
        <time>2022-03-24T15:38:09.139Z</time>
      </trkpt>
      <trkpt lat="50.42393" lon="3.47024">
        <ele>18.9</ele>
        <time>2022-03-24T15:38:11.040Z</time>
      </trkpt>
      <trkpt lat="50.4239" lon="3.47034">
        <ele>19</ele>
        <time>2022-03-24T15:38:13.000Z</time>
      </trkpt>
      <trkpt lat="50.42387" lon="3.47048">
        <ele>19</ele>
        <time>2022-03-24T15:38:16.000Z</time>
      </trkpt>
      <trkpt lat="50.42384" lon="3.47059">
        <ele>19</ele>
        <time>2022-03-24T15:38:18.180Z</time>
      </trkpt>
      <trkpt lat="50.42382" lon="3.47067">
        <ele>19</ele>
        <time>2022-03-24T15:38:19.781Z</time>
      </trkpt>
      <trkpt lat="50.4238" lon="3.47078">
        <ele>19</ele>
        <time>2022-03-24T15:38:22.000Z</time>
      </trkpt>
      <trkpt lat="50.42378" lon="3.47088">
        <ele>19</ele>
        <time>2022-03-24T15:38:24.081Z</time>
      </trkpt>
      <trkpt lat="50.42376" lon="3.47098">
        <ele>19</ele>
        <time>2022-03-24T15:38:26.000Z</time>
      </trkpt>
      <trkpt lat="50.42374" lon="3.47106">
        <ele>19</ele>
        <time>2022-03-24T15:38:28.000Z</time>
      </trkpt>
      <trkpt lat="50.42371" lon="3.47114">
        <ele>19</ele>
        <time>2022-03-24T15:38:30.000Z</time>
      </trkpt>
      <trkpt lat="50.42368" lon="3.47123">
        <ele>19</ele>
        <time>2022-03-24T15:38:32.204Z</time>
      </trkpt>
      <trkpt lat="50.42366" lon="3.47132">
        <ele>19</ele>
        <time>2022-03-24T15:38:33.978Z</time>
      </trkpt>
      <trkpt lat="50.42365" lon="3.4714">
        <ele>19</ele>
        <time>2022-03-24T15:38:36.000Z</time>
      </trkpt>
      <trkpt lat="50.42363" lon="3.47148">
        <ele>19</ele>
        <time>2022-03-24T15:38:38.160Z</time>
      </trkpt>
      <trkpt lat="50.42362" lon="3.47155">
        <ele>19</ele>
        <time>2022-03-24T15:38:39.595Z</time>
      </trkpt>
      <trkpt lat="50.4236" lon="3.47165">
        <ele>19</ele>
        <time>2022-03-24T15:38:42.160Z</time>
      </trkpt>
      <trkpt lat="50.42358" lon="3.47173">
        <ele>19.1</ele>
        <time>2022-03-24T15:38:43.796Z</time>
      </trkpt>
      <trkpt lat="50.42355" lon="3.47181">
        <ele>19.2</ele>
        <time>2022-03-24T15:38:46.000Z</time>
      </trkpt>
      <trkpt lat="50.42354" lon="3.47189">
        <ele>19.3</ele>
        <time>2022-03-24T15:38:48.118Z</time>
      </trkpt>
      <trkpt lat="50.42354" lon="3.47197">
        <ele>19.3</ele>
        <time>2022-03-24T15:38:49.839Z</time>
      </trkpt>
      <trkpt lat="50.42352" lon="3.47205">
        <ele>19.3</ele>
        <time>2022-03-24T15:38:52.000Z</time>
      </trkpt>
      <trkpt lat="50.42349" lon="3.47214">
        <ele>19.4</ele>
        <time>2022-03-24T15:38:53.919Z</time>
      </trkpt>
      <trkpt lat="50.42347" lon="3.47225">
        <ele>19.5</ele>
        <time>2022-03-24T15:38:56.000Z</time>
      </trkpt>
      <trkpt lat="50.42346" lon="3.47233">
        <ele>19.5</ele>
        <time>2022-03-24T15:38:58.000Z</time>
      </trkpt>
      <trkpt lat="50.4234" lon="3.47235">
        <ele>19.8</ele>
        <time>2022-03-24T15:39:02.000Z</time>
      </trkpt>
      <trkpt lat="50.42337" lon="3.47241">
        <ele>19.9</ele>
        <time>2022-03-24T15:39:06.000Z</time>
      </trkpt>
      <trkpt lat="50.42339" lon="3.47249">
        <ele>19.8</ele>
        <time>2022-03-24T15:39:10.318Z</time>
      </trkpt>
      <trkpt lat="50.42343" lon="3.47256">
        <ele>19.7</ele>
        <time>2022-03-24T15:39:13.919Z</time>
      </trkpt>
      <trkpt lat="50.42344" lon="3.47265">
        <ele>19.6</ele>
        <time>2022-03-24T15:39:17.000Z</time>
      </trkpt>
      <trkpt lat="50.42346" lon="3.47276">
        <ele>19.5</ele>
        <time>2022-03-24T15:39:20.621Z</time>
      </trkpt>
      <trkpt lat="50.4234" lon="3.4728">
        <ele>19.8</ele>
        <time>2022-03-24T15:39:23.779Z</time>
      </trkpt>
      <trkpt lat="50.42336" lon="3.47286">
        <ele>19.9</ele>
        <time>2022-03-24T15:39:26.000Z</time>
      </trkpt>
      <trkpt lat="50.42334" lon="3.47294">
        <ele>20</ele>
        <time>2022-03-24T15:39:28.761Z</time>
      </trkpt>
      <trkpt lat="50.42331" lon="3.47302">
        <ele>20.1</ele>
        <time>2022-03-24T15:39:32.000Z</time>
      </trkpt>
      <trkpt lat="50.42329" lon="3.47311">
        <ele>20.2</ele>
        <time>2022-03-24T15:39:35.000Z</time>
      </trkpt>
      <trkpt lat="50.42326" lon="3.47319">
        <ele>20.3</ele>
        <time>2022-03-24T15:39:37.100Z</time>
      </trkpt>
      <trkpt lat="50.42325" lon="3.47326">
        <ele>20.3</ele>
        <time>2022-03-24T15:39:38.600Z</time>
      </trkpt>
      <trkpt lat="50.42323" lon="3.47337">
        <ele>20.4</ele>
        <time>2022-03-24T15:39:41.021Z</time>
      </trkpt>
      <trkpt lat="50.42321" lon="3.47348">
        <ele>20.4</ele>
        <time>2022-03-24T15:39:43.000Z</time>
      </trkpt>
      <trkpt lat="50.42317" lon="3.47359">
        <ele>20.6</ele>
        <time>2022-03-24T15:39:46.000Z</time>
      </trkpt>
      <trkpt lat="50.42315" lon="3.4737">
        <ele>20.7</ele>
        <time>2022-03-24T15:39:49.620Z</time>
      </trkpt>
      <trkpt lat="50.42314" lon="3.47377">
        <ele>20.7</ele>
        <time>2022-03-24T15:39:52.000Z</time>
      </trkpt>
      <trkpt lat="50.42314" lon="3.47385">
        <ele>20.7</ele>
        <time>2022-03-24T15:39:54.000Z</time>
      </trkpt>
      <trkpt lat="50.42313" lon="3.47391">
        <ele>20.7</ele>
        <time>2022-03-24T15:39:56.000Z</time>
      </trkpt>
      <trkpt lat="50.42311" lon="3.47398">
        <ele>20.5</ele>
        <time>2022-03-24T15:39:58.000Z</time>
      </trkpt>
      <trkpt lat="50.42309" lon="3.47406">
        <ele>20.3</ele>
        <time>2022-03-24T15:40:00.000Z</time>
      </trkpt>
      <trkpt lat="50.42307" lon="3.47416">
        <ele>20</ele>
        <time>2022-03-24T15:40:02.000Z</time>
      </trkpt>
      <trkpt lat="50.42305" lon="3.47428">
        <ele>20</ele>
        <time>2022-03-24T15:40:04.210Z</time>
      </trkpt>
      <trkpt lat="50.42303" lon="3.47439">
        <ele>20.1</ele>
        <time>2022-03-24T15:40:06.438Z</time>
      </trkpt>
      <trkpt lat="50.42302" lon="3.47449">
        <ele>20.1</ele>
        <time>2022-03-24T15:40:09.000Z</time>
      </trkpt>
      <trkpt lat="50.42299" lon="3.47457">
        <ele>20.2</ele>
        <time>2022-03-24T15:40:11.000Z</time>
      </trkpt>
      <trkpt lat="50.42298" lon="3.47464">
        <ele>20.3</ele>
        <time>2022-03-24T15:40:13.000Z</time>
      </trkpt>
      <trkpt lat="50.42297" lon="3.47474">
        <ele>20.3</ele>
        <time>2022-03-24T15:40:16.000Z</time>
      </trkpt>
      <trkpt lat="50.42298" lon="3.47482">
        <ele>20.3</ele>
        <time>2022-03-24T15:40:18.183Z</time>
      </trkpt>
      <trkpt lat="50.423" lon="3.47493">
        <ele>20.2</ele>
        <time>2022-03-24T15:40:20.700Z</time>
      </trkpt>
      <trkpt lat="50.423" lon="3.47505">
        <ele>20.2</ele>
        <time>2022-03-24T15:40:23.000Z</time>
      </trkpt>
      <trkpt lat="50.42301" lon="3.47515">
        <ele>20.2</ele>
        <time>2022-03-24T15:40:25.000Z</time>
      </trkpt>
      <trkpt lat="50.42302" lon="3.47526">
        <ele>20.1</ele>
        <time>2022-03-24T15:40:27.178Z</time>
      </trkpt>
      <trkpt lat="50.42303" lon="3.47534">
        <ele>20.1</ele>
        <time>2022-03-24T15:40:29.039Z</time>
      </trkpt>
      <trkpt lat="50.42305" lon="3.47542">
        <ele>20</ele>
        <time>2022-03-24T15:40:31.000Z</time>
      </trkpt>
      <trkpt lat="50.42308" lon="3.47551">
        <ele>19.9</ele>
        <time>2022-03-24T15:40:33.218Z</time>
      </trkpt>
      <trkpt lat="50.42312" lon="3.47563">
        <ele>19.8</ele>
        <time>2022-03-24T15:40:35.640Z</time>
      </trkpt>
      <trkpt lat="50.4231" lon="3.47573">
        <ele>19.8</ele>
        <time>2022-03-24T15:40:38.000Z</time>
      </trkpt>
      <trkpt lat="50.4231" lon="3.47583">
        <ele>19.8</ele>
        <time>2022-03-24T15:40:39.919Z</time>
      </trkpt>
      <trkpt lat="50.42313" lon="3.47597">
        <ele>19.7</ele>
        <time>2022-03-24T15:40:42.281Z</time>
      </trkpt>
      <trkpt lat="50.42315" lon="3.47604">
        <ele>19.7</ele>
        <time>2022-03-24T15:40:43.480Z</time>
      </trkpt>
      <trkpt lat="50.42318" lon="3.47611">
        <ele>19.6</ele>
        <time>2022-03-24T15:40:44.602Z</time>
      </trkpt>
      <trkpt lat="50.4232" lon="3.47618">
        <ele>19.5</ele>
        <time>2022-03-24T15:40:45.738Z</time>
      </trkpt>
      <trkpt lat="50.42328" lon="3.47627">
        <ele>19.2</ele>
        <time>2022-03-24T15:40:48.038Z</time>
      </trkpt>
      <trkpt lat="50.4233" lon="3.47634">
        <ele>19.1</ele>
        <time>2022-03-24T15:40:49.118Z</time>
      </trkpt>
      <trkpt lat="50.42334" lon="3.47646">
        <ele>19</ele>
        <time>2022-03-24T15:40:50.980Z</time>
      </trkpt>
      <trkpt lat="50.42338" lon="3.47654">
        <ele>19</ele>
        <time>2022-03-24T15:40:52.681Z</time>
      </trkpt>
      <trkpt lat="50.42343" lon="3.47659">
        <ele>19</ele>
        <time>2022-03-24T15:40:54.000Z</time>
      </trkpt>
      <trkpt lat="50.42346" lon="3.47664">
        <ele>19</ele>
        <time>2022-03-24T15:40:55.000Z</time>
      </trkpt>
      <trkpt lat="50.42355" lon="3.47673">
        <ele>19.1</ele>
        <time>2022-03-24T15:40:57.000Z</time>
      </trkpt>
      <trkpt lat="50.42359" lon="3.47677">
        <ele>19</ele>
        <time>2022-03-24T15:40:58.000Z</time>
      </trkpt>
      <trkpt lat="50.42363" lon="3.47681">
        <ele>18.9</ele>
        <time>2022-03-24T15:40:59.000Z</time>
      </trkpt>
      <trkpt lat="50.42369" lon="3.47684">
        <ele>18.7</ele>
        <time>2022-03-24T15:41:00.000Z</time>
      </trkpt>
      <trkpt lat="50.42374" lon="3.47688">
        <ele>18.5</ele>
        <time>2022-03-24T15:41:01.000Z</time>
      </trkpt>
      <trkpt lat="50.42378" lon="3.47693">
        <ele>18.4</ele>
        <time>2022-03-24T15:41:02.000Z</time>
      </trkpt>
      <trkpt lat="50.42386" lon="3.47695">
        <ele>18.1</ele>
        <time>2022-03-24T15:41:05.187Z</time>
      </trkpt>
      <trkpt lat="50.4239" lon="3.47699">
        <ele>18.2</ele>
        <time>2022-03-24T15:41:06.089Z</time>
      </trkpt>
      <trkpt lat="50.42396" lon="3.47705">
        <ele>18.3</ele>
        <time>2022-03-24T15:41:07.190Z</time>
      </trkpt>
      <trkpt lat="50.42403" lon="3.47721">
        <ele>18.5</ele>
        <time>2022-03-24T15:41:09.000Z</time>
      </trkpt>
      <trkpt lat="50.42406" lon="3.47727">
        <ele>18.4</ele>
        <time>2022-03-24T15:41:10.000Z</time>
      </trkpt>
      <trkpt lat="50.4241" lon="3.47731">
        <ele>18.2</ele>
        <time>2022-03-24T15:41:11.149Z</time>
      </trkpt>
      <trkpt lat="50.42415" lon="3.47736">
        <ele>18.1</ele>
        <time>2022-03-24T15:41:12.791Z</time>
      </trkpt>
      <trkpt lat="50.42421" lon="3.47744">
        <ele>18</ele>
        <time>2022-03-24T15:41:15.049Z</time>
      </trkpt>
      <trkpt lat="50.42427" lon="3.47752">
        <ele>18</ele>
        <time>2022-03-24T15:41:17.070Z</time>
      </trkpt>
      <trkpt lat="50.42431" lon="3.47761">
        <ele>18.2</ele>
        <time>2022-03-24T15:41:18.990Z</time>
      </trkpt>
      <trkpt lat="50.42437" lon="3.47771">
        <ele>18.2</ele>
        <time>2022-03-24T15:41:21.000Z</time>
      </trkpt>
      <trkpt lat="50.42442" lon="3.47779">
        <ele>18.1</ele>
        <time>2022-03-24T15:41:23.000Z</time>
      </trkpt>
      <trkpt lat="50.42446" lon="3.47791">
        <ele>18.5</ele>
        <time>2022-03-24T15:41:25.153Z</time>
      </trkpt>
      <trkpt lat="50.42449" lon="3.47799">
        <ele>18.8</ele>
        <time>2022-03-24T15:41:27.012Z</time>
      </trkpt>
      <trkpt lat="50.42452" lon="3.47804">
        <ele>18.9</ele>
        <time>2022-03-24T15:41:28.530Z</time>
      </trkpt>
      <trkpt lat="50.42458" lon="3.4781">
        <ele>19</ele>
        <time>2022-03-24T15:41:30.912Z</time>
      </trkpt>
      <trkpt lat="50.42464" lon="3.47818">
        <ele>19</ele>
        <time>2022-03-24T15:41:33.172Z</time>
      </trkpt>
      <trkpt lat="50.4247" lon="3.47822">
        <ele>19</ele>
        <time>2022-03-24T15:41:35.068Z</time>
      </trkpt>
      <trkpt lat="50.42476" lon="3.47827">
        <ele>19</ele>
        <time>2022-03-24T15:41:37.000Z</time>
      </trkpt>
      <trkpt lat="50.42481" lon="3.47832">
        <ele>19</ele>
        <time>2022-03-24T15:41:39.968Z</time>
      </trkpt>
      <trkpt lat="50.42486" lon="3.47835">
        <ele>19</ele>
        <time>2022-03-24T15:41:42.000Z</time>
      </trkpt>
      <trkpt lat="50.42492" lon="3.47841">
        <ele>19</ele>
        <time>2022-03-24T15:41:44.807Z</time>
      </trkpt>
      <trkpt lat="50.42498" lon="3.47845">
        <ele>19</ele>
        <time>2022-03-24T15:41:47.000Z</time>
      </trkpt>
      <trkpt lat="50.42503" lon="3.47851">
        <ele>19</ele>
        <time>2022-03-24T15:41:48.928Z</time>
      </trkpt>
      <trkpt lat="50.42509" lon="3.47862">
        <ele>19</ele>
        <time>2022-03-24T15:41:51.511Z</time>
      </trkpt>
      <trkpt lat="50.42514" lon="3.47868">
        <ele>19.1</ele>
        <time>2022-03-24T15:41:54.134Z</time>
      </trkpt>
      <trkpt lat="50.42519" lon="3.47874">
        <ele>19.1</ele>
        <time>2022-03-24T15:41:57.000Z</time>
      </trkpt>
      <trkpt lat="50.42524" lon="3.47879">
        <ele>19.1</ele>
        <time>2022-03-24T15:42:00.000Z</time>
      </trkpt>
      <trkpt lat="50.4253" lon="3.47882">
        <ele>19</ele>
        <time>2022-03-24T15:42:03.000Z</time>
      </trkpt>
      <trkpt lat="50.42534" lon="3.47884">
        <ele>19</ele>
        <time>2022-03-24T15:42:06.000Z</time>
      </trkpt>
      <trkpt lat="50.42536" lon="3.47891">
        <ele>19</ele>
        <time>2022-03-24T15:42:18.000Z</time>
      </trkpt>
      <trkpt lat="50.4254" lon="3.47896">
        <ele>19</ele>
        <time>2022-03-24T15:42:22.000Z</time>
      </trkpt>
      <trkpt lat="50.42544" lon="3.479">
        <ele>19</ele>
        <time>2022-03-24T15:42:34.000Z</time>
      </trkpt>
      <trkpt lat="50.42551" lon="3.47901">
        <ele>19</ele>
        <time>2022-03-24T15:42:42.132Z</time>
      </trkpt>
      <trkpt lat="50.42556" lon="3.47902">
        <ele>19</ele>
        <time>2022-03-24T15:42:44.000Z</time>
      </trkpt>
      <trkpt lat="50.42561" lon="3.47902">
        <ele>19</ele>
        <time>2022-03-24T15:42:45.672Z</time>
      </trkpt>
      <trkpt lat="50.42566" lon="3.47903">
        <ele>19</ele>
        <time>2022-03-24T15:42:47.673Z</time>
      </trkpt>
      <trkpt lat="50.42569" lon="3.4791">
        <ele>19</ele>
        <time>2022-03-24T15:42:49.890Z</time>
      </trkpt>
      <trkpt lat="50.42568" lon="3.47921">
        <ele>19.1</ele>
        <time>2022-03-24T15:42:53.972Z</time>
      </trkpt>
      <trkpt lat="50.42565" lon="3.47929">
        <ele>19.3</ele>
        <time>2022-03-24T15:42:57.853Z</time>
      </trkpt>
      <trkpt lat="50.42562" lon="3.47939">
        <ele>19.6</ele>
        <time>2022-03-24T15:43:01.000Z</time>
      </trkpt>
      <trkpt lat="50.4256" lon="3.47952">
        <ele>19.9</ele>
        <time>2022-03-24T15:43:04.000Z</time>
      </trkpt>
      <trkpt lat="50.42559" lon="3.4796">
        <ele>19.9</ele>
        <time>2022-03-24T15:43:06.031Z</time>
      </trkpt>
      <trkpt lat="50.42559" lon="3.47968">
        <ele>20</ele>
        <time>2022-03-24T15:43:07.953Z</time>
      </trkpt>
      <trkpt lat="50.42559" lon="3.47977">
        <ele>20</ele>
        <time>2022-03-24T15:43:10.000Z</time>
      </trkpt>
      <trkpt lat="50.42559" lon="3.47986">
        <ele>20</ele>
        <time>2022-03-24T15:43:12.000Z</time>
      </trkpt>
      <trkpt lat="50.4256" lon="3.47997">
        <ele>20</ele>
        <time>2022-03-24T15:43:14.510Z</time>
      </trkpt>
      <trkpt lat="50.4256" lon="3.48007">
        <ele>20</ele>
        <time>2022-03-24T15:43:16.970Z</time>
      </trkpt>
      <trkpt lat="50.42562" lon="3.48017">
        <ele>20</ele>
        <time>2022-03-24T15:43:19.000Z</time>
      </trkpt>
      <trkpt lat="50.42561" lon="3.48027">
        <ele>20</ele>
        <time>2022-03-24T15:43:21.000Z</time>
      </trkpt>
      <trkpt lat="50.42559" lon="3.48034">
        <ele>20</ele>
        <time>2022-03-24T15:43:23.000Z</time>
      </trkpt>
      <trkpt lat="50.42562" lon="3.4804">
        <ele>20</ele>
        <time>2022-03-24T15:43:25.000Z</time>
      </trkpt>
      <trkpt lat="50.42566" lon="3.48047">
        <ele>20</ele>
        <time>2022-03-24T15:43:27.000Z</time>
      </trkpt>
      <trkpt lat="50.42572" lon="3.48057">
        <ele>20</ele>
        <time>2022-03-24T15:43:29.642Z</time>
      </trkpt>
      <trkpt lat="50.42578" lon="3.48064">
        <ele>19.8</ele>
        <time>2022-03-24T15:43:32.000Z</time>
      </trkpt>
      <trkpt lat="50.42583" lon="3.48069">
        <ele>19.5</ele>
        <time>2022-03-24T15:43:34.209Z</time>
      </trkpt>
      <trkpt lat="50.42587" lon="3.48074">
        <ele>19.3</ele>
        <time>2022-03-24T15:43:36.131Z</time>
      </trkpt>
      <trkpt lat="50.42591" lon="3.48079">
        <ele>19.1</ele>
        <time>2022-03-24T15:43:37.810Z</time>
      </trkpt>
      <trkpt lat="50.42596" lon="3.48084">
        <ele>19</ele>
        <time>2022-03-24T15:43:40.000Z</time>
      </trkpt>
      <trkpt lat="50.42597" lon="3.48093">
        <ele>19</ele>
        <time>2022-03-24T15:43:42.130Z</time>
      </trkpt>
      <trkpt lat="50.42595" lon="3.48104">
        <ele>19</ele>
        <time>2022-03-24T15:43:45.000Z</time>
      </trkpt>
      <trkpt lat="50.4259" lon="3.48116">
        <ele>19</ele>
        <time>2022-03-24T15:43:47.950Z</time>
      </trkpt>
      <trkpt lat="50.42587" lon="3.48124">
        <ele>18.9</ele>
        <time>2022-03-24T15:43:49.748Z</time>
      </trkpt>
      <trkpt lat="50.42584" lon="3.4813">
        <ele>19</ele>
        <time>2022-03-24T15:43:51.000Z</time>
      </trkpt>
      <trkpt lat="50.4258" lon="3.4814">
        <ele>19</ele>
        <time>2022-03-24T15:43:53.000Z</time>
      </trkpt>
      <trkpt lat="50.42577" lon="3.48151">
        <ele>19</ele>
        <time>2022-03-24T15:43:55.093Z</time>
      </trkpt>
      <trkpt lat="50.42573" lon="3.48158">
        <ele>19</ele>
        <time>2022-03-24T15:43:57.000Z</time>
      </trkpt>
      <trkpt lat="50.4257" lon="3.48168">
        <ele>19</ele>
        <time>2022-03-24T15:43:59.231Z</time>
      </trkpt>
      <trkpt lat="50.42567" lon="3.48175">
        <ele>19</ele>
        <time>2022-03-24T15:44:00.891Z</time>
      </trkpt>
      <trkpt lat="50.42563" lon="3.48187">
        <ele>19</ele>
        <time>2022-03-24T15:44:03.508Z</time>
      </trkpt>
      <trkpt lat="50.42561" lon="3.48199">
        <ele>19</ele>
        <time>2022-03-24T15:44:06.000Z</time>
      </trkpt>
      <trkpt lat="50.42558" lon="3.48206">
        <ele>19</ele>
        <time>2022-03-24T15:44:08.000Z</time>
      </trkpt>
      <trkpt lat="50.42555" lon="3.48213">
        <ele>19</ele>
        <time>2022-03-24T15:44:10.000Z</time>
      </trkpt>
      <trkpt lat="50.42551" lon="3.4822">
        <ele>19.2</ele>
        <time>2022-03-24T15:44:13.048Z</time>
      </trkpt>
      <trkpt lat="50.42552" lon="3.48229">
        <ele>19.1</ele>
        <time>2022-03-24T15:44:16.000Z</time>
      </trkpt>
      <trkpt lat="50.42554" lon="3.48239">
        <ele>19.1</ele>
        <time>2022-03-24T15:44:19.370Z</time>
      </trkpt>
      <trkpt lat="50.42553" lon="3.48248">
        <ele>19.1</ele>
        <time>2022-03-24T15:44:21.550Z</time>
      </trkpt>
      <trkpt lat="50.42554" lon="3.48257">
        <ele>19.1</ele>
        <time>2022-03-24T15:44:23.711Z</time>
      </trkpt>
      <trkpt lat="50.42556" lon="3.48266">
        <ele>19</ele>
        <time>2022-03-24T15:44:26.000Z</time>
      </trkpt>
      <trkpt lat="50.42558" lon="3.48273">
        <ele>19</ele>
        <time>2022-03-24T15:44:28.000Z</time>
      </trkpt>
      <trkpt lat="50.4256" lon="3.48288">
        <ele>19</ele>
        <time>2022-03-24T15:44:31.053Z</time>
      </trkpt>
      <trkpt lat="50.42563" lon="3.483">
        <ele>19</ele>
        <time>2022-03-24T15:44:33.069Z</time>
      </trkpt>
      <trkpt lat="50.42564" lon="3.48307">
        <ele>19</ele>
        <time>2022-03-24T15:44:34.090Z</time>
      </trkpt>
      <trkpt lat="50.42566" lon="3.48318">
        <ele>19</ele>
        <time>2022-03-24T15:44:36.068Z</time>
      </trkpt>
      <trkpt lat="50.42567" lon="3.48325">
        <ele>19</ele>
        <time>2022-03-24T15:44:37.246Z</time>
      </trkpt>
      <trkpt lat="50.42569" lon="3.48339">
        <ele>19</ele>
        <time>2022-03-24T15:44:39.908Z</time>
      </trkpt>
      <trkpt lat="50.42572" lon="3.48352">
        <ele>19</ele>
        <time>2022-03-24T15:44:42.511Z</time>
      </trkpt>
      <trkpt lat="50.42574" lon="3.48359">
        <ele>19</ele>
        <time>2022-03-24T15:44:44.028Z</time>
      </trkpt>
      <trkpt lat="50.42576" lon="3.48369">
        <ele>19</ele>
        <time>2022-03-24T15:44:46.070Z</time>
      </trkpt>
      <trkpt lat="50.42578" lon="3.4838">
        <ele>19</ele>
        <time>2022-03-24T15:44:48.413Z</time>
      </trkpt>
      <trkpt lat="50.42579" lon="3.48388">
        <ele>19</ele>
        <time>2022-03-24T15:44:49.949Z</time>
      </trkpt>
      <trkpt lat="50.42581" lon="3.48396">
        <ele>19</ele>
        <time>2022-03-24T15:44:52.000Z</time>
      </trkpt>
      <trkpt lat="50.42582" lon="3.48404">
        <ele>19</ele>
        <time>2022-03-24T15:44:54.000Z</time>
      </trkpt>
      <trkpt lat="50.42585" lon="3.48419">
        <ele>19</ele>
        <time>2022-03-24T15:44:57.047Z</time>
      </trkpt>
      <trkpt lat="50.42587" lon="3.4843">
        <ele>19</ele>
        <time>2022-03-24T15:44:59.000Z</time>
      </trkpt>
      <trkpt lat="50.42589" lon="3.48442">
        <ele>19</ele>
        <time>2022-03-24T15:45:01.090Z</time>
      </trkpt>
      <trkpt lat="50.4259" lon="3.48453">
        <ele>19</ele>
        <time>2022-03-24T15:45:03.011Z</time>
      </trkpt>
      <trkpt lat="50.42592" lon="3.48466">
        <ele>19</ele>
        <time>2022-03-24T15:45:05.640Z</time>
      </trkpt>
      <trkpt lat="50.42593" lon="3.48473">
        <ele>19</ele>
        <time>2022-03-24T15:45:06.991Z</time>
      </trkpt>
      <trkpt lat="50.42594" lon="3.48484">
        <ele>19</ele>
        <time>2022-03-24T15:45:09.171Z</time>
      </trkpt>
      <trkpt lat="50.42594" lon="3.48491">
        <ele>19</ele>
        <time>2022-03-24T15:45:10.548Z</time>
      </trkpt>
      <trkpt lat="50.42596" lon="3.48503">
        <ele>19</ele>
        <time>2022-03-24T15:45:12.970Z</time>
      </trkpt>
      <trkpt lat="50.42598" lon="3.48513">
        <ele>19</ele>
        <time>2022-03-24T15:45:15.010Z</time>
      </trkpt>
      <trkpt lat="50.42598" lon="3.48523">
        <ele>19</ele>
        <time>2022-03-24T15:45:17.000Z</time>
      </trkpt>
      <trkpt lat="50.426" lon="3.4853">
        <ele>19</ele>
        <time>2022-03-24T15:45:18.451Z</time>
      </trkpt>
      <trkpt lat="50.42602" lon="3.48541">
        <ele>19</ele>
        <time>2022-03-24T15:45:20.500Z</time>
      </trkpt>
      <trkpt lat="50.42604" lon="3.48551">
        <ele>19</ele>
        <time>2022-03-24T15:45:22.809Z</time>
      </trkpt>
      <trkpt lat="50.42605" lon="3.4856">
        <ele>19</ele>
        <time>2022-03-24T15:45:24.911Z</time>
      </trkpt>
      <trkpt lat="50.42607" lon="3.4857">
        <ele>19</ele>
        <time>2022-03-24T15:45:27.169Z</time>
      </trkpt>
      <trkpt lat="50.42608" lon="3.48577">
        <ele>19</ele>
        <time>2022-03-24T15:45:28.868Z</time>
      </trkpt>
      <trkpt lat="50.4261" lon="3.48586">
        <ele>19</ele>
        <time>2022-03-24T15:45:30.828Z</time>
      </trkpt>
      <trkpt lat="50.42611" lon="3.48595">
        <ele>19</ele>
        <time>2022-03-24T15:45:32.892Z</time>
      </trkpt>
      <trkpt lat="50.42613" lon="3.48605">
        <ele>19</ele>
        <time>2022-03-24T15:45:35.000Z</time>
      </trkpt>
      <trkpt lat="50.42613" lon="3.48613">
        <ele>19</ele>
        <time>2022-03-24T15:45:37.000Z</time>
      </trkpt>
      <trkpt lat="50.42614" lon="3.48622">
        <ele>19</ele>
        <time>2022-03-24T15:45:39.000Z</time>
      </trkpt>
      <trkpt lat="50.42615" lon="3.48633">
        <ele>19</ele>
        <time>2022-03-24T15:45:41.668Z</time>
      </trkpt>
      <trkpt lat="50.42617" lon="3.48643">
        <ele>19</ele>
        <time>2022-03-24T15:45:44.000Z</time>
      </trkpt>
      <trkpt lat="50.4262" lon="3.48654">
        <ele>19</ele>
        <time>2022-03-24T15:45:46.829Z</time>
      </trkpt>
      <trkpt lat="50.42623" lon="3.48666">
        <ele>19</ele>
        <time>2022-03-24T15:45:49.000Z</time>
      </trkpt>
      <trkpt lat="50.42625" lon="3.48674">
        <ele>19.1</ele>
        <time>2022-03-24T15:45:50.621Z</time>
      </trkpt>
      <trkpt lat="50.42626" lon="3.48685">
        <ele>19.3</ele>
        <time>2022-03-24T15:45:53.152Z</time>
      </trkpt>
      <trkpt lat="50.42629" lon="3.48694">
        <ele>19.4</ele>
        <time>2022-03-24T15:45:55.092Z</time>
      </trkpt>
      <trkpt lat="50.42631" lon="3.48703">
        <ele>19.5</ele>
        <time>2022-03-24T15:45:57.000Z</time>
      </trkpt>
      <trkpt lat="50.42632" lon="3.48713">
        <ele>19.8</ele>
        <time>2022-03-24T15:45:58.971Z</time>
      </trkpt>
      <trkpt lat="50.42632" lon="3.48723">
        <ele>20</ele>
        <time>2022-03-24T15:46:00.968Z</time>
      </trkpt>
      <trkpt lat="50.42633" lon="3.48732">
        <ele>20</ele>
        <time>2022-03-24T15:46:02.954Z</time>
      </trkpt>
      <trkpt lat="50.42634" lon="3.48743">
        <ele>20</ele>
        <time>2022-03-24T15:46:04.991Z</time>
      </trkpt>
      <trkpt lat="50.42635" lon="3.48754">
        <ele>20</ele>
        <time>2022-03-24T15:46:07.000Z</time>
      </trkpt>
      <trkpt lat="50.42637" lon="3.48768">
        <ele>20</ele>
        <time>2022-03-24T15:46:09.529Z</time>
      </trkpt>
      <trkpt lat="50.42639" lon="3.48779">
        <ele>20</ele>
        <time>2022-03-24T15:46:11.854Z</time>
      </trkpt>
      <trkpt lat="50.42642" lon="3.48793">
        <ele>20</ele>
        <time>2022-03-24T15:46:15.000Z</time>
      </trkpt>
      <trkpt lat="50.42644" lon="3.48803">
        <ele>20</ele>
        <time>2022-03-24T15:46:17.000Z</time>
      </trkpt>
      <trkpt lat="50.42647" lon="3.48815">
        <ele>20</ele>
        <time>2022-03-24T15:46:19.470Z</time>
      </trkpt>
      <trkpt lat="50.42649" lon="3.48822">
        <ele>20</ele>
        <time>2022-03-24T15:46:20.690Z</time>
      </trkpt>
      <trkpt lat="50.42651" lon="3.48829">
        <ele>20</ele>
        <time>2022-03-24T15:46:22.049Z</time>
      </trkpt>
      <trkpt lat="50.42652" lon="3.48841">
        <ele>20</ele>
        <time>2022-03-24T15:46:24.000Z</time>
      </trkpt>
      <trkpt lat="50.42654" lon="3.48853">
        <ele>20</ele>
        <time>2022-03-24T15:46:26.110Z</time>
      </trkpt>
      <trkpt lat="50.42654" lon="3.4886">
        <ele>20</ele>
        <time>2022-03-24T15:46:27.515Z</time>
      </trkpt>
      <trkpt lat="50.42655" lon="3.48867">
        <ele>20</ele>
        <time>2022-03-24T15:46:29.000Z</time>
      </trkpt>
      <trkpt lat="50.42657" lon="3.48877">
        <ele>20</ele>
        <time>2022-03-24T15:46:31.154Z</time>
      </trkpt>
      <trkpt lat="50.42657" lon="3.48886">
        <ele>20</ele>
        <time>2022-03-24T15:46:32.769Z</time>
      </trkpt>
      <trkpt lat="50.4266" lon="3.48903">
        <ele>20</ele>
        <time>2022-03-24T15:46:36.028Z</time>
      </trkpt>
      <trkpt lat="50.42662" lon="3.48916">
        <ele>20</ele>
        <time>2022-03-24T15:46:38.634Z</time>
      </trkpt>
      <trkpt lat="50.42664" lon="3.48926">
        <ele>20.3</ele>
        <time>2022-03-24T15:46:41.013Z</time>
      </trkpt>
      <trkpt lat="50.42665" lon="3.48935">
        <ele>20.7</ele>
        <time>2022-03-24T15:46:43.192Z</time>
      </trkpt>
      <trkpt lat="50.42666" lon="3.48942">
        <ele>20.9</ele>
        <time>2022-03-24T15:46:44.874Z</time>
      </trkpt>
      <trkpt lat="50.42668" lon="3.4895">
        <ele>21</ele>
        <time>2022-03-24T15:46:47.000Z</time>
      </trkpt>
      <trkpt lat="50.42669" lon="3.48958">
        <ele>21</ele>
        <time>2022-03-24T15:46:49.170Z</time>
      </trkpt>
      <trkpt lat="50.42671" lon="3.48967">
        <ele>21</ele>
        <time>2022-03-24T15:46:51.931Z</time>
      </trkpt>
      <trkpt lat="50.42672" lon="3.48974">
        <ele>21</ele>
        <time>2022-03-24T15:46:54.000Z</time>
      </trkpt>
      <trkpt lat="50.42674" lon="3.48983">
        <ele>21</ele>
        <time>2022-03-24T15:46:57.450Z</time>
      </trkpt>
      <trkpt lat="50.42675" lon="3.48991">
        <ele>21</ele>
        <time>2022-03-24T15:47:00.194Z</time>
      </trkpt>
      <trkpt lat="50.42675" lon="3.49003">
        <ele>21</ele>
        <time>2022-03-24T15:47:03.150Z</time>
      </trkpt>
      <trkpt lat="50.42677" lon="3.49011">
        <ele>21</ele>
        <time>2022-03-24T15:47:05.031Z</time>
      </trkpt>
      <trkpt lat="50.4268" lon="3.49021">
        <ele>21</ele>
        <time>2022-03-24T15:47:07.914Z</time>
      </trkpt>
      <trkpt lat="50.42683" lon="3.49028">
        <ele>21</ele>
        <time>2022-03-24T15:47:10.000Z</time>
      </trkpt>
      <trkpt lat="50.42684" lon="3.49039">
        <ele>21.3</ele>
        <time>2022-03-24T15:47:13.189Z</time>
      </trkpt>
      <trkpt lat="50.42684" lon="3.49048">
        <ele>21.5</ele>
        <time>2022-03-24T15:47:15.948Z</time>
      </trkpt>
      <trkpt lat="50.42685" lon="3.49057">
        <ele>21.7</ele>
        <time>2022-03-24T15:47:18.550Z</time>
      </trkpt>
      <trkpt lat="50.42687" lon="3.49065">
        <ele>21.7</ele>
        <time>2022-03-24T15:47:20.768Z</time>
      </trkpt>
      <trkpt lat="50.42688" lon="3.49075">
        <ele>21.8</ele>
        <time>2022-03-24T15:47:23.029Z</time>
      </trkpt>
      <trkpt lat="50.42689" lon="3.49085">
        <ele>21.8</ele>
        <time>2022-03-24T15:47:25.872Z</time>
      </trkpt>
      <trkpt lat="50.42689" lon="3.49092">
        <ele>21.9</ele>
        <time>2022-03-24T15:47:28.000Z</time>
      </trkpt>
      <trkpt lat="50.4269" lon="3.491">
        <ele>21.9</ele>
        <time>2022-03-24T15:47:30.000Z</time>
      </trkpt>
      <trkpt lat="50.42691" lon="3.49109">
        <ele>22</ele>
        <time>2022-03-24T15:47:32.000Z</time>
      </trkpt>
      <trkpt lat="50.42693" lon="3.49119">
        <ele>22</ele>
        <time>2022-03-24T15:47:34.314Z</time>
      </trkpt>
      <trkpt lat="50.42694" lon="3.49128">
        <ele>22</ele>
        <time>2022-03-24T15:47:36.733Z</time>
      </trkpt>
      <trkpt lat="50.42696" lon="3.49139">
        <ele>22</ele>
        <time>2022-03-24T15:47:40.000Z</time>
      </trkpt>
      <trkpt lat="50.42697" lon="3.49148">
        <ele>22</ele>
        <time>2022-03-24T15:47:42.000Z</time>
      </trkpt>
      <trkpt lat="50.42698" lon="3.49156">
        <ele>22</ele>
        <time>2022-03-24T15:47:44.049Z</time>
      </trkpt>
      <trkpt lat="50.42701" lon="3.49164">
        <ele>22</ele>
        <time>2022-03-24T15:47:46.000Z</time>
      </trkpt>
      <trkpt lat="50.42703" lon="3.49174">
        <ele>22</ele>
        <time>2022-03-24T15:47:48.773Z</time>
      </trkpt>
      <trkpt lat="50.42705" lon="3.49183">
        <ele>22</ele>
        <time>2022-03-24T15:47:51.000Z</time>
      </trkpt>
      <trkpt lat="50.42706" lon="3.49193">
        <ele>22</ele>
        <time>2022-03-24T15:47:53.706Z</time>
      </trkpt>
      <trkpt lat="50.42708" lon="3.49202">
        <ele>22</ele>
        <time>2022-03-24T15:47:55.747Z</time>
      </trkpt>
      <trkpt lat="50.4271" lon="3.49213">
        <ele>22</ele>
        <time>2022-03-24T15:47:58.168Z</time>
      </trkpt>
      <trkpt lat="50.42712" lon="3.49222">
        <ele>22</ele>
        <time>2022-03-24T15:48:00.012Z</time>
      </trkpt>
      <trkpt lat="50.42713" lon="3.49229">
        <ele>22</ele>
        <time>2022-03-24T15:48:01.371Z</time>
      </trkpt>
      <trkpt lat="50.42715" lon="3.49244">
        <ele>22</ele>
        <time>2022-03-24T15:48:04.000Z</time>
      </trkpt>
      <trkpt lat="50.42717" lon="3.49256">
        <ele>22</ele>
        <time>2022-03-24T15:48:06.000Z</time>
      </trkpt>
      <trkpt lat="50.42719" lon="3.49268">
        <ele>22</ele>
        <time>2022-03-24T15:48:08.048Z</time>
      </trkpt>
      <trkpt lat="50.4272" lon="3.49279">
        <ele>22</ele>
        <time>2022-03-24T15:48:10.191Z</time>
      </trkpt>
      <trkpt lat="50.42721" lon="3.4929">
        <ele>22</ele>
        <time>2022-03-24T15:48:11.789Z</time>
      </trkpt>
      <trkpt lat="50.42722" lon="3.49301">
        <ele>22</ele>
        <time>2022-03-24T15:48:14.000Z</time>
      </trkpt>
      <trkpt lat="50.42724" lon="3.49312">
        <ele>22</ele>
        <time>2022-03-24T15:48:16.000Z</time>
      </trkpt>
      <trkpt lat="50.42725" lon="3.49323">
        <ele>22</ele>
        <time>2022-03-24T15:48:18.000Z</time>
      </trkpt>
      <trkpt lat="50.42727" lon="3.49333">
        <ele>22</ele>
        <time>2022-03-24T15:48:20.000Z</time>
      </trkpt>
      <trkpt lat="50.42729" lon="3.49343">
        <ele>22</ele>
        <time>2022-03-24T15:48:22.184Z</time>
      </trkpt>
      <trkpt lat="50.4273" lon="3.49351">
        <ele>22</ele>
        <time>2022-03-24T15:48:23.689Z</time>
      </trkpt>
      <trkpt lat="50.42732" lon="3.49363">
        <ele>22</ele>
        <time>2022-03-24T15:48:26.127Z</time>
      </trkpt>
      <trkpt lat="50.42734" lon="3.49371">
        <ele>22</ele>
        <time>2022-03-24T15:48:27.635Z</time>
      </trkpt>
      <trkpt lat="50.42736" lon="3.49382">
        <ele>22</ele>
        <time>2022-03-24T15:48:30.000Z</time>
      </trkpt>
      <trkpt lat="50.42738" lon="3.49393">
        <ele>22</ele>
        <time>2022-03-24T15:48:32.000Z</time>
      </trkpt>
      <trkpt lat="50.42739" lon="3.49402">
        <ele>22</ele>
        <time>2022-03-24T15:48:34.000Z</time>
      </trkpt>
      <trkpt lat="50.42742" lon="3.49412">
        <ele>22</ele>
        <time>2022-03-24T15:48:36.000Z</time>
      </trkpt>
      <trkpt lat="50.42743" lon="3.49422">
        <ele>22</ele>
        <time>2022-03-24T15:48:38.000Z</time>
      </trkpt>
      <trkpt lat="50.42745" lon="3.49433">
        <ele>22</ele>
        <time>2022-03-24T15:48:40.000Z</time>
      </trkpt>
      <trkpt lat="50.42746" lon="3.49445">
        <ele>22</ele>
        <time>2022-03-24T15:48:42.155Z</time>
      </trkpt>
      <trkpt lat="50.42747" lon="3.49454">
        <ele>22</ele>
        <time>2022-03-24T15:48:43.710Z</time>
      </trkpt>
      <trkpt lat="50.42748" lon="3.49465">
        <ele>22</ele>
        <time>2022-03-24T15:48:45.908Z</time>
      </trkpt>
      <trkpt lat="50.4275" lon="3.49473">
        <ele>22</ele>
        <time>2022-03-24T15:48:48.000Z</time>
      </trkpt>
      <trkpt lat="50.42752" lon="3.49483">
        <ele>22</ele>
        <time>2022-03-24T15:48:50.000Z</time>
      </trkpt>
      <trkpt lat="50.42755" lon="3.49494">
        <ele>22</ele>
        <time>2022-03-24T15:48:52.049Z</time>
      </trkpt>
      <trkpt lat="50.42757" lon="3.49506">
        <ele>22</ele>
        <time>2022-03-24T15:48:54.135Z</time>
      </trkpt>
      <trkpt lat="50.42758" lon="3.49514">
        <ele>22</ele>
        <time>2022-03-24T15:48:55.731Z</time>
      </trkpt>
      <trkpt lat="50.42758" lon="3.49524">
        <ele>22</ele>
        <time>2022-03-24T15:48:58.000Z</time>
      </trkpt>
      <trkpt lat="50.4276" lon="3.49532">
        <ele>22</ele>
        <time>2022-03-24T15:49:00.000Z</time>
      </trkpt>
      <trkpt lat="50.42761" lon="3.49541">
        <ele>22</ele>
        <time>2022-03-24T15:49:02.000Z</time>
      </trkpt>
      <trkpt lat="50.42763" lon="3.4955">
        <ele>22</ele>
        <time>2022-03-24T15:49:04.031Z</time>
      </trkpt>
      <trkpt lat="50.42764" lon="3.49558">
        <ele>22</ele>
        <time>2022-03-24T15:49:05.648Z</time>
      </trkpt>
      <trkpt lat="50.42765" lon="3.49569">
        <ele>22</ele>
        <time>2022-03-24T15:49:08.191Z</time>
      </trkpt>
      <trkpt lat="50.42767" lon="3.49578">
        <ele>22</ele>
        <time>2022-03-24T15:49:09.848Z</time>
      </trkpt>
      <trkpt lat="50.42769" lon="3.4959">
        <ele>22</ele>
        <time>2022-03-24T15:49:12.000Z</time>
      </trkpt>
      <trkpt lat="50.42771" lon="3.496">
        <ele>22</ele>
        <time>2022-03-24T15:49:13.970Z</time>
      </trkpt>
      <trkpt lat="50.42773" lon="3.49616">
        <ele>22</ele>
        <time>2022-03-24T15:49:16.640Z</time>
      </trkpt>
      <trkpt lat="50.42775" lon="3.49624">
        <ele>22</ele>
        <time>2022-03-24T15:49:18.000Z</time>
      </trkpt>
      <trkpt lat="50.42777" lon="3.49636">
        <ele>22</ele>
        <time>2022-03-24T15:49:20.050Z</time>
      </trkpt>
      <trkpt lat="50.4278" lon="3.49648">
        <ele>22</ele>
        <time>2022-03-24T15:49:22.000Z</time>
      </trkpt>
      <trkpt lat="50.42782" lon="3.4966">
        <ele>22</ele>
        <time>2022-03-24T15:49:24.000Z</time>
      </trkpt>
      <trkpt lat="50.42785" lon="3.49674">
        <ele>22.2</ele>
        <time>2022-03-24T15:49:26.490Z</time>
      </trkpt>
      <trkpt lat="50.42788" lon="3.49688">
        <ele>22.5</ele>
        <time>2022-03-24T15:49:29.000Z</time>
      </trkpt>
      <trkpt lat="50.42789" lon="3.49698">
        <ele>22.6</ele>
        <time>2022-03-24T15:49:30.988Z</time>
      </trkpt>
      <trkpt lat="50.42791" lon="3.49712">
        <ele>22.8</ele>
        <time>2022-03-24T15:49:33.772Z</time>
      </trkpt>
      <trkpt lat="50.42791" lon="3.49721">
        <ele>23</ele>
        <time>2022-03-24T15:49:35.711Z</time>
      </trkpt>
      <trkpt lat="50.42793" lon="3.49731">
        <ele>23</ele>
        <time>2022-03-24T15:49:38.000Z</time>
      </trkpt>
      <trkpt lat="50.42795" lon="3.49742">
        <ele>23</ele>
        <time>2022-03-24T15:49:40.000Z</time>
      </trkpt>
      <trkpt lat="50.42797" lon="3.49752">
        <ele>23</ele>
        <time>2022-03-24T15:49:42.000Z</time>
      </trkpt>
      <trkpt lat="50.42798" lon="3.49762">
        <ele>23</ele>
        <time>2022-03-24T15:49:44.000Z</time>
      </trkpt>
      <trkpt lat="50.428" lon="3.49772">
        <ele>23</ele>
        <time>2022-03-24T15:49:46.011Z</time>
      </trkpt>
      <trkpt lat="50.42801" lon="3.49782">
        <ele>23</ele>
        <time>2022-03-24T15:49:48.000Z</time>
      </trkpt>
      <trkpt lat="50.42802" lon="3.49792">
        <ele>23</ele>
        <time>2022-03-24T15:49:50.000Z</time>
      </trkpt>
      <trkpt lat="50.42804" lon="3.49802">
        <ele>23</ele>
        <time>2022-03-24T15:49:52.172Z</time>
      </trkpt>
      <trkpt lat="50.42806" lon="3.49811">
        <ele>23</ele>
        <time>2022-03-24T15:49:53.915Z</time>
      </trkpt>
      <trkpt lat="50.42809" lon="3.49821">
        <ele>23</ele>
        <time>2022-03-24T15:49:56.553Z</time>
      </trkpt>
      <trkpt lat="50.4281" lon="3.49831">
        <ele>23</ele>
        <time>2022-03-24T15:49:58.622Z</time>
      </trkpt>
      <trkpt lat="50.42812" lon="3.49842">
        <ele>23</ele>
        <time>2022-03-24T15:50:01.000Z</time>
      </trkpt>
      <trkpt lat="50.42813" lon="3.4985">
        <ele>23</ele>
        <time>2022-03-24T15:50:02.891Z</time>
      </trkpt>
      <trkpt lat="50.42815" lon="3.49859">
        <ele>23</ele>
        <time>2022-03-24T15:50:05.000Z</time>
      </trkpt>
      <trkpt lat="50.42815" lon="3.49867">
        <ele>23</ele>
        <time>2022-03-24T15:50:06.814Z</time>
      </trkpt>
      <trkpt lat="50.42818" lon="3.49876">
        <ele>23</ele>
        <time>2022-03-24T15:50:09.030Z</time>
      </trkpt>
      <trkpt lat="50.42818" lon="3.49886">
        <ele>23</ele>
        <time>2022-03-24T15:50:11.058Z</time>
      </trkpt>
      <trkpt lat="50.42819" lon="3.49895">
        <ele>23</ele>
        <time>2022-03-24T15:50:12.952Z</time>
      </trkpt>
      <trkpt lat="50.42821" lon="3.49908">
        <ele>23</ele>
        <time>2022-03-24T15:50:15.751Z</time>
      </trkpt>
      <trkpt lat="50.42823" lon="3.49919">
        <ele>23</ele>
        <time>2022-03-24T15:50:18.000Z</time>
      </trkpt>
      <trkpt lat="50.42825" lon="3.49931">
        <ele>23</ele>
        <time>2022-03-24T15:50:20.614Z</time>
      </trkpt>
      <trkpt lat="50.42827" lon="3.49941">
        <ele>23</ele>
        <time>2022-03-24T15:50:23.000Z</time>
      </trkpt>
      <trkpt lat="50.42828" lon="3.4995">
        <ele>23</ele>
        <time>2022-03-24T15:50:25.000Z</time>
      </trkpt>
      <trkpt lat="50.42829" lon="3.4996">
        <ele>23</ele>
        <time>2022-03-24T15:50:27.000Z</time>
      </trkpt>
      <trkpt lat="50.4283" lon="3.49971">
        <ele>23</ele>
        <time>2022-03-24T15:50:29.000Z</time>
      </trkpt>
      <trkpt lat="50.42831" lon="3.49983">
        <ele>23</ele>
        <time>2022-03-24T15:50:31.175Z</time>
      </trkpt>
      <trkpt lat="50.42833" lon="3.4999">
        <ele>23</ele>
        <time>2022-03-24T15:50:32.393Z</time>
      </trkpt>
      <trkpt lat="50.42834" lon="3.5">
        <ele>23</ele>
        <time>2022-03-24T15:50:34.000Z</time>
      </trkpt>
      <trkpt lat="50.42836" lon="3.5001">
        <ele>23</ele>
        <time>2022-03-24T15:50:36.000Z</time>
      </trkpt>
      <trkpt lat="50.42838" lon="3.5002">
        <ele>23</ele>
        <time>2022-03-24T15:50:37.969Z</time>
      </trkpt>
      <trkpt lat="50.4284" lon="3.5003">
        <ele>23</ele>
        <time>2022-03-24T15:50:39.991Z</time>
      </trkpt>
      <trkpt lat="50.42841" lon="3.5004">
        <ele>23</ele>
        <time>2022-03-24T15:50:42.137Z</time>
      </trkpt>
      <trkpt lat="50.42845" lon="3.50055">
        <ele>23</ele>
        <time>2022-03-24T15:50:45.152Z</time>
      </trkpt>
      <trkpt lat="50.42846" lon="3.50064">
        <ele>23</ele>
        <time>2022-03-24T15:50:46.650Z</time>
      </trkpt>
      <trkpt lat="50.42846" lon="3.50075">
        <ele>23</ele>
        <time>2022-03-24T15:50:48.849Z</time>
      </trkpt>
      <trkpt lat="50.42848" lon="3.50086">
        <ele>23</ele>
        <time>2022-03-24T15:50:51.000Z</time>
      </trkpt>
      <trkpt lat="50.42851" lon="3.50102">
        <ele>23</ele>
        <time>2022-03-24T15:50:53.768Z</time>
      </trkpt>
      <trkpt lat="50.42852" lon="3.5011">
        <ele>23</ele>
        <time>2022-03-24T15:50:55.000Z</time>
      </trkpt>
      <trkpt lat="50.42854" lon="3.50123">
        <ele>23</ele>
        <time>2022-03-24T15:50:57.132Z</time>
      </trkpt>
      <trkpt lat="50.42856" lon="3.50133">
        <ele>23</ele>
        <time>2022-03-24T15:50:59.000Z</time>
      </trkpt>
      <trkpt lat="50.42857" lon="3.50148">
        <ele>23.3</ele>
        <time>2022-03-24T15:51:02.000Z</time>
      </trkpt>
      <trkpt lat="50.42859" lon="3.50159">
        <ele>23.7</ele>
        <time>2022-03-24T15:51:04.000Z</time>
      </trkpt>
      <trkpt lat="50.4286" lon="3.50171">
        <ele>24</ele>
        <time>2022-03-24T15:51:06.000Z</time>
      </trkpt>
      <trkpt lat="50.42863" lon="3.50181">
        <ele>24</ele>
        <time>2022-03-24T15:51:08.000Z</time>
      </trkpt>
      <trkpt lat="50.42866" lon="3.50193">
        <ele>24</ele>
        <time>2022-03-24T15:51:10.428Z</time>
      </trkpt>
      <trkpt lat="50.42867" lon="3.50204">
        <ele>24</ele>
        <time>2022-03-24T15:51:13.000Z</time>
      </trkpt>
      <trkpt lat="50.42869" lon="3.50214">
        <ele>24</ele>
        <time>2022-03-24T15:51:15.000Z</time>
      </trkpt>
      <trkpt lat="50.4287" lon="3.50224">
        <ele>24</ele>
        <time>2022-03-24T15:51:17.070Z</time>
      </trkpt>
      <trkpt lat="50.42872" lon="3.50238">
        <ele>24</ele>
        <time>2022-03-24T15:51:20.000Z</time>
      </trkpt>
      <trkpt lat="50.42874" lon="3.50248">
        <ele>24</ele>
        <time>2022-03-24T15:51:22.088Z</time>
      </trkpt>
      <trkpt lat="50.42876" lon="3.50256">
        <ele>24</ele>
        <time>2022-03-24T15:51:24.000Z</time>
      </trkpt>
      <trkpt lat="50.42877" lon="3.50267">
        <ele>24</ele>
        <time>2022-03-24T15:51:26.393Z</time>
      </trkpt>
      <trkpt lat="50.42879" lon="3.50274">
        <ele>24</ele>
        <time>2022-03-24T15:51:28.000Z</time>
      </trkpt>
      <trkpt lat="50.42882" lon="3.50288">
        <ele>24</ele>
        <time>2022-03-24T15:51:31.000Z</time>
      </trkpt>
      <trkpt lat="50.42883" lon="3.50297">
        <ele>24</ele>
        <time>2022-03-24T15:51:33.000Z</time>
      </trkpt>
      <trkpt lat="50.42885" lon="3.50309">
        <ele>24</ele>
        <time>2022-03-24T15:51:35.813Z</time>
      </trkpt>
      <trkpt lat="50.42888" lon="3.50318">
        <ele>24</ele>
        <time>2022-03-24T15:51:38.000Z</time>
      </trkpt>
      <trkpt lat="50.42888" lon="3.50326">
        <ele>24</ele>
        <time>2022-03-24T15:51:40.000Z</time>
      </trkpt>
      <trkpt lat="50.42889" lon="3.50333">
        <ele>24</ele>
        <time>2022-03-24T15:51:42.000Z</time>
      </trkpt>
      <trkpt lat="50.4289" lon="3.50343">
        <ele>24</ele>
        <time>2022-03-24T15:51:44.491Z</time>
      </trkpt>
      <trkpt lat="50.42891" lon="3.50355">
        <ele>24</ele>
        <time>2022-03-24T15:51:47.092Z</time>
      </trkpt>
      <trkpt lat="50.42892" lon="3.50365">
        <ele>24</ele>
        <time>2022-03-24T15:51:49.000Z</time>
      </trkpt>
      <trkpt lat="50.42893" lon="3.50374">
        <ele>24</ele>
        <time>2022-03-24T15:51:51.000Z</time>
      </trkpt>
      <trkpt lat="50.42896" lon="3.50383">
        <ele>24</ele>
        <time>2022-03-24T15:51:53.110Z</time>
      </trkpt>
      <trkpt lat="50.42899" lon="3.50391">
        <ele>24</ele>
        <time>2022-03-24T15:51:55.056Z</time>
      </trkpt>
      <trkpt lat="50.42899" lon="3.50399">
        <ele>24</ele>
        <time>2022-03-24T15:51:56.931Z</time>
      </trkpt>
      <trkpt lat="50.429" lon="3.50409">
        <ele>24</ele>
        <time>2022-03-24T15:51:59.172Z</time>
      </trkpt>
      <trkpt lat="50.42901" lon="3.50417">
        <ele>24</ele>
        <time>2022-03-24T15:52:00.854Z</time>
      </trkpt>
      <trkpt lat="50.42903" lon="3.50425">
        <ele>24</ele>
        <time>2022-03-24T15:52:03.000Z</time>
      </trkpt>
      <trkpt lat="50.42905" lon="3.50434">
        <ele>24</ele>
        <time>2022-03-24T15:52:05.116Z</time>
      </trkpt>
      <trkpt lat="50.42907" lon="3.50441">
        <ele>24</ele>
        <time>2022-03-24T15:52:07.000Z</time>
      </trkpt>
      <trkpt lat="50.42908" lon="3.5045">
        <ele>24</ele>
        <time>2022-03-24T15:52:09.000Z</time>
      </trkpt>
      <trkpt lat="50.42909" lon="3.50458">
        <ele>24</ele>
        <time>2022-03-24T15:52:11.000Z</time>
      </trkpt>
      <trkpt lat="50.4291" lon="3.50466">
        <ele>24</ele>
        <time>2022-03-24T15:52:13.000Z</time>
      </trkpt>
      <trkpt lat="50.42913" lon="3.50476">
        <ele>24</ele>
        <time>2022-03-24T15:52:15.652Z</time>
      </trkpt>
      <trkpt lat="50.42914" lon="3.50485">
        <ele>24</ele>
        <time>2022-03-24T15:52:18.000Z</time>
      </trkpt>
      <trkpt lat="50.42916" lon="3.50498">
        <ele>24</ele>
        <time>2022-03-24T15:52:21.068Z</time>
      </trkpt>
      <trkpt lat="50.42916" lon="3.50506">
        <ele>24</ele>
        <time>2022-03-24T15:52:23.000Z</time>
      </trkpt>
      <trkpt lat="50.42917" lon="3.50515">
        <ele>24</ele>
        <time>2022-03-24T15:52:25.000Z</time>
      </trkpt>
      <trkpt lat="50.42918" lon="3.50525">
        <ele>24</ele>
        <time>2022-03-24T15:52:28.050Z</time>
      </trkpt>
      <trkpt lat="50.42919" lon="3.50532">
        <ele>24</ele>
        <time>2022-03-24T15:52:30.013Z</time>
      </trkpt>
      <trkpt lat="50.4292" lon="3.50543">
        <ele>24</ele>
        <time>2022-03-24T15:52:33.000Z</time>
      </trkpt>
      <trkpt lat="50.4292" lon="3.50552">
        <ele>24</ele>
        <time>2022-03-24T15:52:35.000Z</time>
      </trkpt>
      <trkpt lat="50.42921" lon="3.50559">
        <ele>24</ele>
        <time>2022-03-24T15:52:37.050Z</time>
      </trkpt>
      <trkpt lat="50.42923" lon="3.50568">
        <ele>24</ele>
        <time>2022-03-24T15:52:39.636Z</time>
      </trkpt>
      <trkpt lat="50.42924" lon="3.50576">
        <ele>24</ele>
        <time>2022-03-24T15:52:42.110Z</time>
      </trkpt>
      <trkpt lat="50.42925" lon="3.50584">
        <ele>24</ele>
        <time>2022-03-24T15:52:44.086Z</time>
      </trkpt>
      <trkpt lat="50.42927" lon="3.50594">
        <ele>24</ele>
        <time>2022-03-24T15:52:46.000Z</time>
      </trkpt>
      <trkpt lat="50.4293" lon="3.50607">
        <ele>24</ele>
        <time>2022-03-24T15:52:49.000Z</time>
      </trkpt>
      <trkpt lat="50.42932" lon="3.50616">
        <ele>24</ele>
        <time>2022-03-24T15:52:51.189Z</time>
      </trkpt>
      <trkpt lat="50.42934" lon="3.50626">
        <ele>24</ele>
        <time>2022-03-24T15:52:53.751Z</time>
      </trkpt>
      <trkpt lat="50.42935" lon="3.50635">
        <ele>24</ele>
        <time>2022-03-24T15:52:56.000Z</time>
      </trkpt>
      <trkpt lat="50.42936" lon="3.50644">
        <ele>24</ele>
        <time>2022-03-24T15:52:58.409Z</time>
      </trkpt>
      <trkpt lat="50.42937" lon="3.50653">
        <ele>24</ele>
        <time>2022-03-24T15:53:00.710Z</time>
      </trkpt>
      <trkpt lat="50.42937" lon="3.50661">
        <ele>24</ele>
        <time>2022-03-24T15:53:03.000Z</time>
      </trkpt>
      <trkpt lat="50.42939" lon="3.50668">
        <ele>24</ele>
        <time>2022-03-24T15:53:05.000Z</time>
      </trkpt>
      <trkpt lat="50.4294" lon="3.50676">
        <ele>24</ele>
        <time>2022-03-24T15:53:07.089Z</time>
      </trkpt>
      <trkpt lat="50.4294" lon="3.50686">
        <ele>24</ele>
        <time>2022-03-24T15:53:09.830Z</time>
      </trkpt>
      <trkpt lat="50.42942" lon="3.50693">
        <ele>24</ele>
        <time>2022-03-24T15:53:12.000Z</time>
      </trkpt>
      <trkpt lat="50.42943" lon="3.50699">
        <ele>24</ele>
        <time>2022-03-24T15:53:14.000Z</time>
      </trkpt>
      <trkpt lat="50.42943" lon="3.50707">
        <ele>24</ele>
        <time>2022-03-24T15:53:16.150Z</time>
      </trkpt>
      <trkpt lat="50.42945" lon="3.50718">
        <ele>24</ele>
        <time>2022-03-24T15:53:18.812Z</time>
      </trkpt>
      <trkpt lat="50.42946" lon="3.50726">
        <ele>24</ele>
        <time>2022-03-24T15:53:21.000Z</time>
      </trkpt>
      <trkpt lat="50.42948" lon="3.50733">
        <ele>24</ele>
        <time>2022-03-24T15:53:23.070Z</time>
      </trkpt>
      <trkpt lat="50.4295" lon="3.50741">
        <ele>24</ele>
        <time>2022-03-24T15:53:25.951Z</time>
      </trkpt>
      <trkpt lat="50.42951" lon="3.5075">
        <ele>24</ele>
        <time>2022-03-24T15:53:28.351Z</time>
      </trkpt>
      <trkpt lat="50.42952" lon="3.50757">
        <ele>24.2</ele>
        <time>2022-03-24T15:53:30.449Z</time>
      </trkpt>
      <trkpt lat="50.42953" lon="3.50765">
        <ele>24.4</ele>
        <time>2022-03-24T15:53:33.000Z</time>
      </trkpt>
      <trkpt lat="50.42955" lon="3.50778">
        <ele>24.6</ele>
        <time>2022-03-24T15:53:37.154Z</time>
      </trkpt>
      <trkpt lat="50.42957" lon="3.50787">
        <ele>24.7</ele>
        <time>2022-03-24T15:53:39.950Z</time>
      </trkpt>
      <trkpt lat="50.42958" lon="3.50797">
        <ele>24.8</ele>
        <time>2022-03-24T15:53:43.000Z</time>
      </trkpt>
      <trkpt lat="50.42959" lon="3.50804">
        <ele>25</ele>
        <time>2022-03-24T15:53:45.332Z</time>
      </trkpt>
      <trkpt lat="50.4296" lon="3.50814">
        <ele>25.1</ele>
        <time>2022-03-24T15:53:47.828Z</time>
      </trkpt>
      <trkpt lat="50.42962" lon="3.50821">
        <ele>25.2</ele>
        <time>2022-03-24T15:53:50.000Z</time>
      </trkpt>
      <trkpt lat="50.42963" lon="3.50831">
        <ele>25.3</ele>
        <time>2022-03-24T15:53:53.000Z</time>
      </trkpt>
      <trkpt lat="50.42966" lon="3.5084">
        <ele>25.5</ele>
        <time>2022-03-24T15:53:56.179Z</time>
      </trkpt>
      <trkpt lat="50.42968" lon="3.5085">
        <ele>25.8</ele>
        <time>2022-03-24T15:53:58.808Z</time>
      </trkpt>
      <trkpt lat="50.42969" lon="3.50857">
        <ele>26</ele>
        <time>2022-03-24T15:54:00.890Z</time>
      </trkpt>
      <trkpt lat="50.42969" lon="3.50864">
        <ele>26.2</ele>
        <time>2022-03-24T15:54:03.028Z</time>
      </trkpt>
      <trkpt lat="50.42971" lon="3.50876">
        <ele>26.6</ele>
        <time>2022-03-24T15:54:06.000Z</time>
      </trkpt>
      <trkpt lat="50.42972" lon="3.50884">
        <ele>26.8</ele>
        <time>2022-03-24T15:54:07.968Z</time>
      </trkpt>
      <trkpt lat="50.42973" lon="3.5089">
        <ele>27</ele>
        <time>2022-03-24T15:54:10.000Z</time>
      </trkpt>
      <trkpt lat="50.42973" lon="3.509">
        <ele>27</ele>
        <time>2022-03-24T15:54:13.000Z</time>
      </trkpt>
      <trkpt lat="50.42975" lon="3.50907">
        <ele>27</ele>
        <time>2022-03-24T15:54:16.092Z</time>
      </trkpt>
      <trkpt lat="50.42979" lon="3.50911">
        <ele>27</ele>
        <time>2022-03-24T15:54:19.113Z</time>
      </trkpt>
      <trkpt lat="50.42983" lon="3.50917">
        <ele>27</ele>
        <time>2022-03-24T15:54:22.000Z</time>
      </trkpt>
      <trkpt lat="50.42988" lon="3.50922">
        <ele>27.2</ele>
        <time>2022-03-24T15:54:25.000Z</time>
      </trkpt>
      <trkpt lat="50.42993" lon="3.50926">
        <ele>27.3</ele>
        <time>2022-03-24T15:54:27.000Z</time>
      </trkpt>
      <trkpt lat="50.42998" lon="3.50932">
        <ele>27.6</ele>
        <time>2022-03-24T15:54:29.000Z</time>
      </trkpt>
      <trkpt lat="50.43005" lon="3.50938">
        <ele>27.6</ele>
        <time>2022-03-24T15:54:31.641Z</time>
      </trkpt>
      <trkpt lat="50.43011" lon="3.50943">
        <ele>27.6</ele>
        <time>2022-03-24T15:54:33.949Z</time>
      </trkpt>
      <trkpt lat="50.43018" lon="3.50949">
        <ele>27.5</ele>
        <time>2022-03-24T15:54:36.617Z</time>
      </trkpt>
      <trkpt lat="50.43025" lon="3.50955">
        <ele>27.4</ele>
        <time>2022-03-24T15:54:39.109Z</time>
      </trkpt>
      <trkpt lat="50.4303" lon="3.5096">
        <ele>27.5</ele>
        <time>2022-03-24T15:54:41.000Z</time>
      </trkpt>
      <trkpt lat="50.43037" lon="3.50965">
        <ele>27.4</ele>
        <time>2022-03-24T15:54:44.000Z</time>
      </trkpt>
      <trkpt lat="50.43042" lon="3.50969">
        <ele>27.4</ele>
        <time>2022-03-24T15:54:45.989Z</time>
      </trkpt>
      <trkpt lat="50.43047" lon="3.50973">
        <ele>27.3</ele>
        <time>2022-03-24T15:54:48.154Z</time>
      </trkpt>
      <trkpt lat="50.43054" lon="3.50978">
        <ele>27.1</ele>
        <time>2022-03-24T15:54:50.190Z</time>
      </trkpt>
      <trkpt lat="50.43061" lon="3.50981">
        <ele>26.9</ele>
        <time>2022-03-24T15:54:52.269Z</time>
      </trkpt>
      <trkpt lat="50.43069" lon="3.50986">
        <ele>26.8</ele>
        <time>2022-03-24T15:54:55.031Z</time>
      </trkpt>
      <trkpt lat="50.43074" lon="3.50989">
        <ele>26.7</ele>
        <time>2022-03-24T15:54:57.050Z</time>
      </trkpt>
      <trkpt lat="50.4308" lon="3.50994">
        <ele>26.8</ele>
        <time>2022-03-24T15:54:59.167Z</time>
      </trkpt>
      <trkpt lat="50.43086" lon="3.50998">
        <ele>26.9</ele>
        <time>2022-03-24T15:55:01.000Z</time>
      </trkpt>
      <trkpt lat="50.43091" lon="3.51003">
        <ele>27.1</ele>
        <time>2022-03-24T15:55:03.169Z</time>
      </trkpt>
      <trkpt lat="50.43096" lon="3.51007">
        <ele>27.1</ele>
        <time>2022-03-24T15:55:05.087Z</time>
      </trkpt>
      <trkpt lat="50.43101" lon="3.51013">
        <ele>27.2</ele>
        <time>2022-03-24T15:55:07.129Z</time>
      </trkpt>
      <trkpt lat="50.43107" lon="3.51018">
        <ele>27.1</ele>
        <time>2022-03-24T15:55:09.169Z</time>
      </trkpt>
      <trkpt lat="50.43113" lon="3.51024">
        <ele>27</ele>
        <time>2022-03-24T15:55:12.175Z</time>
      </trkpt>
      <trkpt lat="50.43117" lon="3.51031">
        <ele>27.1</ele>
        <time>2022-03-24T15:55:14.929Z</time>
      </trkpt>
      <trkpt lat="50.43124" lon="3.51037">
        <ele>27.2</ele>
        <time>2022-03-24T15:55:18.000Z</time>
      </trkpt>
      <trkpt lat="50.43129" lon="3.51045">
        <ele>27.2</ele>
        <time>2022-03-24T15:55:20.645Z</time>
      </trkpt>
      <trkpt lat="50.43133" lon="3.5105">
        <ele>27.2</ele>
        <time>2022-03-24T15:55:22.649Z</time>
      </trkpt>
      <trkpt lat="50.43137" lon="3.51056">
        <ele>27.1</ele>
        <time>2022-03-24T15:55:25.089Z</time>
      </trkpt>
      <trkpt lat="50.43141" lon="3.51063">
        <ele>27.3</ele>
        <time>2022-03-24T15:55:27.147Z</time>
      </trkpt>
      <trkpt lat="50.43144" lon="3.51068">
        <ele>27.4</ele>
        <time>2022-03-24T15:55:28.949Z</time>
      </trkpt>
      <trkpt lat="50.4315" lon="3.51076">
        <ele>27.7</ele>
        <time>2022-03-24T15:55:32.000Z</time>
      </trkpt>
      <trkpt lat="50.43154" lon="3.51082">
        <ele>28</ele>
        <time>2022-03-24T15:55:34.129Z</time>
      </trkpt>
      <trkpt lat="50.43158" lon="3.5109">
        <ele>28.2</ele>
        <time>2022-03-24T15:55:36.970Z</time>
      </trkpt>
      <trkpt lat="50.43162" lon="3.51096">
        <ele>28.5</ele>
        <time>2022-03-24T15:55:39.990Z</time>
      </trkpt>
      <trkpt lat="50.43165" lon="3.51103">
        <ele>28.7</ele>
        <time>2022-03-24T15:55:42.530Z</time>
      </trkpt>
      <trkpt lat="50.43169" lon="3.51109">
        <ele>28.9</ele>
        <time>2022-03-24T15:55:45.000Z</time>
      </trkpt>
      <trkpt lat="50.43173" lon="3.51115">
        <ele>29.1</ele>
        <time>2022-03-24T15:55:48.000Z</time>
      </trkpt>
      <trkpt lat="50.43177" lon="3.51121">
        <ele>29.4</ele>
        <time>2022-03-24T15:55:51.131Z</time>
      </trkpt>
      <trkpt lat="50.43182" lon="3.51125">
        <ele>29.5</ele>
        <time>2022-03-24T15:55:54.000Z</time>
      </trkpt>
      <trkpt lat="50.43187" lon="3.51133">
        <ele>29.8</ele>
        <time>2022-03-24T15:55:57.471Z</time>
      </trkpt>
      <trkpt lat="50.43193" lon="3.5114">
        <ele>30</ele>
        <time>2022-03-24T15:56:00.000Z</time>
      </trkpt>
      <trkpt lat="50.43199" lon="3.5115">
        <ele>29.9</ele>
        <time>2022-03-24T15:56:02.871Z</time>
      </trkpt>
      <trkpt lat="50.43205" lon="3.5116">
        <ele>29.9</ele>
        <time>2022-03-24T15:56:06.000Z</time>
      </trkpt>
      <trkpt lat="50.43209" lon="3.51167">
        <ele>30</ele>
        <time>2022-03-24T15:56:07.870Z</time>
      </trkpt>
      <trkpt lat="50.43214" lon="3.51173">
        <ele>30.2</ele>
        <time>2022-03-24T15:56:10.000Z</time>
      </trkpt>
      <trkpt lat="50.43218" lon="3.51179">
        <ele>30.4</ele>
        <time>2022-03-24T15:56:12.000Z</time>
      </trkpt>
      <trkpt lat="50.43223" lon="3.51184">
        <ele>30.6</ele>
        <time>2022-03-24T15:56:14.000Z</time>
      </trkpt>
      <trkpt lat="50.43227" lon="3.5119">
        <ele>30.7</ele>
        <time>2022-03-24T15:56:16.548Z</time>
      </trkpt>
      <trkpt lat="50.43231" lon="3.51195">
        <ele>30.7</ele>
        <time>2022-03-24T15:56:18.690Z</time>
      </trkpt>
      <trkpt lat="50.43235" lon="3.51201">
        <ele>30.6</ele>
        <time>2022-03-24T15:56:20.969Z</time>
      </trkpt>
      <trkpt lat="50.43239" lon="3.51206">
        <ele>30.6</ele>
        <time>2022-03-24T15:56:23.093Z</time>
      </trkpt>
      <trkpt lat="50.43244" lon="3.51213">
        <ele>30.7</ele>
        <time>2022-03-24T15:56:26.000Z</time>
      </trkpt>
      <trkpt lat="50.43247" lon="3.51218">
        <ele>30.9</ele>
        <time>2022-03-24T15:56:28.000Z</time>
      </trkpt>
      <trkpt lat="50.43251" lon="3.51224">
        <ele>31</ele>
        <time>2022-03-24T15:56:30.050Z</time>
      </trkpt>
      <trkpt lat="50.43256" lon="3.51231">
        <ele>30.9</ele>
        <time>2022-03-24T15:56:32.176Z</time>
      </trkpt>
      <trkpt lat="50.4326" lon="3.51237">
        <ele>30.8</ele>
        <time>2022-03-24T15:56:33.970Z</time>
      </trkpt>
      <trkpt lat="50.43265" lon="3.51243">
        <ele>30.9</ele>
        <time>2022-03-24T15:56:36.630Z</time>
      </trkpt>
      <trkpt lat="50.4327" lon="3.51249">
        <ele>31</ele>
        <time>2022-03-24T15:56:38.891Z</time>
      </trkpt>
      <trkpt lat="50.43275" lon="3.51255">
        <ele>31.2</ele>
        <time>2022-03-24T15:56:41.051Z</time>
      </trkpt>
      <trkpt lat="50.43281" lon="3.51261">
        <ele>31.4</ele>
        <time>2022-03-24T15:56:43.152Z</time>
      </trkpt>
      <trkpt lat="50.43286" lon="3.5127">
        <ele>31.7</ele>
        <time>2022-03-24T15:56:45.451Z</time>
      </trkpt>
      <trkpt lat="50.43292" lon="3.51277">
        <ele>32</ele>
        <time>2022-03-24T15:56:47.909Z</time>
      </trkpt>
      <trkpt lat="50.43297" lon="3.51284">
        <ele>32</ele>
        <time>2022-03-24T15:56:49.827Z</time>
      </trkpt>
      <trkpt lat="50.43302" lon="3.5129">
        <ele>32</ele>
        <time>2022-03-24T15:56:51.888Z</time>
      </trkpt>
      <trkpt lat="50.43309" lon="3.51299">
        <ele>32</ele>
        <time>2022-03-24T15:56:54.692Z</time>
      </trkpt>
      <trkpt lat="50.43314" lon="3.51306">
        <ele>32</ele>
        <time>2022-03-24T15:56:56.771Z</time>
      </trkpt>
      <trkpt lat="50.43318" lon="3.51313">
        <ele>32.3</ele>
        <time>2022-03-24T15:56:58.950Z</time>
      </trkpt>
      <trkpt lat="50.43324" lon="3.51322">
        <ele>32.6</ele>
        <time>2022-03-24T15:57:01.528Z</time>
      </trkpt>
      <trkpt lat="50.4333" lon="3.5133">
        <ele>32.9</ele>
        <time>2022-03-24T15:57:04.000Z</time>
      </trkpt>
      <trkpt lat="50.43335" lon="3.51336">
        <ele>33</ele>
        <time>2022-03-24T15:57:06.000Z</time>
      </trkpt>
      <trkpt lat="50.43339" lon="3.51342">
        <ele>33</ele>
        <time>2022-03-24T15:57:07.970Z</time>
      </trkpt>
      <trkpt lat="50.43344" lon="3.51348">
        <ele>33</ele>
        <time>2022-03-24T15:57:10.000Z</time>
      </trkpt>
      <trkpt lat="50.4335" lon="3.51356">
        <ele>33</ele>
        <time>2022-03-24T15:57:13.031Z</time>
      </trkpt>
      <trkpt lat="50.43353" lon="3.51362">
        <ele>33</ele>
        <time>2022-03-24T15:57:15.000Z</time>
      </trkpt>
      <trkpt lat="50.43357" lon="3.51369">
        <ele>33.3</ele>
        <time>2022-03-24T15:57:17.173Z</time>
      </trkpt>
      <trkpt lat="50.43362" lon="3.51377">
        <ele>33.6</ele>
        <time>2022-03-24T15:57:19.531Z</time>
      </trkpt>
      <trkpt lat="50.43366" lon="3.51384">
        <ele>33.8</ele>
        <time>2022-03-24T15:57:21.870Z</time>
      </trkpt>
      <trkpt lat="50.43371" lon="3.5139">
        <ele>34</ele>
        <time>2022-03-24T15:57:23.973Z</time>
      </trkpt>
      <trkpt lat="50.43375" lon="3.51396">
        <ele>34</ele>
        <time>2022-03-24T15:57:26.000Z</time>
      </trkpt>
      <trkpt lat="50.4338" lon="3.51402">
        <ele>34</ele>
        <time>2022-03-24T15:57:28.792Z</time>
      </trkpt>
      <trkpt lat="50.43384" lon="3.51408">
        <ele>34</ele>
        <time>2022-03-24T15:57:31.000Z</time>
      </trkpt>
      <trkpt lat="50.43388" lon="3.51414">
        <ele>34</ele>
        <time>2022-03-24T15:57:33.000Z</time>
      </trkpt>
      <trkpt lat="50.43391" lon="3.51419">
        <ele>34</ele>
        <time>2022-03-24T15:57:34.951Z</time>
      </trkpt>
      <trkpt lat="50.43396" lon="3.51427">
        <ele>34</ele>
        <time>2022-03-24T15:57:37.911Z</time>
      </trkpt>
      <trkpt lat="50.43401" lon="3.51434">
        <ele>34</ele>
        <time>2022-03-24T15:57:41.095Z</time>
      </trkpt>
      <trkpt lat="50.43407" lon="3.5144">
        <ele>34</ele>
        <time>2022-03-24T15:57:44.000Z</time>
      </trkpt>
      <trkpt lat="50.43412" lon="3.51447">
        <ele>34</ele>
        <time>2022-03-24T15:57:47.197Z</time>
      </trkpt>
      <trkpt lat="50.43416" lon="3.51455">
        <ele>34</ele>
        <time>2022-03-24T15:57:49.892Z</time>
      </trkpt>
      <trkpt lat="50.43419" lon="3.51461">
        <ele>34</ele>
        <time>2022-03-24T15:57:52.000Z</time>
      </trkpt>
      <trkpt lat="50.43423" lon="3.51465">
        <ele>34</ele>
        <time>2022-03-24T15:57:54.000Z</time>
      </trkpt>
      <trkpt lat="50.43426" lon="3.51471">
        <ele>34</ele>
        <time>2022-03-24T15:57:56.218Z</time>
      </trkpt>
      <trkpt lat="50.43431" lon="3.51478">
        <ele>34.1</ele>
        <time>2022-03-24T15:57:58.849Z</time>
      </trkpt>
      <trkpt lat="50.43436" lon="3.51485">
        <ele>34.3</ele>
        <time>2022-03-24T15:58:01.113Z</time>
      </trkpt>
      <trkpt lat="50.43442" lon="3.51493">
        <ele>34.7</ele>
        <time>2022-03-24T15:58:03.890Z</time>
      </trkpt>
      <trkpt lat="50.43446" lon="3.51497">
        <ele>34.8</ele>
        <time>2022-03-24T15:58:06.000Z</time>
      </trkpt>
      <trkpt lat="50.4345" lon="3.51502">
        <ele>34.8</ele>
        <time>2022-03-24T15:58:08.000Z</time>
      </trkpt>
      <trkpt lat="50.43454" lon="3.51507">
        <ele>34.7</ele>
        <time>2022-03-24T15:58:10.000Z</time>
      </trkpt>
      <trkpt lat="50.43457" lon="3.51511">
        <ele>34.7</ele>
        <time>2022-03-24T15:58:12.000Z</time>
      </trkpt>
      <trkpt lat="50.43462" lon="3.51518">
        <ele>34.8</ele>
        <time>2022-03-24T15:58:15.000Z</time>
      </trkpt>
      <trkpt lat="50.43466" lon="3.51527">
        <ele>35</ele>
        <time>2022-03-24T15:58:18.189Z</time>
      </trkpt>
      <trkpt lat="50.43471" lon="3.51534">
        <ele>35</ele>
        <time>2022-03-24T15:58:21.000Z</time>
      </trkpt>
      <trkpt lat="50.43475" lon="3.5154">
        <ele>34.9</ele>
        <time>2022-03-24T15:58:23.000Z</time>
      </trkpt>
      <trkpt lat="50.43479" lon="3.51546">
        <ele>34.8</ele>
        <time>2022-03-24T15:58:25.189Z</time>
      </trkpt>
      <trkpt lat="50.43485" lon="3.51553">
        <ele>34.5</ele>
        <time>2022-03-24T15:58:28.000Z</time>
      </trkpt>
      <trkpt lat="50.4349" lon="3.5156">
        <ele>34.5</ele>
        <time>2022-03-24T15:58:30.649Z</time>
      </trkpt>
      <trkpt lat="50.43496" lon="3.51566">
        <ele>34.5</ele>
        <time>2022-03-24T15:58:33.090Z</time>
      </trkpt>
      <trkpt lat="50.43499" lon="3.51571">
        <ele>34.6</ele>
        <time>2022-03-24T15:58:35.049Z</time>
      </trkpt>
      <trkpt lat="50.43503" lon="3.51577">
        <ele>34.8</ele>
        <time>2022-03-24T15:58:37.134Z</time>
      </trkpt>
      <trkpt lat="50.43507" lon="3.51583">
        <ele>35</ele>
        <time>2022-03-24T15:58:39.000Z</time>
      </trkpt>
      <trkpt lat="50.43511" lon="3.51589">
        <ele>35</ele>
        <time>2022-03-24T15:58:40.950Z</time>
      </trkpt>
      <trkpt lat="50.43516" lon="3.51596">
        <ele>35</ele>
        <time>2022-03-24T15:58:42.970Z</time>
      </trkpt>
      <trkpt lat="50.43522" lon="3.51603">
        <ele>35</ele>
        <time>2022-03-24T15:58:44.930Z</time>
      </trkpt>
      <trkpt lat="50.43527" lon="3.51612">
        <ele>35</ele>
        <time>2022-03-24T15:58:47.050Z</time>
      </trkpt>
      <trkpt lat="50.43533" lon="3.51621">
        <ele>35</ele>
        <time>2022-03-24T15:58:49.000Z</time>
      </trkpt>
      <trkpt lat="50.43539" lon="3.51631">
        <ele>35</ele>
        <time>2022-03-24T15:58:51.000Z</time>
      </trkpt>
      <trkpt lat="50.43544" lon="3.51639">
        <ele>35</ele>
        <time>2022-03-24T15:58:52.733Z</time>
      </trkpt>
      <trkpt lat="50.43548" lon="3.51644">
        <ele>35</ele>
        <time>2022-03-24T15:58:54.012Z</time>
      </trkpt>
      <trkpt lat="50.43551" lon="3.51649">
        <ele>35</ele>
        <time>2022-03-24T15:58:55.195Z</time>
      </trkpt>
      <trkpt lat="50.43557" lon="3.51657">
        <ele>35</ele>
        <time>2022-03-24T15:58:56.888Z</time>
      </trkpt>
      <trkpt lat="50.43561" lon="3.51663">
        <ele>35</ele>
        <time>2022-03-24T15:58:58.151Z</time>
      </trkpt>
      <trkpt lat="50.43567" lon="3.51672">
        <ele>35</ele>
        <time>2022-03-24T15:59:00.000Z</time>
      </trkpt>
      <trkpt lat="50.43572" lon="3.5168">
        <ele>35</ele>
        <time>2022-03-24T15:59:01.752Z</time>
      </trkpt>
      <trkpt lat="50.43579" lon="3.51689">
        <ele>35</ele>
        <time>2022-03-24T15:59:03.831Z</time>
      </trkpt>
      <trkpt lat="50.43583" lon="3.51695">
        <ele>35</ele>
        <time>2022-03-24T15:59:05.088Z</time>
      </trkpt>
      <trkpt lat="50.43589" lon="3.51704">
        <ele>35</ele>
        <time>2022-03-24T15:59:07.000Z</time>
      </trkpt>
      <trkpt lat="50.43595" lon="3.51713">
        <ele>35</ele>
        <time>2022-03-24T15:59:09.000Z</time>
      </trkpt>
      <trkpt lat="50.43602" lon="3.51722">
        <ele>35</ele>
        <time>2022-03-24T15:59:11.271Z</time>
      </trkpt>
      <trkpt lat="50.43608" lon="3.51731">
        <ele>35</ele>
        <time>2022-03-24T15:59:13.350Z</time>
      </trkpt>
      <trkpt lat="50.43615" lon="3.51739">
        <ele>35</ele>
        <time>2022-03-24T15:59:15.000Z</time>
      </trkpt>
      <trkpt lat="50.43618" lon="3.51744">
        <ele>35</ele>
        <time>2022-03-24T15:59:16.000Z</time>
      </trkpt>
      <trkpt lat="50.43626" lon="3.51752">
        <ele>35</ele>
        <time>2022-03-24T15:59:18.000Z</time>
      </trkpt>
      <trkpt lat="50.43629" lon="3.51758">
        <ele>35</ele>
        <time>2022-03-24T15:59:19.000Z</time>
      </trkpt>
      <trkpt lat="50.43632" lon="3.51763">
        <ele>35</ele>
        <time>2022-03-24T15:59:20.000Z</time>
      </trkpt>
      <trkpt lat="50.43636" lon="3.51768">
        <ele>35</ele>
        <time>2022-03-24T15:59:21.000Z</time>
      </trkpt>
      <trkpt lat="50.43645" lon="3.51776">
        <ele>35</ele>
        <time>2022-03-24T15:59:24.656Z</time>
      </trkpt>
      <trkpt lat="50.43649" lon="3.51782">
        <ele>35</ele>
        <time>2022-03-24T15:59:25.625Z</time>
      </trkpt>
      <trkpt lat="50.43653" lon="3.5179">
        <ele>35</ele>
        <time>2022-03-24T15:59:26.975Z</time>
      </trkpt>
      <trkpt lat="50.43656" lon="3.51797">
        <ele>35</ele>
        <time>2022-03-24T15:59:28.000Z</time>
      </trkpt>
      <trkpt lat="50.4366" lon="3.51802">
        <ele>35</ele>
        <time>2022-03-24T15:59:29.000Z</time>
      </trkpt>
      <trkpt lat="50.43664" lon="3.51807">
        <ele>35</ele>
        <time>2022-03-24T15:59:30.138Z</time>
      </trkpt>
      <trkpt lat="50.43667" lon="3.51813">
        <ele>35</ele>
        <time>2022-03-24T15:59:31.196Z</time>
      </trkpt>
      <trkpt lat="50.43671" lon="3.5182">
        <ele>35</ele>
        <time>2022-03-24T15:59:32.415Z</time>
      </trkpt>
      <trkpt lat="50.43678" lon="3.5183">
        <ele>35</ele>
        <time>2022-03-24T15:59:34.000Z</time>
      </trkpt>
      <trkpt lat="50.43682" lon="3.51835">
        <ele>35</ele>
        <time>2022-03-24T15:59:35.000Z</time>
      </trkpt>
      <trkpt lat="50.43686" lon="3.5184">
        <ele>35</ele>
        <time>2022-03-24T15:59:36.000Z</time>
      </trkpt>
      <trkpt lat="50.43691" lon="3.51845">
        <ele>35</ele>
        <time>2022-03-24T15:59:37.000Z</time>
      </trkpt>
      <trkpt lat="50.43695" lon="3.51851">
        <ele>35</ele>
        <time>2022-03-24T15:59:38.000Z</time>
      </trkpt>
      <trkpt lat="50.43699" lon="3.51856">
        <ele>35</ele>
        <time>2022-03-24T15:59:39.000Z</time>
      </trkpt>
      <trkpt lat="50.43702" lon="3.51862">
        <ele>35</ele>
        <time>2022-03-24T15:59:40.000Z</time>
      </trkpt>
      <trkpt lat="50.43706" lon="3.51867">
        <ele>35</ele>
        <time>2022-03-24T15:59:41.000Z</time>
      </trkpt>
      <trkpt lat="50.4371" lon="3.51873">
        <ele>35</ele>
        <time>2022-03-24T15:59:42.000Z</time>
      </trkpt>
      <trkpt lat="50.43714" lon="3.51879">
        <ele>35</ele>
        <time>2022-03-24T15:59:43.000Z</time>
      </trkpt>
      <trkpt lat="50.43718" lon="3.51885">
        <ele>35</ele>
        <time>2022-03-24T15:59:44.000Z</time>
      </trkpt>
      <trkpt lat="50.43722" lon="3.5189">
        <ele>35</ele>
        <time>2022-03-24T15:59:45.000Z</time>
      </trkpt>
      <trkpt lat="50.43727" lon="3.51896">
        <ele>35</ele>
        <time>2022-03-24T15:59:46.000Z</time>
      </trkpt>
      <trkpt lat="50.43731" lon="3.51901">
        <ele>35</ele>
        <time>2022-03-24T15:59:47.000Z</time>
      </trkpt>
      <trkpt lat="50.43735" lon="3.51906">
        <ele>35</ele>
        <time>2022-03-24T15:59:48.000Z</time>
      </trkpt>
      <trkpt lat="50.43739" lon="3.51912">
        <ele>35</ele>
        <time>2022-03-24T15:59:49.000Z</time>
      </trkpt>
      <trkpt lat="50.43743" lon="3.51917">
        <ele>35</ele>
        <time>2022-03-24T15:59:50.000Z</time>
      </trkpt>
      <trkpt lat="50.43747" lon="3.51923">
        <ele>35</ele>
        <time>2022-03-24T15:59:51.000Z</time>
      </trkpt>
      <trkpt lat="50.43751" lon="3.51929">
        <ele>35</ele>
        <time>2022-03-24T15:59:52.000Z</time>
      </trkpt>
      <trkpt lat="50.43756" lon="3.51935">
        <ele>34.8</ele>
        <time>2022-03-24T15:59:53.000Z</time>
      </trkpt>
      <trkpt lat="50.4376" lon="3.51941">
        <ele>34.6</ele>
        <time>2022-03-24T15:59:54.000Z</time>
      </trkpt>
      <trkpt lat="50.43764" lon="3.51946">
        <ele>34.5</ele>
        <time>2022-03-24T15:59:55.000Z</time>
      </trkpt>
      <trkpt lat="50.43768" lon="3.51952">
        <ele>34.5</ele>
        <time>2022-03-24T15:59:56.000Z</time>
      </trkpt>
      <trkpt lat="50.43772" lon="3.51958">
        <ele>34.6</ele>
        <time>2022-03-24T15:59:57.000Z</time>
      </trkpt>
      <trkpt lat="50.43776" lon="3.51964">
        <ele>34.7</ele>
        <time>2022-03-24T15:59:58.000Z</time>
      </trkpt>
      <trkpt lat="50.43781" lon="3.51969">
        <ele>34.9</ele>
        <time>2022-03-24T15:59:59.000Z</time>
      </trkpt>
      <trkpt lat="50.43785" lon="3.51975">
        <ele>35</ele>
        <time>2022-03-24T16:00:00.000Z</time>
      </trkpt>
      <trkpt lat="50.43788" lon="3.5198">
        <ele>35</ele>
        <time>2022-03-24T16:00:01.000Z</time>
      </trkpt>
      <trkpt lat="50.43792" lon="3.51985">
        <ele>35</ele>
        <time>2022-03-24T16:00:02.000Z</time>
      </trkpt>
      <trkpt lat="50.43795" lon="3.51991">
        <ele>35</ele>
        <time>2022-03-24T16:00:03.000Z</time>
      </trkpt>
      <trkpt lat="50.43799" lon="3.51995">
        <ele>35</ele>
        <time>2022-03-24T16:00:04.000Z</time>
      </trkpt>
      <trkpt lat="50.43804" lon="3.52004">
        <ele>35</ele>
        <time>2022-03-24T16:00:06.000Z</time>
      </trkpt>
      <trkpt lat="50.4381" lon="3.52012">
        <ele>34.9</ele>
        <time>2022-03-24T16:00:08.000Z</time>
      </trkpt>
      <trkpt lat="50.43817" lon="3.52021">
        <ele>34.7</ele>
        <time>2022-03-24T16:00:10.000Z</time>
      </trkpt>
      <trkpt lat="50.43822" lon="3.52026">
        <ele>34.4</ele>
        <time>2022-03-24T16:00:11.000Z</time>
      </trkpt>
      <trkpt lat="50.43826" lon="3.52031">
        <ele>34.3</ele>
        <time>2022-03-24T16:00:12.000Z</time>
      </trkpt>
      <trkpt lat="50.43829" lon="3.52037">
        <ele>34.4</ele>
        <time>2022-03-24T16:00:13.000Z</time>
      </trkpt>
      <trkpt lat="50.43832" lon="3.52042">
        <ele>34.5</ele>
        <time>2022-03-24T16:00:14.000Z</time>
      </trkpt>
      <trkpt lat="50.43838" lon="3.52045">
        <ele>34.5</ele>
        <time>2022-03-24T16:00:16.000Z</time>
      </trkpt>
      <trkpt lat="50.43842" lon="3.52054">
        <ele>34.6</ele>
        <time>2022-03-24T16:00:17.000Z</time>
      </trkpt>
      <trkpt lat="50.43845" lon="3.52061">
        <ele>34.6</ele>
        <time>2022-03-24T16:00:18.000Z</time>
      </trkpt>
      <trkpt lat="50.43849" lon="3.52065">
        <ele>34.4</ele>
        <time>2022-03-24T16:00:19.000Z</time>
      </trkpt>
      <trkpt lat="50.43858" lon="3.52072">
        <ele>34.1</ele>
        <time>2022-03-24T16:00:22.017Z</time>
      </trkpt>
      <trkpt lat="50.43861" lon="3.52078">
        <ele>34</ele>
        <time>2022-03-24T16:00:23.000Z</time>
      </trkpt>
      <trkpt lat="50.43865" lon="3.52087">
        <ele>34</ele>
        <time>2022-03-24T16:00:24.493Z</time>
      </trkpt>
      <trkpt lat="50.43868" lon="3.52092">
        <ele>34</ele>
        <time>2022-03-24T16:00:25.517Z</time>
      </trkpt>
      <trkpt lat="50.43872" lon="3.52099">
        <ele>34</ele>
        <time>2022-03-24T16:00:26.754Z</time>
      </trkpt>
      <trkpt lat="50.43875" lon="3.52104">
        <ele>34</ele>
        <time>2022-03-24T16:00:27.911Z</time>
      </trkpt>
      <trkpt lat="50.43879" lon="3.52109">
        <ele>34</ele>
        <time>2022-03-24T16:00:28.916Z</time>
      </trkpt>
      <trkpt lat="50.43882" lon="3.52113">
        <ele>34.1</ele>
        <time>2022-03-24T16:00:29.953Z</time>
      </trkpt>
      <trkpt lat="50.43889" lon="3.52122">
        <ele>34.4</ele>
        <time>2022-03-24T16:00:31.936Z</time>
      </trkpt>
      <trkpt lat="50.43892" lon="3.52126">
        <ele>34.6</ele>
        <time>2022-03-24T16:00:33.000Z</time>
      </trkpt>
      <trkpt lat="50.43898" lon="3.52135">
        <ele>34.9</ele>
        <time>2022-03-24T16:00:35.194Z</time>
      </trkpt>
      <trkpt lat="50.43903" lon="3.52141">
        <ele>35</ele>
        <time>2022-03-24T16:00:36.635Z</time>
      </trkpt>
      <trkpt lat="50.43909" lon="3.5215">
        <ele>35.3</ele>
        <time>2022-03-24T16:00:38.852Z</time>
      </trkpt>
      <trkpt lat="50.43914" lon="3.5216">
        <ele>35.7</ele>
        <time>2022-03-24T16:00:41.154Z</time>
      </trkpt>
      <trkpt lat="50.43919" lon="3.52165">
        <ele>36</ele>
        <time>2022-03-24T16:00:42.776Z</time>
      </trkpt>
      <trkpt lat="50.43925" lon="3.52173">
        <ele>36.3</ele>
        <time>2022-03-24T16:00:45.116Z</time>
      </trkpt>
      <trkpt lat="50.43929" lon="3.5218">
        <ele>36.4</ele>
        <time>2022-03-24T16:00:47.000Z</time>
      </trkpt>
      <trkpt lat="50.43933" lon="3.52186">
        <ele>36.6</ele>
        <time>2022-03-24T16:00:49.014Z</time>
      </trkpt>
      <trkpt lat="50.4394" lon="3.52195">
        <ele>36.8</ele>
        <time>2022-03-24T16:00:52.000Z</time>
      </trkpt>
      <trkpt lat="50.43945" lon="3.52202">
        <ele>37</ele>
        <time>2022-03-24T16:00:54.072Z</time>
      </trkpt>
      <trkpt lat="50.4395" lon="3.52207">
        <ele>37.2</ele>
        <time>2022-03-24T16:00:56.000Z</time>
      </trkpt>
      <trkpt lat="50.43955" lon="3.52213">
        <ele>37.4</ele>
        <time>2022-03-24T16:00:58.032Z</time>
      </trkpt>
      <trkpt lat="50.43959" lon="3.52219">
        <ele>37.5</ele>
        <time>2022-03-24T16:01:00.000Z</time>
      </trkpt>
      <trkpt lat="50.43963" lon="3.52225">
        <ele>37.7</ele>
        <time>2022-03-24T16:01:02.000Z</time>
      </trkpt>
      <trkpt lat="50.43967" lon="3.52232">
        <ele>37.8</ele>
        <time>2022-03-24T16:01:04.054Z</time>
      </trkpt>
      <trkpt lat="50.43974" lon="3.52241">
        <ele>38.1</ele>
        <time>2022-03-24T16:01:06.473Z</time>
      </trkpt>
      <trkpt lat="50.4398" lon="3.52248">
        <ele>38.3</ele>
        <time>2022-03-24T16:01:08.513Z</time>
      </trkpt>
      <trkpt lat="50.43986" lon="3.52257">
        <ele>38.4</ele>
        <time>2022-03-24T16:01:10.914Z</time>
      </trkpt>
      <trkpt lat="50.43991" lon="3.52264">
        <ele>38.3</ele>
        <time>2022-03-24T16:01:13.137Z</time>
      </trkpt>
      <trkpt lat="50.43994" lon="3.5227">
        <ele>38.2</ele>
        <time>2022-03-24T16:01:14.774Z</time>
      </trkpt>
      <trkpt lat="50.43998" lon="3.52275">
        <ele>38.1</ele>
        <time>2022-03-24T16:01:17.000Z</time>
      </trkpt>
      <trkpt lat="50.44002" lon="3.52282">
        <ele>38.1</ele>
        <time>2022-03-24T16:01:19.000Z</time>
      </trkpt>
      <trkpt lat="50.44006" lon="3.52286">
        <ele>38.2</ele>
        <time>2022-03-24T16:01:21.193Z</time>
      </trkpt>
      <trkpt lat="50.44011" lon="3.52293">
        <ele>38.2</ele>
        <time>2022-03-24T16:01:23.973Z</time>
      </trkpt>
      <trkpt lat="50.44015" lon="3.52299">
        <ele>38.1</ele>
        <time>2022-03-24T16:01:26.493Z</time>
      </trkpt>
      <trkpt lat="50.44019" lon="3.52305">
        <ele>38</ele>
        <time>2022-03-24T16:01:28.817Z</time>
      </trkpt>
      <trkpt lat="50.44024" lon="3.52312">
        <ele>38</ele>
        <time>2022-03-24T16:01:30.775Z</time>
      </trkpt>
      <trkpt lat="50.44029" lon="3.5232">
        <ele>38</ele>
        <time>2022-03-24T16:01:33.000Z</time>
      </trkpt>
      <trkpt lat="50.44033" lon="3.52328">
        <ele>38</ele>
        <time>2022-03-24T16:01:34.995Z</time>
      </trkpt>
      <trkpt lat="50.44037" lon="3.52332">
        <ele>38</ele>
        <time>2022-03-24T16:01:36.095Z</time>
      </trkpt>
      <trkpt lat="50.44046" lon="3.52342">
        <ele>38</ele>
        <time>2022-03-24T16:01:38.855Z</time>
      </trkpt>
      <trkpt lat="50.4405" lon="3.52346">
        <ele>38</ele>
        <time>2022-03-24T16:01:40.093Z</time>
      </trkpt>
      <trkpt lat="50.44055" lon="3.52353">
        <ele>38</ele>
        <time>2022-03-24T16:01:42.172Z</time>
      </trkpt>
      <trkpt lat="50.44058" lon="3.52359">
        <ele>38</ele>
        <time>2022-03-24T16:01:43.648Z</time>
      </trkpt>
      <trkpt lat="50.44061" lon="3.52364">
        <ele>38</ele>
        <time>2022-03-24T16:01:45.155Z</time>
      </trkpt>
      <trkpt lat="50.44066" lon="3.5237">
        <ele>38</ele>
        <time>2022-03-24T16:01:47.011Z</time>
      </trkpt>
      <trkpt lat="50.44072" lon="3.52379">
        <ele>38</ele>
        <time>2022-03-24T16:01:49.177Z</time>
      </trkpt>
      <trkpt lat="50.44077" lon="3.52384">
        <ele>38</ele>
        <time>2022-03-24T16:01:50.676Z</time>
      </trkpt>
      <trkpt lat="50.4408" lon="3.52389">
        <ele>38</ele>
        <time>2022-03-24T16:01:52.053Z</time>
      </trkpt>
      <trkpt lat="50.44085" lon="3.52397">
        <ele>38</ele>
        <time>2022-03-24T16:01:54.000Z</time>
      </trkpt>
      <trkpt lat="50.44092" lon="3.5241">
        <ele>38</ele>
        <time>2022-03-24T16:01:56.735Z</time>
      </trkpt>
      <trkpt lat="50.44097" lon="3.52418">
        <ele>38</ele>
        <time>2022-03-24T16:01:58.674Z</time>
      </trkpt>
      <trkpt lat="50.44101" lon="3.52424">
        <ele>38</ele>
        <time>2022-03-24T16:02:00.000Z</time>
      </trkpt>
      <trkpt lat="50.44106" lon="3.52434">
        <ele>38</ele>
        <time>2022-03-24T16:02:02.000Z</time>
      </trkpt>
      <trkpt lat="50.44105" lon="3.52449">
        <ele>37.8</ele>
        <time>2022-03-24T16:02:04.157Z</time>
      </trkpt>
      <trkpt lat="50.44105" lon="3.52464">
        <ele>37.3</ele>
        <time>2022-03-24T16:02:06.000Z</time>
      </trkpt>
      <trkpt lat="50.44104" lon="3.52481">
        <ele>37</ele>
        <time>2022-03-24T16:02:08.000Z</time>
      </trkpt>
      <trkpt lat="50.44103" lon="3.52489">
        <ele>37</ele>
        <time>2022-03-24T16:02:09.000Z</time>
      </trkpt>
      <trkpt lat="50.44101" lon="3.52498">
        <ele>37</ele>
        <time>2022-03-24T16:02:10.000Z</time>
      </trkpt>
      <trkpt lat="50.44098" lon="3.52505">
        <ele>37</ele>
        <time>2022-03-24T16:02:11.000Z</time>
      </trkpt>
      <trkpt lat="50.44095" lon="3.52513">
        <ele>37</ele>
        <time>2022-03-24T16:02:12.000Z</time>
      </trkpt>
      <trkpt lat="50.44091" lon="3.52521">
        <ele>37</ele>
        <time>2022-03-24T16:02:13.000Z</time>
      </trkpt>
      <trkpt lat="50.44087" lon="3.52529">
        <ele>37</ele>
        <time>2022-03-24T16:02:14.000Z</time>
      </trkpt>
      <trkpt lat="50.44083" lon="3.52538">
        <ele>36.6</ele>
        <time>2022-03-24T16:02:15.000Z</time>
      </trkpt>
      <trkpt lat="50.44079" lon="3.52547">
        <ele>36.3</ele>
        <time>2022-03-24T16:02:16.000Z</time>
      </trkpt>
      <trkpt lat="50.44076" lon="3.52558">
        <ele>36</ele>
        <time>2022-03-24T16:02:17.000Z</time>
      </trkpt>
      <trkpt lat="50.44074" lon="3.5257">
        <ele>36</ele>
        <time>2022-03-24T16:02:18.000Z</time>
      </trkpt>
      <trkpt lat="50.44073" lon="3.52582">
        <ele>36</ele>
        <time>2022-03-24T16:02:19.000Z</time>
      </trkpt>
      <trkpt lat="50.44071" lon="3.52594">
        <ele>36</ele>
        <time>2022-03-24T16:02:20.000Z</time>
      </trkpt>
      <trkpt lat="50.44067" lon="3.52605">
        <ele>36</ele>
        <time>2022-03-24T16:02:21.000Z</time>
      </trkpt>
      <trkpt lat="50.44062" lon="3.52615">
        <ele>36</ele>
        <time>2022-03-24T16:02:22.000Z</time>
      </trkpt>
      <trkpt lat="50.44059" lon="3.52627">
        <ele>36</ele>
        <time>2022-03-24T16:02:23.000Z</time>
      </trkpt>
      <trkpt lat="50.44054" lon="3.52638">
        <ele>36</ele>
        <time>2022-03-24T16:02:24.000Z</time>
      </trkpt>
      <trkpt lat="50.44049" lon="3.52646">
        <ele>36</ele>
        <time>2022-03-24T16:02:25.000Z</time>
      </trkpt>
      <trkpt lat="50.44042" lon="3.52652">
        <ele>36</ele>
        <time>2022-03-24T16:02:26.000Z</time>
      </trkpt>
      <trkpt lat="50.44035" lon="3.52655">
        <ele>36</ele>
        <time>2022-03-24T16:02:27.000Z</time>
      </trkpt>
      <trkpt lat="50.44027" lon="3.52657">
        <ele>36</ele>
        <time>2022-03-24T16:02:28.000Z</time>
      </trkpt>
      <trkpt lat="50.44019" lon="3.52661">
        <ele>36</ele>
        <time>2022-03-24T16:02:29.000Z</time>
      </trkpt>
      <trkpt lat="50.44013" lon="3.52668">
        <ele>36</ele>
        <time>2022-03-24T16:02:30.000Z</time>
      </trkpt>
      <trkpt lat="50.44008" lon="3.52677">
        <ele>36</ele>
        <time>2022-03-24T16:02:31.000Z</time>
      </trkpt>
      <trkpt lat="50.44003" lon="3.52688">
        <ele>36</ele>
        <time>2022-03-24T16:02:32.000Z</time>
      </trkpt>
      <trkpt lat="50.43999" lon="3.52698">
        <ele>36</ele>
        <time>2022-03-24T16:02:33.000Z</time>
      </trkpt>
      <trkpt lat="50.43995" lon="3.5271">
        <ele>36</ele>
        <time>2022-03-24T16:02:34.000Z</time>
      </trkpt>
      <trkpt lat="50.43993" lon="3.52721">
        <ele>36</ele>
        <time>2022-03-24T16:02:35.000Z</time>
      </trkpt>
      <trkpt lat="50.43991" lon="3.52733">
        <ele>35.6</ele>
        <time>2022-03-24T16:02:36.000Z</time>
      </trkpt>
      <trkpt lat="50.4399" lon="3.52745">
        <ele>35.2</ele>
        <time>2022-03-24T16:02:37.000Z</time>
      </trkpt>
      <trkpt lat="50.43989" lon="3.52756">
        <ele>35</ele>
        <time>2022-03-24T16:02:38.000Z</time>
      </trkpt>
      <trkpt lat="50.43986" lon="3.52767">
        <ele>35</ele>
        <time>2022-03-24T16:02:39.000Z</time>
      </trkpt>
      <trkpt lat="50.43983" lon="3.52778">
        <ele>35</ele>
        <time>2022-03-24T16:02:40.000Z</time>
      </trkpt>
      <trkpt lat="50.4398" lon="3.52788">
        <ele>35</ele>
        <time>2022-03-24T16:02:41.000Z</time>
      </trkpt>
      <trkpt lat="50.43976" lon="3.52798">
        <ele>35</ele>
        <time>2022-03-24T16:02:42.000Z</time>
      </trkpt>
      <trkpt lat="50.43972" lon="3.52808">
        <ele>35</ele>
        <time>2022-03-24T16:02:43.000Z</time>
      </trkpt>
      <trkpt lat="50.43969" lon="3.52818">
        <ele>35</ele>
        <time>2022-03-24T16:02:44.000Z</time>
      </trkpt>
      <trkpt lat="50.43965" lon="3.52827">
        <ele>35</ele>
        <time>2022-03-24T16:02:45.000Z</time>
      </trkpt>
      <trkpt lat="50.43961" lon="3.52835">
        <ele>35</ele>
        <time>2022-03-24T16:02:46.000Z</time>
      </trkpt>
      <trkpt lat="50.43957" lon="3.52842">
        <ele>34.9</ele>
        <time>2022-03-24T16:02:47.000Z</time>
      </trkpt>
      <trkpt lat="50.43953" lon="3.52849">
        <ele>34.8</ele>
        <time>2022-03-24T16:02:48.000Z</time>
      </trkpt>
      <trkpt lat="50.43949" lon="3.52856">
        <ele>34.9</ele>
        <time>2022-03-24T16:02:49.000Z</time>
      </trkpt>
      <trkpt lat="50.43945" lon="3.52862">
        <ele>34.9</ele>
        <time>2022-03-24T16:02:50.000Z</time>
      </trkpt>
      <trkpt lat="50.43941" lon="3.52869">
        <ele>34.8</ele>
        <time>2022-03-24T16:02:51.000Z</time>
      </trkpt>
      <trkpt lat="50.43938" lon="3.52874">
        <ele>34.6</ele>
        <time>2022-03-24T16:02:52.000Z</time>
      </trkpt>
      <trkpt lat="50.43934" lon="3.5288">
        <ele>34.6</ele>
        <time>2022-03-24T16:02:53.000Z</time>
      </trkpt>
      <trkpt lat="50.43931" lon="3.52887">
        <ele>34.5</ele>
        <time>2022-03-24T16:02:54.000Z</time>
      </trkpt>
      <trkpt lat="50.43927" lon="3.52894">
        <ele>34.5</ele>
        <time>2022-03-24T16:02:55.000Z</time>
      </trkpt>
      <trkpt lat="50.43923" lon="3.52902">
        <ele>34.4</ele>
        <time>2022-03-24T16:02:56.000Z</time>
      </trkpt>
      <trkpt lat="50.43919" lon="3.52909">
        <ele>34.3</ele>
        <time>2022-03-24T16:02:57.000Z</time>
      </trkpt>
      <trkpt lat="50.43914" lon="3.52914">
        <ele>34.1</ele>
        <time>2022-03-24T16:02:58.000Z</time>
      </trkpt>
      <trkpt lat="50.43909" lon="3.52919">
        <ele>34</ele>
        <time>2022-03-24T16:02:59.000Z</time>
      </trkpt>
      <trkpt lat="50.43903" lon="3.52924">
        <ele>34</ele>
        <time>2022-03-24T16:03:00.000Z</time>
      </trkpt>
      <trkpt lat="50.43898" lon="3.52929">
        <ele>34</ele>
        <time>2022-03-24T16:03:01.000Z</time>
      </trkpt>
      <trkpt lat="50.43893" lon="3.52934">
        <ele>34</ele>
        <time>2022-03-24T16:03:02.000Z</time>
      </trkpt>
      <trkpt lat="50.43888" lon="3.5294">
        <ele>34</ele>
        <time>2022-03-24T16:03:03.000Z</time>
      </trkpt>
      <trkpt lat="50.43884" lon="3.52947">
        <ele>34</ele>
        <time>2022-03-24T16:03:04.000Z</time>
      </trkpt>
      <trkpt lat="50.4388" lon="3.52955">
        <ele>34</ele>
        <time>2022-03-24T16:03:05.000Z</time>
      </trkpt>
      <trkpt lat="50.43877" lon="3.52964">
        <ele>34</ele>
        <time>2022-03-24T16:03:06.000Z</time>
      </trkpt>
      <trkpt lat="50.43873" lon="3.52974">
        <ele>34</ele>
        <time>2022-03-24T16:03:07.000Z</time>
      </trkpt>
      <trkpt lat="50.43869" lon="3.52984">
        <ele>33.9</ele>
        <time>2022-03-24T16:03:08.000Z</time>
      </trkpt>
      <trkpt lat="50.43864" lon="3.52994">
        <ele>33.9</ele>
        <time>2022-03-24T16:03:09.000Z</time>
      </trkpt>
      <trkpt lat="50.4386" lon="3.53003">
        <ele>33.9</ele>
        <time>2022-03-24T16:03:10.000Z</time>
      </trkpt>
      <trkpt lat="50.43856" lon="3.53013">
        <ele>33.5</ele>
        <time>2022-03-24T16:03:11.000Z</time>
      </trkpt>
      <trkpt lat="50.43853" lon="3.53023">
        <ele>33.2</ele>
        <time>2022-03-24T16:03:12.000Z</time>
      </trkpt>
      <trkpt lat="50.4385" lon="3.53033">
        <ele>33</ele>
        <time>2022-03-24T16:03:13.000Z</time>
      </trkpt>
      <trkpt lat="50.43846" lon="3.53042">
        <ele>33</ele>
        <time>2022-03-24T16:03:14.000Z</time>
      </trkpt>
      <trkpt lat="50.43841" lon="3.53051">
        <ele>33</ele>
        <time>2022-03-24T16:03:15.000Z</time>
      </trkpt>
      <trkpt lat="50.43836" lon="3.53058">
        <ele>33</ele>
        <time>2022-03-24T16:03:16.000Z</time>
      </trkpt>
      <trkpt lat="50.43832" lon="3.53065">
        <ele>33</ele>
        <time>2022-03-24T16:03:17.000Z</time>
      </trkpt>
      <trkpt lat="50.43828" lon="3.53073">
        <ele>33</ele>
        <time>2022-03-24T16:03:18.000Z</time>
      </trkpt>
      <trkpt lat="50.43826" lon="3.53081">
        <ele>33</ele>
        <time>2022-03-24T16:03:19.000Z</time>
      </trkpt>
      <trkpt lat="50.43823" lon="3.53089">
        <ele>33</ele>
        <time>2022-03-24T16:03:20.000Z</time>
      </trkpt>
      <trkpt lat="50.4382" lon="3.53095">
        <ele>33</ele>
        <time>2022-03-24T16:03:21.000Z</time>
      </trkpt>
      <trkpt lat="50.43817" lon="3.53102">
        <ele>33</ele>
        <time>2022-03-24T16:03:22.000Z</time>
      </trkpt>
      <trkpt lat="50.43814" lon="3.5311">
        <ele>33</ele>
        <time>2022-03-24T16:03:23.000Z</time>
      </trkpt>
      <trkpt lat="50.43812" lon="3.53117">
        <ele>33</ele>
        <time>2022-03-24T16:03:24.000Z</time>
      </trkpt>
      <trkpt lat="50.43811" lon="3.53124">
        <ele>33</ele>
        <time>2022-03-24T16:03:25.000Z</time>
      </trkpt>
      <trkpt lat="50.43809" lon="3.53131">
        <ele>33</ele>
        <time>2022-03-24T16:03:26.000Z</time>
      </trkpt>
      <trkpt lat="50.43806" lon="3.53143">
        <ele>32.9</ele>
        <time>2022-03-24T16:03:28.000Z</time>
      </trkpt>
      <trkpt lat="50.43804" lon="3.53149">
        <ele>32.7</ele>
        <time>2022-03-24T16:03:29.000Z</time>
      </trkpt>
      <trkpt lat="50.43801" lon="3.53161">
        <ele>32.3</ele>
        <time>2022-03-24T16:03:31.000Z</time>
      </trkpt>
      <trkpt lat="50.43795" lon="3.53172">
        <ele>32.3</ele>
        <time>2022-03-24T16:03:33.000Z</time>
      </trkpt>
      <trkpt lat="50.4379" lon="3.53183">
        <ele>32.2</ele>
        <time>2022-03-24T16:03:35.466Z</time>
      </trkpt>
      <trkpt lat="50.43789" lon="3.5319">
        <ele>32.1</ele>
        <time>2022-03-24T16:03:36.969Z</time>
      </trkpt>
      <trkpt lat="50.43786" lon="3.53198">
        <ele>32</ele>
        <time>2022-03-24T16:03:38.790Z</time>
      </trkpt>
      <trkpt lat="50.43782" lon="3.53207">
        <ele>32</ele>
        <time>2022-03-24T16:03:40.869Z</time>
      </trkpt>
      <trkpt lat="50.43777" lon="3.53216">
        <ele>32</ele>
        <time>2022-03-24T16:03:43.000Z</time>
      </trkpt>
      <trkpt lat="50.43772" lon="3.53225">
        <ele>32</ele>
        <time>2022-03-24T16:03:45.207Z</time>
      </trkpt>
      <trkpt lat="50.43769" lon="3.53231">
        <ele>32</ele>
        <time>2022-03-24T16:03:46.388Z</time>
      </trkpt>
      <trkpt lat="50.43765" lon="3.53237">
        <ele>32</ele>
        <time>2022-03-24T16:03:47.620Z</time>
      </trkpt>
      <trkpt lat="50.43762" lon="3.53243">
        <ele>32</ele>
        <time>2022-03-24T16:03:49.000Z</time>
      </trkpt>
      <trkpt lat="50.43758" lon="3.53255">
        <ele>32</ele>
        <time>2022-03-24T16:03:51.000Z</time>
      </trkpt>
      <trkpt lat="50.43755" lon="3.53267">
        <ele>32</ele>
        <time>2022-03-24T16:03:53.090Z</time>
      </trkpt>
      <trkpt lat="50.43754" lon="3.53276">
        <ele>32</ele>
        <time>2022-03-24T16:03:54.268Z</time>
      </trkpt>
      <trkpt lat="50.43751" lon="3.53286">
        <ele>32</ele>
        <time>2022-03-24T16:03:56.171Z</time>
      </trkpt>
      <trkpt lat="50.43748" lon="3.53294">
        <ele>32.1</ele>
        <time>2022-03-24T16:03:57.613Z</time>
      </trkpt>
      <trkpt lat="50.43744" lon="3.53299">
        <ele>32.2</ele>
        <time>2022-03-24T16:03:59.000Z</time>
      </trkpt>
      <trkpt lat="50.43738" lon="3.53307">
        <ele>32.4</ele>
        <time>2022-03-24T16:04:01.025Z</time>
      </trkpt>
      <trkpt lat="50.43733" lon="3.53317">
        <ele>32.6</ele>
        <time>2022-03-24T16:04:03.000Z</time>
      </trkpt>
      <trkpt lat="50.43729" lon="3.53325">
        <ele>32.8</ele>
        <time>2022-03-24T16:04:04.632Z</time>
      </trkpt>
      <trkpt lat="50.43726" lon="3.53332">
        <ele>32.9</ele>
        <time>2022-03-24T16:04:06.170Z</time>
      </trkpt>
      <trkpt lat="50.43723" lon="3.5334">
        <ele>33</ele>
        <time>2022-03-24T16:04:07.646Z</time>
      </trkpt>
      <trkpt lat="50.4372" lon="3.53346">
        <ele>33</ele>
        <time>2022-03-24T16:04:08.789Z</time>
      </trkpt>
      <trkpt lat="50.43713" lon="3.53356">
        <ele>33</ele>
        <time>2022-03-24T16:04:11.000Z</time>
      </trkpt>
      <trkpt lat="50.43708" lon="3.53365">
        <ele>33</ele>
        <time>2022-03-24T16:04:12.689Z</time>
      </trkpt>
      <trkpt lat="50.43702" lon="3.53375">
        <ele>33</ele>
        <time>2022-03-24T16:04:14.000Z</time>
      </trkpt>
      <trkpt lat="50.43699" lon="3.53382">
        <ele>33</ele>
        <time>2022-03-24T16:04:15.000Z</time>
      </trkpt>
      <trkpt lat="50.43696" lon="3.53387">
        <ele>33</ele>
        <time>2022-03-24T16:04:16.000Z</time>
      </trkpt>
      <trkpt lat="50.43694" lon="3.53396">
        <ele>33</ele>
        <time>2022-03-24T16:04:18.959Z</time>
      </trkpt>
      <trkpt lat="50.4369" lon="3.53402">
        <ele>33.2</ele>
        <time>2022-03-24T16:04:19.900Z</time>
      </trkpt>
      <trkpt lat="50.43686" lon="3.5341">
        <ele>33.3</ele>
        <time>2022-03-24T16:04:21.080Z</time>
      </trkpt>
      <trkpt lat="50.43683" lon="3.53415">
        <ele>33.4</ele>
        <time>2022-03-24T16:04:22.000Z</time>
      </trkpt>
      <trkpt lat="50.43678" lon="3.53427">
        <ele>33.6</ele>
        <time>2022-03-24T16:04:24.140Z</time>
      </trkpt>
      <trkpt lat="50.43673" lon="3.53438">
        <ele>33.8</ele>
        <time>2022-03-24T16:04:25.857Z</time>
      </trkpt>
      <trkpt lat="50.43669" lon="3.53445">
        <ele>33.9</ele>
        <time>2022-03-24T16:04:27.180Z</time>
      </trkpt>
      <trkpt lat="50.43664" lon="3.53456">
        <ele>34</ele>
        <time>2022-03-24T16:04:29.000Z</time>
      </trkpt>
      <trkpt lat="50.43661" lon="3.53461">
        <ele>34</ele>
        <time>2022-03-24T16:04:30.000Z</time>
      </trkpt>
      <trkpt lat="50.43656" lon="3.5347">
        <ele>34</ele>
        <time>2022-03-24T16:04:32.000Z</time>
      </trkpt>
      <trkpt lat="50.4365" lon="3.53481">
        <ele>33.9</ele>
        <time>2022-03-24T16:04:35.410Z</time>
      </trkpt>
      <trkpt lat="50.43644" lon="3.53486">
        <ele>33.9</ele>
        <time>2022-03-24T16:04:36.767Z</time>
      </trkpt>
      <trkpt lat="50.43637" lon="3.5349">
        <ele>34</ele>
        <time>2022-03-24T16:04:38.000Z</time>
      </trkpt>
      <trkpt lat="50.43633" lon="3.53494">
        <ele>34</ele>
        <time>2022-03-24T16:04:39.000Z</time>
      </trkpt>
      <trkpt lat="50.43627" lon="3.53504">
        <ele>34</ele>
        <time>2022-03-24T16:04:41.000Z</time>
      </trkpt>
      <trkpt lat="50.4362" lon="3.53515">
        <ele>34</ele>
        <time>2022-03-24T16:04:43.509Z</time>
      </trkpt>
      <trkpt lat="50.43616" lon="3.53521">
        <ele>34</ele>
        <time>2022-03-24T16:04:44.949Z</time>
      </trkpt>
      <trkpt lat="50.43609" lon="3.53528">
        <ele>34</ele>
        <time>2022-03-24T16:04:47.000Z</time>
      </trkpt>
      <trkpt lat="50.43603" lon="3.53536">
        <ele>34</ele>
        <time>2022-03-24T16:04:49.000Z</time>
      </trkpt>
      <trkpt lat="50.43599" lon="3.5354">
        <ele>34</ele>
        <time>2022-03-24T16:04:50.091Z</time>
      </trkpt>
      <trkpt lat="50.43596" lon="3.53545">
        <ele>34</ele>
        <time>2022-03-24T16:04:51.000Z</time>
      </trkpt>
      <trkpt lat="50.43593" lon="3.53552">
        <ele>34</ele>
        <time>2022-03-24T16:04:52.000Z</time>
      </trkpt>
      <trkpt lat="50.4359" lon="3.53558">
        <ele>34</ele>
        <time>2022-03-24T16:04:53.000Z</time>
      </trkpt>
      <trkpt lat="50.43586" lon="3.53572">
        <ele>34</ele>
        <time>2022-03-24T16:04:55.000Z</time>
      </trkpt>
      <trkpt lat="50.43585" lon="3.53579">
        <ele>34</ele>
        <time>2022-03-24T16:04:56.000Z</time>
      </trkpt>
      <trkpt lat="50.43583" lon="3.53587">
        <ele>34</ele>
        <time>2022-03-24T16:04:57.000Z</time>
      </trkpt>
      <trkpt lat="50.4358" lon="3.53594">
        <ele>34</ele>
        <time>2022-03-24T16:04:58.000Z</time>
      </trkpt>
      <trkpt lat="50.43579" lon="3.53601">
        <ele>34</ele>
        <time>2022-03-24T16:04:59.000Z</time>
      </trkpt>
      <trkpt lat="50.43573" lon="3.53612">
        <ele>34</ele>
        <time>2022-03-24T16:05:02.672Z</time>
      </trkpt>
      <trkpt lat="50.4357" lon="3.53617">
        <ele>33.8</ele>
        <time>2022-03-24T16:05:03.712Z</time>
      </trkpt>
      <trkpt lat="50.43566" lon="3.53624">
        <ele>33.5</ele>
        <time>2022-03-24T16:05:05.000Z</time>
      </trkpt>
      <trkpt lat="50.43564" lon="3.53631">
        <ele>33.3</ele>
        <time>2022-03-24T16:05:06.133Z</time>
      </trkpt>
      <trkpt lat="50.43564" lon="3.53641">
        <ele>33</ele>
        <time>2022-03-24T16:05:07.611Z</time>
      </trkpt>
      <trkpt lat="50.43564" lon="3.5365">
        <ele>33</ele>
        <time>2022-03-24T16:05:08.892Z</time>
      </trkpt>
      <trkpt lat="50.43564" lon="3.53663">
        <ele>33</ele>
        <time>2022-03-24T16:05:10.674Z</time>
      </trkpt>
      <trkpt lat="50.43564" lon="3.5367">
        <ele>33</ele>
        <time>2022-03-24T16:05:11.672Z</time>
      </trkpt>
      <trkpt lat="50.43562" lon="3.53679">
        <ele>33</ele>
        <time>2022-03-24T16:05:13.112Z</time>
      </trkpt>
      <trkpt lat="50.43561" lon="3.53687">
        <ele>33</ele>
        <time>2022-03-24T16:05:14.193Z</time>
      </trkpt>
      <trkpt lat="50.4356" lon="3.53696">
        <ele>33</ele>
        <time>2022-03-24T16:05:15.590Z</time>
      </trkpt>
      <trkpt lat="50.43559" lon="3.53703">
        <ele>33</ele>
        <time>2022-03-24T16:05:16.669Z</time>
      </trkpt>
      <trkpt lat="50.43556" lon="3.53714">
        <ele>33</ele>
        <time>2022-03-24T16:05:18.992Z</time>
      </trkpt>
      <trkpt lat="50.43552" lon="3.53725">
        <ele>33</ele>
        <time>2022-03-24T16:05:21.000Z</time>
      </trkpt>
      <trkpt lat="50.43548" lon="3.53736">
        <ele>33</ele>
        <time>2022-03-24T16:05:23.000Z</time>
      </trkpt>
      <trkpt lat="50.43544" lon="3.53744">
        <ele>33</ele>
        <time>2022-03-24T16:05:25.000Z</time>
      </trkpt>
      <trkpt lat="50.43539" lon="3.53756">
        <ele>33</ele>
        <time>2022-03-24T16:05:27.832Z</time>
      </trkpt>
      <trkpt lat="50.43536" lon="3.53762">
        <ele>33</ele>
        <time>2022-03-24T16:05:30.000Z</time>
      </trkpt>
      <trkpt lat="50.43532" lon="3.53765">
        <ele>33</ele>
        <time>2022-03-24T16:05:32.000Z</time>
      </trkpt>
      <trkpt lat="50.43528" lon="3.5377">
        <ele>33</ele>
        <time>2022-03-24T16:05:34.000Z</time>
      </trkpt>
      <trkpt lat="50.43523" lon="3.53773">
        <ele>33</ele>
        <time>2022-03-24T16:05:36.000Z</time>
      </trkpt>
      <trkpt lat="50.43517" lon="3.53776">
        <ele>33</ele>
        <time>2022-03-24T16:05:39.000Z</time>
      </trkpt>
      <trkpt lat="50.43512" lon="3.5378">
        <ele>33</ele>
        <time>2022-03-24T16:05:40.994Z</time>
      </trkpt>
      <trkpt lat="50.43508" lon="3.53786">
        <ele>33</ele>
        <time>2022-03-24T16:05:42.996Z</time>
      </trkpt>
      <trkpt lat="50.43506" lon="3.53794">
        <ele>33</ele>
        <time>2022-03-24T16:05:45.053Z</time>
      </trkpt>
      <trkpt lat="50.43503" lon="3.53803">
        <ele>33</ele>
        <time>2022-03-24T16:05:47.068Z</time>
      </trkpt>
      <trkpt lat="50.43498" lon="3.53811">
        <ele>32.8</ele>
        <time>2022-03-24T16:05:49.412Z</time>
      </trkpt>
      <trkpt lat="50.43493" lon="3.53816">
        <ele>32.6</ele>
        <time>2022-03-24T16:05:52.000Z</time>
      </trkpt>
      <trkpt lat="50.43489" lon="3.53824">
        <ele>32.3</ele>
        <time>2022-03-24T16:05:53.994Z</time>
      </trkpt>
      <trkpt lat="50.43487" lon="3.53829">
        <ele>32.2</ele>
        <time>2022-03-24T16:05:55.198Z</time>
      </trkpt>
      <trkpt lat="50.43484" lon="3.53836">
        <ele>32</ele>
        <time>2022-03-24T16:05:56.616Z</time>
      </trkpt>
      <trkpt lat="50.43479" lon="3.53846">
        <ele>32</ele>
        <time>2022-03-24T16:05:59.000Z</time>
      </trkpt>
      <trkpt lat="50.43476" lon="3.53856">
        <ele>32</ele>
        <time>2022-03-24T16:06:01.000Z</time>
      </trkpt>
      <trkpt lat="50.43472" lon="3.53867">
        <ele>32</ele>
        <time>2022-03-24T16:06:03.000Z</time>
      </trkpt>
      <trkpt lat="50.43467" lon="3.53877">
        <ele>32</ele>
        <time>2022-03-24T16:06:05.000Z</time>
      </trkpt>
      <trkpt lat="50.43462" lon="3.53888">
        <ele>32</ele>
        <time>2022-03-24T16:06:07.000Z</time>
      </trkpt>
      <trkpt lat="50.43458" lon="3.53897">
        <ele>32</ele>
        <time>2022-03-24T16:06:09.000Z</time>
      </trkpt>
      <trkpt lat="50.43455" lon="3.53907">
        <ele>32</ele>
        <time>2022-03-24T16:06:11.000Z</time>
      </trkpt>
      <trkpt lat="50.43452" lon="3.53917">
        <ele>32</ele>
        <time>2022-03-24T16:06:13.000Z</time>
      </trkpt>
      <trkpt lat="50.43447" lon="3.53929">
        <ele>32</ele>
        <time>2022-03-24T16:06:15.318Z</time>
      </trkpt>
      <trkpt lat="50.43444" lon="3.53937">
        <ele>32</ele>
        <time>2022-03-24T16:06:16.711Z</time>
      </trkpt>
      <trkpt lat="50.4344" lon="3.53949">
        <ele>32</ele>
        <time>2022-03-24T16:06:18.909Z</time>
      </trkpt>
      <trkpt lat="50.43437" lon="3.53954">
        <ele>32</ele>
        <time>2022-03-24T16:06:20.070Z</time>
      </trkpt>
      <trkpt lat="50.43432" lon="3.53964">
        <ele>32</ele>
        <time>2022-03-24T16:06:22.000Z</time>
      </trkpt>
      <trkpt lat="50.43427" lon="3.53975">
        <ele>31.9</ele>
        <time>2022-03-24T16:06:24.533Z</time>
      </trkpt>
      <trkpt lat="50.43425" lon="3.53988">
        <ele>31.4</ele>
        <time>2022-03-24T16:06:27.000Z</time>
      </trkpt>
      <trkpt lat="50.43429" lon="3.53997">
        <ele>31.1</ele>
        <time>2022-03-24T16:06:29.000Z</time>
      </trkpt>
      <trkpt lat="50.43434" lon="3.54003">
        <ele>31</ele>
        <time>2022-03-24T16:06:30.930Z</time>
      </trkpt>
      <trkpt lat="50.43437" lon="3.54012">
        <ele>31</ele>
        <time>2022-03-24T16:06:33.000Z</time>
      </trkpt>
      <trkpt lat="50.43439" lon="3.5402">
        <ele>31</ele>
        <time>2022-03-24T16:06:35.000Z</time>
      </trkpt>
      <trkpt lat="50.43435" lon="3.54026">
        <ele>31</ele>
        <time>2022-03-24T16:06:38.000Z</time>
      </trkpt>
      <trkpt lat="50.4343" lon="3.54035">
        <ele>31</ele>
        <time>2022-03-24T16:06:41.000Z</time>
      </trkpt>
      <trkpt lat="50.43427" lon="3.5404">
        <ele>31</ele>
        <time>2022-03-24T16:06:44.000Z</time>
      </trkpt>
      <trkpt lat="50.43431" lon="3.54033">
        <ele>31</ele>
        <time>2022-03-24T16:06:54.000Z</time>
      </trkpt>
      <trkpt lat="50.43434" lon="3.54025">
        <ele>31</ele>
        <time>2022-03-24T16:06:56.000Z</time>
      </trkpt>
      <trkpt lat="50.43434" lon="3.54015">
        <ele>31</ele>
        <time>2022-03-24T16:06:58.000Z</time>
      </trkpt>
      <trkpt lat="50.43431" lon="3.54006">
        <ele>31</ele>
        <time>2022-03-24T16:07:00.000Z</time>
      </trkpt>
      <trkpt lat="50.43426" lon="3.53997">
        <ele>31.1</ele>
        <time>2022-03-24T16:07:03.000Z</time>
      </trkpt>
      <trkpt lat="50.43422" lon="3.53989">
        <ele>31.4</ele>
        <time>2022-03-24T16:07:06.000Z</time>
      </trkpt>
      <trkpt lat="50.43425" lon="3.53995">
        <ele>31.2</ele>
        <time>2022-03-24T16:07:25.604Z</time>
      </trkpt>
      <trkpt lat="50.43428" lon="3.54001">
        <ele>31</ele>
        <time>2022-03-24T16:07:27.000Z</time>
      </trkpt>
      <trkpt lat="50.43432" lon="3.54007">
        <ele>31</ele>
        <time>2022-03-24T16:07:29.000Z</time>
      </trkpt>
      <trkpt lat="50.43435" lon="3.54018">
        <ele>31</ele>
        <time>2022-03-24T16:07:31.071Z</time>
      </trkpt>
      <trkpt lat="50.43434" lon="3.54027">
        <ele>31</ele>
        <time>2022-03-24T16:07:33.000Z</time>
      </trkpt>
      <trkpt lat="50.43431" lon="3.54034">
        <ele>31</ele>
        <time>2022-03-24T16:07:35.178Z</time>
      </trkpt>
      <trkpt lat="50.43428" lon="3.54043">
        <ele>31</ele>
        <time>2022-03-24T16:07:37.000Z</time>
      </trkpt>
      <trkpt lat="50.43424" lon="3.54052">
        <ele>31</ele>
        <time>2022-03-24T16:07:39.000Z</time>
      </trkpt>
      <trkpt lat="50.43419" lon="3.54062">
        <ele>31</ele>
        <time>2022-03-24T16:07:41.000Z</time>
      </trkpt>
      <trkpt lat="50.43413" lon="3.54072">
        <ele>31</ele>
        <time>2022-03-24T16:07:43.000Z</time>
      </trkpt>
      <trkpt lat="50.43408" lon="3.54082">
        <ele>31</ele>
        <time>2022-03-24T16:07:45.000Z</time>
      </trkpt>
      <trkpt lat="50.43402" lon="3.54092">
        <ele>31</ele>
        <time>2022-03-24T16:07:47.000Z</time>
      </trkpt>
      <trkpt lat="50.43398" lon="3.54101">
        <ele>31</ele>
        <time>2022-03-24T16:07:49.000Z</time>
      </trkpt>
      <trkpt lat="50.43394" lon="3.54111">
        <ele>31</ele>
        <time>2022-03-24T16:07:51.000Z</time>
      </trkpt>
      <trkpt lat="50.4339" lon="3.5412">
        <ele>31</ele>
        <time>2022-03-24T16:07:53.000Z</time>
      </trkpt>
      <trkpt lat="50.43385" lon="3.54129">
        <ele>31</ele>
        <time>2022-03-24T16:07:55.000Z</time>
      </trkpt>
      <trkpt lat="50.4338" lon="3.5414">
        <ele>31</ele>
        <time>2022-03-24T16:07:57.000Z</time>
      </trkpt>
      <trkpt lat="50.43374" lon="3.5415">
        <ele>30.6</ele>
        <time>2022-03-24T16:07:59.000Z</time>
      </trkpt>
      <trkpt lat="50.43369" lon="3.54162">
        <ele>30.2</ele>
        <time>2022-03-24T16:08:01.133Z</time>
      </trkpt>
      <trkpt lat="50.43365" lon="3.54173">
        <ele>30</ele>
        <time>2022-03-24T16:08:02.867Z</time>
      </trkpt>
      <trkpt lat="50.43362" lon="3.54182">
        <ele>30</ele>
        <time>2022-03-24T16:08:04.000Z</time>
      </trkpt>
      <trkpt lat="50.4336" lon="3.54188">
        <ele>30</ele>
        <time>2022-03-24T16:08:05.000Z</time>
      </trkpt>
      <trkpt lat="50.43356" lon="3.5419">
        <ele>30</ele>
        <time>2022-03-24T16:08:07.000Z</time>
      </trkpt>
      <trkpt lat="50.43351" lon="3.54195">
        <ele>30</ele>
        <time>2022-03-24T16:08:09.968Z</time>
      </trkpt>
      <trkpt lat="50.43348" lon="3.54187">
        <ele>30</ele>
        <time>2022-03-24T16:08:13.066Z</time>
      </trkpt>
      <trkpt lat="50.43337" lon="3.54181">
        <ele>30</ele>
        <time>2022-03-24T16:08:17.047Z</time>
      </trkpt>
      <trkpt lat="50.43331" lon="3.54189">
        <ele>30</ele>
        <time>2022-03-24T16:08:19.000Z</time>
      </trkpt>
      <trkpt lat="50.43328" lon="3.54195">
        <ele>30</ele>
        <time>2022-03-24T16:08:20.204Z</time>
      </trkpt>
      <trkpt lat="50.43325" lon="3.54205">
        <ele>30</ele>
        <time>2022-03-24T16:08:22.024Z</time>
      </trkpt>
      <trkpt lat="50.43323" lon="3.54217">
        <ele>30</ele>
        <time>2022-03-24T16:08:24.466Z</time>
      </trkpt>
      <trkpt lat="50.4332" lon="3.54226">
        <ele>30</ele>
        <time>2022-03-24T16:08:26.625Z</time>
      </trkpt>
      <trkpt lat="50.43314" lon="3.54236">
        <ele>30</ele>
        <time>2022-03-24T16:08:28.885Z</time>
      </trkpt>
      <trkpt lat="50.43311" lon="3.54246">
        <ele>30</ele>
        <time>2022-03-24T16:08:30.945Z</time>
      </trkpt>
      <trkpt lat="50.43306" lon="3.54254">
        <ele>29.9</ele>
        <time>2022-03-24T16:08:33.105Z</time>
      </trkpt>
      <trkpt lat="50.43303" lon="3.54261">
        <ele>29.6</ele>
        <time>2022-03-24T16:08:34.925Z</time>
      </trkpt>
      <trkpt lat="50.43299" lon="3.54269">
        <ele>29.3</ele>
        <time>2022-03-24T16:08:37.000Z</time>
      </trkpt>
      <trkpt lat="50.43294" lon="3.54275">
        <ele>29.1</ele>
        <time>2022-03-24T16:08:39.000Z</time>
      </trkpt>
      <trkpt lat="50.4329" lon="3.54282">
        <ele>29</ele>
        <time>2022-03-24T16:08:41.122Z</time>
      </trkpt>
      <trkpt lat="50.43287" lon="3.54291">
        <ele>29</ele>
        <time>2022-03-24T16:08:43.000Z</time>
      </trkpt>
      <trkpt lat="50.43282" lon="3.54302">
        <ele>29</ele>
        <time>2022-03-24T16:08:45.463Z</time>
      </trkpt>
      <trkpt lat="50.43278" lon="3.54308">
        <ele>29</ele>
        <time>2022-03-24T16:08:46.846Z</time>
      </trkpt>
      <trkpt lat="50.43272" lon="3.54316">
        <ele>29</ele>
        <time>2022-03-24T16:08:49.010Z</time>
      </trkpt>
      <trkpt lat="50.43267" lon="3.54325">
        <ele>29</ele>
        <time>2022-03-24T16:08:51.000Z</time>
      </trkpt>
      <trkpt lat="50.43263" lon="3.54335">
        <ele>29</ele>
        <time>2022-03-24T16:08:53.346Z</time>
      </trkpt>
      <trkpt lat="50.43261" lon="3.54343">
        <ele>29</ele>
        <time>2022-03-24T16:08:54.906Z</time>
      </trkpt>
      <trkpt lat="50.43257" lon="3.54352">
        <ele>29</ele>
        <time>2022-03-24T16:08:56.941Z</time>
      </trkpt>
      <trkpt lat="50.43252" lon="3.5436">
        <ele>29</ele>
        <time>2022-03-24T16:08:59.000Z</time>
      </trkpt>
      <trkpt lat="50.43248" lon="3.54371">
        <ele>28.6</ele>
        <time>2022-03-24T16:09:01.546Z</time>
      </trkpt>
      <trkpt lat="50.43245" lon="3.54377">
        <ele>28.4</ele>
        <time>2022-03-24T16:09:03.000Z</time>
      </trkpt>
      <trkpt lat="50.43241" lon="3.54385">
        <ele>28.1</ele>
        <time>2022-03-24T16:09:04.522Z</time>
      </trkpt>
      <trkpt lat="50.43238" lon="3.54392">
        <ele>28</ele>
        <time>2022-03-24T16:09:06.000Z</time>
      </trkpt>
      <trkpt lat="50.43235" lon="3.54401">
        <ele>28</ele>
        <time>2022-03-24T16:09:07.944Z</time>
      </trkpt>
      <trkpt lat="50.43232" lon="3.54407">
        <ele>28</ele>
        <time>2022-03-24T16:09:09.165Z</time>
      </trkpt>
      <trkpt lat="50.43228" lon="3.54418">
        <ele>28</ele>
        <time>2022-03-24T16:09:11.006Z</time>
      </trkpt>
      <trkpt lat="50.43225" lon="3.54428">
        <ele>27.6</ele>
        <time>2022-03-24T16:09:13.000Z</time>
      </trkpt>
      <trkpt lat="50.4322" lon="3.54438">
        <ele>27.2</ele>
        <time>2022-03-24T16:09:15.000Z</time>
      </trkpt>
      <trkpt lat="50.43216" lon="3.54443">
        <ele>27.1</ele>
        <time>2022-03-24T16:09:16.164Z</time>
      </trkpt>
      <trkpt lat="50.43211" lon="3.54451">
        <ele>27</ele>
        <time>2022-03-24T16:09:17.638Z</time>
      </trkpt>
      <trkpt lat="50.43204" lon="3.54464">
        <ele>27</ele>
        <time>2022-03-24T16:09:20.000Z</time>
      </trkpt>
      <trkpt lat="50.43202" lon="3.5447">
        <ele>27</ele>
        <time>2022-03-24T16:09:21.000Z</time>
      </trkpt>
      <trkpt lat="50.43199" lon="3.54477">
        <ele>27</ele>
        <time>2022-03-24T16:09:22.000Z</time>
      </trkpt>
      <trkpt lat="50.43197" lon="3.54483">
        <ele>27</ele>
        <time>2022-03-24T16:09:23.000Z</time>
      </trkpt>
      <trkpt lat="50.43195" lon="3.54489">
        <ele>27</ele>
        <time>2022-03-24T16:09:24.000Z</time>
      </trkpt>
      <trkpt lat="50.43193" lon="3.54495">
        <ele>27</ele>
        <time>2022-03-24T16:09:25.000Z</time>
      </trkpt>
      <trkpt lat="50.4319" lon="3.54502">
        <ele>26.8</ele>
        <time>2022-03-24T16:09:26.000Z</time>
      </trkpt>
      <trkpt lat="50.43188" lon="3.54507">
        <ele>26.6</ele>
        <time>2022-03-24T16:09:27.000Z</time>
      </trkpt>
      <trkpt lat="50.43184" lon="3.54513">
        <ele>26.3</ele>
        <time>2022-03-24T16:09:28.000Z</time>
      </trkpt>
      <trkpt lat="50.43181" lon="3.54518">
        <ele>26.2</ele>
        <time>2022-03-24T16:09:29.000Z</time>
      </trkpt>
      <trkpt lat="50.43177" lon="3.54522">
        <ele>26.1</ele>
        <time>2022-03-24T16:09:30.000Z</time>
      </trkpt>
      <trkpt lat="50.43173" lon="3.54525">
        <ele>26</ele>
        <time>2022-03-24T16:09:31.178Z</time>
      </trkpt>
      <trkpt lat="50.43167" lon="3.54523">
        <ele>26</ele>
        <time>2022-03-24T16:09:33.615Z</time>
      </trkpt>
      <trkpt lat="50.43161" lon="3.54513">
        <ele>26</ele>
        <time>2022-03-24T16:09:36.142Z</time>
      </trkpt>
      <trkpt lat="50.43155" lon="3.54511">
        <ele>26</ele>
        <time>2022-03-24T16:09:37.742Z</time>
      </trkpt>
      <trkpt lat="50.4315" lon="3.54514">
        <ele>26</ele>
        <time>2022-03-24T16:09:39.138Z</time>
      </trkpt>
      <trkpt lat="50.43146" lon="3.54521">
        <ele>26</ele>
        <time>2022-03-24T16:09:40.862Z</time>
      </trkpt>
      <trkpt lat="50.43142" lon="3.5453">
        <ele>26</ele>
        <time>2022-03-24T16:09:43.143Z</time>
      </trkpt>
      <trkpt lat="50.43138" lon="3.54544">
        <ele>26</ele>
        <time>2022-03-24T16:09:45.720Z</time>
      </trkpt>
      <trkpt lat="50.43137" lon="3.54552">
        <ele>25.9</ele>
        <time>2022-03-24T16:09:47.000Z</time>
      </trkpt>
      <trkpt lat="50.43136" lon="3.54564">
        <ele>25.6</ele>
        <time>2022-03-24T16:09:49.000Z</time>
      </trkpt>
      <trkpt lat="50.43135" lon="3.54573">
        <ele>25.3</ele>
        <time>2022-03-24T16:09:50.458Z</time>
      </trkpt>
      <trkpt lat="50.43133" lon="3.5458">
        <ele>25.1</ele>
        <time>2022-03-24T16:09:51.656Z</time>
      </trkpt>
      <trkpt lat="50.43131" lon="3.54593">
        <ele>25</ele>
        <time>2022-03-24T16:09:53.680Z</time>
      </trkpt>
      <trkpt lat="50.4313" lon="3.54601">
        <ele>25</ele>
        <time>2022-03-24T16:09:54.899Z</time>
      </trkpt>
      <trkpt lat="50.43129" lon="3.54611">
        <ele>25</ele>
        <time>2022-03-24T16:09:56.000Z</time>
      </trkpt>
      <trkpt lat="50.43127" lon="3.54618">
        <ele>25</ele>
        <time>2022-03-24T16:09:57.000Z</time>
      </trkpt>
      <trkpt lat="50.43126" lon="3.54626">
        <ele>25</ele>
        <time>2022-03-24T16:09:58.000Z</time>
      </trkpt>
      <trkpt lat="50.43126" lon="3.54634">
        <ele>25</ele>
        <time>2022-03-24T16:09:59.000Z</time>
      </trkpt>
      <trkpt lat="50.43125" lon="3.54642">
        <ele>25</ele>
        <time>2022-03-24T16:10:00.000Z</time>
      </trkpt>
      <trkpt lat="50.43125" lon="3.5465">
        <ele>25</ele>
        <time>2022-03-24T16:10:01.000Z</time>
      </trkpt>
      <trkpt lat="50.43125" lon="3.54657">
        <ele>25</ele>
        <time>2022-03-24T16:10:02.000Z</time>
      </trkpt>
      <trkpt lat="50.43123" lon="3.54664">
        <ele>25</ele>
        <time>2022-03-24T16:10:03.000Z</time>
      </trkpt>
      <trkpt lat="50.43121" lon="3.5467">
        <ele>25</ele>
        <time>2022-03-24T16:10:04.000Z</time>
      </trkpt>
      <trkpt lat="50.43118" lon="3.54677">
        <ele>25</ele>
        <time>2022-03-24T16:10:05.000Z</time>
      </trkpt>
      <trkpt lat="50.43115" lon="3.54683">
        <ele>25</ele>
        <time>2022-03-24T16:10:06.000Z</time>
      </trkpt>
      <trkpt lat="50.43113" lon="3.54689">
        <ele>25</ele>
        <time>2022-03-24T16:10:07.137Z</time>
      </trkpt>
      <trkpt lat="50.4311" lon="3.54698">
        <ele>24.8</ele>
        <time>2022-03-24T16:10:08.876Z</time>
      </trkpt>
      <trkpt lat="50.43105" lon="3.54705">
        <ele>24.5</ele>
        <time>2022-03-24T16:10:11.000Z</time>
      </trkpt>
      <trkpt lat="50.431" lon="3.54708">
        <ele>24.3</ele>
        <time>2022-03-24T16:10:12.375Z</time>
      </trkpt>
      <trkpt lat="50.43095" lon="3.54713">
        <ele>24.1</ele>
        <time>2022-03-24T16:10:14.000Z</time>
      </trkpt>
      <trkpt lat="50.4309" lon="3.54718">
        <ele>24</ele>
        <time>2022-03-24T16:10:16.000Z</time>
      </trkpt>
      <trkpt lat="50.43083" lon="3.54721">
        <ele>24</ele>
        <time>2022-03-24T16:10:18.000Z</time>
      </trkpt>
      <trkpt lat="50.43073" lon="3.54729">
        <ele>24</ele>
        <time>2022-03-24T16:10:20.855Z</time>
      </trkpt>
      <trkpt lat="50.43066" lon="3.54734">
        <ele>24</ele>
        <time>2022-03-24T16:10:23.000Z</time>
      </trkpt>
      <trkpt lat="50.43059" lon="3.54737">
        <ele>24</ele>
        <time>2022-03-24T16:10:25.000Z</time>
      </trkpt>
      <trkpt lat="50.43053" lon="3.54742">
        <ele>23.9</ele>
        <time>2022-03-24T16:10:27.115Z</time>
      </trkpt>
      <trkpt lat="50.43046" lon="3.54749">
        <ele>23.7</ele>
        <time>2022-03-24T16:10:29.643Z</time>
      </trkpt>
      <trkpt lat="50.4304" lon="3.54755">
        <ele>23.4</ele>
        <time>2022-03-24T16:10:32.031Z</time>
      </trkpt>
      <trkpt lat="50.43036" lon="3.54759">
        <ele>23.2</ele>
        <time>2022-03-24T16:10:34.000Z</time>
      </trkpt>
      <trkpt lat="50.43034" lon="3.54765">
        <ele>23.1</ele>
        <time>2022-03-24T16:10:36.000Z</time>
      </trkpt>
      <trkpt lat="50.4303" lon="3.5477">
        <ele>23</ele>
        <time>2022-03-24T16:10:38.095Z</time>
      </trkpt>
      <trkpt lat="50.43026" lon="3.54776">
        <ele>23</ele>
        <time>2022-03-24T16:10:40.000Z</time>
      </trkpt>
      <trkpt lat="50.43031" lon="3.54771">
        <ele>23</ele>
        <time>2022-03-24T16:11:07.000Z</time>
      </trkpt>
      <trkpt lat="50.43035" lon="3.54765">
        <ele>23.1</ele>
        <time>2022-03-24T16:11:11.000Z</time>
      </trkpt>
      <trkpt lat="50.43039" lon="3.5476">
        <ele>23.3</ele>
        <time>2022-03-24T16:11:13.153Z</time>
      </trkpt>
      <trkpt lat="50.43044" lon="3.54753">
        <ele>23.5</ele>
        <time>2022-03-24T16:11:16.672Z</time>
      </trkpt>
      <trkpt lat="50.43048" lon="3.54749">
        <ele>23.7</ele>
        <time>2022-03-24T16:11:23.000Z</time>
      </trkpt>
      <trkpt lat="50.43055" lon="3.54751">
        <ele>23.9</ele>
        <time>2022-03-24T16:11:34.473Z</time>
      </trkpt>
      <trkpt lat="50.4306" lon="3.54756">
        <ele>23.8</ele>
        <time>2022-03-24T16:11:39.037Z</time>
      </trkpt>
      <trkpt lat="50.43063" lon="3.54762">
        <ele>23.7</ele>
        <time>2022-03-24T16:11:41.000Z</time>
      </trkpt>
      <trkpt lat="50.43068" lon="3.54768">
        <ele>23.6</ele>
        <time>2022-03-24T16:11:44.893Z</time>
      </trkpt>
      <trkpt lat="50.43073" lon="3.54769">
        <ele>23.7</ele>
        <time>2022-03-24T16:11:52.152Z</time>
      </trkpt>
      <trkpt lat="50.43075" lon="3.54775">
        <ele>23.7</ele>
        <time>2022-03-24T16:11:59.000Z</time>
      </trkpt>
      <trkpt lat="50.43078" lon="3.5477">
        <ele>23.9</ele>
        <time>2022-03-24T16:12:11.000Z</time>
      </trkpt>
      <trkpt lat="50.43078" lon="3.54777">
        <ele>23.8</ele>
        <time>2022-03-24T16:13:03.976Z</time>
      </trkpt>
      <trkpt lat="50.43077" lon="3.54789">
        <ele>23.5</ele>
        <time>2022-03-24T16:13:35.000Z</time>
      </trkpt>
      <trkpt lat="50.43076" lon="3.54796">
        <ele>23.3</ele>
        <time>2022-03-24T16:13:37.000Z</time>
      </trkpt>
      <trkpt lat="50.43073" lon="3.54802">
        <ele>23.1</ele>
        <time>2022-03-24T16:13:39.000Z</time>
      </trkpt>
      <trkpt lat="50.4307" lon="3.54809">
        <ele>23</ele>
        <time>2022-03-24T16:13:41.000Z</time>
      </trkpt>
      <trkpt lat="50.43066" lon="3.54815">
        <ele>23</ele>
        <time>2022-03-24T16:13:43.000Z</time>
      </trkpt>
      <trkpt lat="50.43064" lon="3.54823">
        <ele>23</ele>
        <time>2022-03-24T16:13:45.000Z</time>
      </trkpt>
      <trkpt lat="50.43067" lon="3.5483">
        <ele>23</ele>
        <time>2022-03-24T16:13:47.000Z</time>
      </trkpt>
      <trkpt lat="50.43072" lon="3.54834">
        <ele>23</ele>
        <time>2022-03-24T16:13:50.000Z</time>
      </trkpt>
      <trkpt lat="50.43076" lon="3.54837">
        <ele>23</ele>
        <time>2022-03-24T16:13:52.000Z</time>
      </trkpt>
      <trkpt lat="50.43082" lon="3.54844">
        <ele>23</ele>
        <time>2022-03-24T16:13:55.693Z</time>
      </trkpt>
      <trkpt lat="50.43086" lon="3.54848">
        <ele>23</ele>
        <time>2022-03-24T16:13:57.937Z</time>
      </trkpt>
      <trkpt lat="50.43091" lon="3.54852">
        <ele>23</ele>
        <time>2022-03-24T16:14:01.000Z</time>
      </trkpt>
      <trkpt lat="50.43095" lon="3.54857">
        <ele>23</ele>
        <time>2022-03-24T16:14:04.000Z</time>
      </trkpt>
      <trkpt lat="50.43101" lon="3.54862">
        <ele>23</ele>
        <time>2022-03-24T16:14:07.000Z</time>
      </trkpt>
      <trkpt lat="50.43105" lon="3.54867">
        <ele>23</ele>
        <time>2022-03-24T16:14:09.000Z</time>
      </trkpt>
      <trkpt lat="50.43109" lon="3.54872">
        <ele>23</ele>
        <time>2022-03-24T16:14:10.994Z</time>
      </trkpt>
      <trkpt lat="50.43113" lon="3.54876">
        <ele>23</ele>
        <time>2022-03-24T16:14:13.072Z</time>
      </trkpt>
      <trkpt lat="50.43117" lon="3.54881">
        <ele>23</ele>
        <time>2022-03-24T16:14:15.074Z</time>
      </trkpt>
      <trkpt lat="50.43121" lon="3.54886">
        <ele>23</ele>
        <time>2022-03-24T16:14:18.000Z</time>
      </trkpt>
      <trkpt lat="50.43126" lon="3.54891">
        <ele>23</ele>
        <time>2022-03-24T16:14:21.875Z</time>
      </trkpt>
      <trkpt lat="50.4313" lon="3.54895">
        <ele>23</ele>
        <time>2022-03-24T16:14:24.811Z</time>
      </trkpt>
      <trkpt lat="50.43135" lon="3.54901">
        <ele>23</ele>
        <time>2022-03-24T16:14:28.000Z</time>
      </trkpt>
      <trkpt lat="50.4314" lon="3.54907">
        <ele>23</ele>
        <time>2022-03-24T16:14:31.000Z</time>
      </trkpt>
      <trkpt lat="50.43144" lon="3.54911">
        <ele>23</ele>
        <time>2022-03-24T16:14:34.000Z</time>
      </trkpt>
      <trkpt lat="50.43149" lon="3.54918">
        <ele>23</ele>
        <time>2022-03-24T16:15:19.000Z</time>
      </trkpt>
      <trkpt lat="50.43153" lon="3.54923">
        <ele>23</ele>
        <time>2022-03-24T16:15:21.000Z</time>
      </trkpt>
      <trkpt lat="50.43158" lon="3.54929">
        <ele>23</ele>
        <time>2022-03-24T16:15:23.000Z</time>
      </trkpt>
      <trkpt lat="50.43161" lon="3.54936">
        <ele>23</ele>
        <time>2022-03-24T16:15:26.875Z</time>
      </trkpt>
      <trkpt lat="50.43165" lon="3.5494">
        <ele>23</ele>
        <time>2022-03-24T16:15:28.000Z</time>
      </trkpt>
      <trkpt lat="50.43171" lon="3.54945">
        <ele>23</ele>
        <time>2022-03-24T16:15:30.173Z</time>
      </trkpt>
      <trkpt lat="50.43178" lon="3.54953">
        <ele>23</ele>
        <time>2022-03-24T16:15:32.914Z</time>
      </trkpt>
      <trkpt lat="50.43185" lon="3.54959">
        <ele>23</ele>
        <time>2022-03-24T16:15:35.641Z</time>
      </trkpt>
      <trkpt lat="50.43191" lon="3.54966">
        <ele>23</ele>
        <time>2022-03-24T16:15:38.115Z</time>
      </trkpt>
      <trkpt lat="50.43196" lon="3.5497">
        <ele>23</ele>
        <time>2022-03-24T16:15:40.000Z</time>
      </trkpt>
      <trkpt lat="50.432" lon="3.54976">
        <ele>23</ele>
        <time>2022-03-24T16:15:41.980Z</time>
      </trkpt>
      <trkpt lat="50.43204" lon="3.5498">
        <ele>23</ele>
        <time>2022-03-24T16:15:43.474Z</time>
      </trkpt>
      <trkpt lat="50.43211" lon="3.54987">
        <ele>23</ele>
        <time>2022-03-24T16:15:45.916Z</time>
      </trkpt>
      <trkpt lat="50.43217" lon="3.54993">
        <ele>23</ele>
        <time>2022-03-24T16:15:48.000Z</time>
      </trkpt>
      <trkpt lat="50.43223" lon="3.55">
        <ele>23</ele>
        <time>2022-03-24T16:15:50.333Z</time>
      </trkpt>
      <trkpt lat="50.43229" lon="3.55007">
        <ele>23.2</ele>
        <time>2022-03-24T16:15:53.000Z</time>
      </trkpt>
      <trkpt lat="50.43234" lon="3.55014">
        <ele>23.4</ele>
        <time>2022-03-24T16:15:55.000Z</time>
      </trkpt>
      <trkpt lat="50.43239" lon="3.55021">
        <ele>23.6</ele>
        <time>2022-03-24T16:15:57.076Z</time>
      </trkpt>
      <trkpt lat="50.43244" lon="3.55028">
        <ele>23.8</ele>
        <time>2022-03-24T16:15:59.233Z</time>
      </trkpt>
      <trkpt lat="50.43248" lon="3.55032">
        <ele>23.9</ele>
        <time>2022-03-24T16:16:00.895Z</time>
      </trkpt>
      <trkpt lat="50.43252" lon="3.55037">
        <ele>24</ele>
        <time>2022-03-24T16:16:02.973Z</time>
      </trkpt>
      <trkpt lat="50.43259" lon="3.55046">
        <ele>24</ele>
        <time>2022-03-24T16:16:06.076Z</time>
      </trkpt>
      <trkpt lat="50.43263" lon="3.55051">
        <ele>24</ele>
        <time>2022-03-24T16:16:08.000Z</time>
      </trkpt>
      <trkpt lat="50.43267" lon="3.55056">
        <ele>24</ele>
        <time>2022-03-24T16:16:10.000Z</time>
      </trkpt>
      <trkpt lat="50.43272" lon="3.55061">
        <ele>24</ele>
        <time>2022-03-24T16:16:11.971Z</time>
      </trkpt>
      <trkpt lat="50.43278" lon="3.55067">
        <ele>24</ele>
        <time>2022-03-24T16:16:14.000Z</time>
      </trkpt>
      <trkpt lat="50.43283" lon="3.55072">
        <ele>24</ele>
        <time>2022-03-24T16:16:16.000Z</time>
      </trkpt>
      <trkpt lat="50.43289" lon="3.55077">
        <ele>24</ele>
        <time>2022-03-24T16:16:18.175Z</time>
      </trkpt>
      <trkpt lat="50.43294" lon="3.55082">
        <ele>24</ele>
        <time>2022-03-24T16:16:19.774Z</time>
      </trkpt>
      <trkpt lat="50.433" lon="3.55092">
        <ele>24</ele>
        <time>2022-03-24T16:16:22.174Z</time>
      </trkpt>
      <trkpt lat="50.43305" lon="3.55096">
        <ele>24</ele>
        <time>2022-03-24T16:16:23.643Z</time>
      </trkpt>
      <trkpt lat="50.43311" lon="3.55103">
        <ele>24</ele>
        <time>2022-03-24T16:16:25.834Z</time>
      </trkpt>
      <trkpt lat="50.43317" lon="3.55111">
        <ele>24</ele>
        <time>2022-03-24T16:16:28.000Z</time>
      </trkpt>
      <trkpt lat="50.43321" lon="3.55116">
        <ele>24</ele>
        <time>2022-03-24T16:16:29.951Z</time>
      </trkpt>
      <trkpt lat="50.43329" lon="3.55125">
        <ele>24</ele>
        <time>2022-03-24T16:16:33.000Z</time>
      </trkpt>
      <trkpt lat="50.43335" lon="3.55131">
        <ele>24</ele>
        <time>2022-03-24T16:16:34.954Z</time>
      </trkpt>
      <trkpt lat="50.43339" lon="3.55136">
        <ele>24</ele>
        <time>2022-03-24T16:16:37.000Z</time>
      </trkpt>
      <trkpt lat="50.43344" lon="3.55142">
        <ele>24</ele>
        <time>2022-03-24T16:16:39.112Z</time>
      </trkpt>
      <trkpt lat="50.43348" lon="3.55148">
        <ele>24</ele>
        <time>2022-03-24T16:16:41.000Z</time>
      </trkpt>
      <trkpt lat="50.43353" lon="3.55154">
        <ele>24</ele>
        <time>2022-03-24T16:16:43.175Z</time>
      </trkpt>
      <trkpt lat="50.43356" lon="3.55158">
        <ele>24</ele>
        <time>2022-03-24T16:16:44.754Z</time>
      </trkpt>
      <trkpt lat="50.4336" lon="3.55162">
        <ele>24</ele>
        <time>2022-03-24T16:16:46.656Z</time>
      </trkpt>
      <trkpt lat="50.43366" lon="3.55168">
        <ele>23.8</ele>
        <time>2022-03-24T16:16:49.093Z</time>
      </trkpt>
      <trkpt lat="50.43371" lon="3.55171">
        <ele>23.5</ele>
        <time>2022-03-24T16:16:51.000Z</time>
      </trkpt>
      <trkpt lat="50.43377" lon="3.55181">
        <ele>23.2</ele>
        <time>2022-03-24T16:16:54.073Z</time>
      </trkpt>
      <trkpt lat="50.43381" lon="3.55188">
        <ele>23.1</ele>
        <time>2022-03-24T16:16:55.912Z</time>
      </trkpt>
      <trkpt lat="50.43386" lon="3.55193">
        <ele>23</ele>
        <time>2022-03-24T16:16:58.115Z</time>
      </trkpt>
      <trkpt lat="50.4339" lon="3.55199">
        <ele>23</ele>
        <time>2022-03-24T16:17:00.000Z</time>
      </trkpt>
      <trkpt lat="50.43395" lon="3.55204">
        <ele>23</ele>
        <time>2022-03-24T16:17:02.000Z</time>
      </trkpt>
      <trkpt lat="50.43403" lon="3.55213">
        <ele>23</ele>
        <time>2022-03-24T16:17:04.795Z</time>
      </trkpt>
      <trkpt lat="50.43407" lon="3.55217">
        <ele>23</ele>
        <time>2022-03-24T16:17:06.076Z</time>
      </trkpt>
      <trkpt lat="50.43416" lon="3.55225">
        <ele>23</ele>
        <time>2022-03-24T16:17:08.630Z</time>
      </trkpt>
      <trkpt lat="50.43423" lon="3.55231">
        <ele>23</ele>
        <time>2022-03-24T16:17:10.872Z</time>
      </trkpt>
      <trkpt lat="50.4343" lon="3.55239">
        <ele>23</ele>
        <time>2022-03-24T16:17:13.993Z</time>
      </trkpt>
      <trkpt lat="50.43437" lon="3.55246">
        <ele>23</ele>
        <time>2022-03-24T16:17:16.671Z</time>
      </trkpt>
      <trkpt lat="50.43443" lon="3.55255">
        <ele>22.8</ele>
        <time>2022-03-24T16:17:19.000Z</time>
      </trkpt>
      <trkpt lat="50.43448" lon="3.5526">
        <ele>22.7</ele>
        <time>2022-03-24T16:17:21.000Z</time>
      </trkpt>
      <trkpt lat="50.43455" lon="3.55265">
        <ele>22.7</ele>
        <time>2022-03-24T16:17:23.772Z</time>
      </trkpt>
      <trkpt lat="50.43461" lon="3.55272">
        <ele>22.7</ele>
        <time>2022-03-24T16:17:26.635Z</time>
      </trkpt>
      <trkpt lat="50.43466" lon="3.55278">
        <ele>22.8</ele>
        <time>2022-03-24T16:17:29.000Z</time>
      </trkpt>
      <trkpt lat="50.43471" lon="3.55283">
        <ele>23</ele>
        <time>2022-03-24T16:17:31.152Z</time>
      </trkpt>
      <trkpt lat="50.43478" lon="3.55292">
        <ele>23</ele>
        <time>2022-03-24T16:17:34.174Z</time>
      </trkpt>
      <trkpt lat="50.43483" lon="3.55298">
        <ele>23</ele>
        <time>2022-03-24T16:17:36.712Z</time>
      </trkpt>
      <trkpt lat="50.43487" lon="3.55305">
        <ele>23</ele>
        <time>2022-03-24T16:17:39.876Z</time>
      </trkpt>
      <trkpt lat="50.43493" lon="3.5531">
        <ele>23</ele>
        <time>2022-03-24T16:17:43.055Z</time>
      </trkpt>
      <trkpt lat="50.43498" lon="3.55314">
        <ele>23</ele>
        <time>2022-03-24T16:17:45.012Z</time>
      </trkpt>
      <trkpt lat="50.43503" lon="3.55317">
        <ele>23</ele>
        <time>2022-03-24T16:17:47.000Z</time>
      </trkpt>
      <trkpt lat="50.43507" lon="3.55321">
        <ele>23.1</ele>
        <time>2022-03-24T16:17:49.112Z</time>
      </trkpt>
      <trkpt lat="50.43511" lon="3.55325">
        <ele>23.3</ele>
        <time>2022-03-24T16:17:51.115Z</time>
      </trkpt>
      <trkpt lat="50.43517" lon="3.55332">
        <ele>23.6</ele>
        <time>2022-03-24T16:17:54.135Z</time>
      </trkpt>
      <trkpt lat="50.43521" lon="3.55337">
        <ele>23.8</ele>
        <time>2022-03-24T16:17:57.000Z</time>
      </trkpt>
      <trkpt lat="50.43526" lon="3.55344">
        <ele>23.9</ele>
        <time>2022-03-24T16:18:01.000Z</time>
      </trkpt>
      <trkpt lat="50.4353" lon="3.55349">
        <ele>24</ele>
        <time>2022-03-24T16:18:03.954Z</time>
      </trkpt>
      <trkpt lat="50.43533" lon="3.55353">
        <ele>24</ele>
        <time>2022-03-24T16:18:06.051Z</time>
      </trkpt>
      <trkpt lat="50.43537" lon="3.55358">
        <ele>24</ele>
        <time>2022-03-24T16:18:08.000Z</time>
      </trkpt>
      <trkpt lat="50.43541" lon="3.55363">
        <ele>24</ele>
        <time>2022-03-24T16:18:10.658Z</time>
      </trkpt>
      <trkpt lat="50.43545" lon="3.55369">
        <ele>24</ele>
        <time>2022-03-24T16:18:13.000Z</time>
      </trkpt>
      <trkpt lat="50.43549" lon="3.55373">
        <ele>24</ele>
        <time>2022-03-24T16:18:15.000Z</time>
      </trkpt>
      <trkpt lat="50.43555" lon="3.55375">
        <ele>24</ele>
        <time>2022-03-24T16:18:32.000Z</time>
      </trkpt>
      <trkpt lat="50.4356" lon="3.55379">
        <ele>24</ele>
        <time>2022-03-24T16:18:34.000Z</time>
      </trkpt>
      <trkpt lat="50.43565" lon="3.55383">
        <ele>24</ele>
        <time>2022-03-24T16:18:35.933Z</time>
      </trkpt>
      <trkpt lat="50.4357" lon="3.55387">
        <ele>24</ele>
        <time>2022-03-24T16:18:38.512Z</time>
      </trkpt>
      <trkpt lat="50.43576" lon="3.55388">
        <ele>24</ele>
        <time>2022-03-24T16:18:42.000Z</time>
      </trkpt>
      <trkpt lat="50.43578" lon="3.55379">
        <ele>24</ele>
        <time>2022-03-24T16:18:44.000Z</time>
      </trkpt>
      <trkpt lat="50.43581" lon="3.55371">
        <ele>24</ele>
        <time>2022-03-24T16:18:46.000Z</time>
      </trkpt>
      <trkpt lat="50.43585" lon="3.55361">
        <ele>24</ele>
        <time>2022-03-24T16:18:48.000Z</time>
      </trkpt>
      <trkpt lat="50.43589" lon="3.55352">
        <ele>24</ele>
        <time>2022-03-24T16:18:50.000Z</time>
      </trkpt>
      <trkpt lat="50.43593" lon="3.55341">
        <ele>24</ele>
        <time>2022-03-24T16:18:52.000Z</time>
      </trkpt>
      <trkpt lat="50.43596" lon="3.5533">
        <ele>24</ele>
        <time>2022-03-24T16:18:54.000Z</time>
      </trkpt>
      <trkpt lat="50.43599" lon="3.5532">
        <ele>24</ele>
        <time>2022-03-24T16:18:56.000Z</time>
      </trkpt>
      <trkpt lat="50.43603" lon="3.55309">
        <ele>24</ele>
        <time>2022-03-24T16:18:58.000Z</time>
      </trkpt>
      <trkpt lat="50.43607" lon="3.55298">
        <ele>24</ele>
        <time>2022-03-24T16:19:00.000Z</time>
      </trkpt>
      <trkpt lat="50.4361" lon="3.55287">
        <ele>24</ele>
        <time>2022-03-24T16:19:02.000Z</time>
      </trkpt>
      <trkpt lat="50.43614" lon="3.55276">
        <ele>24</ele>
        <time>2022-03-24T16:19:04.000Z</time>
      </trkpt>
      <trkpt lat="50.43618" lon="3.55265">
        <ele>24</ele>
        <time>2022-03-24T16:19:06.000Z</time>
      </trkpt>
      <trkpt lat="50.43622" lon="3.55254">
        <ele>24</ele>
        <time>2022-03-24T16:19:08.000Z</time>
      </trkpt>
      <trkpt lat="50.43626" lon="3.55247">
        <ele>24</ele>
        <time>2022-03-24T16:19:10.000Z</time>
      </trkpt>
      <trkpt lat="50.43633" lon="3.5524">
        <ele>24</ele>
        <time>2022-03-24T16:19:12.000Z</time>
      </trkpt>
      <trkpt lat="50.43641" lon="3.55238">
        <ele>24</ele>
        <time>2022-03-24T16:19:14.000Z</time>
      </trkpt>
      <trkpt lat="50.43648" lon="3.55239">
        <ele>24</ele>
        <time>2022-03-24T16:19:16.000Z</time>
      </trkpt>
      <trkpt lat="50.43655" lon="3.55244">
        <ele>24</ele>
        <time>2022-03-24T16:19:18.000Z</time>
      </trkpt>
      <trkpt lat="50.43662" lon="3.55249">
        <ele>24</ele>
        <time>2022-03-24T16:19:20.000Z</time>
      </trkpt>
      <trkpt lat="50.43669" lon="3.55254">
        <ele>24</ele>
        <time>2022-03-24T16:19:22.000Z</time>
      </trkpt>
      <trkpt lat="50.43676" lon="3.55258">
        <ele>24</ele>
        <time>2022-03-24T16:19:24.000Z</time>
      </trkpt>
      <trkpt lat="50.43683" lon="3.55262">
        <ele>24</ele>
        <time>2022-03-24T16:19:26.000Z</time>
      </trkpt>
      <trkpt lat="50.4369" lon="3.55264">
        <ele>24</ele>
        <time>2022-03-24T16:19:28.000Z</time>
      </trkpt>
      <trkpt lat="50.43697" lon="3.55266">
        <ele>24</ele>
        <time>2022-03-24T16:19:30.000Z</time>
      </trkpt>
      <trkpt lat="50.43705" lon="3.55268">
        <ele>24</ele>
        <time>2022-03-24T16:19:32.000Z</time>
      </trkpt>
      <trkpt lat="50.43712" lon="3.5527">
        <ele>24</ele>
        <time>2022-03-24T16:19:34.000Z</time>
      </trkpt>
      <trkpt lat="50.43718" lon="3.55272">
        <ele>24</ele>
        <time>2022-03-24T16:19:36.000Z</time>
      </trkpt>
      <trkpt lat="50.43725" lon="3.55271">
        <ele>24</ele>
        <time>2022-03-24T16:19:38.000Z</time>
      </trkpt>
      <trkpt lat="50.43728" lon="3.55262">
        <ele>24</ele>
        <time>2022-03-24T16:19:40.000Z</time>
      </trkpt>
      <trkpt lat="50.43727" lon="3.55254">
        <ele>24</ele>
        <time>2022-03-24T16:19:42.000Z</time>
      </trkpt>
      <trkpt lat="50.43727" lon="3.55245">
        <ele>23.8</ele>
        <time>2022-03-24T16:19:45.000Z</time>
      </trkpt>
      <trkpt lat="50.43732" lon="3.55239">
        <ele>23.6</ele>
        <time>2022-03-24T16:19:48.000Z</time>
      </trkpt>
      <trkpt lat="50.43736" lon="3.55232">
        <ele>23.4</ele>
        <time>2022-03-24T16:19:51.374Z</time>
      </trkpt>
      <trkpt lat="50.43737" lon="3.55223">
        <ele>23</ele>
        <time>2022-03-24T16:19:54.016Z</time>
      </trkpt>
      <trkpt lat="50.4374" lon="3.55216">
        <ele>23</ele>
        <time>2022-03-24T16:19:56.000Z</time>
      </trkpt>
      <trkpt lat="50.43742" lon="3.55206">
        <ele>23</ele>
        <time>2022-03-24T16:19:59.132Z</time>
      </trkpt>
      <trkpt lat="50.43746" lon="3.55196">
        <ele>23</ele>
        <time>2022-03-24T16:20:01.994Z</time>
      </trkpt>
      <trkpt lat="50.43749" lon="3.55184">
        <ele>23</ele>
        <time>2022-03-24T16:20:05.607Z</time>
      </trkpt>
      <trkpt lat="50.43752" lon="3.55176">
        <ele>23</ele>
        <time>2022-03-24T16:20:08.000Z</time>
      </trkpt>
      <trkpt lat="50.43754" lon="3.55168">
        <ele>23</ele>
        <time>2022-03-24T16:20:10.000Z</time>
      </trkpt>
      <trkpt lat="50.43756" lon="3.55161">
        <ele>23</ele>
        <time>2022-03-24T16:20:12.000Z</time>
      </trkpt>
      <trkpt lat="50.4376" lon="3.5515">
        <ele>23</ele>
        <time>2022-03-24T16:20:14.673Z</time>
      </trkpt>
      <trkpt lat="50.43763" lon="3.55141">
        <ele>23</ele>
        <time>2022-03-24T16:20:17.000Z</time>
      </trkpt>
      <trkpt lat="50.43766" lon="3.55133">
        <ele>23</ele>
        <time>2022-03-24T16:20:19.033Z</time>
      </trkpt>
      <trkpt lat="50.43769" lon="3.55125">
        <ele>23</ele>
        <time>2022-03-24T16:20:20.934Z</time>
      </trkpt>
      <trkpt lat="50.43772" lon="3.55115">
        <ele>23</ele>
        <time>2022-03-24T16:20:23.000Z</time>
      </trkpt>
      <trkpt lat="50.43775" lon="3.55105">
        <ele>23</ele>
        <time>2022-03-24T16:20:25.071Z</time>
      </trkpt>
      <trkpt lat="50.43778" lon="3.55098">
        <ele>23</ele>
        <time>2022-03-24T16:20:26.272Z</time>
      </trkpt>
      <trkpt lat="50.43782" lon="3.55088">
        <ele>23</ele>
        <time>2022-03-24T16:20:28.333Z</time>
      </trkpt>
      <trkpt lat="50.43786" lon="3.55078">
        <ele>23.1</ele>
        <time>2022-03-24T16:20:30.853Z</time>
      </trkpt>
      <trkpt lat="50.43789" lon="3.55069">
        <ele>23.2</ele>
        <time>2022-03-24T16:20:32.716Z</time>
      </trkpt>
      <trkpt lat="50.43791" lon="3.55062">
        <ele>23.4</ele>
        <time>2022-03-24T16:20:34.000Z</time>
      </trkpt>
      <trkpt lat="50.43795" lon="3.55052">
        <ele>23.7</ele>
        <time>2022-03-24T16:20:36.000Z</time>
      </trkpt>
      <trkpt lat="50.43798" lon="3.55042">
        <ele>23.9</ele>
        <time>2022-03-24T16:20:38.000Z</time>
      </trkpt>
      <trkpt lat="50.43802" lon="3.55027">
        <ele>24</ele>
        <time>2022-03-24T16:20:40.751Z</time>
      </trkpt>
      <trkpt lat="50.43806" lon="3.55017">
        <ele>24</ele>
        <time>2022-03-24T16:20:42.673Z</time>
      </trkpt>
      <trkpt lat="50.43808" lon="3.55011">
        <ele>24</ele>
        <time>2022-03-24T16:20:43.912Z</time>
      </trkpt>
      <trkpt lat="50.43812" lon="3.55002">
        <ele>24</ele>
        <time>2022-03-24T16:20:46.096Z</time>
      </trkpt>
      <trkpt lat="50.43815" lon="3.54993">
        <ele>24</ele>
        <time>2022-03-24T16:20:48.000Z</time>
      </trkpt>
      <trkpt lat="50.43818" lon="3.54984">
        <ele>24</ele>
        <time>2022-03-24T16:20:50.000Z</time>
      </trkpt>
      <trkpt lat="50.43822" lon="3.54974">
        <ele>24</ele>
        <time>2022-03-24T16:20:52.000Z</time>
      </trkpt>
      <trkpt lat="50.43825" lon="3.54964">
        <ele>24</ele>
        <time>2022-03-24T16:20:54.113Z</time>
      </trkpt>
      <trkpt lat="50.43829" lon="3.54952">
        <ele>24</ele>
        <time>2022-03-24T16:20:56.838Z</time>
      </trkpt>
      <trkpt lat="50.43834" lon="3.54941">
        <ele>24</ele>
        <time>2022-03-24T16:20:59.156Z</time>
      </trkpt>
      <trkpt lat="50.4384" lon="3.54926">
        <ele>24</ele>
        <time>2022-03-24T16:21:02.000Z</time>
      </trkpt>
      <trkpt lat="50.43843" lon="3.54917">
        <ele>24</ele>
        <time>2022-03-24T16:21:04.000Z</time>
      </trkpt>
      <trkpt lat="50.43847" lon="3.54907">
        <ele>24</ele>
        <time>2022-03-24T16:21:06.000Z</time>
      </trkpt>
      <trkpt lat="50.4385" lon="3.54896">
        <ele>24</ele>
        <time>2022-03-24T16:21:08.000Z</time>
      </trkpt>
      <trkpt lat="50.43853" lon="3.54885">
        <ele>24</ele>
        <time>2022-03-24T16:21:09.952Z</time>
      </trkpt>
      <trkpt lat="50.43856" lon="3.54874">
        <ele>24</ele>
        <time>2022-03-24T16:21:12.000Z</time>
      </trkpt>
      <trkpt lat="50.4386" lon="3.54863">
        <ele>24</ele>
        <time>2022-03-24T16:21:14.000Z</time>
      </trkpt>
      <trkpt lat="50.43864" lon="3.54852">
        <ele>24</ele>
        <time>2022-03-24T16:21:16.053Z</time>
      </trkpt>
      <trkpt lat="50.43868" lon="3.54841">
        <ele>24</ele>
        <time>2022-03-24T16:21:18.000Z</time>
      </trkpt>
      <trkpt lat="50.43872" lon="3.5483">
        <ele>24</ele>
        <time>2022-03-24T16:21:20.292Z</time>
      </trkpt>
      <trkpt lat="50.43877" lon="3.54815">
        <ele>24</ele>
        <time>2022-03-24T16:21:22.994Z</time>
      </trkpt>
      <trkpt lat="50.43882" lon="3.54806">
        <ele>24</ele>
        <time>2022-03-24T16:21:25.000Z</time>
      </trkpt>
      <trkpt lat="50.43885" lon="3.54797">
        <ele>24.3</ele>
        <time>2022-03-24T16:21:27.000Z</time>
      </trkpt>
      <trkpt lat="50.43888" lon="3.54787">
        <ele>24.7</ele>
        <time>2022-03-24T16:21:29.000Z</time>
      </trkpt>
      <trkpt lat="50.43891" lon="3.54778">
        <ele>25</ele>
        <time>2022-03-24T16:21:30.893Z</time>
      </trkpt>
      <trkpt lat="50.43894" lon="3.54767">
        <ele>25</ele>
        <time>2022-03-24T16:21:33.000Z</time>
      </trkpt>
      <trkpt lat="50.43899" lon="3.54751">
        <ele>25</ele>
        <time>2022-03-24T16:21:36.074Z</time>
      </trkpt>
      <trkpt lat="50.43902" lon="3.54742">
        <ele>25</ele>
        <time>2022-03-24T16:21:38.000Z</time>
      </trkpt>
      <trkpt lat="50.43904" lon="3.54732">
        <ele>25</ele>
        <time>2022-03-24T16:21:40.000Z</time>
      </trkpt>
      <trkpt lat="50.43907" lon="3.54723">
        <ele>25</ele>
        <time>2022-03-24T16:21:42.013Z</time>
      </trkpt>
      <trkpt lat="50.43909" lon="3.54714">
        <ele>25</ele>
        <time>2022-03-24T16:21:44.000Z</time>
      </trkpt>
      <trkpt lat="50.43911" lon="3.54704">
        <ele>25</ele>
        <time>2022-03-24T16:21:46.000Z</time>
      </trkpt>
      <trkpt lat="50.43914" lon="3.54696">
        <ele>25</ele>
        <time>2022-03-24T16:21:48.000Z</time>
      </trkpt>
      <trkpt lat="50.43918" lon="3.54687">
        <ele>25.3</ele>
        <time>2022-03-24T16:21:50.000Z</time>
      </trkpt>
      <trkpt lat="50.43922" lon="3.54679">
        <ele>25.6</ele>
        <time>2022-03-24T16:21:52.000Z</time>
      </trkpt>
      <trkpt lat="50.43926" lon="3.54671">
        <ele>25.8</ele>
        <time>2022-03-24T16:21:54.016Z</time>
      </trkpt>
      <trkpt lat="50.43929" lon="3.54661">
        <ele>26</ele>
        <time>2022-03-24T16:21:56.000Z</time>
      </trkpt>
      <trkpt lat="50.43932" lon="3.54651">
        <ele>26</ele>
        <time>2022-03-24T16:21:58.173Z</time>
      </trkpt>
      <trkpt lat="50.43936" lon="3.54638">
        <ele>26</ele>
        <time>2022-03-24T16:22:01.052Z</time>
      </trkpt>
      <trkpt lat="50.43939" lon="3.5463">
        <ele>26</ele>
        <time>2022-03-24T16:22:03.178Z</time>
      </trkpt>
      <trkpt lat="50.43942" lon="3.54619">
        <ele>26</ele>
        <time>2022-03-24T16:22:05.642Z</time>
      </trkpt>
      <trkpt lat="50.43946" lon="3.5461">
        <ele>26</ele>
        <time>2022-03-24T16:22:08.118Z</time>
      </trkpt>
      <trkpt lat="50.43949" lon="3.54602">
        <ele>26</ele>
        <time>2022-03-24T16:22:10.158Z</time>
      </trkpt>
      <trkpt lat="50.43952" lon="3.54589">
        <ele>26</ele>
        <time>2022-03-24T16:22:12.994Z</time>
      </trkpt>
      <trkpt lat="50.43954" lon="3.54582">
        <ele>26</ele>
        <time>2022-03-24T16:22:15.000Z</time>
      </trkpt>
      <trkpt lat="50.43958" lon="3.54574">
        <ele>26</ele>
        <time>2022-03-24T16:22:17.952Z</time>
      </trkpt>
      <trkpt lat="50.4396" lon="3.54566">
        <ele>26</ele>
        <time>2022-03-24T16:22:20.112Z</time>
      </trkpt>
      <trkpt lat="50.43962" lon="3.54559">
        <ele>26</ele>
        <time>2022-03-24T16:22:22.000Z</time>
      </trkpt>
      <trkpt lat="50.43964" lon="3.54553">
        <ele>26</ele>
        <time>2022-03-24T16:22:24.000Z</time>
      </trkpt>
      <trkpt lat="50.43966" lon="3.54547">
        <ele>26</ele>
        <time>2022-03-24T16:22:26.000Z</time>
      </trkpt>
      <trkpt lat="50.43969" lon="3.54538">
        <ele>26</ele>
        <time>2022-03-24T16:22:29.000Z</time>
      </trkpt>
      <trkpt lat="50.43972" lon="3.54531">
        <ele>26</ele>
        <time>2022-03-24T16:22:30.935Z</time>
      </trkpt>
      <trkpt lat="50.43975" lon="3.54523">
        <ele>26</ele>
        <time>2022-03-24T16:22:33.014Z</time>
      </trkpt>
      <trkpt lat="50.43977" lon="3.54514">
        <ele>26</ele>
        <time>2022-03-24T16:22:35.073Z</time>
      </trkpt>
      <trkpt lat="50.4398" lon="3.54502">
        <ele>26</ele>
        <time>2022-03-24T16:22:37.751Z</time>
      </trkpt>
      <trkpt lat="50.43983" lon="3.54495">
        <ele>26</ele>
        <time>2022-03-24T16:22:39.000Z</time>
      </trkpt>
      <trkpt lat="50.43987" lon="3.54485">
        <ele>26</ele>
        <time>2022-03-24T16:22:40.992Z</time>
      </trkpt>
      <trkpt lat="50.43989" lon="3.54478">
        <ele>26</ele>
        <time>2022-03-24T16:22:42.136Z</time>
      </trkpt>
      <trkpt lat="50.43993" lon="3.5447">
        <ele>25.9</ele>
        <time>2022-03-24T16:22:43.533Z</time>
      </trkpt>
      <trkpt lat="50.43995" lon="3.54464">
        <ele>25.8</ele>
        <time>2022-03-24T16:22:44.714Z</time>
      </trkpt>
      <trkpt lat="50.43998" lon="3.54455">
        <ele>25.4</ele>
        <time>2022-03-24T16:22:46.120Z</time>
      </trkpt>
      <trkpt lat="50.44" lon="3.54449">
        <ele>25.2</ele>
        <time>2022-03-24T16:22:47.171Z</time>
      </trkpt>
      <trkpt lat="50.44003" lon="3.5444">
        <ele>25</ele>
        <time>2022-03-24T16:22:48.675Z</time>
      </trkpt>
      <trkpt lat="50.44006" lon="3.54432">
        <ele>25</ele>
        <time>2022-03-24T16:22:50.000Z</time>
      </trkpt>
      <trkpt lat="50.44008" lon="3.54425">
        <ele>25</ele>
        <time>2022-03-24T16:22:51.000Z</time>
      </trkpt>
      <trkpt lat="50.44013" lon="3.54412">
        <ele>25</ele>
        <time>2022-03-24T16:22:53.412Z</time>
      </trkpt>
      <trkpt lat="50.44018" lon="3.54398">
        <ele>25</ele>
        <time>2022-03-24T16:22:56.000Z</time>
      </trkpt>
      <trkpt lat="50.44022" lon="3.54387">
        <ele>25</ele>
        <time>2022-03-24T16:22:58.000Z</time>
      </trkpt>
      <trkpt lat="50.44026" lon="3.54376">
        <ele>25</ele>
        <time>2022-03-24T16:23:00.053Z</time>
      </trkpt>
      <trkpt lat="50.4403" lon="3.54362">
        <ele>24.9</ele>
        <time>2022-03-24T16:23:02.295Z</time>
      </trkpt>
      <trkpt lat="50.44033" lon="3.54353">
        <ele>24.8</ele>
        <time>2022-03-24T16:23:03.754Z</time>
      </trkpt>
      <trkpt lat="50.44036" lon="3.54346">
        <ele>24.7</ele>
        <time>2022-03-24T16:23:04.873Z</time>
      </trkpt>
      <trkpt lat="50.44038" lon="3.54339">
        <ele>24.6</ele>
        <time>2022-03-24T16:23:06.000Z</time>
      </trkpt>
      <trkpt lat="50.44043" lon="3.54328">
        <ele>24.5</ele>
        <time>2022-03-24T16:23:08.000Z</time>
      </trkpt>
      <trkpt lat="50.44046" lon="3.54317">
        <ele>24.3</ele>
        <time>2022-03-24T16:23:10.000Z</time>
      </trkpt>
      <trkpt lat="50.44049" lon="3.54311">
        <ele>24.2</ele>
        <time>2022-03-24T16:23:11.000Z</time>
      </trkpt>
      <trkpt lat="50.44051" lon="3.54301">
        <ele>24.2</ele>
        <time>2022-03-24T16:23:13.000Z</time>
      </trkpt>
      <trkpt lat="50.44055" lon="3.54289">
        <ele>24</ele>
        <time>2022-03-24T16:23:15.000Z</time>
      </trkpt>
      <trkpt lat="50.44058" lon="3.54279">
        <ele>24</ele>
        <time>2022-03-24T16:23:17.000Z</time>
      </trkpt>
      <trkpt lat="50.44062" lon="3.54266">
        <ele>24</ele>
        <time>2022-03-24T16:23:19.000Z</time>
      </trkpt>
      <trkpt lat="50.44066" lon="3.54255">
        <ele>24</ele>
        <time>2022-03-24T16:23:21.000Z</time>
      </trkpt>
      <trkpt lat="50.4407" lon="3.54245">
        <ele>24</ele>
        <time>2022-03-24T16:23:23.000Z</time>
      </trkpt>
      <trkpt lat="50.44074" lon="3.54234">
        <ele>24</ele>
        <time>2022-03-24T16:23:25.000Z</time>
      </trkpt>
      <trkpt lat="50.44077" lon="3.54228">
        <ele>24</ele>
        <time>2022-03-24T16:23:26.000Z</time>
      </trkpt>
      <trkpt lat="50.44079" lon="3.54221">
        <ele>24</ele>
        <time>2022-03-24T16:23:27.000Z</time>
      </trkpt>
      <trkpt lat="50.44083" lon="3.5421">
        <ele>24</ele>
        <time>2022-03-24T16:23:29.000Z</time>
      </trkpt>
      <trkpt lat="50.44087" lon="3.54198">
        <ele>24</ele>
        <time>2022-03-24T16:23:31.000Z</time>
      </trkpt>
      <trkpt lat="50.44092" lon="3.54187">
        <ele>24</ele>
        <time>2022-03-24T16:23:33.000Z</time>
      </trkpt>
      <trkpt lat="50.44096" lon="3.54174">
        <ele>24</ele>
        <time>2022-03-24T16:23:35.000Z</time>
      </trkpt>
      <trkpt lat="50.44098" lon="3.54163">
        <ele>24</ele>
        <time>2022-03-24T16:23:37.000Z</time>
      </trkpt>
      <trkpt lat="50.44102" lon="3.54152">
        <ele>24</ele>
        <time>2022-03-24T16:23:39.000Z</time>
      </trkpt>
      <trkpt lat="50.44105" lon="3.54142">
        <ele>24</ele>
        <time>2022-03-24T16:23:41.000Z</time>
      </trkpt>
      <trkpt lat="50.44109" lon="3.54132">
        <ele>24.2</ele>
        <time>2022-03-24T16:23:43.000Z</time>
      </trkpt>
      <trkpt lat="50.44112" lon="3.54125">
        <ele>24.5</ele>
        <time>2022-03-24T16:23:45.000Z</time>
      </trkpt>
      <trkpt lat="50.44115" lon="3.54117">
        <ele>24.7</ele>
        <time>2022-03-24T16:23:47.000Z</time>
      </trkpt>
      <trkpt lat="50.44117" lon="3.5411">
        <ele>24.8</ele>
        <time>2022-03-24T16:23:48.973Z</time>
      </trkpt>
      <trkpt lat="50.44121" lon="3.54101">
        <ele>24.6</ele>
        <time>2022-03-24T16:23:51.697Z</time>
      </trkpt>
      <trkpt lat="50.44123" lon="3.54094">
        <ele>24.6</ele>
        <time>2022-03-24T16:23:54.000Z</time>
      </trkpt>
      <trkpt lat="50.44126" lon="3.54087">
        <ele>24.5</ele>
        <time>2022-03-24T16:23:56.934Z</time>
      </trkpt>
      <trkpt lat="50.44129" lon="3.54078">
        <ele>24.4</ele>
        <time>2022-03-24T16:24:00.074Z</time>
      </trkpt>
      <trkpt lat="50.44132" lon="3.54069">
        <ele>24.2</ele>
        <time>2022-03-24T16:24:02.641Z</time>
      </trkpt>
      <trkpt lat="50.44134" lon="3.54061">
        <ele>24.2</ele>
        <time>2022-03-24T16:24:05.014Z</time>
      </trkpt>
      <trkpt lat="50.44138" lon="3.5405">
        <ele>24</ele>
        <time>2022-03-24T16:24:07.813Z</time>
      </trkpt>
      <trkpt lat="50.44141" lon="3.54042">
        <ele>24</ele>
        <time>2022-03-24T16:24:10.000Z</time>
      </trkpt>
      <trkpt lat="50.44143" lon="3.54034">
        <ele>24</ele>
        <time>2022-03-24T16:24:12.000Z</time>
      </trkpt>
      <trkpt lat="50.44148" lon="3.54021">
        <ele>24</ele>
        <time>2022-03-24T16:24:14.950Z</time>
      </trkpt>
      <trkpt lat="50.44152" lon="3.5401">
        <ele>24</ele>
        <time>2022-03-24T16:24:17.376Z</time>
      </trkpt>
      <trkpt lat="50.44154" lon="3.54003">
        <ele>24</ele>
        <time>2022-03-24T16:24:18.915Z</time>
      </trkpt>
      <trkpt lat="50.44157" lon="3.53995">
        <ele>24</ele>
        <time>2022-03-24T16:24:20.995Z</time>
      </trkpt>
      <trkpt lat="50.44161" lon="3.53986">
        <ele>24</ele>
        <time>2022-03-24T16:24:23.000Z</time>
      </trkpt>
      <trkpt lat="50.44164" lon="3.53974">
        <ele>24</ele>
        <time>2022-03-24T16:24:25.714Z</time>
      </trkpt>
      <trkpt lat="50.44167" lon="3.53964">
        <ele>24</ele>
        <time>2022-03-24T16:24:28.036Z</time>
      </trkpt>
      <trkpt lat="50.44171" lon="3.53956">
        <ele>24</ele>
        <time>2022-03-24T16:24:30.000Z</time>
      </trkpt>
      <trkpt lat="50.44174" lon="3.53948">
        <ele>24</ele>
        <time>2022-03-24T16:24:32.000Z</time>
      </trkpt>
      <trkpt lat="50.44179" lon="3.53934">
        <ele>24</ele>
        <time>2022-03-24T16:24:35.155Z</time>
      </trkpt>
      <trkpt lat="50.44182" lon="3.53926">
        <ele>24</ele>
        <time>2022-03-24T16:24:36.871Z</time>
      </trkpt>
      <trkpt lat="50.44185" lon="3.53916">
        <ele>24</ele>
        <time>2022-03-24T16:24:38.976Z</time>
      </trkpt>
      <trkpt lat="50.44188" lon="3.53907">
        <ele>24</ele>
        <time>2022-03-24T16:24:41.000Z</time>
      </trkpt>
      <trkpt lat="50.44192" lon="3.53897">
        <ele>24</ele>
        <time>2022-03-24T16:24:43.000Z</time>
      </trkpt>
      <trkpt lat="50.44195" lon="3.53888">
        <ele>24</ele>
        <time>2022-03-24T16:24:45.034Z</time>
      </trkpt>
      <trkpt lat="50.44202" lon="3.53873">
        <ele>24</ele>
        <time>2022-03-24T16:24:48.134Z</time>
      </trkpt>
      <trkpt lat="50.44205" lon="3.53865">
        <ele>24</ele>
        <time>2022-03-24T16:24:49.695Z</time>
      </trkpt>
      <trkpt lat="50.44207" lon="3.53858">
        <ele>24</ele>
        <time>2022-03-24T16:24:51.156Z</time>
      </trkpt>
      <trkpt lat="50.44211" lon="3.53845">
        <ele>24</ele>
        <time>2022-03-24T16:24:53.815Z</time>
      </trkpt>
      <trkpt lat="50.44216" lon="3.53833">
        <ele>24</ele>
        <time>2022-03-24T16:24:56.652Z</time>
      </trkpt>
      <trkpt lat="50.44219" lon="3.53824">
        <ele>24</ele>
        <time>2022-03-24T16:24:58.734Z</time>
      </trkpt>
      <trkpt lat="50.44222" lon="3.53814">
        <ele>24</ele>
        <time>2022-03-24T16:25:00.975Z</time>
      </trkpt>
      <trkpt lat="50.44226" lon="3.53802">
        <ele>24</ele>
        <time>2022-03-24T16:25:03.892Z</time>
      </trkpt>
      <trkpt lat="50.44229" lon="3.53795">
        <ele>24</ele>
        <time>2022-03-24T16:25:05.932Z</time>
      </trkpt>
      <trkpt lat="50.44231" lon="3.53786">
        <ele>24</ele>
        <time>2022-03-24T16:25:08.158Z</time>
      </trkpt>
      <trkpt lat="50.44235" lon="3.53776">
        <ele>24</ele>
        <time>2022-03-24T16:25:10.771Z</time>
      </trkpt>
      <trkpt lat="50.44239" lon="3.53767">
        <ele>24</ele>
        <time>2022-03-24T16:25:13.000Z</time>
      </trkpt>
      <trkpt lat="50.44241" lon="3.53759">
        <ele>24</ele>
        <time>2022-03-24T16:25:15.156Z</time>
      </trkpt>
      <trkpt lat="50.44244" lon="3.53753">
        <ele>24</ele>
        <time>2022-03-24T16:25:16.773Z</time>
      </trkpt>
      <trkpt lat="50.44248" lon="3.5374">
        <ele>24</ele>
        <time>2022-03-24T16:25:19.995Z</time>
      </trkpt>
      <trkpt lat="50.4425" lon="3.53733">
        <ele>24</ele>
        <time>2022-03-24T16:25:21.454Z</time>
      </trkpt>
      <trkpt lat="50.44253" lon="3.53722">
        <ele>24</ele>
        <time>2022-03-24T16:25:23.497Z</time>
      </trkpt>
      <trkpt lat="50.44258" lon="3.5371">
        <ele>24</ele>
        <time>2022-03-24T16:25:26.000Z</time>
      </trkpt>
      <trkpt lat="50.44262" lon="3.53697">
        <ele>24</ele>
        <time>2022-03-24T16:25:28.793Z</time>
      </trkpt>
      <trkpt lat="50.44267" lon="3.53685">
        <ele>24</ele>
        <time>2022-03-24T16:25:31.000Z</time>
      </trkpt>
      <trkpt lat="50.44271" lon="3.53675">
        <ele>24</ele>
        <time>2022-03-24T16:25:33.000Z</time>
      </trkpt>
      <trkpt lat="50.44274" lon="3.53665">
        <ele>24</ele>
        <time>2022-03-24T16:25:34.954Z</time>
      </trkpt>
      <trkpt lat="50.44278" lon="3.53654">
        <ele>24</ele>
        <time>2022-03-24T16:25:36.992Z</time>
      </trkpt>
      <trkpt lat="50.4428" lon="3.53646">
        <ele>24</ele>
        <time>2022-03-24T16:25:38.375Z</time>
      </trkpt>
      <trkpt lat="50.44282" lon="3.53639">
        <ele>24</ele>
        <time>2022-03-24T16:25:39.773Z</time>
      </trkpt>
      <trkpt lat="50.44285" lon="3.53629">
        <ele>24.4</ele>
        <time>2022-03-24T16:25:42.000Z</time>
      </trkpt>
      <trkpt lat="50.44288" lon="3.5362">
        <ele>24.7</ele>
        <time>2022-03-24T16:25:44.096Z</time>
      </trkpt>
      <trkpt lat="50.44292" lon="3.53612">
        <ele>25</ele>
        <time>2022-03-24T16:25:46.154Z</time>
      </trkpt>
      <trkpt lat="50.44295" lon="3.53603">
        <ele>25</ele>
        <time>2022-03-24T16:25:48.000Z</time>
      </trkpt>
      <trkpt lat="50.44298" lon="3.53595">
        <ele>25</ele>
        <time>2022-03-24T16:25:50.077Z</time>
      </trkpt>
      <trkpt lat="50.44301" lon="3.53587">
        <ele>25</ele>
        <time>2022-03-24T16:25:52.000Z</time>
      </trkpt>
      <trkpt lat="50.44304" lon="3.53578">
        <ele>25.2</ele>
        <time>2022-03-24T16:25:54.000Z</time>
      </trkpt>
      <trkpt lat="50.44307" lon="3.5357">
        <ele>25.5</ele>
        <time>2022-03-24T16:25:56.000Z</time>
      </trkpt>
      <trkpt lat="50.44309" lon="3.5356">
        <ele>25.8</ele>
        <time>2022-03-24T16:25:58.000Z</time>
      </trkpt>
      <trkpt lat="50.44313" lon="3.53551">
        <ele>26</ele>
        <time>2022-03-24T16:26:00.000Z</time>
      </trkpt>
      <trkpt lat="50.44316" lon="3.53541">
        <ele>26</ele>
        <time>2022-03-24T16:26:02.000Z</time>
      </trkpt>
      <trkpt lat="50.44318" lon="3.53531">
        <ele>26</ele>
        <time>2022-03-24T16:26:04.000Z</time>
      </trkpt>
      <trkpt lat="50.44321" lon="3.53525">
        <ele>26.1</ele>
        <time>2022-03-24T16:26:05.474Z</time>
      </trkpt>
      <trkpt lat="50.44325" lon="3.53514">
        <ele>26.5</ele>
        <time>2022-03-24T16:26:07.900Z</time>
      </trkpt>
      <trkpt lat="50.44329" lon="3.53504">
        <ele>26.9</ele>
        <time>2022-03-24T16:26:10.000Z</time>
      </trkpt>
      <trkpt lat="50.44331" lon="3.53493">
        <ele>27</ele>
        <time>2022-03-24T16:26:12.000Z</time>
      </trkpt>
      <trkpt lat="50.44335" lon="3.53482">
        <ele>27</ele>
        <time>2022-03-24T16:26:14.095Z</time>
      </trkpt>
      <trkpt lat="50.44338" lon="3.53474">
        <ele>27</ele>
        <time>2022-03-24T16:26:15.775Z</time>
      </trkpt>
      <trkpt lat="50.44342" lon="3.53464">
        <ele>27.2</ele>
        <time>2022-03-24T16:26:18.032Z</time>
      </trkpt>
      <trkpt lat="50.44346" lon="3.53455">
        <ele>27.3</ele>
        <time>2022-03-24T16:26:20.000Z</time>
      </trkpt>
      <trkpt lat="50.44348" lon="3.53445">
        <ele>27.5</ele>
        <time>2022-03-24T16:26:22.000Z</time>
      </trkpt>
      <trkpt lat="50.44351" lon="3.53437">
        <ele>27.5</ele>
        <time>2022-03-24T16:26:24.114Z</time>
      </trkpt>
      <trkpt lat="50.44356" lon="3.53426">
        <ele>27.7</ele>
        <time>2022-03-24T16:26:26.711Z</time>
      </trkpt>
      <trkpt lat="50.44359" lon="3.53415">
        <ele>28.1</ele>
        <time>2022-03-24T16:26:29.000Z</time>
      </trkpt>
      <trkpt lat="50.44363" lon="3.53405">
        <ele>28.4</ele>
        <time>2022-03-24T16:26:31.000Z</time>
      </trkpt>
      <trkpt lat="50.44366" lon="3.53397">
        <ele>28.6</ele>
        <time>2022-03-24T16:26:32.851Z</time>
      </trkpt>
      <trkpt lat="50.44371" lon="3.53386">
        <ele>28.7</ele>
        <time>2022-03-24T16:26:35.631Z</time>
      </trkpt>
      <trkpt lat="50.44374" lon="3.53376">
        <ele>28.8</ele>
        <time>2022-03-24T16:26:38.176Z</time>
      </trkpt>
      <trkpt lat="50.44377" lon="3.53369">
        <ele>28.8</ele>
        <time>2022-03-24T16:26:40.000Z</time>
      </trkpt>
      <trkpt lat="50.4438" lon="3.53362">
        <ele>29</ele>
        <time>2022-03-24T16:26:42.351Z</time>
      </trkpt>
      <trkpt lat="50.44383" lon="3.53351">
        <ele>29</ele>
        <time>2022-03-24T16:26:45.113Z</time>
      </trkpt>
      <trkpt lat="50.44386" lon="3.53345">
        <ele>29</ele>
        <time>2022-03-24T16:26:47.000Z</time>
      </trkpt>
      <trkpt lat="50.44388" lon="3.53337">
        <ele>29</ele>
        <time>2022-03-24T16:26:49.000Z</time>
      </trkpt>
      <trkpt lat="50.44391" lon="3.53325">
        <ele>29</ele>
        <time>2022-03-24T16:26:51.855Z</time>
      </trkpt>
      <trkpt lat="50.44396" lon="3.53317">
        <ele>29</ele>
        <time>2022-03-24T16:26:54.432Z</time>
      </trkpt>
      <trkpt lat="50.44398" lon="3.5331">
        <ele>29</ele>
        <time>2022-03-24T16:26:56.000Z</time>
      </trkpt>
      <trkpt lat="50.44401" lon="3.53304">
        <ele>29</ele>
        <time>2022-03-24T16:26:57.995Z</time>
      </trkpt>
      <trkpt lat="50.44404" lon="3.53295">
        <ele>29.2</ele>
        <time>2022-03-24T16:27:00.000Z</time>
      </trkpt>
      <trkpt lat="50.44406" lon="3.53288">
        <ele>29.2</ele>
        <time>2022-03-24T16:27:01.913Z</time>
      </trkpt>
      <trkpt lat="50.44409" lon="3.5328">
        <ele>29.3</ele>
        <time>2022-03-24T16:27:04.000Z</time>
      </trkpt>
      <trkpt lat="50.44411" lon="3.53272">
        <ele>29.4</ele>
        <time>2022-03-24T16:27:06.000Z</time>
      </trkpt>
      <trkpt lat="50.44413" lon="3.53264">
        <ele>29.6</ele>
        <time>2022-03-24T16:27:08.000Z</time>
      </trkpt>
      <trkpt lat="50.44416" lon="3.53257">
        <ele>29.8</ele>
        <time>2022-03-24T16:27:10.000Z</time>
      </trkpt>
      <trkpt lat="50.44418" lon="3.5325">
        <ele>30</ele>
        <time>2022-03-24T16:27:12.113Z</time>
      </trkpt>
      <trkpt lat="50.4442" lon="3.53243">
        <ele>29.9</ele>
        <time>2022-03-24T16:27:14.214Z</time>
      </trkpt>
      <trkpt lat="50.44423" lon="3.53234">
        <ele>29.9</ele>
        <time>2022-03-24T16:27:16.639Z</time>
      </trkpt>
      <trkpt lat="50.44425" lon="3.53227">
        <ele>29.9</ele>
        <time>2022-03-24T16:27:19.094Z</time>
      </trkpt>
      <trkpt lat="50.44429" lon="3.53216">
        <ele>30</ele>
        <time>2022-03-24T16:27:22.074Z</time>
      </trkpt>
      <trkpt lat="50.44431" lon="3.53209">
        <ele>30</ele>
        <time>2022-03-24T16:27:23.971Z</time>
      </trkpt>
      <trkpt lat="50.44433" lon="3.53202">
        <ele>30</ele>
        <time>2022-03-24T16:27:26.000Z</time>
      </trkpt>
      <trkpt lat="50.44436" lon="3.53195">
        <ele>30</ele>
        <time>2022-03-24T16:27:27.976Z</time>
      </trkpt>
      <trkpt lat="50.44439" lon="3.53186">
        <ele>30.1</ele>
        <time>2022-03-24T16:27:30.794Z</time>
      </trkpt>
      <trkpt lat="50.44442" lon="3.53176">
        <ele>30.1</ele>
        <time>2022-03-24T16:27:34.000Z</time>
      </trkpt>
      <trkpt lat="50.44445" lon="3.53169">
        <ele>30</ele>
        <time>2022-03-24T16:27:36.000Z</time>
      </trkpt>
      <trkpt lat="50.44448" lon="3.53161">
        <ele>30.2</ele>
        <time>2022-03-24T16:27:38.000Z</time>
      </trkpt>
      <trkpt lat="50.44451" lon="3.53152">
        <ele>30.4</ele>
        <time>2022-03-24T16:27:40.000Z</time>
      </trkpt>
      <trkpt lat="50.44454" lon="3.53144">
        <ele>30.5</ele>
        <time>2022-03-24T16:27:42.000Z</time>
      </trkpt>
      <trkpt lat="50.44458" lon="3.53133">
        <ele>30.6</ele>
        <time>2022-03-24T16:27:45.000Z</time>
      </trkpt>
      <trkpt lat="50.44461" lon="3.53123">
        <ele>30.7</ele>
        <time>2022-03-24T16:27:47.472Z</time>
      </trkpt>
      <trkpt lat="50.44463" lon="3.53116">
        <ele>30.9</ele>
        <time>2022-03-24T16:27:50.000Z</time>
      </trkpt>
      <trkpt lat="50.44466" lon="3.5311">
        <ele>31</ele>
        <time>2022-03-24T16:27:52.000Z</time>
      </trkpt>
      <trkpt lat="50.44468" lon="3.53103">
        <ele>31</ele>
        <time>2022-03-24T16:27:54.037Z</time>
      </trkpt>
      <trkpt lat="50.4447" lon="3.53096">
        <ele>31</ele>
        <time>2022-03-24T16:27:56.179Z</time>
      </trkpt>
      <trkpt lat="50.44474" lon="3.53086">
        <ele>31</ele>
        <time>2022-03-24T16:27:59.000Z</time>
      </trkpt>
      <trkpt lat="50.44477" lon="3.5308">
        <ele>31.1</ele>
        <time>2022-03-24T16:28:00.515Z</time>
      </trkpt>
      <trkpt lat="50.44479" lon="3.53074">
        <ele>31.3</ele>
        <time>2022-03-24T16:28:02.134Z</time>
      </trkpt>
      <trkpt lat="50.44482" lon="3.53068">
        <ele>31.6</ele>
        <time>2022-03-24T16:28:03.972Z</time>
      </trkpt>
      <trkpt lat="50.44484" lon="3.53061">
        <ele>31.8</ele>
        <time>2022-03-24T16:28:05.931Z</time>
      </trkpt>
      <trkpt lat="50.44486" lon="3.53054">
        <ele>32.1</ele>
        <time>2022-03-24T16:28:08.334Z</time>
      </trkpt>
      <trkpt lat="50.44489" lon="3.53047">
        <ele>32.3</ele>
        <time>2022-03-24T16:28:10.423Z</time>
      </trkpt>
      <trkpt lat="50.44491" lon="3.5304">
        <ele>32.6</ele>
        <time>2022-03-24T16:28:12.645Z</time>
      </trkpt>
      <trkpt lat="50.44493" lon="3.53031">
        <ele>32.9</ele>
        <time>2022-03-24T16:28:15.000Z</time>
      </trkpt>
      <trkpt lat="50.44495" lon="3.53022">
        <ele>33.2</ele>
        <time>2022-03-24T16:28:18.000Z</time>
      </trkpt>
      <trkpt lat="50.44498" lon="3.53013">
        <ele>33.5</ele>
        <time>2022-03-24T16:28:21.015Z</time>
      </trkpt>
      <trkpt lat="50.44502" lon="3.53004">
        <ele>33.9</ele>
        <time>2022-03-24T16:28:24.000Z</time>
      </trkpt>
      <trkpt lat="50.44505" lon="3.52994">
        <ele>34</ele>
        <time>2022-03-24T16:28:27.074Z</time>
      </trkpt>
      <trkpt lat="50.44507" lon="3.52988">
        <ele>34</ele>
        <time>2022-03-24T16:28:30.000Z</time>
      </trkpt>
      <trkpt lat="50.44509" lon="3.52981">
        <ele>34</ele>
        <time>2022-03-24T16:28:31.998Z</time>
      </trkpt>
      <trkpt lat="50.44511" lon="3.52971">
        <ele>34</ele>
        <time>2022-03-24T16:28:34.000Z</time>
      </trkpt>
      <trkpt lat="50.44514" lon="3.52964">
        <ele>34.1</ele>
        <time>2022-03-24T16:28:35.628Z</time>
      </trkpt>
      <trkpt lat="50.44517" lon="3.52956">
        <ele>34.4</ele>
        <time>2022-03-24T16:28:38.000Z</time>
      </trkpt>
      <trkpt lat="50.4452" lon="3.5295">
        <ele>34.6</ele>
        <time>2022-03-24T16:28:40.000Z</time>
      </trkpt>
      <trkpt lat="50.44522" lon="3.52943">
        <ele>34.8</ele>
        <time>2022-03-24T16:28:42.000Z</time>
      </trkpt>
      <trkpt lat="50.44526" lon="3.52935">
        <ele>34.9</ele>
        <time>2022-03-24T16:28:44.000Z</time>
      </trkpt>
      <trkpt lat="50.44529" lon="3.52927">
        <ele>35</ele>
        <time>2022-03-24T16:28:45.933Z</time>
      </trkpt>
      <trkpt lat="50.44531" lon="3.5292">
        <ele>35</ele>
        <time>2022-03-24T16:28:48.093Z</time>
      </trkpt>
      <trkpt lat="50.44534" lon="3.52913">
        <ele>35</ele>
        <time>2022-03-24T16:28:50.000Z</time>
      </trkpt>
      <trkpt lat="50.44538" lon="3.52904">
        <ele>35</ele>
        <time>2022-03-24T16:28:52.793Z</time>
      </trkpt>
      <trkpt lat="50.4454" lon="3.52896">
        <ele>35</ele>
        <time>2022-03-24T16:28:55.034Z</time>
      </trkpt>
      <trkpt lat="50.44543" lon="3.5289">
        <ele>35</ele>
        <time>2022-03-24T16:28:57.095Z</time>
      </trkpt>
      <trkpt lat="50.44545" lon="3.52883">
        <ele>35.1</ele>
        <time>2022-03-24T16:28:59.000Z</time>
      </trkpt>
      <trkpt lat="50.44547" lon="3.52877">
        <ele>35.3</ele>
        <time>2022-03-24T16:29:01.000Z</time>
      </trkpt>
      <trkpt lat="50.4455" lon="3.5287">
        <ele>35.5</ele>
        <time>2022-03-24T16:29:03.000Z</time>
      </trkpt>
      <trkpt lat="50.44552" lon="3.52863">
        <ele>35.8</ele>
        <time>2022-03-24T16:29:04.872Z</time>
      </trkpt>
      <trkpt lat="50.44554" lon="3.52855">
        <ele>35.9</ele>
        <time>2022-03-24T16:29:07.000Z</time>
      </trkpt>
      <trkpt lat="50.44557" lon="3.52848">
        <ele>36</ele>
        <time>2022-03-24T16:29:09.000Z</time>
      </trkpt>
      <trkpt lat="50.44559" lon="3.52841">
        <ele>36</ele>
        <time>2022-03-24T16:29:11.000Z</time>
      </trkpt>
      <trkpt lat="50.44561" lon="3.52834">
        <ele>36</ele>
        <time>2022-03-24T16:29:13.000Z</time>
      </trkpt>
      <trkpt lat="50.44563" lon="3.52827">
        <ele>36.2</ele>
        <time>2022-03-24T16:29:15.000Z</time>
      </trkpt>
      <trkpt lat="50.44566" lon="3.5282">
        <ele>36.5</ele>
        <time>2022-03-24T16:29:17.000Z</time>
      </trkpt>
      <trkpt lat="50.44568" lon="3.52813">
        <ele>36.7</ele>
        <time>2022-03-24T16:29:19.000Z</time>
      </trkpt>
      <trkpt lat="50.44568" lon="3.52806">
        <ele>37</ele>
        <time>2022-03-24T16:29:21.000Z</time>
      </trkpt>
      <trkpt lat="50.44571" lon="3.52799">
        <ele>37</ele>
        <time>2022-03-24T16:29:24.000Z</time>
      </trkpt>
      <trkpt lat="50.44578" lon="3.52798">
        <ele>37</ele>
        <time>2022-03-24T16:29:27.000Z</time>
      </trkpt>
      <trkpt lat="50.44585" lon="3.52799">
        <ele>36.9</ele>
        <time>2022-03-24T16:29:29.000Z</time>
      </trkpt>
      <trkpt lat="50.44593" lon="3.52799">
        <ele>36.7</ele>
        <time>2022-03-24T16:29:31.000Z</time>
      </trkpt>
      <trkpt lat="50.44602" lon="3.52799">
        <ele>36.3</ele>
        <time>2022-03-24T16:29:33.000Z</time>
      </trkpt>
      <trkpt lat="50.4461" lon="3.52799">
        <ele>36</ele>
        <time>2022-03-24T16:29:34.000Z</time>
      </trkpt>
      <trkpt lat="50.44615" lon="3.52798">
        <ele>35.9</ele>
        <time>2022-03-24T16:29:35.000Z</time>
      </trkpt>
      <trkpt lat="50.4462" lon="3.52799">
        <ele>35.8</ele>
        <time>2022-03-24T16:29:36.000Z</time>
      </trkpt>
      <trkpt lat="50.44625" lon="3.52799">
        <ele>35.6</ele>
        <time>2022-03-24T16:29:37.000Z</time>
      </trkpt>
      <trkpt lat="50.4463" lon="3.52799">
        <ele>35.5</ele>
        <time>2022-03-24T16:29:38.000Z</time>
      </trkpt>
      <trkpt lat="50.44636" lon="3.52799">
        <ele>35.3</ele>
        <time>2022-03-24T16:29:39.000Z</time>
      </trkpt>
      <trkpt lat="50.44642" lon="3.52799">
        <ele>35.2</ele>
        <time>2022-03-24T16:29:40.000Z</time>
      </trkpt>
      <trkpt lat="50.44647" lon="3.528">
        <ele>35.1</ele>
        <time>2022-03-24T16:29:41.000Z</time>
      </trkpt>
      <trkpt lat="50.44653" lon="3.52801">
        <ele>35.1</ele>
        <time>2022-03-24T16:29:42.000Z</time>
      </trkpt>
      <trkpt lat="50.44658" lon="3.52802">
        <ele>35</ele>
        <time>2022-03-24T16:29:43.000Z</time>
      </trkpt>
      <trkpt lat="50.44664" lon="3.52803">
        <ele>35</ele>
        <time>2022-03-24T16:29:44.000Z</time>
      </trkpt>
      <trkpt lat="50.4467" lon="3.52802">
        <ele>34.9</ele>
        <time>2022-03-24T16:29:45.000Z</time>
      </trkpt>
      <trkpt lat="50.44675" lon="3.52802">
        <ele>34.7</ele>
        <time>2022-03-24T16:29:46.000Z</time>
      </trkpt>
      <trkpt lat="50.4468" lon="3.52801">
        <ele>34.5</ele>
        <time>2022-03-24T16:29:47.000Z</time>
      </trkpt>
      <trkpt lat="50.44686" lon="3.52799">
        <ele>34.3</ele>
        <time>2022-03-24T16:29:48.000Z</time>
      </trkpt>
      <trkpt lat="50.44691" lon="3.52799">
        <ele>34.1</ele>
        <time>2022-03-24T16:29:49.000Z</time>
      </trkpt>
      <trkpt lat="50.44697" lon="3.52797">
        <ele>34</ele>
        <time>2022-03-24T16:29:50.000Z</time>
      </trkpt>
      <trkpt lat="50.44702" lon="3.52797">
        <ele>33.9</ele>
        <time>2022-03-24T16:29:51.000Z</time>
      </trkpt>
      <trkpt lat="50.44708" lon="3.52796">
        <ele>33.8</ele>
        <time>2022-03-24T16:29:52.000Z</time>
      </trkpt>
      <trkpt lat="50.44714" lon="3.52795">
        <ele>33.7</ele>
        <time>2022-03-24T16:29:53.000Z</time>
      </trkpt>
      <trkpt lat="50.4472" lon="3.52794">
        <ele>33.6</ele>
        <time>2022-03-24T16:29:54.000Z</time>
      </trkpt>
      <trkpt lat="50.44726" lon="3.52793">
        <ele>33.3</ele>
        <time>2022-03-24T16:29:55.000Z</time>
      </trkpt>
      <trkpt lat="50.44733" lon="3.52791">
        <ele>32.9</ele>
        <time>2022-03-24T16:29:56.000Z</time>
      </trkpt>
      <trkpt lat="50.44738" lon="3.5279">
        <ele>32.6</ele>
        <time>2022-03-24T16:29:57.000Z</time>
      </trkpt>
      <trkpt lat="50.44744" lon="3.52788">
        <ele>32.3</ele>
        <time>2022-03-24T16:29:58.000Z</time>
      </trkpt>
      <trkpt lat="50.4475" lon="3.52786">
        <ele>32</ele>
        <time>2022-03-24T16:29:59.000Z</time>
      </trkpt>
      <trkpt lat="50.44756" lon="3.52783">
        <ele>31.8</ele>
        <time>2022-03-24T16:30:00.000Z</time>
      </trkpt>
      <trkpt lat="50.44762" lon="3.5278">
        <ele>31.6</ele>
        <time>2022-03-24T16:30:01.000Z</time>
      </trkpt>
      <trkpt lat="50.44768" lon="3.52777">
        <ele>31.4</ele>
        <time>2022-03-24T16:30:02.000Z</time>
      </trkpt>
      <trkpt lat="50.44774" lon="3.52774">
        <ele>31.3</ele>
        <time>2022-03-24T16:30:03.000Z</time>
      </trkpt>
      <trkpt lat="50.4478" lon="3.52771">
        <ele>31.2</ele>
        <time>2022-03-24T16:30:04.000Z</time>
      </trkpt>
      <trkpt lat="50.44786" lon="3.52768">
        <ele>31.2</ele>
        <time>2022-03-24T16:30:05.000Z</time>
      </trkpt>
      <trkpt lat="50.44792" lon="3.52764">
        <ele>31.2</ele>
        <time>2022-03-24T16:30:06.000Z</time>
      </trkpt>
      <trkpt lat="50.44797" lon="3.5276">
        <ele>31.2</ele>
        <time>2022-03-24T16:30:07.000Z</time>
      </trkpt>
      <trkpt lat="50.44803" lon="3.52756">
        <ele>31.1</ele>
        <time>2022-03-24T16:30:08.000Z</time>
      </trkpt>
      <trkpt lat="50.44816" lon="3.52749">
        <ele>31</ele>
        <time>2022-03-24T16:30:09.000Z</time>
      </trkpt>
      <trkpt lat="50.44814" lon="3.5275">
        <ele>31</ele>
        <time>2022-03-24T16:30:10.000Z</time>
      </trkpt>
      <trkpt lat="50.4482" lon="3.52746">
        <ele>30.9</ele>
        <time>2022-03-24T16:30:11.000Z</time>
      </trkpt>
      <trkpt lat="50.44825" lon="3.52741">
        <ele>30.7</ele>
        <time>2022-03-24T16:30:12.000Z</time>
      </trkpt>
      <trkpt lat="50.44831" lon="3.52738">
        <ele>30.6</ele>
        <time>2022-03-24T16:30:13.000Z</time>
      </trkpt>
      <trkpt lat="50.44837" lon="3.52734">
        <ele>30.4</ele>
        <time>2022-03-24T16:30:14.000Z</time>
      </trkpt>
      <trkpt lat="50.44843" lon="3.52731">
        <ele>30.2</ele>
        <time>2022-03-24T16:30:15.000Z</time>
      </trkpt>
      <trkpt lat="50.44849" lon="3.52726">
        <ele>30.1</ele>
        <time>2022-03-24T16:30:16.000Z</time>
      </trkpt>
      <trkpt lat="50.44855" lon="3.52722">
        <ele>30</ele>
        <time>2022-03-24T16:30:17.000Z</time>
      </trkpt>
      <trkpt lat="50.44862" lon="3.52718">
        <ele>29.9</ele>
        <time>2022-03-24T16:30:18.000Z</time>
      </trkpt>
      <trkpt lat="50.44871" lon="3.52712">
        <ele>29.8</ele>
        <time>2022-03-24T16:30:19.000Z</time>
      </trkpt>
      <trkpt lat="50.44877" lon="3.52707">
        <ele>29.8</ele>
        <time>2022-03-24T16:30:20.000Z</time>
      </trkpt>
      <trkpt lat="50.44884" lon="3.52702">
        <ele>29.9</ele>
        <time>2022-03-24T16:30:21.000Z</time>
      </trkpt>
      <trkpt lat="50.4489" lon="3.52698">
        <ele>30</ele>
        <time>2022-03-24T16:30:22.000Z</time>
      </trkpt>
      <trkpt lat="50.44897" lon="3.52692">
        <ele>30</ele>
        <time>2022-03-24T16:30:23.000Z</time>
      </trkpt>
      <trkpt lat="50.44902" lon="3.52688">
        <ele>30</ele>
        <time>2022-03-24T16:30:24.000Z</time>
      </trkpt>
      <trkpt lat="50.44908" lon="3.52685">
        <ele>30</ele>
        <time>2022-03-24T16:30:25.000Z</time>
      </trkpt>
      <trkpt lat="50.44913" lon="3.5268">
        <ele>30</ele>
      </trkpt>
      <trkpt lat="50.44919" lon="3.52678">
        <ele>30</ele>
        <time>2022-03-24T16:30:27.000Z</time>
      </trkpt>
      <trkpt lat="50.44924" lon="3.52674">
        <ele>30.1</ele>
        <time>2022-03-24T16:30:28.000Z</time>
      </trkpt>
      <trkpt lat="50.44928" lon="3.5267">
        <ele>30</ele>
        <time>2022-03-24T16:30:29.000Z</time>
      </trkpt>
      <trkpt lat="50.44933" lon="3.52667">
        <ele>30</ele>
        <time>2022-03-24T16:30:30.000Z</time>
      </trkpt>
      <trkpt lat="50.44939" lon="3.52663">
        <ele>30</ele>
        <time>2022-03-24T16:30:31.000Z</time>
      </trkpt>
      <trkpt lat="50.44944" lon="3.5266">
        <ele>30</ele>
        <time>2022-03-24T16:30:32.000Z</time>
      </trkpt>
      <trkpt lat="50.44948" lon="3.52656">
        <ele>30</ele>
        <time>2022-03-24T16:30:33.000Z</time>
      </trkpt>
      <trkpt lat="50.44953" lon="3.52652">
        <ele>29.8</ele>
        <time>2022-03-24T16:30:34.000Z</time>
      </trkpt>
      <trkpt lat="50.44958" lon="3.52649">
        <ele>29.7</ele>
        <time>2022-03-24T16:30:35.000Z</time>
      </trkpt>
      <trkpt lat="50.44962" lon="3.52645">
        <ele>29.5</ele>
        <time>2022-03-24T16:30:36.000Z</time>
      </trkpt>
      <trkpt lat="50.44966" lon="3.52643">
        <ele>29.3</ele>
      </trkpt>
      <trkpt lat="50.44967" lon="3.52642">
        <ele>29.3</ele>
        <time>2022-03-24T16:30:37.000Z</time>
      </trkpt>
    </trkseg>
  </trk>
</gpx>